<?xml version="1.0" encoding="UTF-8" standalone="no" ?>
<gpx xmlns="http://www.topografix.com/GPX/1/1" xmlns:xsi="http://www.w3.org/2001/XMLSchema-instance" xsi:schemaLocation="http://www.topografix.com/GPX/1/1 http://www.topografix.com/GPX/1/1/gpx.xsd" version="1.1" creator="VisuGPX - https://www.visugpx.com">
  <metadata>
    <name>Jour 15 - Le Chemin Sauvage</name>
  </metadata>
  <trk>
    <name><![CDATA[2026-05-16 16:30:58]]></name>
    <trkseg>
      <trkpt lat="44.73964" lon="1.8288">
        <ele>342.85</ele>
        <time>2026-05-16T05:15:33Z</time>
      </trkpt>
      <trkpt lat="44.73964" lon="1.8288">
        <ele>342.85</ele>
        <time>2026-05-16T05:15:34Z</time>
      </trkpt>
      <trkpt lat="44.73974" lon="1.82898">
        <ele>342.37</ele>
        <time>2026-05-16T05:15:50Z</time>
      </trkpt>
      <trkpt lat="44.73976" lon="1.82903">
        <ele>341.41</ele>
        <time>2026-05-16T05:15:53Z</time>
      </trkpt>
      <trkpt lat="44.73983" lon="1.82914">
        <ele>340.92</ele>
        <time>2026-05-16T05:16:01Z</time>
      </trkpt>
      <trkpt lat="44.73987" lon="1.82929">
        <ele>340.92</ele>
        <time>2026-05-16T05:16:12Z</time>
      </trkpt>
      <trkpt lat="44.73988" lon="1.82931">
        <ele>339.96</ele>
        <time>2026-05-16T05:16:13Z</time>
      </trkpt>
      <trkpt lat="44.73993" lon="1.82941">
        <ele>339.96</ele>
        <time>2026-05-16T05:16:20Z</time>
      </trkpt>
      <trkpt lat="44.73995" lon="1.82944">
        <ele>339.48</ele>
        <time>2026-05-16T05:16:21Z</time>
      </trkpt>
      <trkpt lat="44.73996" lon="1.82947">
        <ele>339.48</ele>
        <time>2026-05-16T05:16:22Z</time>
      </trkpt>
      <trkpt lat="44.73997" lon="1.8295">
        <ele>339.48</ele>
        <time>2026-05-16T05:16:23Z</time>
      </trkpt>
      <trkpt lat="44.73999" lon="1.82954">
        <ele>339.48</ele>
        <time>2026-05-16T05:16:24Z</time>
      </trkpt>
      <trkpt lat="44.74" lon="1.82957">
        <ele>339.48</ele>
        <time>2026-05-16T05:16:25Z</time>
      </trkpt>
      <trkpt lat="44.74002" lon="1.82965">
        <ele>339.48</ele>
        <time>2026-05-16T05:16:30Z</time>
      </trkpt>
      <trkpt lat="44.74003" lon="1.82966">
        <ele>339.48</ele>
        <time>2026-05-16T05:16:31Z</time>
      </trkpt>
      <trkpt lat="44.74004" lon="1.82968">
        <ele>339</ele>
        <time>2026-05-16T05:16:32Z</time>
      </trkpt>
      <trkpt lat="44.74004" lon="1.8297">
        <ele>338.52</ele>
        <time>2026-05-16T05:16:33Z</time>
      </trkpt>
      <trkpt lat="44.74005" lon="1.82972">
        <ele>338.04</ele>
        <time>2026-05-16T05:16:34Z</time>
      </trkpt>
      <trkpt lat="44.74005" lon="1.82975">
        <ele>338.04</ele>
        <time>2026-05-16T05:16:35Z</time>
      </trkpt>
      <trkpt lat="44.74005" lon="1.82977">
        <ele>338.04</ele>
        <time>2026-05-16T05:16:36Z</time>
      </trkpt>
      <trkpt lat="44.74006" lon="1.8298">
        <ele>338.04</ele>
        <time>2026-05-16T05:16:37Z</time>
      </trkpt>
      <trkpt lat="44.74012" lon="1.82996">
        <ele>337.56</ele>
        <time>2026-05-16T05:16:48Z</time>
      </trkpt>
      <trkpt lat="44.74018" lon="1.83012">
        <ele>338.52</ele>
        <time>2026-05-16T05:17:00Z</time>
      </trkpt>
      <trkpt lat="44.74017" lon="1.83011">
        <ele>339</ele>
        <time>2026-05-16T05:17:10Z</time>
      </trkpt>
      <trkpt lat="44.74018" lon="1.83011">
        <ele>339</ele>
        <time>2026-05-16T05:17:23Z</time>
      </trkpt>
      <trkpt lat="44.74024" lon="1.83008">
        <ele>339</ele>
        <time>2026-05-16T05:17:42Z</time>
      </trkpt>
      <trkpt lat="44.74017" lon="1.82995">
        <ele>337.08</ele>
        <time>2026-05-16T05:17:59Z</time>
      </trkpt>
      <trkpt lat="44.74018" lon="1.82998">
        <ele>338.52</ele>
        <time>2026-05-16T05:18:16Z</time>
      </trkpt>
      <trkpt lat="44.74017" lon="1.83006">
        <ele>338.52</ele>
        <time>2026-05-16T05:18:32Z</time>
      </trkpt>
      <trkpt lat="44.74018" lon="1.83011">
        <ele>338.52</ele>
        <time>2026-05-16T05:18:39Z</time>
      </trkpt>
      <trkpt lat="44.74029" lon="1.83046">
        <ele>338.52</ele>
        <time>2026-05-16T05:18:53Z</time>
      </trkpt>
      <trkpt lat="44.74038" lon="1.83061">
        <ele>338.52</ele>
        <time>2026-05-16T05:19:00Z</time>
      </trkpt>
      <trkpt lat="44.7404" lon="1.83066">
        <ele>338.52</ele>
        <time>2026-05-16T05:19:05Z</time>
      </trkpt>
      <trkpt lat="44.7404" lon="1.83067">
        <ele>338.52</ele>
        <time>2026-05-16T05:19:06Z</time>
      </trkpt>
      <trkpt lat="44.74041" lon="1.83069">
        <ele>338.52</ele>
        <time>2026-05-16T05:19:07Z</time>
      </trkpt>
      <trkpt lat="44.74043" lon="1.83072">
        <ele>337.56</ele>
        <time>2026-05-16T05:19:09Z</time>
      </trkpt>
      <trkpt lat="44.7406" lon="1.83097">
        <ele>336.6</ele>
        <time>2026-05-16T05:19:25Z</time>
      </trkpt>
      <trkpt lat="44.74061" lon="1.831">
        <ele>333.23</ele>
        <time>2026-05-16T05:19:27Z</time>
      </trkpt>
      <trkpt lat="44.74063" lon="1.83101">
        <ele>337.08</ele>
        <time>2026-05-16T05:19:28Z</time>
      </trkpt>
      <trkpt lat="44.74067" lon="1.83103">
        <ele>337.56</ele>
        <time>2026-05-16T05:19:30Z</time>
      </trkpt>
      <trkpt lat="44.74069" lon="1.83105">
        <ele>335.64</ele>
        <time>2026-05-16T05:19:32Z</time>
      </trkpt>
      <trkpt lat="44.74084" lon="1.83136">
        <ele>335.64</ele>
        <time>2026-05-16T05:19:50Z</time>
      </trkpt>
      <trkpt lat="44.74093" lon="1.83167">
        <ele>335.16</ele>
        <time>2026-05-16T05:20:06Z</time>
      </trkpt>
      <trkpt lat="44.74096" lon="1.83175">
        <ele>334.68</ele>
        <time>2026-05-16T05:20:13Z</time>
      </trkpt>
      <trkpt lat="44.74097" lon="1.83178">
        <ele>334.68</ele>
        <time>2026-05-16T05:20:15Z</time>
      </trkpt>
      <trkpt lat="44.74098" lon="1.8318">
        <ele>334.68</ele>
        <time>2026-05-16T05:20:16Z</time>
      </trkpt>
      <trkpt lat="44.74098" lon="1.83182">
        <ele>334.68</ele>
        <time>2026-05-16T05:20:17Z</time>
      </trkpt>
      <trkpt lat="44.74099" lon="1.83184">
        <ele>334.68</ele>
        <time>2026-05-16T05:20:18Z</time>
      </trkpt>
      <trkpt lat="44.74099" lon="1.83186">
        <ele>334.68</ele>
        <time>2026-05-16T05:20:19Z</time>
      </trkpt>
      <trkpt lat="44.741" lon="1.83189">
        <ele>334.68</ele>
        <time>2026-05-16T05:20:20Z</time>
      </trkpt>
      <trkpt lat="44.74101" lon="1.83191">
        <ele>334.68</ele>
        <time>2026-05-16T05:20:21Z</time>
      </trkpt>
      <trkpt lat="44.74102" lon="1.83194">
        <ele>334.2</ele>
        <time>2026-05-16T05:20:22Z</time>
      </trkpt>
      <trkpt lat="44.74103" lon="1.83196">
        <ele>334.2</ele>
        <time>2026-05-16T05:20:23Z</time>
      </trkpt>
      <trkpt lat="44.74104" lon="1.83198">
        <ele>334.2</ele>
        <time>2026-05-16T05:20:24Z</time>
      </trkpt>
      <trkpt lat="44.74104" lon="1.832">
        <ele>334.2</ele>
        <time>2026-05-16T05:20:25Z</time>
      </trkpt>
      <trkpt lat="44.74105" lon="1.83202">
        <ele>334.2</ele>
        <time>2026-05-16T05:20:26Z</time>
      </trkpt>
      <trkpt lat="44.74106" lon="1.83203">
        <ele>334.2</ele>
        <time>2026-05-16T05:20:27Z</time>
      </trkpt>
      <trkpt lat="44.74122" lon="1.83229">
        <ele>333.71</ele>
        <time>2026-05-16T05:20:43Z</time>
      </trkpt>
      <trkpt lat="44.74141" lon="1.83243">
        <ele>333.23</ele>
        <time>2026-05-16T05:20:58Z</time>
      </trkpt>
      <trkpt lat="44.7415" lon="1.83261">
        <ele>332.75</ele>
        <time>2026-05-16T05:21:11Z</time>
      </trkpt>
      <trkpt lat="44.7415" lon="1.83263">
        <ele>332.75</ele>
        <time>2026-05-16T05:21:12Z</time>
      </trkpt>
      <trkpt lat="44.74149" lon="1.83265">
        <ele>332.27</ele>
        <time>2026-05-16T05:21:13Z</time>
      </trkpt>
      <trkpt lat="44.74149" lon="1.83267">
        <ele>332.27</ele>
        <time>2026-05-16T05:21:14Z</time>
      </trkpt>
      <trkpt lat="44.7415" lon="1.83269">
        <ele>332.27</ele>
        <time>2026-05-16T05:21:15Z</time>
      </trkpt>
      <trkpt lat="44.7415" lon="1.83271">
        <ele>331.79</ele>
        <time>2026-05-16T05:21:16Z</time>
      </trkpt>
      <trkpt lat="44.7415" lon="1.83273">
        <ele>331.79</ele>
        <time>2026-05-16T05:21:17Z</time>
      </trkpt>
      <trkpt lat="44.74155" lon="1.83293">
        <ele>330.83</ele>
        <time>2026-05-16T05:21:29Z</time>
      </trkpt>
      <trkpt lat="44.74156" lon="1.83295">
        <ele>330.83</ele>
        <time>2026-05-16T05:21:30Z</time>
      </trkpt>
      <trkpt lat="44.74158" lon="1.83298">
        <ele>330.83</ele>
        <time>2026-05-16T05:21:32Z</time>
      </trkpt>
      <trkpt lat="44.74159" lon="1.833">
        <ele>329.87</ele>
        <time>2026-05-16T05:21:33Z</time>
      </trkpt>
      <trkpt lat="44.7416" lon="1.83302">
        <ele>329.87</ele>
        <time>2026-05-16T05:21:34Z</time>
      </trkpt>
      <trkpt lat="44.74161" lon="1.83304">
        <ele>329.87</ele>
        <time>2026-05-16T05:21:35Z</time>
      </trkpt>
      <trkpt lat="44.74161" lon="1.83306">
        <ele>329.87</ele>
        <time>2026-05-16T05:21:36Z</time>
      </trkpt>
      <trkpt lat="44.74163" lon="1.83319">
        <ele>327.95</ele>
        <time>2026-05-16T05:21:44Z</time>
      </trkpt>
      <trkpt lat="44.74163" lon="1.83321">
        <ele>327.47</ele>
        <time>2026-05-16T05:21:45Z</time>
      </trkpt>
      <trkpt lat="44.74163" lon="1.8334">
        <ele>324.58</ele>
        <time>2026-05-16T05:21:57Z</time>
      </trkpt>
      <trkpt lat="44.74159" lon="1.83349">
        <ele>324.58</ele>
        <time>2026-05-16T05:22:08Z</time>
      </trkpt>
      <trkpt lat="44.74158" lon="1.8335">
        <ele>324.58</ele>
        <time>2026-05-16T05:22:09Z</time>
      </trkpt>
      <trkpt lat="44.74153" lon="1.83365">
        <ele>324.1</ele>
        <time>2026-05-16T05:22:23Z</time>
      </trkpt>
      <trkpt lat="44.74155" lon="1.83383">
        <ele>324.1</ele>
        <time>2026-05-16T05:22:38Z</time>
      </trkpt>
      <trkpt lat="44.74155" lon="1.83386">
        <ele>325.06</ele>
        <time>2026-05-16T05:22:41Z</time>
      </trkpt>
      <trkpt lat="44.74153" lon="1.83402">
        <ele>328.43</ele>
        <time>2026-05-16T05:22:54Z</time>
      </trkpt>
      <trkpt lat="44.74155" lon="1.83427">
        <ele>331.79</ele>
        <time>2026-05-16T05:23:10Z</time>
      </trkpt>
      <trkpt lat="44.74151" lon="1.83428">
        <ele>334.2</ele>
        <time>2026-05-16T05:23:23Z</time>
      </trkpt>
      <trkpt lat="44.7415" lon="1.83429">
        <ele>334.68</ele>
        <time>2026-05-16T05:23:26Z</time>
      </trkpt>
      <trkpt lat="44.74143" lon="1.83441">
        <ele>337.08</ele>
        <time>2026-05-16T05:23:39Z</time>
      </trkpt>
      <trkpt lat="44.74135" lon="1.83452">
        <ele>339</ele>
        <time>2026-05-16T05:23:53Z</time>
      </trkpt>
      <trkpt lat="44.74126" lon="1.83461">
        <ele>340.92</ele>
        <time>2026-05-16T05:24:06Z</time>
      </trkpt>
      <trkpt lat="44.7412" lon="1.83481">
        <ele>344.29</ele>
        <time>2026-05-16T05:24:21Z</time>
      </trkpt>
      <trkpt lat="44.74118" lon="1.83487">
        <ele>344.77</ele>
        <time>2026-05-16T05:24:28Z</time>
      </trkpt>
      <trkpt lat="44.74109" lon="1.83492">
        <ele>346.69</ele>
        <time>2026-05-16T05:24:41Z</time>
      </trkpt>
      <trkpt lat="44.74105" lon="1.83494">
        <ele>347.65</ele>
        <time>2026-05-16T05:24:44Z</time>
      </trkpt>
      <trkpt lat="44.74097" lon="1.83504">
        <ele>349.1</ele>
        <time>2026-05-16T05:24:55Z</time>
      </trkpt>
      <trkpt lat="44.74088" lon="1.83519">
        <ele>350.54</ele>
        <time>2026-05-16T05:25:10Z</time>
      </trkpt>
      <trkpt lat="44.74069" lon="1.83531">
        <ele>351.5</ele>
        <time>2026-05-16T05:25:21Z</time>
      </trkpt>
      <trkpt lat="44.74067" lon="1.83531">
        <ele>351.5</ele>
        <time>2026-05-16T05:25:22Z</time>
      </trkpt>
      <trkpt lat="44.74057" lon="1.83537">
        <ele>352.46</ele>
        <time>2026-05-16T05:25:29Z</time>
      </trkpt>
      <trkpt lat="44.74046" lon="1.83551">
        <ele>353.42</ele>
        <time>2026-05-16T05:25:41Z</time>
      </trkpt>
      <trkpt lat="44.74044" lon="1.83559">
        <ele>353.42</ele>
        <time>2026-05-16T05:25:45Z</time>
      </trkpt>
      <trkpt lat="44.74043" lon="1.83562">
        <ele>353.42</ele>
        <time>2026-05-16T05:25:46Z</time>
      </trkpt>
      <trkpt lat="44.74041" lon="1.83571">
        <ele>353.42</ele>
        <time>2026-05-16T05:25:51Z</time>
      </trkpt>
      <trkpt lat="44.74041" lon="1.83573">
        <ele>353.9</ele>
        <time>2026-05-16T05:25:52Z</time>
      </trkpt>
      <trkpt lat="44.7404" lon="1.83576">
        <ele>353.9</ele>
        <time>2026-05-16T05:25:53Z</time>
      </trkpt>
      <trkpt lat="44.74037" lon="1.83589">
        <ele>353.9</ele>
        <time>2026-05-16T05:25:59Z</time>
      </trkpt>
      <trkpt lat="44.74037" lon="1.83592">
        <ele>353.9</ele>
        <time>2026-05-16T05:26:00Z</time>
      </trkpt>
      <trkpt lat="44.74035" lon="1.83616">
        <ele>354.38</ele>
        <time>2026-05-16T05:26:13Z</time>
      </trkpt>
      <trkpt lat="44.74036" lon="1.83618">
        <ele>354.38</ele>
        <time>2026-05-16T05:26:14Z</time>
      </trkpt>
      <trkpt lat="44.7404" lon="1.83631">
        <ele>352.46</ele>
        <time>2026-05-16T05:26:19Z</time>
      </trkpt>
      <trkpt lat="44.74041" lon="1.83634">
        <ele>352.94</ele>
        <time>2026-05-16T05:26:20Z</time>
      </trkpt>
      <trkpt lat="44.7404" lon="1.83636">
        <ele>352.46</ele>
        <time>2026-05-16T05:26:21Z</time>
      </trkpt>
      <trkpt lat="44.74041" lon="1.83639">
        <ele>352.46</ele>
        <time>2026-05-16T05:26:22Z</time>
      </trkpt>
      <trkpt lat="44.74041" lon="1.83642">
        <ele>352.46</ele>
        <time>2026-05-16T05:26:23Z</time>
      </trkpt>
      <trkpt lat="44.74041" lon="1.83645">
        <ele>352.46</ele>
        <time>2026-05-16T05:26:24Z</time>
      </trkpt>
      <trkpt lat="44.74042" lon="1.83647">
        <ele>352.46</ele>
        <time>2026-05-16T05:26:25Z</time>
      </trkpt>
      <trkpt lat="44.74047" lon="1.83678">
        <ele>350.54</ele>
        <time>2026-05-16T05:26:38Z</time>
      </trkpt>
      <trkpt lat="44.74059" lon="1.837">
        <ele>349.1</ele>
        <time>2026-05-16T05:26:51Z</time>
      </trkpt>
      <trkpt lat="44.74076" lon="1.83713">
        <ele>348.13</ele>
        <time>2026-05-16T05:27:05Z</time>
      </trkpt>
      <trkpt lat="44.74096" lon="1.83727">
        <ele>347.17</ele>
        <time>2026-05-16T05:27:20Z</time>
      </trkpt>
      <trkpt lat="44.74108" lon="1.83737">
        <ele>347.17</ele>
        <time>2026-05-16T05:27:31Z</time>
      </trkpt>
      <trkpt lat="44.74109" lon="1.83738">
        <ele>347.17</ele>
        <time>2026-05-16T05:27:32Z</time>
      </trkpt>
      <trkpt lat="44.74128" lon="1.83751">
        <ele>347.17</ele>
        <time>2026-05-16T05:27:45Z</time>
      </trkpt>
      <trkpt lat="44.7414" lon="1.83763">
        <ele>347.17</ele>
        <time>2026-05-16T05:27:59Z</time>
      </trkpt>
      <trkpt lat="44.74158" lon="1.83775">
        <ele>349.1</ele>
        <time>2026-05-16T05:28:15Z</time>
      </trkpt>
      <trkpt lat="44.74162" lon="1.83783">
        <ele>349.1</ele>
        <time>2026-05-16T05:28:21Z</time>
      </trkpt>
      <trkpt lat="44.74162" lon="1.83786">
        <ele>349.1</ele>
        <time>2026-05-16T05:28:22Z</time>
      </trkpt>
      <trkpt lat="44.74162" lon="1.83788">
        <ele>349.1</ele>
        <time>2026-05-16T05:28:23Z</time>
      </trkpt>
      <trkpt lat="44.74162" lon="1.83789">
        <ele>349.58</ele>
        <time>2026-05-16T05:28:24Z</time>
      </trkpt>
      <trkpt lat="44.74162" lon="1.838">
        <ele>349.58</ele>
        <time>2026-05-16T05:28:34Z</time>
      </trkpt>
      <trkpt lat="44.74162" lon="1.83803">
        <ele>349.58</ele>
        <time>2026-05-16T05:28:35Z</time>
      </trkpt>
      <trkpt lat="44.74162" lon="1.83805">
        <ele>349.58</ele>
        <time>2026-05-16T05:28:36Z</time>
      </trkpt>
      <trkpt lat="44.74158" lon="1.83835">
        <ele>349.58</ele>
        <time>2026-05-16T05:28:51Z</time>
      </trkpt>
      <trkpt lat="44.74156" lon="1.83842">
        <ele>350.06</ele>
        <time>2026-05-16T05:28:57Z</time>
      </trkpt>
      <trkpt lat="44.74143" lon="1.83865">
        <ele>350.54</ele>
        <time>2026-05-16T05:29:11Z</time>
      </trkpt>
      <trkpt lat="44.74141" lon="1.83885">
        <ele>349.1</ele>
        <time>2026-05-16T05:29:24Z</time>
      </trkpt>
      <trkpt lat="44.74147" lon="1.8391">
        <ele>346.69</ele>
        <time>2026-05-16T05:29:39Z</time>
      </trkpt>
      <trkpt lat="44.74147" lon="1.83921">
        <ele>345.73</ele>
        <time>2026-05-16T05:30:08Z</time>
      </trkpt>
      <trkpt lat="44.74149" lon="1.83947">
        <ele>342.37</ele>
        <time>2026-05-16T05:30:23Z</time>
      </trkpt>
      <trkpt lat="44.74144" lon="1.83966">
        <ele>341.41</ele>
        <time>2026-05-16T05:30:38Z</time>
      </trkpt>
      <trkpt lat="44.74137" lon="1.83993">
        <ele>341.41</ele>
        <time>2026-05-16T05:30:55Z</time>
      </trkpt>
      <trkpt lat="44.74138" lon="1.84022">
        <ele>340.44</ele>
        <time>2026-05-16T05:31:09Z</time>
      </trkpt>
      <trkpt lat="44.74145" lon="1.84044">
        <ele>339.48</ele>
        <time>2026-05-16T05:31:27Z</time>
      </trkpt>
      <trkpt lat="44.74159" lon="1.84066">
        <ele>338.04</ele>
        <time>2026-05-16T05:31:46Z</time>
      </trkpt>
      <trkpt lat="44.74161" lon="1.84069">
        <ele>338.04</ele>
        <time>2026-05-16T05:31:47Z</time>
      </trkpt>
      <trkpt lat="44.74163" lon="1.8407">
        <ele>338.04</ele>
        <time>2026-05-16T05:31:48Z</time>
      </trkpt>
      <trkpt lat="44.74166" lon="1.84073">
        <ele>338.04</ele>
        <time>2026-05-16T05:31:50Z</time>
      </trkpt>
      <trkpt lat="44.74167" lon="1.84075">
        <ele>337.56</ele>
        <time>2026-05-16T05:31:51Z</time>
      </trkpt>
      <trkpt lat="44.74169" lon="1.84077">
        <ele>337.56</ele>
        <time>2026-05-16T05:31:52Z</time>
      </trkpt>
      <trkpt lat="44.7417" lon="1.84078">
        <ele>337.56</ele>
        <time>2026-05-16T05:31:53Z</time>
      </trkpt>
      <trkpt lat="44.74172" lon="1.84079">
        <ele>337.08</ele>
        <time>2026-05-16T05:31:54Z</time>
      </trkpt>
      <trkpt lat="44.74191" lon="1.841">
        <ele>336.6</ele>
        <time>2026-05-16T05:32:10Z</time>
      </trkpt>
      <trkpt lat="44.74204" lon="1.84115">
        <ele>336.12</ele>
        <time>2026-05-16T05:32:22Z</time>
      </trkpt>
      <trkpt lat="44.74217" lon="1.84129">
        <ele>335.64</ele>
        <time>2026-05-16T05:32:34Z</time>
      </trkpt>
      <trkpt lat="44.74223" lon="1.84137">
        <ele>335.64</ele>
        <time>2026-05-16T05:32:46Z</time>
      </trkpt>
      <trkpt lat="44.74225" lon="1.84139">
        <ele>335.64</ele>
        <time>2026-05-16T05:32:47Z</time>
      </trkpt>
      <trkpt lat="44.74243" lon="1.84156">
        <ele>334.68</ele>
        <time>2026-05-16T05:32:59Z</time>
      </trkpt>
      <trkpt lat="44.7426" lon="1.84168">
        <ele>333.71</ele>
        <time>2026-05-16T05:33:18Z</time>
      </trkpt>
      <trkpt lat="44.74275" lon="1.84174">
        <ele>332.75</ele>
        <time>2026-05-16T05:33:31Z</time>
      </trkpt>
      <trkpt lat="44.74291" lon="1.84179">
        <ele>331.79</ele>
        <time>2026-05-16T05:33:43Z</time>
      </trkpt>
      <trkpt lat="44.74311" lon="1.84191">
        <ele>330.83</ele>
        <time>2026-05-16T05:33:58Z</time>
      </trkpt>
      <trkpt lat="44.74331" lon="1.84208">
        <ele>330.35</ele>
        <time>2026-05-16T05:34:14Z</time>
      </trkpt>
      <trkpt lat="44.74348" lon="1.84222">
        <ele>329.87</ele>
        <time>2026-05-16T05:34:29Z</time>
      </trkpt>
      <trkpt lat="44.74366" lon="1.84237">
        <ele>329.87</ele>
        <time>2026-05-16T05:34:44Z</time>
      </trkpt>
      <trkpt lat="44.74374" lon="1.84254">
        <ele>331.31</ele>
        <time>2026-05-16T05:34:58Z</time>
      </trkpt>
      <trkpt lat="44.74386" lon="1.84271">
        <ele>332.75</ele>
        <time>2026-05-16T05:35:12Z</time>
      </trkpt>
      <trkpt lat="44.74402" lon="1.84289">
        <ele>334.2</ele>
        <time>2026-05-16T05:35:28Z</time>
      </trkpt>
      <trkpt lat="44.74405" lon="1.84295">
        <ele>334.68</ele>
        <time>2026-05-16T05:35:33Z</time>
      </trkpt>
      <trkpt lat="44.74407" lon="1.84299">
        <ele>334.68</ele>
        <time>2026-05-16T05:35:35Z</time>
      </trkpt>
      <trkpt lat="44.74409" lon="1.84301">
        <ele>334.68</ele>
        <time>2026-05-16T05:35:36Z</time>
      </trkpt>
      <trkpt lat="44.74423" lon="1.84321">
        <ele>335.64</ele>
        <time>2026-05-16T05:35:50Z</time>
      </trkpt>
      <trkpt lat="44.7443" lon="1.84333">
        <ele>336.12</ele>
        <time>2026-05-16T05:36:02Z</time>
      </trkpt>
      <trkpt lat="44.74438" lon="1.84348">
        <ele>337.56</ele>
        <time>2026-05-16T05:36:17Z</time>
      </trkpt>
      <trkpt lat="44.74445" lon="1.84367">
        <ele>339.48</ele>
        <time>2026-05-16T05:36:31Z</time>
      </trkpt>
      <trkpt lat="44.74446" lon="1.84371">
        <ele>339.48</ele>
        <time>2026-05-16T05:36:33Z</time>
      </trkpt>
      <trkpt lat="44.74458" lon="1.84393">
        <ele>340.44</ele>
        <time>2026-05-16T05:36:46Z</time>
      </trkpt>
      <trkpt lat="44.74465" lon="1.84418">
        <ele>342.37</ele>
        <time>2026-05-16T05:37:03Z</time>
      </trkpt>
      <trkpt lat="44.74466" lon="1.84427">
        <ele>343.81</ele>
        <time>2026-05-16T05:37:11Z</time>
      </trkpt>
      <trkpt lat="44.74467" lon="1.84433">
        <ele>343.81</ele>
        <time>2026-05-16T05:37:15Z</time>
      </trkpt>
      <trkpt lat="44.74466" lon="1.84455">
        <ele>344.77</ele>
        <time>2026-05-16T05:37:29Z</time>
      </trkpt>
      <trkpt lat="44.74464" lon="1.84483">
        <ele>345.73</ele>
        <time>2026-05-16T05:37:43Z</time>
      </trkpt>
      <trkpt lat="44.74471" lon="1.84516">
        <ele>345.73</ele>
        <time>2026-05-16T05:37:58Z</time>
      </trkpt>
      <trkpt lat="44.7448" lon="1.84539">
        <ele>345.73</ele>
        <time>2026-05-16T05:38:10Z</time>
      </trkpt>
      <trkpt lat="44.74481" lon="1.84542">
        <ele>346.21</ele>
        <time>2026-05-16T05:38:11Z</time>
      </trkpt>
      <trkpt lat="44.74481" lon="1.84547">
        <ele>345.73</ele>
        <time>2026-05-16T05:38:15Z</time>
      </trkpt>
      <trkpt lat="44.7448" lon="1.84547">
        <ele>345.73</ele>
        <time>2026-05-16T05:38:16Z</time>
      </trkpt>
      <trkpt lat="44.74477" lon="1.84546">
        <ele>345.73</ele>
        <time>2026-05-16T05:38:20Z</time>
      </trkpt>
      <trkpt lat="44.74476" lon="1.84546">
        <ele>345.73</ele>
        <time>2026-05-16T05:38:21Z</time>
      </trkpt>
      <trkpt lat="44.74469" lon="1.84546">
        <ele>344.77</ele>
        <time>2026-05-16T05:38:26Z</time>
      </trkpt>
      <trkpt lat="44.74464" lon="1.84546">
        <ele>343.33</ele>
        <time>2026-05-16T05:38:40Z</time>
      </trkpt>
      <trkpt lat="44.74471" lon="1.8455">
        <ele>343.33</ele>
        <time>2026-05-16T05:39:28Z</time>
      </trkpt>
      <trkpt lat="44.7446" lon="1.84551">
        <ele>342.85</ele>
        <time>2026-05-16T05:39:35Z</time>
      </trkpt>
      <trkpt lat="44.74446" lon="1.84557">
        <ele>341.89</ele>
        <time>2026-05-16T05:39:45Z</time>
      </trkpt>
      <trkpt lat="44.74445" lon="1.84557">
        <ele>341.89</ele>
        <time>2026-05-16T05:39:57Z</time>
      </trkpt>
      <trkpt lat="44.74443" lon="1.84558">
        <ele>341.41</ele>
        <time>2026-05-16T05:40:04Z</time>
      </trkpt>
      <trkpt lat="44.74442" lon="1.84559">
        <ele>341.41</ele>
        <time>2026-05-16T05:40:05Z</time>
      </trkpt>
      <trkpt lat="44.74428" lon="1.84566">
        <ele>341.41</ele>
        <time>2026-05-16T05:40:18Z</time>
      </trkpt>
      <trkpt lat="44.74408" lon="1.84576">
        <ele>341.41</ele>
        <time>2026-05-16T05:40:33Z</time>
      </trkpt>
      <trkpt lat="44.74399" lon="1.84586">
        <ele>341.41</ele>
        <time>2026-05-16T05:40:44Z</time>
      </trkpt>
      <trkpt lat="44.74397" lon="1.84587">
        <ele>341.41</ele>
        <time>2026-05-16T05:40:45Z</time>
      </trkpt>
      <trkpt lat="44.74396" lon="1.84588">
        <ele>341.41</ele>
        <time>2026-05-16T05:40:46Z</time>
      </trkpt>
      <trkpt lat="44.74392" lon="1.84607">
        <ele>342.85</ele>
        <time>2026-05-16T05:41:00Z</time>
      </trkpt>
      <trkpt lat="44.74398" lon="1.84624">
        <ele>344.29</ele>
        <time>2026-05-16T05:41:08Z</time>
      </trkpt>
      <trkpt lat="44.74399" lon="1.84626">
        <ele>344.29</ele>
        <time>2026-05-16T05:41:09Z</time>
      </trkpt>
      <trkpt lat="44.74406" lon="1.8463">
        <ele>345.73</ele>
        <time>2026-05-16T05:41:16Z</time>
      </trkpt>
      <trkpt lat="44.74408" lon="1.84631">
        <ele>345.73</ele>
        <time>2026-05-16T05:41:17Z</time>
      </trkpt>
      <trkpt lat="44.74409" lon="1.84631">
        <ele>345.73</ele>
        <time>2026-05-16T05:41:18Z</time>
      </trkpt>
      <trkpt lat="44.74418" lon="1.84633">
        <ele>347.65</ele>
        <time>2026-05-16T05:41:29Z</time>
      </trkpt>
      <trkpt lat="44.74425" lon="1.84633">
        <ele>348.62</ele>
        <time>2026-05-16T05:41:37Z</time>
      </trkpt>
      <trkpt lat="44.74431" lon="1.84635">
        <ele>349.1</ele>
        <time>2026-05-16T05:41:44Z</time>
      </trkpt>
      <trkpt lat="44.74436" lon="1.84646">
        <ele>350.54</ele>
        <time>2026-05-16T05:41:59Z</time>
      </trkpt>
      <trkpt lat="44.74436" lon="1.84648">
        <ele>350.54</ele>
        <time>2026-05-16T05:42:00Z</time>
      </trkpt>
      <trkpt lat="44.74438" lon="1.84652">
        <ele>350.54</ele>
        <time>2026-05-16T05:42:03Z</time>
      </trkpt>
      <trkpt lat="44.74438" lon="1.84655">
        <ele>351.02</ele>
        <time>2026-05-16T05:42:05Z</time>
      </trkpt>
      <trkpt lat="44.74445" lon="1.8468">
        <ele>351.5</ele>
        <time>2026-05-16T05:42:21Z</time>
      </trkpt>
      <trkpt lat="44.74452" lon="1.84707">
        <ele>351.98</ele>
        <time>2026-05-16T05:42:36Z</time>
      </trkpt>
      <trkpt lat="44.74459" lon="1.8473">
        <ele>352.46</ele>
        <time>2026-05-16T05:42:51Z</time>
      </trkpt>
      <trkpt lat="44.74464" lon="1.84752">
        <ele>352.46</ele>
        <time>2026-05-16T05:43:06Z</time>
      </trkpt>
      <trkpt lat="44.74467" lon="1.84765">
        <ele>352.94</ele>
        <time>2026-05-16T05:43:13Z</time>
      </trkpt>
      <trkpt lat="44.74471" lon="1.84779">
        <ele>352.94</ele>
        <time>2026-05-16T05:43:22Z</time>
      </trkpt>
      <trkpt lat="44.74471" lon="1.84782">
        <ele>352.94</ele>
        <time>2026-05-16T05:43:23Z</time>
      </trkpt>
      <trkpt lat="44.7448" lon="1.84811">
        <ele>354.86</ele>
        <time>2026-05-16T05:43:37Z</time>
      </trkpt>
      <trkpt lat="44.74488" lon="1.84837">
        <ele>356.31</ele>
        <time>2026-05-16T05:43:54Z</time>
      </trkpt>
      <trkpt lat="44.74488" lon="1.8484">
        <ele>356.79</ele>
        <time>2026-05-16T05:43:56Z</time>
      </trkpt>
      <trkpt lat="44.74489" lon="1.84844">
        <ele>356.79</ele>
        <time>2026-05-16T05:43:58Z</time>
      </trkpt>
      <trkpt lat="44.74493" lon="1.84853">
        <ele>357.75</ele>
        <time>2026-05-16T05:44:06Z</time>
      </trkpt>
      <trkpt lat="44.74499" lon="1.84863">
        <ele>358.23</ele>
        <time>2026-05-16T05:44:11Z</time>
      </trkpt>
      <trkpt lat="44.745" lon="1.84864">
        <ele>358.23</ele>
        <time>2026-05-16T05:44:12Z</time>
      </trkpt>
      <trkpt lat="44.74513" lon="1.84883">
        <ele>358.71</ele>
        <time>2026-05-16T05:44:25Z</time>
      </trkpt>
      <trkpt lat="44.74523" lon="1.84893">
        <ele>359.19</ele>
        <time>2026-05-16T05:44:35Z</time>
      </trkpt>
      <trkpt lat="44.74524" lon="1.84895">
        <ele>359.19</ele>
        <time>2026-05-16T05:44:36Z</time>
      </trkpt>
      <trkpt lat="44.74524" lon="1.84897">
        <ele>359.19</ele>
        <time>2026-05-16T05:44:37Z</time>
      </trkpt>
      <trkpt lat="44.74526" lon="1.84902">
        <ele>359.19</ele>
        <time>2026-05-16T05:44:39Z</time>
      </trkpt>
      <trkpt lat="44.74528" lon="1.84913">
        <ele>359.19</ele>
        <time>2026-05-16T05:44:53Z</time>
      </trkpt>
      <trkpt lat="44.7453" lon="1.84918">
        <ele>359.19</ele>
        <time>2026-05-16T05:45:03Z</time>
      </trkpt>
      <trkpt lat="44.74529" lon="1.84919">
        <ele>359.19</ele>
        <time>2026-05-16T05:45:04Z</time>
      </trkpt>
      <trkpt lat="44.74529" lon="1.8492">
        <ele>359.19</ele>
        <time>2026-05-16T05:45:05Z</time>
      </trkpt>
      <trkpt lat="44.74528" lon="1.84922">
        <ele>359.19</ele>
        <time>2026-05-16T05:45:06Z</time>
      </trkpt>
      <trkpt lat="44.74527" lon="1.84924">
        <ele>359.19</ele>
        <time>2026-05-16T05:45:07Z</time>
      </trkpt>
      <trkpt lat="44.74527" lon="1.84925">
        <ele>359.19</ele>
        <time>2026-05-16T05:45:08Z</time>
      </trkpt>
      <trkpt lat="44.7452" lon="1.84953">
        <ele>358.71</ele>
        <time>2026-05-16T05:45:24Z</time>
      </trkpt>
      <trkpt lat="44.74515" lon="1.84972">
        <ele>359.19</ele>
        <time>2026-05-16T05:45:38Z</time>
      </trkpt>
      <trkpt lat="44.74503" lon="1.85004">
        <ele>359.67</ele>
        <time>2026-05-16T05:45:54Z</time>
      </trkpt>
      <trkpt lat="44.74498" lon="1.85027">
        <ele>360.15</ele>
        <time>2026-05-16T05:46:09Z</time>
      </trkpt>
      <trkpt lat="44.74489" lon="1.85057">
        <ele>361.59</ele>
        <time>2026-05-16T05:46:26Z</time>
      </trkpt>
      <trkpt lat="44.74471" lon="1.85087">
        <ele>362.07</ele>
        <time>2026-05-16T05:46:43Z</time>
      </trkpt>
      <trkpt lat="44.74468" lon="1.85103">
        <ele>362.55</ele>
        <time>2026-05-16T05:46:55Z</time>
      </trkpt>
      <trkpt lat="44.74454" lon="1.85138">
        <ele>363.52</ele>
        <time>2026-05-16T05:47:12Z</time>
      </trkpt>
      <trkpt lat="44.74443" lon="1.85166">
        <ele>363.52</ele>
        <time>2026-05-16T05:47:28Z</time>
      </trkpt>
      <trkpt lat="44.74435" lon="1.85199">
        <ele>363.52</ele>
        <time>2026-05-16T05:47:48Z</time>
      </trkpt>
      <trkpt lat="44.74418" lon="1.85226">
        <ele>364</ele>
        <time>2026-05-16T05:48:03Z</time>
      </trkpt>
      <trkpt lat="44.74409" lon="1.8524">
        <ele>364</ele>
        <time>2026-05-16T05:48:15Z</time>
      </trkpt>
      <trkpt lat="44.74392" lon="1.85266">
        <ele>362.55</ele>
        <time>2026-05-16T05:48:31Z</time>
      </trkpt>
      <trkpt lat="44.74375" lon="1.85284">
        <ele>362.55</ele>
        <time>2026-05-16T05:48:44Z</time>
      </trkpt>
      <trkpt lat="44.74365" lon="1.85303">
        <ele>362.55</ele>
        <time>2026-05-16T05:49:00Z</time>
      </trkpt>
      <trkpt lat="44.74348" lon="1.85333">
        <ele>362.07</ele>
        <time>2026-05-16T05:49:17Z</time>
      </trkpt>
      <trkpt lat="44.74323" lon="1.85365">
        <ele>362.07</ele>
        <time>2026-05-16T05:49:37Z</time>
      </trkpt>
      <trkpt lat="44.74318" lon="1.85383">
        <ele>362.07</ele>
        <time>2026-05-16T05:49:52Z</time>
      </trkpt>
      <trkpt lat="44.74299" lon="1.85416">
        <ele>362.07</ele>
        <time>2026-05-16T05:50:10Z</time>
      </trkpt>
      <trkpt lat="44.74289" lon="1.85433">
        <ele>362.07</ele>
        <time>2026-05-16T05:50:24Z</time>
      </trkpt>
      <trkpt lat="44.74278" lon="1.85466">
        <ele>362.07</ele>
        <time>2026-05-16T05:50:42Z</time>
      </trkpt>
      <trkpt lat="44.74271" lon="1.8549">
        <ele>362.07</ele>
        <time>2026-05-16T05:50:57Z</time>
      </trkpt>
      <trkpt lat="44.74272" lon="1.85489">
        <ele>362.07</ele>
        <time>2026-05-16T05:50:58Z</time>
      </trkpt>
      <trkpt lat="44.74273" lon="1.85489">
        <ele>362.07</ele>
        <time>2026-05-16T05:51:11Z</time>
      </trkpt>
      <trkpt lat="44.74271" lon="1.85492">
        <ele>362.07</ele>
        <time>2026-05-16T05:51:13Z</time>
      </trkpt>
      <trkpt lat="44.74265" lon="1.85496">
        <ele>362.07</ele>
        <time>2026-05-16T05:51:20Z</time>
      </trkpt>
      <trkpt lat="44.74263" lon="1.85497">
        <ele>362.07</ele>
        <time>2026-05-16T05:51:21Z</time>
      </trkpt>
      <trkpt lat="44.74247" lon="1.85503">
        <ele>362.07</ele>
        <time>2026-05-16T05:51:34Z</time>
      </trkpt>
      <trkpt lat="44.74246" lon="1.85504">
        <ele>362.07</ele>
        <time>2026-05-16T05:51:35Z</time>
      </trkpt>
      <trkpt lat="44.74244" lon="1.85505">
        <ele>362.07</ele>
        <time>2026-05-16T05:51:36Z</time>
      </trkpt>
      <trkpt lat="44.74229" lon="1.85521">
        <ele>362.07</ele>
        <time>2026-05-16T05:51:49Z</time>
      </trkpt>
      <trkpt lat="44.74209" lon="1.85549">
        <ele>360.63</ele>
        <time>2026-05-16T05:52:07Z</time>
      </trkpt>
      <trkpt lat="44.74194" lon="1.85576">
        <ele>359.67</ele>
        <time>2026-05-16T05:52:25Z</time>
      </trkpt>
      <trkpt lat="44.74181" lon="1.85603">
        <ele>357.27</ele>
        <time>2026-05-16T05:52:42Z</time>
      </trkpt>
      <trkpt lat="44.74168" lon="1.85635">
        <ele>354.38</ele>
        <time>2026-05-16T05:53:00Z</time>
      </trkpt>
      <trkpt lat="44.74165" lon="1.8564">
        <ele>354.38</ele>
        <time>2026-05-16T05:53:04Z</time>
      </trkpt>
      <trkpt lat="44.7414" lon="1.85651">
        <ele>353.42</ele>
        <time>2026-05-16T05:53:20Z</time>
      </trkpt>
      <trkpt lat="44.74122" lon="1.85656">
        <ele>353.42</ele>
        <time>2026-05-16T05:53:37Z</time>
      </trkpt>
      <trkpt lat="44.74095" lon="1.85667">
        <ele>353.42</ele>
        <time>2026-05-16T05:53:52Z</time>
      </trkpt>
      <trkpt lat="44.74091" lon="1.85671">
        <ele>354.86</ele>
        <time>2026-05-16T05:53:59Z</time>
      </trkpt>
      <trkpt lat="44.74076" lon="1.85678">
        <ele>356.31</ele>
        <time>2026-05-16T05:54:13Z</time>
      </trkpt>
      <trkpt lat="44.74059" lon="1.85687">
        <ele>357.27</ele>
        <time>2026-05-16T05:54:27Z</time>
      </trkpt>
      <trkpt lat="44.74038" lon="1.85699">
        <ele>359.67</ele>
        <time>2026-05-16T05:54:45Z</time>
      </trkpt>
      <trkpt lat="44.74019" lon="1.85708">
        <ele>361.59</ele>
        <time>2026-05-16T05:55:02Z</time>
      </trkpt>
      <trkpt lat="44.74006" lon="1.85714">
        <ele>363.04</ele>
        <time>2026-05-16T05:55:15Z</time>
      </trkpt>
      <trkpt lat="44.73999" lon="1.85719">
        <ele>364.48</ele>
        <time>2026-05-16T05:55:23Z</time>
      </trkpt>
      <trkpt lat="44.73998" lon="1.8572">
        <ele>364.48</ele>
        <time>2026-05-16T05:55:24Z</time>
      </trkpt>
      <trkpt lat="44.73997" lon="1.85722">
        <ele>364.48</ele>
        <time>2026-05-16T05:55:25Z</time>
      </trkpt>
      <trkpt lat="44.73996" lon="1.85723">
        <ele>364.48</ele>
        <time>2026-05-16T05:55:26Z</time>
      </trkpt>
      <trkpt lat="44.73994" lon="1.85724">
        <ele>364.48</ele>
        <time>2026-05-16T05:55:27Z</time>
      </trkpt>
      <trkpt lat="44.73988" lon="1.85731">
        <ele>365.44</ele>
        <time>2026-05-16T05:55:35Z</time>
      </trkpt>
      <trkpt lat="44.73987" lon="1.85732">
        <ele>365.44</ele>
        <time>2026-05-16T05:55:36Z</time>
      </trkpt>
      <trkpt lat="44.73986" lon="1.85733">
        <ele>365.92</ele>
        <time>2026-05-16T05:55:37Z</time>
      </trkpt>
      <trkpt lat="44.73984" lon="1.85734">
        <ele>365.92</ele>
        <time>2026-05-16T05:55:38Z</time>
      </trkpt>
      <trkpt lat="44.73983" lon="1.85735">
        <ele>365.92</ele>
        <time>2026-05-16T05:55:39Z</time>
      </trkpt>
      <trkpt lat="44.73981" lon="1.85736">
        <ele>365.92</ele>
        <time>2026-05-16T05:55:40Z</time>
      </trkpt>
      <trkpt lat="44.73977" lon="1.85744">
        <ele>366.88</ele>
        <time>2026-05-16T05:55:47Z</time>
      </trkpt>
      <trkpt lat="44.73976" lon="1.85745">
        <ele>367.36</ele>
        <time>2026-05-16T05:55:48Z</time>
      </trkpt>
      <trkpt lat="44.73974" lon="1.85746">
        <ele>367.36</ele>
        <time>2026-05-16T05:55:49Z</time>
      </trkpt>
      <trkpt lat="44.73972" lon="1.85748">
        <ele>367.36</ele>
        <time>2026-05-16T05:55:50Z</time>
      </trkpt>
      <trkpt lat="44.73971" lon="1.85749">
        <ele>367.36</ele>
        <time>2026-05-16T05:55:51Z</time>
      </trkpt>
      <trkpt lat="44.7397" lon="1.8575">
        <ele>367.36</ele>
        <time>2026-05-16T05:55:52Z</time>
      </trkpt>
      <trkpt lat="44.73955" lon="1.85768">
        <ele>369.28</ele>
        <time>2026-05-16T05:56:08Z</time>
      </trkpt>
      <trkpt lat="44.73943" lon="1.85789">
        <ele>369.76</ele>
        <time>2026-05-16T05:56:22Z</time>
      </trkpt>
      <trkpt lat="44.73932" lon="1.85808">
        <ele>370.24</ele>
        <time>2026-05-16T05:56:36Z</time>
      </trkpt>
      <trkpt lat="44.73916" lon="1.85827">
        <ele>370.73</ele>
        <time>2026-05-16T05:56:51Z</time>
      </trkpt>
      <trkpt lat="44.73896" lon="1.85854">
        <ele>371.21</ele>
        <time>2026-05-16T05:57:11Z</time>
      </trkpt>
      <trkpt lat="44.73883" lon="1.85865">
        <ele>372.65</ele>
        <time>2026-05-16T05:57:26Z</time>
      </trkpt>
      <trkpt lat="44.73864" lon="1.85883">
        <ele>373.61</ele>
        <time>2026-05-16T05:57:41Z</time>
      </trkpt>
      <trkpt lat="44.73847" lon="1.85894">
        <ele>373.61</ele>
        <time>2026-05-16T05:57:58Z</time>
      </trkpt>
      <trkpt lat="44.73823" lon="1.85899">
        <ele>373.61</ele>
        <time>2026-05-16T05:58:14Z</time>
      </trkpt>
      <trkpt lat="44.73799" lon="1.85912">
        <ele>374.57</ele>
        <time>2026-05-16T05:58:33Z</time>
      </trkpt>
      <trkpt lat="44.73787" lon="1.85917">
        <ele>375.05</ele>
        <time>2026-05-16T05:58:46Z</time>
      </trkpt>
      <trkpt lat="44.73765" lon="1.85925">
        <ele>376.01</ele>
        <time>2026-05-16T05:59:00Z</time>
      </trkpt>
      <trkpt lat="44.73754" lon="1.85931">
        <ele>377.94</ele>
        <time>2026-05-16T05:59:14Z</time>
      </trkpt>
      <trkpt lat="44.73729" lon="1.85949">
        <ele>379.38</ele>
        <time>2026-05-16T05:59:31Z</time>
      </trkpt>
      <trkpt lat="44.73718" lon="1.85953">
        <ele>379.38</ele>
        <time>2026-05-16T05:59:43Z</time>
      </trkpt>
      <trkpt lat="44.73717" lon="1.85954">
        <ele>379.38</ele>
        <time>2026-05-16T05:59:44Z</time>
      </trkpt>
      <trkpt lat="44.73715" lon="1.85954">
        <ele>379.38</ele>
        <time>2026-05-16T05:59:45Z</time>
      </trkpt>
      <trkpt lat="44.73714" lon="1.85955">
        <ele>379.86</ele>
        <time>2026-05-16T05:59:46Z</time>
      </trkpt>
      <trkpt lat="44.73713" lon="1.85957">
        <ele>379.86</ele>
        <time>2026-05-16T05:59:47Z</time>
      </trkpt>
      <trkpt lat="44.73712" lon="1.85958">
        <ele>379.86</ele>
        <time>2026-05-16T05:59:48Z</time>
      </trkpt>
      <trkpt lat="44.7371" lon="1.8596">
        <ele>379.86</ele>
        <time>2026-05-16T05:59:49Z</time>
      </trkpt>
      <trkpt lat="44.73709" lon="1.85962">
        <ele>379.86</ele>
        <time>2026-05-16T05:59:50Z</time>
      </trkpt>
      <trkpt lat="44.73708" lon="1.85964">
        <ele>379.86</ele>
        <time>2026-05-16T05:59:51Z</time>
      </trkpt>
      <trkpt lat="44.73707" lon="1.85966">
        <ele>379.86</ele>
        <time>2026-05-16T05:59:52Z</time>
      </trkpt>
      <trkpt lat="44.73688" lon="1.85987">
        <ele>380.82</ele>
        <time>2026-05-16T06:00:07Z</time>
      </trkpt>
      <trkpt lat="44.73677" lon="1.8601">
        <ele>380.82</ele>
        <time>2026-05-16T06:00:23Z</time>
      </trkpt>
      <trkpt lat="44.73676" lon="1.86013">
        <ele>380.82</ele>
        <time>2026-05-16T06:00:24Z</time>
      </trkpt>
      <trkpt lat="44.73656" lon="1.86036">
        <ele>380.82</ele>
        <time>2026-05-16T06:00:39Z</time>
      </trkpt>
      <trkpt lat="44.73649" lon="1.86054">
        <ele>380.82</ele>
        <time>2026-05-16T06:00:54Z</time>
      </trkpt>
      <trkpt lat="44.73649" lon="1.86057">
        <ele>380.82</ele>
        <time>2026-05-16T06:00:55Z</time>
      </trkpt>
      <trkpt lat="44.73648" lon="1.86059">
        <ele>380.82</ele>
        <time>2026-05-16T06:00:56Z</time>
      </trkpt>
      <trkpt lat="44.73648" lon="1.86061">
        <ele>380.82</ele>
        <time>2026-05-16T06:00:57Z</time>
      </trkpt>
      <trkpt lat="44.73647" lon="1.86063">
        <ele>380.82</ele>
        <time>2026-05-16T06:00:58Z</time>
      </trkpt>
      <trkpt lat="44.73646" lon="1.86065">
        <ele>380.82</ele>
        <time>2026-05-16T06:00:59Z</time>
      </trkpt>
      <trkpt lat="44.73645" lon="1.86067">
        <ele>380.82</ele>
        <time>2026-05-16T06:01:00Z</time>
      </trkpt>
      <trkpt lat="44.7363" lon="1.86086">
        <ele>380.82</ele>
        <time>2026-05-16T06:01:12Z</time>
      </trkpt>
      <trkpt lat="44.7362" lon="1.86106">
        <ele>381.3</ele>
        <time>2026-05-16T06:01:28Z</time>
      </trkpt>
      <trkpt lat="44.73604" lon="1.86136">
        <ele>381.3</ele>
        <time>2026-05-16T06:01:44Z</time>
      </trkpt>
      <trkpt lat="44.73599" lon="1.86167">
        <ele>380.34</ele>
        <time>2026-05-16T06:02:00Z</time>
      </trkpt>
      <trkpt lat="44.73609" lon="1.86182">
        <ele>380.34</ele>
        <time>2026-05-16T06:02:12Z</time>
      </trkpt>
      <trkpt lat="44.73619" lon="1.86194">
        <ele>380.34</ele>
        <time>2026-05-16T06:02:25Z</time>
      </trkpt>
      <trkpt lat="44.7362" lon="1.86195">
        <ele>380.34</ele>
        <time>2026-05-16T06:02:29Z</time>
      </trkpt>
      <trkpt lat="44.73621" lon="1.86196">
        <ele>380.34</ele>
        <time>2026-05-16T06:02:30Z</time>
      </trkpt>
      <trkpt lat="44.73636" lon="1.8621">
        <ele>380.34</ele>
        <time>2026-05-16T06:02:43Z</time>
      </trkpt>
      <trkpt lat="44.73649" lon="1.86222">
        <ele>379.86</ele>
        <time>2026-05-16T06:02:56Z</time>
      </trkpt>
      <trkpt lat="44.73662" lon="1.8624">
        <ele>379.38</ele>
        <time>2026-05-16T06:03:09Z</time>
      </trkpt>
      <trkpt lat="44.73671" lon="1.86249">
        <ele>377.94</ele>
        <time>2026-05-16T06:03:18Z</time>
      </trkpt>
      <trkpt lat="44.73672" lon="1.86251">
        <ele>377.94</ele>
        <time>2026-05-16T06:03:19Z</time>
      </trkpt>
      <trkpt lat="44.73672" lon="1.86253">
        <ele>377.94</ele>
        <time>2026-05-16T06:03:20Z</time>
      </trkpt>
      <trkpt lat="44.73673" lon="1.86255">
        <ele>377.94</ele>
        <time>2026-05-16T06:03:21Z</time>
      </trkpt>
      <trkpt lat="44.73674" lon="1.86256">
        <ele>377.94</ele>
        <time>2026-05-16T06:03:22Z</time>
      </trkpt>
      <trkpt lat="44.73674" lon="1.86257">
        <ele>377.45</ele>
        <time>2026-05-16T06:03:23Z</time>
      </trkpt>
      <trkpt lat="44.73683" lon="1.86279">
        <ele>376.01</ele>
        <time>2026-05-16T06:03:37Z</time>
      </trkpt>
      <trkpt lat="44.7369" lon="1.863">
        <ele>375.53</ele>
        <time>2026-05-16T06:03:50Z</time>
      </trkpt>
      <trkpt lat="44.7369" lon="1.86302">
        <ele>375.53</ele>
        <time>2026-05-16T06:03:51Z</time>
      </trkpt>
      <trkpt lat="44.73697" lon="1.86336">
        <ele>375.05</ele>
        <time>2026-05-16T06:04:06Z</time>
      </trkpt>
      <trkpt lat="44.737" lon="1.86346">
        <ele>375.05</ele>
        <time>2026-05-16T06:04:14Z</time>
      </trkpt>
      <trkpt lat="44.73701" lon="1.86348">
        <ele>375.05</ele>
        <time>2026-05-16T06:04:15Z</time>
      </trkpt>
      <trkpt lat="44.73704" lon="1.86355">
        <ele>375.05</ele>
        <time>2026-05-16T06:04:29Z</time>
      </trkpt>
      <trkpt lat="44.73705" lon="1.86357">
        <ele>375.05</ele>
        <time>2026-05-16T06:04:59Z</time>
      </trkpt>
      <trkpt lat="44.73704" lon="1.86359">
        <ele>375.05</ele>
        <time>2026-05-16T06:05:00Z</time>
      </trkpt>
      <trkpt lat="44.73704" lon="1.8636">
        <ele>375.05</ele>
        <time>2026-05-16T06:05:01Z</time>
      </trkpt>
      <trkpt lat="44.73703" lon="1.86362">
        <ele>375.05</ele>
        <time>2026-05-16T06:05:02Z</time>
      </trkpt>
      <trkpt lat="44.73699" lon="1.86383">
        <ele>374.57</ele>
        <time>2026-05-16T06:05:15Z</time>
      </trkpt>
      <trkpt lat="44.73696" lon="1.86409">
        <ele>374.57</ele>
        <time>2026-05-16T06:05:29Z</time>
      </trkpt>
      <trkpt lat="44.73693" lon="1.86435">
        <ele>376.01</ele>
        <time>2026-05-16T06:05:42Z</time>
      </trkpt>
      <trkpt lat="44.73689" lon="1.86462">
        <ele>376.97</ele>
        <time>2026-05-16T06:05:57Z</time>
      </trkpt>
      <trkpt lat="44.73688" lon="1.86472">
        <ele>377.94</ele>
        <time>2026-05-16T06:06:05Z</time>
      </trkpt>
      <trkpt lat="44.73688" lon="1.86474">
        <ele>377.94</ele>
        <time>2026-05-16T06:06:06Z</time>
      </trkpt>
      <trkpt lat="44.73688" lon="1.86476">
        <ele>377.94</ele>
        <time>2026-05-16T06:06:07Z</time>
      </trkpt>
      <trkpt lat="44.73688" lon="1.86479">
        <ele>377.94</ele>
        <time>2026-05-16T06:06:08Z</time>
      </trkpt>
      <trkpt lat="44.73687" lon="1.86481">
        <ele>377.94</ele>
        <time>2026-05-16T06:06:09Z</time>
      </trkpt>
      <trkpt lat="44.73687" lon="1.86483">
        <ele>377.94</ele>
        <time>2026-05-16T06:06:10Z</time>
      </trkpt>
      <trkpt lat="44.73682" lon="1.86502">
        <ele>378.42</ele>
        <time>2026-05-16T06:06:22Z</time>
      </trkpt>
      <trkpt lat="44.73676" lon="1.86533">
        <ele>379.38</ele>
        <time>2026-05-16T06:06:37Z</time>
      </trkpt>
      <trkpt lat="44.73671" lon="1.86557">
        <ele>380.82</ele>
        <time>2026-05-16T06:06:52Z</time>
      </trkpt>
      <trkpt lat="44.73669" lon="1.86577">
        <ele>381.78</ele>
        <time>2026-05-16T06:07:05Z</time>
      </trkpt>
      <trkpt lat="44.73666" lon="1.86596">
        <ele>383.22</ele>
        <time>2026-05-16T06:07:18Z</time>
      </trkpt>
      <trkpt lat="44.73664" lon="1.86616">
        <ele>384.18</ele>
        <time>2026-05-16T06:07:30Z</time>
      </trkpt>
      <trkpt lat="44.73659" lon="1.86639">
        <ele>385.63</ele>
        <time>2026-05-16T06:07:44Z</time>
      </trkpt>
      <trkpt lat="44.73657" lon="1.86662">
        <ele>387.55</ele>
        <time>2026-05-16T06:07:57Z</time>
      </trkpt>
      <trkpt lat="44.73656" lon="1.86688">
        <ele>388.03</ele>
        <time>2026-05-16T06:08:12Z</time>
      </trkpt>
      <trkpt lat="44.73654" lon="1.86703">
        <ele>388.03</ele>
        <time>2026-05-16T06:08:20Z</time>
      </trkpt>
      <trkpt lat="44.73653" lon="1.86705">
        <ele>388.03</ele>
        <time>2026-05-16T06:08:21Z</time>
      </trkpt>
      <trkpt lat="44.73654" lon="1.86731">
        <ele>388.03</ele>
        <time>2026-05-16T06:08:34Z</time>
      </trkpt>
      <trkpt lat="44.73648" lon="1.86757">
        <ele>386.59</ele>
        <time>2026-05-16T06:08:47Z</time>
      </trkpt>
      <trkpt lat="44.73644" lon="1.86782">
        <ele>385.63</ele>
        <time>2026-05-16T06:09:00Z</time>
      </trkpt>
      <trkpt lat="44.73638" lon="1.86811">
        <ele>384.18</ele>
        <time>2026-05-16T06:09:15Z</time>
      </trkpt>
      <trkpt lat="44.73636" lon="1.86836">
        <ele>384.18</ele>
        <time>2026-05-16T06:09:30Z</time>
      </trkpt>
      <trkpt lat="44.73633" lon="1.86867">
        <ele>385.15</ele>
        <time>2026-05-16T06:09:44Z</time>
      </trkpt>
      <trkpt lat="44.73632" lon="1.86876">
        <ele>385.15</ele>
        <time>2026-05-16T06:09:52Z</time>
      </trkpt>
      <trkpt lat="44.73632" lon="1.86878">
        <ele>385.63</ele>
        <time>2026-05-16T06:09:53Z</time>
      </trkpt>
      <trkpt lat="44.73632" lon="1.8688">
        <ele>385.63</ele>
        <time>2026-05-16T06:09:54Z</time>
      </trkpt>
      <trkpt lat="44.73626" lon="1.86898">
        <ele>387.07</ele>
        <time>2026-05-16T06:10:06Z</time>
      </trkpt>
      <trkpt lat="44.73622" lon="1.86917">
        <ele>389.47</ele>
        <time>2026-05-16T06:10:19Z</time>
      </trkpt>
      <trkpt lat="44.73622" lon="1.86936">
        <ele>390.43</ele>
        <time>2026-05-16T06:10:30Z</time>
      </trkpt>
      <trkpt lat="44.7362" lon="1.86954">
        <ele>392.36</ele>
        <time>2026-05-16T06:10:43Z</time>
      </trkpt>
      <trkpt lat="44.73616" lon="1.86972">
        <ele>393.32</ele>
        <time>2026-05-16T06:10:56Z</time>
      </trkpt>
      <trkpt lat="44.73613" lon="1.86997">
        <ele>395.72</ele>
        <time>2026-05-16T06:11:12Z</time>
      </trkpt>
      <trkpt lat="44.73609" lon="1.87014">
        <ele>396.2</ele>
        <time>2026-05-16T06:11:26Z</time>
      </trkpt>
      <trkpt lat="44.73608" lon="1.87025">
        <ele>395.72</ele>
        <time>2026-05-16T06:11:51Z</time>
      </trkpt>
      <trkpt lat="44.73607" lon="1.87047">
        <ele>396.2</ele>
        <time>2026-05-16T06:12:03Z</time>
      </trkpt>
      <trkpt lat="44.73606" lon="1.87056">
        <ele>396.2</ele>
        <time>2026-05-16T06:12:07Z</time>
      </trkpt>
      <trkpt lat="44.73606" lon="1.87058">
        <ele>396.2</ele>
        <time>2026-05-16T06:12:08Z</time>
      </trkpt>
      <trkpt lat="44.73606" lon="1.87061">
        <ele>396.2</ele>
        <time>2026-05-16T06:12:09Z</time>
      </trkpt>
      <trkpt lat="44.73605" lon="1.87063">
        <ele>396.2</ele>
        <time>2026-05-16T06:12:10Z</time>
      </trkpt>
      <trkpt lat="44.73605" lon="1.87065">
        <ele>396.2</ele>
        <time>2026-05-16T06:12:11Z</time>
      </trkpt>
      <trkpt lat="44.73605" lon="1.87067">
        <ele>396.2</ele>
        <time>2026-05-16T06:12:12Z</time>
      </trkpt>
      <trkpt lat="44.73601" lon="1.87089">
        <ele>397.16</ele>
        <time>2026-05-16T06:12:26Z</time>
      </trkpt>
      <trkpt lat="44.73598" lon="1.87111">
        <ele>396.68</ele>
        <time>2026-05-16T06:12:37Z</time>
      </trkpt>
      <trkpt lat="44.73597" lon="1.87113">
        <ele>396.68</ele>
        <time>2026-05-16T06:12:38Z</time>
      </trkpt>
      <trkpt lat="44.73592" lon="1.87138">
        <ele>396.68</ele>
        <time>2026-05-16T06:12:49Z</time>
      </trkpt>
      <trkpt lat="44.73591" lon="1.8714">
        <ele>396.68</ele>
        <time>2026-05-16T06:12:50Z</time>
      </trkpt>
      <trkpt lat="44.7359" lon="1.87142">
        <ele>396.68</ele>
        <time>2026-05-16T06:12:51Z</time>
      </trkpt>
      <trkpt lat="44.7359" lon="1.87144">
        <ele>396.68</ele>
        <time>2026-05-16T06:12:52Z</time>
      </trkpt>
      <trkpt lat="44.7359" lon="1.87146">
        <ele>396.68</ele>
        <time>2026-05-16T06:12:53Z</time>
      </trkpt>
      <trkpt lat="44.73588" lon="1.87162">
        <ele>397.16</ele>
        <time>2026-05-16T06:13:06Z</time>
      </trkpt>
      <trkpt lat="44.73587" lon="1.87164">
        <ele>397.16</ele>
        <time>2026-05-16T06:13:07Z</time>
      </trkpt>
      <trkpt lat="44.73587" lon="1.87166">
        <ele>397.16</ele>
        <time>2026-05-16T06:13:08Z</time>
      </trkpt>
      <trkpt lat="44.73587" lon="1.87169">
        <ele>397.64</ele>
        <time>2026-05-16T06:13:09Z</time>
      </trkpt>
      <trkpt lat="44.73587" lon="1.87171">
        <ele>397.64</ele>
        <time>2026-05-16T06:13:10Z</time>
      </trkpt>
      <trkpt lat="44.73582" lon="1.87191">
        <ele>398.6</ele>
        <time>2026-05-16T06:13:22Z</time>
      </trkpt>
      <trkpt lat="44.73581" lon="1.87203">
        <ele>400.05</ele>
        <time>2026-05-16T06:13:30Z</time>
      </trkpt>
      <trkpt lat="44.73581" lon="1.87206">
        <ele>400.05</ele>
        <time>2026-05-16T06:13:31Z</time>
      </trkpt>
      <trkpt lat="44.73581" lon="1.87208">
        <ele>400.05</ele>
        <time>2026-05-16T06:13:32Z</time>
      </trkpt>
      <trkpt lat="44.73581" lon="1.87211">
        <ele>400.05</ele>
        <time>2026-05-16T06:13:33Z</time>
      </trkpt>
      <trkpt lat="44.73581" lon="1.87213">
        <ele>400.05</ele>
        <time>2026-05-16T06:13:34Z</time>
      </trkpt>
      <trkpt lat="44.7358" lon="1.87215">
        <ele>400.53</ele>
        <time>2026-05-16T06:13:35Z</time>
      </trkpt>
      <trkpt lat="44.7358" lon="1.87217">
        <ele>400.53</ele>
        <time>2026-05-16T06:13:36Z</time>
      </trkpt>
      <trkpt lat="44.7358" lon="1.87219">
        <ele>400.53</ele>
        <time>2026-05-16T06:13:37Z</time>
      </trkpt>
      <trkpt lat="44.73579" lon="1.87221">
        <ele>400.53</ele>
        <time>2026-05-16T06:13:38Z</time>
      </trkpt>
      <trkpt lat="44.73578" lon="1.87224">
        <ele>400.53</ele>
        <time>2026-05-16T06:13:39Z</time>
      </trkpt>
      <trkpt lat="44.73577" lon="1.87247">
        <ele>401.49</ele>
        <time>2026-05-16T06:13:53Z</time>
      </trkpt>
      <trkpt lat="44.73577" lon="1.87259">
        <ele>401.49</ele>
        <time>2026-05-16T06:14:00Z</time>
      </trkpt>
      <trkpt lat="44.73573" lon="1.87289">
        <ele>402.93</ele>
        <time>2026-05-16T06:14:15Z</time>
      </trkpt>
      <trkpt lat="44.73572" lon="1.87314">
        <ele>403.89</ele>
        <time>2026-05-16T06:14:30Z</time>
      </trkpt>
      <trkpt lat="44.73569" lon="1.87342">
        <ele>405.81</ele>
        <time>2026-05-16T06:14:46Z</time>
      </trkpt>
      <trkpt lat="44.73568" lon="1.87348">
        <ele>406.29</ele>
        <time>2026-05-16T06:14:49Z</time>
      </trkpt>
      <trkpt lat="44.73568" lon="1.8735">
        <ele>406.77</ele>
        <time>2026-05-16T06:14:50Z</time>
      </trkpt>
      <trkpt lat="44.73568" lon="1.87353">
        <ele>406.77</ele>
        <time>2026-05-16T06:14:51Z</time>
      </trkpt>
      <trkpt lat="44.73566" lon="1.87377">
        <ele>407.74</ele>
        <time>2026-05-16T06:15:04Z</time>
      </trkpt>
      <trkpt lat="44.73564" lon="1.87401">
        <ele>408.7</ele>
        <time>2026-05-16T06:15:17Z</time>
      </trkpt>
      <trkpt lat="44.73563" lon="1.87424">
        <ele>409.18</ele>
        <time>2026-05-16T06:15:29Z</time>
      </trkpt>
      <trkpt lat="44.73559" lon="1.87453">
        <ele>409.18</ele>
        <time>2026-05-16T06:15:43Z</time>
      </trkpt>
      <trkpt lat="44.73557" lon="1.87475">
        <ele>409.66</ele>
        <time>2026-05-16T06:15:56Z</time>
      </trkpt>
      <trkpt lat="44.73559" lon="1.87495">
        <ele>409.66</ele>
        <time>2026-05-16T06:16:07Z</time>
      </trkpt>
      <trkpt lat="44.73561" lon="1.875">
        <ele>409.66</ele>
        <time>2026-05-16T06:16:14Z</time>
      </trkpt>
      <trkpt lat="44.73563" lon="1.87503">
        <ele>409.66</ele>
        <time>2026-05-16T06:16:16Z</time>
      </trkpt>
      <trkpt lat="44.73567" lon="1.87508">
        <ele>409.66</ele>
        <time>2026-05-16T06:16:29Z</time>
      </trkpt>
      <trkpt lat="44.73567" lon="1.87507">
        <ele>408.22</ele>
        <time>2026-05-16T06:16:34Z</time>
      </trkpt>
      <trkpt lat="44.73565" lon="1.87505">
        <ele>408.22</ele>
        <time>2026-05-16T06:16:53Z</time>
      </trkpt>
      <trkpt lat="44.73566" lon="1.87504">
        <ele>408.22</ele>
        <time>2026-05-16T06:17:17Z</time>
      </trkpt>
      <trkpt lat="44.73569" lon="1.87507">
        <ele>408.22</ele>
        <time>2026-05-16T06:17:41Z</time>
      </trkpt>
      <trkpt lat="44.73567" lon="1.87505">
        <ele>408.22</ele>
        <time>2026-05-16T06:17:54Z</time>
      </trkpt>
      <trkpt lat="44.73565" lon="1.875">
        <ele>408.22</ele>
        <time>2026-05-16T06:18:21Z</time>
      </trkpt>
      <trkpt lat="44.73565" lon="1.875">
        <ele>407.74</ele>
        <time>2026-05-16T06:18:42Z</time>
      </trkpt>
      <trkpt lat="44.73564" lon="1.87502">
        <ele>407.74</ele>
        <time>2026-05-16T06:19:06Z</time>
      </trkpt>
      <trkpt lat="44.73567" lon="1.87508">
        <ele>407.74</ele>
        <time>2026-05-16T06:19:34Z</time>
      </trkpt>
      <trkpt lat="44.73568" lon="1.87508">
        <ele>407.74</ele>
        <time>2026-05-16T06:19:52Z</time>
      </trkpt>
      <trkpt lat="44.73569" lon="1.8751">
        <ele>409.18</ele>
        <time>2026-05-16T06:20:10Z</time>
      </trkpt>
      <trkpt lat="44.73569" lon="1.87509">
        <ele>407.74</ele>
        <time>2026-05-16T06:20:12Z</time>
      </trkpt>
      <trkpt lat="44.73568" lon="1.87506">
        <ele>407.74</ele>
        <time>2026-05-16T06:20:27Z</time>
      </trkpt>
      <trkpt lat="44.73567" lon="1.87506">
        <ele>407.74</ele>
        <time>2026-05-16T06:20:43Z</time>
      </trkpt>
      <trkpt lat="44.73567" lon="1.87508">
        <ele>407.74</ele>
        <time>2026-05-16T06:21:06Z</time>
      </trkpt>
      <trkpt lat="44.73565" lon="1.87505">
        <ele>407.74</ele>
        <time>2026-05-16T06:21:09Z</time>
      </trkpt>
      <trkpt lat="44.73561" lon="1.87499">
        <ele>407.74</ele>
        <time>2026-05-16T06:21:14Z</time>
      </trkpt>
      <trkpt lat="44.73561" lon="1.87497">
        <ele>407.74</ele>
        <time>2026-05-16T06:21:15Z</time>
      </trkpt>
      <trkpt lat="44.7356" lon="1.87495">
        <ele>407.74</ele>
        <time>2026-05-16T06:21:16Z</time>
      </trkpt>
      <trkpt lat="44.73558" lon="1.87493">
        <ele>407.74</ele>
        <time>2026-05-16T06:21:17Z</time>
      </trkpt>
      <trkpt lat="44.73557" lon="1.8749">
        <ele>407.74</ele>
        <time>2026-05-16T06:21:18Z</time>
      </trkpt>
      <trkpt lat="44.73555" lon="1.87488">
        <ele>407.74</ele>
        <time>2026-05-16T06:21:19Z</time>
      </trkpt>
      <trkpt lat="44.73554" lon="1.87487">
        <ele>407.74</ele>
        <time>2026-05-16T06:21:20Z</time>
      </trkpt>
      <trkpt lat="44.7355" lon="1.87482">
        <ele>407.74</ele>
        <time>2026-05-16T06:21:26Z</time>
      </trkpt>
      <trkpt lat="44.73549" lon="1.87481">
        <ele>407.74</ele>
        <time>2026-05-16T06:21:27Z</time>
      </trkpt>
      <trkpt lat="44.73547" lon="1.87481">
        <ele>407.74</ele>
        <time>2026-05-16T06:21:28Z</time>
      </trkpt>
      <trkpt lat="44.73546" lon="1.8748">
        <ele>407.74</ele>
        <time>2026-05-16T06:21:29Z</time>
      </trkpt>
      <trkpt lat="44.73545" lon="1.87479">
        <ele>407.74</ele>
        <time>2026-05-16T06:21:30Z</time>
      </trkpt>
      <trkpt lat="44.73543" lon="1.87477">
        <ele>407.74</ele>
        <time>2026-05-16T06:21:31Z</time>
      </trkpt>
      <trkpt lat="44.7353" lon="1.87459">
        <ele>409.18</ele>
        <time>2026-05-16T06:21:46Z</time>
      </trkpt>
      <trkpt lat="44.73529" lon="1.87456">
        <ele>410.14</ele>
        <time>2026-05-16T06:21:58Z</time>
      </trkpt>
      <trkpt lat="44.73531" lon="1.87456">
        <ele>410.14</ele>
        <time>2026-05-16T06:22:26Z</time>
      </trkpt>
      <trkpt lat="44.73528" lon="1.87453">
        <ele>410.14</ele>
        <time>2026-05-16T06:22:40Z</time>
      </trkpt>
      <trkpt lat="44.73523" lon="1.87446">
        <ele>410.14</ele>
        <time>2026-05-16T06:22:48Z</time>
      </trkpt>
      <trkpt lat="44.73523" lon="1.87444">
        <ele>410.14</ele>
        <time>2026-05-16T06:22:49Z</time>
      </trkpt>
      <trkpt lat="44.73522" lon="1.87443">
        <ele>410.14</ele>
        <time>2026-05-16T06:22:50Z</time>
      </trkpt>
      <trkpt lat="44.7351" lon="1.87429">
        <ele>411.1</ele>
        <time>2026-05-16T06:23:04Z</time>
      </trkpt>
      <trkpt lat="44.73507" lon="1.87426">
        <ele>411.58</ele>
        <time>2026-05-16T06:23:08Z</time>
      </trkpt>
      <trkpt lat="44.73489" lon="1.87413">
        <ele>413.98</ele>
        <time>2026-05-16T06:23:21Z</time>
      </trkpt>
      <trkpt lat="44.7347" lon="1.87407">
        <ele>414.95</ele>
        <time>2026-05-16T06:23:38Z</time>
      </trkpt>
      <trkpt lat="44.73445" lon="1.87402">
        <ele>415.91</ele>
        <time>2026-05-16T06:23:53Z</time>
      </trkpt>
      <trkpt lat="44.73425" lon="1.87396">
        <ele>417.35</ele>
        <time>2026-05-16T06:24:09Z</time>
      </trkpt>
      <trkpt lat="44.73397" lon="1.87392">
        <ele>418.31</ele>
        <time>2026-05-16T06:24:26Z</time>
      </trkpt>
      <trkpt lat="44.73381" lon="1.87392">
        <ele>418.31</ele>
        <time>2026-05-16T06:24:41Z</time>
      </trkpt>
      <trkpt lat="44.73354" lon="1.87407">
        <ele>418.31</ele>
        <time>2026-05-16T06:24:57Z</time>
      </trkpt>
      <trkpt lat="44.73337" lon="1.87424">
        <ele>418.31</ele>
        <time>2026-05-16T06:25:14Z</time>
      </trkpt>
      <trkpt lat="44.73313" lon="1.8744">
        <ele>418.79</ele>
        <time>2026-05-16T06:25:30Z</time>
      </trkpt>
      <trkpt lat="44.7329" lon="1.87449">
        <ele>418.79</ele>
        <time>2026-05-16T06:25:45Z</time>
      </trkpt>
      <trkpt lat="44.73289" lon="1.8745">
        <ele>418.79</ele>
        <time>2026-05-16T06:25:46Z</time>
      </trkpt>
      <trkpt lat="44.73273" lon="1.87464">
        <ele>418.79</ele>
        <time>2026-05-16T06:26:03Z</time>
      </trkpt>
      <trkpt lat="44.73249" lon="1.87478">
        <ele>418.79</ele>
        <time>2026-05-16T06:26:17Z</time>
      </trkpt>
      <trkpt lat="44.73228" lon="1.87498">
        <ele>417.35</ele>
        <time>2026-05-16T06:26:36Z</time>
      </trkpt>
      <trkpt lat="44.73205" lon="1.87512">
        <ele>416.87</ele>
        <time>2026-05-16T06:26:50Z</time>
      </trkpt>
      <trkpt lat="44.73189" lon="1.87526">
        <ele>416.39</ele>
        <time>2026-05-16T06:27:07Z</time>
      </trkpt>
      <trkpt lat="44.73164" lon="1.8754">
        <ele>415.91</ele>
        <time>2026-05-16T06:27:23Z</time>
      </trkpt>
      <trkpt lat="44.73144" lon="1.87552">
        <ele>415.43</ele>
        <time>2026-05-16T06:27:38Z</time>
      </trkpt>
      <trkpt lat="44.73122" lon="1.8757">
        <ele>414.95</ele>
        <time>2026-05-16T06:27:55Z</time>
      </trkpt>
      <trkpt lat="44.73102" lon="1.8758">
        <ele>414.47</ele>
        <time>2026-05-16T06:28:09Z</time>
      </trkpt>
      <trkpt lat="44.73081" lon="1.87598">
        <ele>413.5</ele>
        <time>2026-05-16T06:28:27Z</time>
      </trkpt>
      <trkpt lat="44.7308" lon="1.876">
        <ele>413.5</ele>
        <time>2026-05-16T06:28:28Z</time>
      </trkpt>
      <trkpt lat="44.73079" lon="1.87601">
        <ele>413.5</ele>
        <time>2026-05-16T06:28:29Z</time>
      </trkpt>
      <trkpt lat="44.73077" lon="1.87602">
        <ele>413.5</ele>
        <time>2026-05-16T06:28:30Z</time>
      </trkpt>
      <trkpt lat="44.73076" lon="1.87603">
        <ele>413.5</ele>
        <time>2026-05-16T06:28:31Z</time>
      </trkpt>
      <trkpt lat="44.73075" lon="1.87604">
        <ele>412.54</ele>
        <time>2026-05-16T06:28:32Z</time>
      </trkpt>
      <trkpt lat="44.73058" lon="1.87615">
        <ele>412.06</ele>
        <time>2026-05-16T06:28:46Z</time>
      </trkpt>
      <trkpt lat="44.73035" lon="1.87627">
        <ele>411.1</ele>
        <time>2026-05-16T06:29:01Z</time>
      </trkpt>
      <trkpt lat="44.73017" lon="1.87633">
        <ele>409.18</ele>
        <time>2026-05-16T06:29:14Z</time>
      </trkpt>
      <trkpt lat="44.73001" lon="1.87644">
        <ele>408.22</ele>
        <time>2026-05-16T06:29:27Z</time>
      </trkpt>
      <trkpt lat="44.72999" lon="1.87644">
        <ele>408.22</ele>
        <time>2026-05-16T06:29:28Z</time>
      </trkpt>
      <trkpt lat="44.72997" lon="1.87644">
        <ele>408.22</ele>
        <time>2026-05-16T06:29:29Z</time>
      </trkpt>
      <trkpt lat="44.72996" lon="1.87644">
        <ele>408.22</ele>
        <time>2026-05-16T06:29:30Z</time>
      </trkpt>
      <trkpt lat="44.72994" lon="1.87645">
        <ele>408.22</ele>
        <time>2026-05-16T06:29:31Z</time>
      </trkpt>
      <trkpt lat="44.72992" lon="1.87646">
        <ele>408.22</ele>
        <time>2026-05-16T06:29:32Z</time>
      </trkpt>
      <trkpt lat="44.7299" lon="1.87648">
        <ele>408.22</ele>
        <time>2026-05-16T06:29:33Z</time>
      </trkpt>
      <trkpt lat="44.72988" lon="1.87649">
        <ele>408.22</ele>
        <time>2026-05-16T06:29:34Z</time>
      </trkpt>
      <trkpt lat="44.72987" lon="1.87649">
        <ele>407.74</ele>
        <time>2026-05-16T06:29:35Z</time>
      </trkpt>
      <trkpt lat="44.72985" lon="1.8765">
        <ele>407.74</ele>
        <time>2026-05-16T06:29:36Z</time>
      </trkpt>
      <trkpt lat="44.72984" lon="1.8765">
        <ele>407.74</ele>
        <time>2026-05-16T06:29:37Z</time>
      </trkpt>
      <trkpt lat="44.72964" lon="1.87664">
        <ele>406.29</ele>
        <time>2026-05-16T06:29:53Z</time>
      </trkpt>
      <trkpt lat="44.72959" lon="1.87667">
        <ele>406.29</ele>
        <time>2026-05-16T06:29:56Z</time>
      </trkpt>
      <trkpt lat="44.72958" lon="1.87667">
        <ele>406.29</ele>
        <time>2026-05-16T06:29:57Z</time>
      </trkpt>
      <trkpt lat="44.72956" lon="1.87668">
        <ele>406.29</ele>
        <time>2026-05-16T06:29:58Z</time>
      </trkpt>
      <trkpt lat="44.72955" lon="1.87669">
        <ele>406.29</ele>
        <time>2026-05-16T06:29:59Z</time>
      </trkpt>
      <trkpt lat="44.72935" lon="1.87683">
        <ele>406.29</ele>
        <time>2026-05-16T06:30:13Z</time>
      </trkpt>
      <trkpt lat="44.72915" lon="1.87696">
        <ele>405.81</ele>
        <time>2026-05-16T06:30:30Z</time>
      </trkpt>
      <trkpt lat="44.72889" lon="1.87713">
        <ele>404.85</ele>
        <time>2026-05-16T06:30:47Z</time>
      </trkpt>
      <trkpt lat="44.72867" lon="1.87728">
        <ele>403.41</ele>
        <time>2026-05-16T06:31:02Z</time>
      </trkpt>
      <trkpt lat="44.72844" lon="1.87743">
        <ele>401.49</ele>
        <time>2026-05-16T06:31:21Z</time>
      </trkpt>
      <trkpt lat="44.72831" lon="1.87746">
        <ele>401.01</ele>
        <time>2026-05-16T06:31:32Z</time>
      </trkpt>
      <trkpt lat="44.72808" lon="1.87744">
        <ele>399.57</ele>
        <time>2026-05-16T06:31:49Z</time>
      </trkpt>
      <trkpt lat="44.72783" lon="1.87742">
        <ele>397.16</ele>
        <time>2026-05-16T06:32:05Z</time>
      </trkpt>
      <trkpt lat="44.72756" lon="1.87735">
        <ele>394.28</ele>
        <time>2026-05-16T06:32:22Z</time>
      </trkpt>
      <trkpt lat="44.72733" lon="1.87735">
        <ele>391.39</ele>
        <time>2026-05-16T06:32:39Z</time>
      </trkpt>
      <trkpt lat="44.72712" lon="1.87738">
        <ele>388.99</ele>
        <time>2026-05-16T06:32:55Z</time>
      </trkpt>
      <trkpt lat="44.72684" lon="1.87743">
        <ele>386.59</ele>
        <time>2026-05-16T06:33:12Z</time>
      </trkpt>
      <trkpt lat="44.72663" lon="1.87744">
        <ele>384.66</ele>
        <time>2026-05-16T06:33:27Z</time>
      </trkpt>
      <trkpt lat="44.72642" lon="1.87737">
        <ele>382.74</ele>
        <time>2026-05-16T06:33:44Z</time>
      </trkpt>
      <trkpt lat="44.72637" lon="1.87735">
        <ele>381.78</ele>
        <time>2026-05-16T06:33:47Z</time>
      </trkpt>
      <trkpt lat="44.72615" lon="1.87727">
        <ele>379.86</ele>
        <time>2026-05-16T06:34:03Z</time>
      </trkpt>
      <trkpt lat="44.72596" lon="1.87715">
        <ele>378.42</ele>
        <time>2026-05-16T06:34:18Z</time>
      </trkpt>
      <trkpt lat="44.72576" lon="1.87701">
        <ele>375.53</ele>
        <time>2026-05-16T06:34:33Z</time>
      </trkpt>
      <trkpt lat="44.72558" lon="1.87687">
        <ele>373.61</ele>
        <time>2026-05-16T06:34:47Z</time>
      </trkpt>
      <trkpt lat="44.72538" lon="1.87677">
        <ele>370.73</ele>
        <time>2026-05-16T06:35:01Z</time>
      </trkpt>
      <trkpt lat="44.72517" lon="1.87666">
        <ele>368.32</ele>
        <time>2026-05-16T06:35:16Z</time>
      </trkpt>
      <trkpt lat="44.72499" lon="1.87657">
        <ele>365.92</ele>
        <time>2026-05-16T06:35:31Z</time>
      </trkpt>
      <trkpt lat="44.72481" lon="1.87648">
        <ele>364</ele>
        <time>2026-05-16T06:35:45Z</time>
      </trkpt>
      <trkpt lat="44.72471" lon="1.87642">
        <ele>362.55</ele>
        <time>2026-05-16T06:35:53Z</time>
      </trkpt>
      <trkpt lat="44.72469" lon="1.87642">
        <ele>362.55</ele>
        <time>2026-05-16T06:35:54Z</time>
      </trkpt>
      <trkpt lat="44.72467" lon="1.87642">
        <ele>362.55</ele>
        <time>2026-05-16T06:35:58Z</time>
      </trkpt>
      <trkpt lat="44.72465" lon="1.87641">
        <ele>362.07</ele>
        <time>2026-05-16T06:35:59Z</time>
      </trkpt>
      <trkpt lat="44.72463" lon="1.8764">
        <ele>362.07</ele>
        <time>2026-05-16T06:36:00Z</time>
      </trkpt>
      <trkpt lat="44.72447" lon="1.8763">
        <ele>360.63</ele>
        <time>2026-05-16T06:36:14Z</time>
      </trkpt>
      <trkpt lat="44.72447" lon="1.87631">
        <ele>360.15</ele>
        <time>2026-05-16T06:36:37Z</time>
      </trkpt>
      <trkpt lat="44.72445" lon="1.87632">
        <ele>360.63</ele>
        <time>2026-05-16T06:36:49Z</time>
      </trkpt>
      <trkpt lat="44.72443" lon="1.87632">
        <ele>360.15</ele>
        <time>2026-05-16T06:36:50Z</time>
      </trkpt>
      <trkpt lat="44.72429" lon="1.87635">
        <ele>359.19</ele>
        <time>2026-05-16T06:37:01Z</time>
      </trkpt>
      <trkpt lat="44.7241" lon="1.8766">
        <ele>359.19</ele>
        <time>2026-05-16T06:37:16Z</time>
      </trkpt>
      <trkpt lat="44.72396" lon="1.87675">
        <ele>358.23</ele>
        <time>2026-05-16T06:37:32Z</time>
      </trkpt>
      <trkpt lat="44.7238" lon="1.87693">
        <ele>358.23</ele>
        <time>2026-05-16T06:37:46Z</time>
      </trkpt>
      <trkpt lat="44.72364" lon="1.87716">
        <ele>357.27</ele>
        <time>2026-05-16T06:38:02Z</time>
      </trkpt>
      <trkpt lat="44.72365" lon="1.87725">
        <ele>357.27</ele>
        <time>2026-05-16T06:38:07Z</time>
      </trkpt>
      <trkpt lat="44.72366" lon="1.87727">
        <ele>357.27</ele>
        <time>2026-05-16T06:38:08Z</time>
      </trkpt>
      <trkpt lat="44.7238" lon="1.87753">
        <ele>357.27</ele>
        <time>2026-05-16T06:38:23Z</time>
      </trkpt>
      <trkpt lat="44.7238" lon="1.87755">
        <ele>357.27</ele>
        <time>2026-05-16T06:38:24Z</time>
      </trkpt>
      <trkpt lat="44.7238" lon="1.87757">
        <ele>357.27</ele>
        <time>2026-05-16T06:38:25Z</time>
      </trkpt>
      <trkpt lat="44.7238" lon="1.87758">
        <ele>357.27</ele>
        <time>2026-05-16T06:38:26Z</time>
      </trkpt>
      <trkpt lat="44.72379" lon="1.8776">
        <ele>357.27</ele>
        <time>2026-05-16T06:38:27Z</time>
      </trkpt>
      <trkpt lat="44.72378" lon="1.87761">
        <ele>357.27</ele>
        <time>2026-05-16T06:38:28Z</time>
      </trkpt>
      <trkpt lat="44.72364" lon="1.87779">
        <ele>356.79</ele>
        <time>2026-05-16T06:38:42Z</time>
      </trkpt>
      <trkpt lat="44.7235" lon="1.87799">
        <ele>355.83</ele>
        <time>2026-05-16T06:38:57Z</time>
      </trkpt>
      <trkpt lat="44.72341" lon="1.87811">
        <ele>355.34</ele>
        <time>2026-05-16T06:39:05Z</time>
      </trkpt>
      <trkpt lat="44.72323" lon="1.87833">
        <ele>353.9</ele>
        <time>2026-05-16T06:39:21Z</time>
      </trkpt>
      <trkpt lat="44.72308" lon="1.87855">
        <ele>351.98</ele>
        <time>2026-05-16T06:39:37Z</time>
      </trkpt>
      <trkpt lat="44.72309" lon="1.87861">
        <ele>351.98</ele>
        <time>2026-05-16T06:39:48Z</time>
      </trkpt>
      <trkpt lat="44.7231" lon="1.87862">
        <ele>351.98</ele>
        <time>2026-05-16T06:39:49Z</time>
      </trkpt>
      <trkpt lat="44.72311" lon="1.87863">
        <ele>351.98</ele>
        <time>2026-05-16T06:39:50Z</time>
      </trkpt>
      <trkpt lat="44.72314" lon="1.87866">
        <ele>351.98</ele>
        <time>2026-05-16T06:39:53Z</time>
      </trkpt>
      <trkpt lat="44.72315" lon="1.87867">
        <ele>351.98</ele>
        <time>2026-05-16T06:39:54Z</time>
      </trkpt>
      <trkpt lat="44.72316" lon="1.87868">
        <ele>351.98</ele>
        <time>2026-05-16T06:39:55Z</time>
      </trkpt>
      <trkpt lat="44.7232" lon="1.87872">
        <ele>350.54</ele>
        <time>2026-05-16T06:40:08Z</time>
      </trkpt>
      <trkpt lat="44.7232" lon="1.87873">
        <ele>350.54</ele>
        <time>2026-05-16T06:40:09Z</time>
      </trkpt>
      <trkpt lat="44.7232" lon="1.87872">
        <ele>352.94</ele>
        <time>2026-05-16T06:40:11Z</time>
      </trkpt>
      <trkpt lat="44.72319" lon="1.87871">
        <ele>352.94</ele>
        <time>2026-05-16T06:40:12Z</time>
      </trkpt>
      <trkpt lat="44.72317" lon="1.87871">
        <ele>352.94</ele>
        <time>2026-05-16T06:40:13Z</time>
      </trkpt>
      <trkpt lat="44.72316" lon="1.8787">
        <ele>352.94</ele>
        <time>2026-05-16T06:40:14Z</time>
      </trkpt>
      <trkpt lat="44.72308" lon="1.87859">
        <ele>352.46</ele>
        <time>2026-05-16T06:40:26Z</time>
      </trkpt>
      <trkpt lat="44.72306" lon="1.87864">
        <ele>352.46</ele>
        <time>2026-05-16T06:40:38Z</time>
      </trkpt>
      <trkpt lat="44.72302" lon="1.87867">
        <ele>351.98</ele>
        <time>2026-05-16T06:40:51Z</time>
      </trkpt>
      <trkpt lat="44.72299" lon="1.87868">
        <ele>351.98</ele>
        <time>2026-05-16T06:41:06Z</time>
      </trkpt>
      <trkpt lat="44.72298" lon="1.87869">
        <ele>351.98</ele>
        <time>2026-05-16T06:41:07Z</time>
      </trkpt>
      <trkpt lat="44.72298" lon="1.8787">
        <ele>351.98</ele>
        <time>2026-05-16T06:41:08Z</time>
      </trkpt>
      <trkpt lat="44.72297" lon="1.87871">
        <ele>351.98</ele>
        <time>2026-05-16T06:41:09Z</time>
      </trkpt>
      <trkpt lat="44.72296" lon="1.87873">
        <ele>351.98</ele>
        <time>2026-05-16T06:41:10Z</time>
      </trkpt>
      <trkpt lat="44.72295" lon="1.87874">
        <ele>351.98</ele>
        <time>2026-05-16T06:41:11Z</time>
      </trkpt>
      <trkpt lat="44.72294" lon="1.87876">
        <ele>351.98</ele>
        <time>2026-05-16T06:41:12Z</time>
      </trkpt>
      <trkpt lat="44.72293" lon="1.87877">
        <ele>351.98</ele>
        <time>2026-05-16T06:41:13Z</time>
      </trkpt>
      <trkpt lat="44.72289" lon="1.87881">
        <ele>351.02</ele>
        <time>2026-05-16T06:41:16Z</time>
      </trkpt>
      <trkpt lat="44.72272" lon="1.87903">
        <ele>350.54</ele>
        <time>2026-05-16T06:41:33Z</time>
      </trkpt>
      <trkpt lat="44.72267" lon="1.8791">
        <ele>350.06</ele>
        <time>2026-05-16T06:41:40Z</time>
      </trkpt>
      <trkpt lat="44.72265" lon="1.87911">
        <ele>350.06</ele>
        <time>2026-05-16T06:41:41Z</time>
      </trkpt>
      <trkpt lat="44.72264" lon="1.87914">
        <ele>349.58</ele>
        <time>2026-05-16T06:41:53Z</time>
      </trkpt>
      <trkpt lat="44.72264" lon="1.87916">
        <ele>349.58</ele>
        <time>2026-05-16T06:41:54Z</time>
      </trkpt>
      <trkpt lat="44.72253" lon="1.87936">
        <ele>349.1</ele>
        <time>2026-05-16T06:42:07Z</time>
      </trkpt>
      <trkpt lat="44.7224" lon="1.87959">
        <ele>348.62</ele>
        <time>2026-05-16T06:42:23Z</time>
      </trkpt>
      <trkpt lat="44.72239" lon="1.8796">
        <ele>348.62</ele>
        <time>2026-05-16T06:42:25Z</time>
      </trkpt>
      <trkpt lat="44.72239" lon="1.87962">
        <ele>348.62</ele>
        <time>2026-05-16T06:42:26Z</time>
      </trkpt>
      <trkpt lat="44.72238" lon="1.87964">
        <ele>348.62</ele>
        <time>2026-05-16T06:42:27Z</time>
      </trkpt>
      <trkpt lat="44.72237" lon="1.87965">
        <ele>348.62</ele>
        <time>2026-05-16T06:42:28Z</time>
      </trkpt>
      <trkpt lat="44.72237" lon="1.87967">
        <ele>348.62</ele>
        <time>2026-05-16T06:42:29Z</time>
      </trkpt>
      <trkpt lat="44.72236" lon="1.87969">
        <ele>348.62</ele>
        <time>2026-05-16T06:42:30Z</time>
      </trkpt>
      <trkpt lat="44.72234" lon="1.8797">
        <ele>348.13</ele>
        <time>2026-05-16T06:42:32Z</time>
      </trkpt>
      <trkpt lat="44.72229" lon="1.87975">
        <ele>348.13</ele>
        <time>2026-05-16T06:42:39Z</time>
      </trkpt>
      <trkpt lat="44.72221" lon="1.87994">
        <ele>348.13</ele>
        <time>2026-05-16T06:42:53Z</time>
      </trkpt>
      <trkpt lat="44.72214" lon="1.88006">
        <ele>348.13</ele>
        <time>2026-05-16T06:43:01Z</time>
      </trkpt>
      <trkpt lat="44.72207" lon="1.88016">
        <ele>349.58</ele>
        <time>2026-05-16T06:43:08Z</time>
      </trkpt>
      <trkpt lat="44.72193" lon="1.88031">
        <ele>350.54</ele>
        <time>2026-05-16T06:43:22Z</time>
      </trkpt>
      <trkpt lat="44.72189" lon="1.88033">
        <ele>351.02</ele>
        <time>2026-05-16T06:43:27Z</time>
      </trkpt>
      <trkpt lat="44.72188" lon="1.88035">
        <ele>351.02</ele>
        <time>2026-05-16T06:43:28Z</time>
      </trkpt>
      <trkpt lat="44.72187" lon="1.88037">
        <ele>351.02</ele>
        <time>2026-05-16T06:43:29Z</time>
      </trkpt>
      <trkpt lat="44.72175" lon="1.88058">
        <ele>351.98</ele>
        <time>2026-05-16T06:43:44Z</time>
      </trkpt>
      <trkpt lat="44.7216" lon="1.88072">
        <ele>354.38</ele>
        <time>2026-05-16T06:43:59Z</time>
      </trkpt>
      <trkpt lat="44.72159" lon="1.88073">
        <ele>354.38</ele>
        <time>2026-05-16T06:44:00Z</time>
      </trkpt>
      <trkpt lat="44.72158" lon="1.88074">
        <ele>354.38</ele>
        <time>2026-05-16T06:44:01Z</time>
      </trkpt>
      <trkpt lat="44.72157" lon="1.88077">
        <ele>354.38</ele>
        <time>2026-05-16T06:44:02Z</time>
      </trkpt>
      <trkpt lat="44.72156" lon="1.88077">
        <ele>354.38</ele>
        <time>2026-05-16T06:44:03Z</time>
      </trkpt>
      <trkpt lat="44.72154" lon="1.88079">
        <ele>354.86</ele>
        <time>2026-05-16T06:44:05Z</time>
      </trkpt>
      <trkpt lat="44.72152" lon="1.8808">
        <ele>354.86</ele>
        <time>2026-05-16T06:44:06Z</time>
      </trkpt>
      <trkpt lat="44.7215" lon="1.88081">
        <ele>354.86</ele>
        <time>2026-05-16T06:44:07Z</time>
      </trkpt>
      <trkpt lat="44.72149" lon="1.88082">
        <ele>354.86</ele>
        <time>2026-05-16T06:44:08Z</time>
      </trkpt>
      <trkpt lat="44.72146" lon="1.88091">
        <ele>354.86</ele>
        <time>2026-05-16T06:44:14Z</time>
      </trkpt>
      <trkpt lat="44.72145" lon="1.88094">
        <ele>354.86</ele>
        <time>2026-05-16T06:44:15Z</time>
      </trkpt>
      <trkpt lat="44.72138" lon="1.88117">
        <ele>355.34</ele>
        <time>2026-05-16T06:44:26Z</time>
      </trkpt>
      <trkpt lat="44.72134" lon="1.88125">
        <ele>356.31</ele>
        <time>2026-05-16T06:44:33Z</time>
      </trkpt>
      <trkpt lat="44.72134" lon="1.88127">
        <ele>356.31</ele>
        <time>2026-05-16T06:44:34Z</time>
      </trkpt>
      <trkpt lat="44.72133" lon="1.88129">
        <ele>356.31</ele>
        <time>2026-05-16T06:44:35Z</time>
      </trkpt>
      <trkpt lat="44.72132" lon="1.88131">
        <ele>356.31</ele>
        <time>2026-05-16T06:44:36Z</time>
      </trkpt>
      <trkpt lat="44.72131" lon="1.88133">
        <ele>356.31</ele>
        <time>2026-05-16T06:44:37Z</time>
      </trkpt>
      <trkpt lat="44.72123" lon="1.88156">
        <ele>356.79</ele>
        <time>2026-05-16T06:44:51Z</time>
      </trkpt>
      <trkpt lat="44.72122" lon="1.88158">
        <ele>356.79</ele>
        <time>2026-05-16T06:44:52Z</time>
      </trkpt>
      <trkpt lat="44.72122" lon="1.8816">
        <ele>356.79</ele>
        <time>2026-05-16T06:44:53Z</time>
      </trkpt>
      <trkpt lat="44.72122" lon="1.88163">
        <ele>356.79</ele>
        <time>2026-05-16T06:44:54Z</time>
      </trkpt>
      <trkpt lat="44.72117" lon="1.88182">
        <ele>357.75</ele>
        <time>2026-05-16T06:45:04Z</time>
      </trkpt>
      <trkpt lat="44.72108" lon="1.88208">
        <ele>358.71</ele>
        <time>2026-05-16T06:45:20Z</time>
      </trkpt>
      <trkpt lat="44.72099" lon="1.88233">
        <ele>360.63</ele>
        <time>2026-05-16T06:45:35Z</time>
      </trkpt>
      <trkpt lat="44.72097" lon="1.8824">
        <ele>361.11</ele>
        <time>2026-05-16T06:45:41Z</time>
      </trkpt>
      <trkpt lat="44.72097" lon="1.88241">
        <ele>361.11</ele>
        <time>2026-05-16T06:45:42Z</time>
      </trkpt>
      <trkpt lat="44.72096" lon="1.88243">
        <ele>361.11</ele>
        <time>2026-05-16T06:45:43Z</time>
      </trkpt>
      <trkpt lat="44.72096" lon="1.88245">
        <ele>361.11</ele>
        <time>2026-05-16T06:45:44Z</time>
      </trkpt>
      <trkpt lat="44.72095" lon="1.88247">
        <ele>361.59</ele>
        <time>2026-05-16T06:45:45Z</time>
      </trkpt>
      <trkpt lat="44.72094" lon="1.88249">
        <ele>361.59</ele>
        <time>2026-05-16T06:45:46Z</time>
      </trkpt>
      <trkpt lat="44.72093" lon="1.88251">
        <ele>361.59</ele>
        <time>2026-05-16T06:45:47Z</time>
      </trkpt>
      <trkpt lat="44.72084" lon="1.88272">
        <ele>362.55</ele>
        <time>2026-05-16T06:46:02Z</time>
      </trkpt>
      <trkpt lat="44.72075" lon="1.88298">
        <ele>363.52</ele>
        <time>2026-05-16T06:46:18Z</time>
      </trkpt>
      <trkpt lat="44.72077" lon="1.8831">
        <ele>363.52</ele>
        <time>2026-05-16T06:46:30Z</time>
      </trkpt>
      <trkpt lat="44.72076" lon="1.8831">
        <ele>363.52</ele>
        <time>2026-05-16T06:46:41Z</time>
      </trkpt>
      <trkpt lat="44.72074" lon="1.8831">
        <ele>363.52</ele>
        <time>2026-05-16T06:46:42Z</time>
      </trkpt>
      <trkpt lat="44.72072" lon="1.88311">
        <ele>363.52</ele>
        <time>2026-05-16T06:46:43Z</time>
      </trkpt>
      <trkpt lat="44.72071" lon="1.88312">
        <ele>363.52</ele>
        <time>2026-05-16T06:46:44Z</time>
      </trkpt>
      <trkpt lat="44.7207" lon="1.88313">
        <ele>363.52</ele>
        <time>2026-05-16T06:46:45Z</time>
      </trkpt>
      <trkpt lat="44.72068" lon="1.88323">
        <ele>363.52</ele>
        <time>2026-05-16T06:46:52Z</time>
      </trkpt>
      <trkpt lat="44.72066" lon="1.88333">
        <ele>364</ele>
        <time>2026-05-16T06:47:04Z</time>
      </trkpt>
      <trkpt lat="44.72063" lon="1.88336">
        <ele>364</ele>
        <time>2026-05-16T06:47:13Z</time>
      </trkpt>
      <trkpt lat="44.72063" lon="1.88338">
        <ele>364</ele>
        <time>2026-05-16T06:47:14Z</time>
      </trkpt>
      <trkpt lat="44.72062" lon="1.8834">
        <ele>364</ele>
        <time>2026-05-16T06:47:15Z</time>
      </trkpt>
      <trkpt lat="44.72062" lon="1.88342">
        <ele>364</ele>
        <time>2026-05-16T06:47:16Z</time>
      </trkpt>
      <trkpt lat="44.72061" lon="1.88344">
        <ele>364</ele>
        <time>2026-05-16T06:47:17Z</time>
      </trkpt>
      <trkpt lat="44.72061" lon="1.88346">
        <ele>364</ele>
        <time>2026-05-16T06:47:18Z</time>
      </trkpt>
      <trkpt lat="44.72061" lon="1.88358">
        <ele>364</ele>
        <time>2026-05-16T06:47:24Z</time>
      </trkpt>
      <trkpt lat="44.72061" lon="1.8836">
        <ele>364.48</ele>
        <time>2026-05-16T06:47:25Z</time>
      </trkpt>
      <trkpt lat="44.72062" lon="1.88362">
        <ele>364.48</ele>
        <time>2026-05-16T06:47:26Z</time>
      </trkpt>
      <trkpt lat="44.72077" lon="1.88386">
        <ele>365.44</ele>
        <time>2026-05-16T06:47:42Z</time>
      </trkpt>
      <trkpt lat="44.72093" lon="1.88407">
        <ele>365.44</ele>
        <time>2026-05-16T06:47:58Z</time>
      </trkpt>
      <trkpt lat="44.72109" lon="1.88425">
        <ele>366.4</ele>
        <time>2026-05-16T06:48:14Z</time>
      </trkpt>
      <trkpt lat="44.72127" lon="1.88445">
        <ele>366.88</ele>
        <time>2026-05-16T06:48:30Z</time>
      </trkpt>
      <trkpt lat="44.72133" lon="1.88468">
        <ele>367.36</ele>
        <time>2026-05-16T06:48:44Z</time>
      </trkpt>
      <trkpt lat="44.72134" lon="1.88489">
        <ele>368.32</ele>
        <time>2026-05-16T06:48:58Z</time>
      </trkpt>
      <trkpt lat="44.72134" lon="1.88519">
        <ele>369.28</ele>
        <time>2026-05-16T06:49:14Z</time>
      </trkpt>
      <trkpt lat="44.72134" lon="1.88543">
        <ele>369.76</ele>
        <time>2026-05-16T06:49:27Z</time>
      </trkpt>
      <trkpt lat="44.72132" lon="1.88569">
        <ele>371.21</ele>
        <time>2026-05-16T06:49:41Z</time>
      </trkpt>
      <trkpt lat="44.72131" lon="1.88594">
        <ele>372.17</ele>
        <time>2026-05-16T06:49:55Z</time>
      </trkpt>
      <trkpt lat="44.72131" lon="1.88621">
        <ele>373.61</ele>
        <time>2026-05-16T06:50:11Z</time>
      </trkpt>
      <trkpt lat="44.72132" lon="1.88629">
        <ele>374.57</ele>
        <time>2026-05-16T06:50:18Z</time>
      </trkpt>
      <trkpt lat="44.72132" lon="1.88631">
        <ele>374.57</ele>
        <time>2026-05-16T06:50:19Z</time>
      </trkpt>
      <trkpt lat="44.72132" lon="1.88657">
        <ele>376.49</ele>
        <time>2026-05-16T06:50:35Z</time>
      </trkpt>
      <trkpt lat="44.72132" lon="1.88688">
        <ele>378.42</ele>
        <time>2026-05-16T06:50:52Z</time>
      </trkpt>
      <trkpt lat="44.72129" lon="1.8872">
        <ele>379.86</ele>
        <time>2026-05-16T06:51:10Z</time>
      </trkpt>
      <trkpt lat="44.7212" lon="1.88755">
        <ele>381.78</ele>
        <time>2026-05-16T06:51:29Z</time>
      </trkpt>
      <trkpt lat="44.72115" lon="1.88782">
        <ele>382.26</ele>
        <time>2026-05-16T06:51:43Z</time>
      </trkpt>
      <trkpt lat="44.72113" lon="1.88791">
        <ele>382.74</ele>
        <time>2026-05-16T06:51:49Z</time>
      </trkpt>
      <trkpt lat="44.72113" lon="1.88792">
        <ele>382.74</ele>
        <time>2026-05-16T06:51:50Z</time>
      </trkpt>
      <trkpt lat="44.72112" lon="1.88794">
        <ele>382.74</ele>
        <time>2026-05-16T06:51:51Z</time>
      </trkpt>
      <trkpt lat="44.72104" lon="1.88828">
        <ele>384.18</ele>
        <time>2026-05-16T06:52:10Z</time>
      </trkpt>
      <trkpt lat="44.72096" lon="1.88851">
        <ele>384.18</ele>
        <time>2026-05-16T06:52:25Z</time>
      </trkpt>
      <trkpt lat="44.72088" lon="1.88882">
        <ele>384.66</ele>
        <time>2026-05-16T06:52:40Z</time>
      </trkpt>
      <trkpt lat="44.72085" lon="1.88887">
        <ele>384.66</ele>
        <time>2026-05-16T06:52:56Z</time>
      </trkpt>
      <trkpt lat="44.72085" lon="1.88891">
        <ele>384.18</ele>
        <time>2026-05-16T06:53:04Z</time>
      </trkpt>
      <trkpt lat="44.72084" lon="1.88893">
        <ele>384.18</ele>
        <time>2026-05-16T06:53:05Z</time>
      </trkpt>
      <trkpt lat="44.72084" lon="1.88895">
        <ele>384.18</ele>
        <time>2026-05-16T06:53:06Z</time>
      </trkpt>
      <trkpt lat="44.72083" lon="1.88897">
        <ele>384.18</ele>
        <time>2026-05-16T06:53:07Z</time>
      </trkpt>
      <trkpt lat="44.72082" lon="1.88899">
        <ele>384.18</ele>
        <time>2026-05-16T06:53:08Z</time>
      </trkpt>
      <trkpt lat="44.72082" lon="1.88901">
        <ele>384.66</ele>
        <time>2026-05-16T06:53:09Z</time>
      </trkpt>
      <trkpt lat="44.72081" lon="1.88903">
        <ele>384.66</ele>
        <time>2026-05-16T06:53:10Z</time>
      </trkpt>
      <trkpt lat="44.72071" lon="1.88926">
        <ele>385.15</ele>
        <time>2026-05-16T06:53:24Z</time>
      </trkpt>
      <trkpt lat="44.72062" lon="1.88951">
        <ele>385.15</ele>
        <time>2026-05-16T06:53:39Z</time>
      </trkpt>
      <trkpt lat="44.72053" lon="1.88976">
        <ele>386.11</ele>
        <time>2026-05-16T06:53:55Z</time>
      </trkpt>
      <trkpt lat="44.72041" lon="1.89005">
        <ele>387.07</ele>
        <time>2026-05-16T06:54:10Z</time>
      </trkpt>
      <trkpt lat="44.72034" lon="1.89029">
        <ele>387.07</ele>
        <time>2026-05-16T06:54:26Z</time>
      </trkpt>
      <trkpt lat="44.72024" lon="1.89052">
        <ele>387.55</ele>
        <time>2026-05-16T06:54:40Z</time>
      </trkpt>
      <trkpt lat="44.72011" lon="1.89082">
        <ele>388.51</ele>
        <time>2026-05-16T06:54:57Z</time>
      </trkpt>
      <trkpt lat="44.72005" lon="1.89108">
        <ele>388.99</ele>
        <time>2026-05-16T06:55:13Z</time>
      </trkpt>
      <trkpt lat="44.71999" lon="1.8912">
        <ele>389.47</ele>
        <time>2026-05-16T06:55:21Z</time>
      </trkpt>
      <trkpt lat="44.71995" lon="1.89155">
        <ele>390.91</ele>
        <time>2026-05-16T06:55:39Z</time>
      </trkpt>
      <trkpt lat="44.71992" lon="1.8918">
        <ele>390.43</ele>
        <time>2026-05-16T06:55:53Z</time>
      </trkpt>
      <trkpt lat="44.71989" lon="1.89208">
        <ele>390.91</ele>
        <time>2026-05-16T06:56:10Z</time>
      </trkpt>
      <trkpt lat="44.71986" lon="1.89239">
        <ele>389.47</ele>
        <time>2026-05-16T06:56:25Z</time>
      </trkpt>
      <trkpt lat="44.71986" lon="1.89259">
        <ele>388.99</ele>
        <time>2026-05-16T06:56:37Z</time>
      </trkpt>
      <trkpt lat="44.71986" lon="1.89262">
        <ele>388.99</ele>
        <time>2026-05-16T06:56:38Z</time>
      </trkpt>
      <trkpt lat="44.71986" lon="1.89282">
        <ele>388.51</ele>
        <time>2026-05-16T06:56:50Z</time>
      </trkpt>
      <trkpt lat="44.71986" lon="1.89285">
        <ele>388.51</ele>
        <time>2026-05-16T06:56:51Z</time>
      </trkpt>
      <trkpt lat="44.71986" lon="1.89287">
        <ele>388.51</ele>
        <time>2026-05-16T06:56:52Z</time>
      </trkpt>
      <trkpt lat="44.71983" lon="1.89312">
        <ele>388.51</ele>
        <time>2026-05-16T06:57:05Z</time>
      </trkpt>
      <trkpt lat="44.71979" lon="1.8934">
        <ele>388.51</ele>
        <time>2026-05-16T06:57:20Z</time>
      </trkpt>
      <trkpt lat="44.71978" lon="1.89346">
        <ele>389.95</ele>
        <time>2026-05-16T06:57:25Z</time>
      </trkpt>
      <trkpt lat="44.71969" lon="1.89373">
        <ele>389.95</ele>
        <time>2026-05-16T06:57:38Z</time>
      </trkpt>
      <trkpt lat="44.71968" lon="1.89395">
        <ele>390.91</ele>
        <time>2026-05-16T06:57:51Z</time>
      </trkpt>
      <trkpt lat="44.71965" lon="1.8942">
        <ele>391.39</ele>
        <time>2026-05-16T06:58:06Z</time>
      </trkpt>
      <trkpt lat="44.71964" lon="1.89447">
        <ele>391.87</ele>
        <time>2026-05-16T06:58:20Z</time>
      </trkpt>
      <trkpt lat="44.7196" lon="1.8948">
        <ele>392.36</ele>
        <time>2026-05-16T06:58:36Z</time>
      </trkpt>
      <trkpt lat="44.71955" lon="1.89502">
        <ele>392.84</ele>
        <time>2026-05-16T06:58:51Z</time>
      </trkpt>
      <trkpt lat="44.71954" lon="1.89514">
        <ele>393.32</ele>
        <time>2026-05-16T06:58:59Z</time>
      </trkpt>
      <trkpt lat="44.71954" lon="1.89516">
        <ele>393.8</ele>
        <time>2026-05-16T06:59:00Z</time>
      </trkpt>
      <trkpt lat="44.71949" lon="1.8954">
        <ele>394.28</ele>
        <time>2026-05-16T06:59:14Z</time>
      </trkpt>
      <trkpt lat="44.71942" lon="1.89564">
        <ele>394.76</ele>
        <time>2026-05-16T06:59:28Z</time>
      </trkpt>
      <trkpt lat="44.71939" lon="1.89586">
        <ele>395.24</ele>
        <time>2026-05-16T06:59:42Z</time>
      </trkpt>
      <trkpt lat="44.71939" lon="1.89589">
        <ele>395.24</ele>
        <time>2026-05-16T06:59:44Z</time>
      </trkpt>
      <trkpt lat="44.71939" lon="1.89591">
        <ele>395.72</ele>
        <time>2026-05-16T06:59:45Z</time>
      </trkpt>
      <trkpt lat="44.71939" lon="1.89593">
        <ele>395.72</ele>
        <time>2026-05-16T06:59:46Z</time>
      </trkpt>
      <trkpt lat="44.7194" lon="1.89595">
        <ele>395.72</ele>
        <time>2026-05-16T06:59:47Z</time>
      </trkpt>
      <trkpt lat="44.7194" lon="1.89598">
        <ele>395.72</ele>
        <time>2026-05-16T06:59:48Z</time>
      </trkpt>
      <trkpt lat="44.71941" lon="1.89626">
        <ele>396.2</ele>
        <time>2026-05-16T07:00:02Z</time>
      </trkpt>
      <trkpt lat="44.71942" lon="1.89649">
        <ele>396.2</ele>
        <time>2026-05-16T07:00:15Z</time>
      </trkpt>
      <trkpt lat="44.71951" lon="1.89665">
        <ele>396.68</ele>
        <time>2026-05-16T07:00:29Z</time>
      </trkpt>
      <trkpt lat="44.71955" lon="1.89672">
        <ele>396.68</ele>
        <time>2026-05-16T07:01:05Z</time>
      </trkpt>
      <trkpt lat="44.71952" lon="1.89672">
        <ele>396.68</ele>
        <time>2026-05-16T07:01:08Z</time>
      </trkpt>
      <trkpt lat="44.71951" lon="1.89672">
        <ele>396.68</ele>
        <time>2026-05-16T07:01:09Z</time>
      </trkpt>
      <trkpt lat="44.71948" lon="1.89673">
        <ele>396.68</ele>
        <time>2026-05-16T07:01:12Z</time>
      </trkpt>
      <trkpt lat="44.71946" lon="1.89674">
        <ele>396.68</ele>
        <time>2026-05-16T07:01:13Z</time>
      </trkpt>
      <trkpt lat="44.71944" lon="1.89681">
        <ele>396.68</ele>
        <time>2026-05-16T07:01:27Z</time>
      </trkpt>
      <trkpt lat="44.7195" lon="1.8968">
        <ele>396.68</ele>
        <time>2026-05-16T07:01:45Z</time>
      </trkpt>
      <trkpt lat="44.71951" lon="1.8968">
        <ele>396.68</ele>
        <time>2026-05-16T07:01:46Z</time>
      </trkpt>
      <trkpt lat="44.71955" lon="1.89682">
        <ele>396.68</ele>
        <time>2026-05-16T07:01:50Z</time>
      </trkpt>
      <trkpt lat="44.71956" lon="1.89684">
        <ele>396.68</ele>
        <time>2026-05-16T07:01:51Z</time>
      </trkpt>
      <trkpt lat="44.71956" lon="1.89686">
        <ele>396.68</ele>
        <time>2026-05-16T07:01:52Z</time>
      </trkpt>
      <trkpt lat="44.71957" lon="1.89687">
        <ele>396.68</ele>
        <time>2026-05-16T07:01:53Z</time>
      </trkpt>
      <trkpt lat="44.71957" lon="1.89689">
        <ele>396.68</ele>
        <time>2026-05-16T07:01:54Z</time>
      </trkpt>
      <trkpt lat="44.71957" lon="1.89691">
        <ele>396.68</ele>
        <time>2026-05-16T07:01:55Z</time>
      </trkpt>
      <trkpt lat="44.71957" lon="1.89714">
        <ele>395.24</ele>
        <time>2026-05-16T07:02:08Z</time>
      </trkpt>
      <trkpt lat="44.71957" lon="1.89736">
        <ele>393.32</ele>
        <time>2026-05-16T07:02:21Z</time>
      </trkpt>
      <trkpt lat="44.71958" lon="1.89761">
        <ele>391.87</ele>
        <time>2026-05-16T07:02:35Z</time>
      </trkpt>
      <trkpt lat="44.71956" lon="1.8979">
        <ele>390.43</ele>
        <time>2026-05-16T07:02:48Z</time>
      </trkpt>
      <trkpt lat="44.71953" lon="1.89817">
        <ele>388.51</ele>
        <time>2026-05-16T07:03:03Z</time>
      </trkpt>
      <trkpt lat="44.71953" lon="1.8982">
        <ele>388.51</ele>
        <time>2026-05-16T07:03:04Z</time>
      </trkpt>
      <trkpt lat="44.71953" lon="1.89822">
        <ele>388.51</ele>
        <time>2026-05-16T07:03:05Z</time>
      </trkpt>
      <trkpt lat="44.71952" lon="1.89824">
        <ele>388.03</ele>
        <time>2026-05-16T07:03:06Z</time>
      </trkpt>
      <trkpt lat="44.71952" lon="1.89827">
        <ele>388.51</ele>
        <time>2026-05-16T07:03:07Z</time>
      </trkpt>
      <trkpt lat="44.71952" lon="1.89829">
        <ele>388.03</ele>
        <time>2026-05-16T07:03:08Z</time>
      </trkpt>
      <trkpt lat="44.71952" lon="1.8986">
        <ele>385.15</ele>
        <time>2026-05-16T07:03:25Z</time>
      </trkpt>
      <trkpt lat="44.71959" lon="1.89886">
        <ele>383.7</ele>
        <time>2026-05-16T07:03:38Z</time>
      </trkpt>
      <trkpt lat="44.7196" lon="1.89888">
        <ele>383.7</ele>
        <time>2026-05-16T07:03:39Z</time>
      </trkpt>
      <trkpt lat="44.7196" lon="1.8989">
        <ele>383.22</ele>
        <time>2026-05-16T07:03:40Z</time>
      </trkpt>
      <trkpt lat="44.71961" lon="1.89892">
        <ele>383.22</ele>
        <time>2026-05-16T07:03:41Z</time>
      </trkpt>
      <trkpt lat="44.71962" lon="1.89894">
        <ele>383.22</ele>
        <time>2026-05-16T07:03:42Z</time>
      </trkpt>
      <trkpt lat="44.71962" lon="1.89896">
        <ele>382.74</ele>
        <time>2026-05-16T07:03:43Z</time>
      </trkpt>
      <trkpt lat="44.71962" lon="1.89898">
        <ele>382.74</ele>
        <time>2026-05-16T07:03:44Z</time>
      </trkpt>
      <trkpt lat="44.71963" lon="1.89909">
        <ele>382.26</ele>
        <time>2026-05-16T07:03:49Z</time>
      </trkpt>
      <trkpt lat="44.7197" lon="1.89931">
        <ele>381.3</ele>
        <time>2026-05-16T07:04:01Z</time>
      </trkpt>
      <trkpt lat="44.71974" lon="1.89948">
        <ele>380.34</ele>
        <time>2026-05-16T07:04:11Z</time>
      </trkpt>
      <trkpt lat="44.71978" lon="1.89971">
        <ele>379.86</ele>
        <time>2026-05-16T07:04:23Z</time>
      </trkpt>
      <trkpt lat="44.71981" lon="1.89993">
        <ele>378.9</ele>
        <time>2026-05-16T07:04:35Z</time>
      </trkpt>
      <trkpt lat="44.71982" lon="1.90016">
        <ele>378.42</ele>
        <time>2026-05-16T07:04:47Z</time>
      </trkpt>
      <trkpt lat="44.71983" lon="1.90043">
        <ele>378.42</ele>
        <time>2026-05-16T07:05:02Z</time>
      </trkpt>
      <trkpt lat="44.71984" lon="1.90054">
        <ele>378.42</ele>
        <time>2026-05-16T07:05:07Z</time>
      </trkpt>
      <trkpt lat="44.71983" lon="1.90056">
        <ele>378.42</ele>
        <time>2026-05-16T07:05:08Z</time>
      </trkpt>
      <trkpt lat="44.71983" lon="1.90058">
        <ele>378.42</ele>
        <time>2026-05-16T07:05:09Z</time>
      </trkpt>
      <trkpt lat="44.71983" lon="1.9006">
        <ele>378.42</ele>
        <time>2026-05-16T07:05:10Z</time>
      </trkpt>
      <trkpt lat="44.7198" lon="1.90088">
        <ele>377.94</ele>
        <time>2026-05-16T07:05:26Z</time>
      </trkpt>
      <trkpt lat="44.71975" lon="1.90115">
        <ele>377.94</ele>
        <time>2026-05-16T07:05:41Z</time>
      </trkpt>
      <trkpt lat="44.71974" lon="1.90143">
        <ele>377.94</ele>
        <time>2026-05-16T07:05:55Z</time>
      </trkpt>
      <trkpt lat="44.71976" lon="1.90153">
        <ele>377.94</ele>
        <time>2026-05-16T07:06:02Z</time>
      </trkpt>
      <trkpt lat="44.71976" lon="1.90154">
        <ele>377.94</ele>
        <time>2026-05-16T07:06:03Z</time>
      </trkpt>
      <trkpt lat="44.71976" lon="1.90156">
        <ele>377.94</ele>
        <time>2026-05-16T07:06:04Z</time>
      </trkpt>
      <trkpt lat="44.71976" lon="1.90159">
        <ele>377.94</ele>
        <time>2026-05-16T07:06:05Z</time>
      </trkpt>
      <trkpt lat="44.71976" lon="1.9016">
        <ele>377.94</ele>
        <time>2026-05-16T07:06:06Z</time>
      </trkpt>
      <trkpt lat="44.71978" lon="1.90181">
        <ele>379.38</ele>
        <time>2026-05-16T07:06:17Z</time>
      </trkpt>
      <trkpt lat="44.71982" lon="1.90211">
        <ele>379.86</ele>
        <time>2026-05-16T07:06:34Z</time>
      </trkpt>
      <trkpt lat="44.71984" lon="1.90237">
        <ele>381.3</ele>
        <time>2026-05-16T07:06:50Z</time>
      </trkpt>
      <trkpt lat="44.71986" lon="1.90262">
        <ele>382.26</ele>
        <time>2026-05-16T07:07:05Z</time>
      </trkpt>
      <trkpt lat="44.7199" lon="1.90281">
        <ele>383.7</ele>
        <time>2026-05-16T07:07:18Z</time>
      </trkpt>
      <trkpt lat="44.71996" lon="1.90305">
        <ele>385.15</ele>
        <time>2026-05-16T07:07:33Z</time>
      </trkpt>
      <trkpt lat="44.72001" lon="1.90331">
        <ele>387.07</ele>
        <time>2026-05-16T07:07:48Z</time>
      </trkpt>
      <trkpt lat="44.72002" lon="1.90355">
        <ele>388.51</ele>
        <time>2026-05-16T07:08:02Z</time>
      </trkpt>
      <trkpt lat="44.72003" lon="1.90369">
        <ele>389.95</ele>
        <time>2026-05-16T07:08:17Z</time>
      </trkpt>
      <trkpt lat="44.72005" lon="1.90382">
        <ele>390.91</ele>
        <time>2026-05-16T07:08:48Z</time>
      </trkpt>
      <trkpt lat="44.72005" lon="1.90385">
        <ele>390.91</ele>
        <time>2026-05-16T07:08:50Z</time>
      </trkpt>
      <trkpt lat="44.72005" lon="1.90386">
        <ele>391.39</ele>
        <time>2026-05-16T07:08:51Z</time>
      </trkpt>
      <trkpt lat="44.72007" lon="1.90412">
        <ele>392.36</ele>
        <time>2026-05-16T07:09:06Z</time>
      </trkpt>
      <trkpt lat="44.72007" lon="1.90436">
        <ele>393.8</ele>
        <time>2026-05-16T07:09:20Z</time>
      </trkpt>
      <trkpt lat="44.72009" lon="1.90461">
        <ele>395.72</ele>
        <time>2026-05-16T07:09:36Z</time>
      </trkpt>
      <trkpt lat="44.72009" lon="1.90486">
        <ele>397.64</ele>
        <time>2026-05-16T07:09:50Z</time>
      </trkpt>
      <trkpt lat="44.72009" lon="1.90498">
        <ele>398.12</ele>
        <time>2026-05-16T07:09:56Z</time>
      </trkpt>
      <trkpt lat="44.72012" lon="1.90522">
        <ele>399.57</ele>
        <time>2026-05-16T07:10:12Z</time>
      </trkpt>
      <trkpt lat="44.72014" lon="1.90545">
        <ele>401.49</ele>
        <time>2026-05-16T07:10:27Z</time>
      </trkpt>
      <trkpt lat="44.72017" lon="1.90574">
        <ele>403.41</ele>
        <time>2026-05-16T07:10:44Z</time>
      </trkpt>
      <trkpt lat="44.72016" lon="1.90602">
        <ele>402.93</ele>
        <time>2026-05-16T07:11:00Z</time>
      </trkpt>
      <trkpt lat="44.72017" lon="1.9063">
        <ele>401.49</ele>
        <time>2026-05-16T07:11:13Z</time>
      </trkpt>
      <trkpt lat="44.72019" lon="1.90659">
        <ele>399.57</ele>
        <time>2026-05-16T07:11:29Z</time>
      </trkpt>
      <trkpt lat="44.72023" lon="1.90692">
        <ele>396.68</ele>
        <time>2026-05-16T07:11:46Z</time>
      </trkpt>
      <trkpt lat="44.72024" lon="1.90699">
        <ele>396.2</ele>
        <time>2026-05-16T07:11:50Z</time>
      </trkpt>
      <trkpt lat="44.72025" lon="1.90727">
        <ele>394.28</ele>
        <time>2026-05-16T07:12:03Z</time>
      </trkpt>
      <trkpt lat="44.72031" lon="1.9075">
        <ele>392.84</ele>
        <time>2026-05-16T07:12:16Z</time>
      </trkpt>
      <trkpt lat="44.72042" lon="1.90776">
        <ele>391.87</ele>
        <time>2026-05-16T07:12:30Z</time>
      </trkpt>
      <trkpt lat="44.7205" lon="1.90799">
        <ele>391.87</ele>
        <time>2026-05-16T07:12:44Z</time>
      </trkpt>
      <trkpt lat="44.72059" lon="1.90825">
        <ele>390.91</ele>
        <time>2026-05-16T07:12:59Z</time>
      </trkpt>
      <trkpt lat="44.72069" lon="1.90846">
        <ele>388.51</ele>
        <time>2026-05-16T07:13:13Z</time>
      </trkpt>
      <trkpt lat="44.72075" lon="1.90866">
        <ele>387.55</ele>
        <time>2026-05-16T07:13:25Z</time>
      </trkpt>
      <trkpt lat="44.72084" lon="1.90893">
        <ele>385.63</ele>
        <time>2026-05-16T07:13:40Z</time>
      </trkpt>
      <trkpt lat="44.72085" lon="1.90902">
        <ele>384.66</ele>
        <time>2026-05-16T07:13:45Z</time>
      </trkpt>
      <trkpt lat="44.72086" lon="1.90904">
        <ele>384.66</ele>
        <time>2026-05-16T07:13:46Z</time>
      </trkpt>
      <trkpt lat="44.72087" lon="1.90907">
        <ele>384.18</ele>
        <time>2026-05-16T07:13:48Z</time>
      </trkpt>
      <trkpt lat="44.72088" lon="1.90921">
        <ele>383.22</ele>
        <time>2026-05-16T07:13:55Z</time>
      </trkpt>
      <trkpt lat="44.72089" lon="1.90923">
        <ele>383.22</ele>
        <time>2026-05-16T07:13:56Z</time>
      </trkpt>
      <trkpt lat="44.72089" lon="1.90925">
        <ele>383.22</ele>
        <time>2026-05-16T07:13:57Z</time>
      </trkpt>
      <trkpt lat="44.7209" lon="1.90927">
        <ele>383.22</ele>
        <time>2026-05-16T07:13:58Z</time>
      </trkpt>
      <trkpt lat="44.7209" lon="1.90929">
        <ele>383.22</ele>
        <time>2026-05-16T07:13:59Z</time>
      </trkpt>
      <trkpt lat="44.7209" lon="1.90931">
        <ele>383.22</ele>
        <time>2026-05-16T07:14:00Z</time>
      </trkpt>
      <trkpt lat="44.7209" lon="1.90933">
        <ele>383.22</ele>
        <time>2026-05-16T07:14:01Z</time>
      </trkpt>
      <trkpt lat="44.72093" lon="1.90947">
        <ele>382.26</ele>
        <time>2026-05-16T07:14:09Z</time>
      </trkpt>
      <trkpt lat="44.72093" lon="1.90949">
        <ele>381.78</ele>
        <time>2026-05-16T07:14:10Z</time>
      </trkpt>
      <trkpt lat="44.72093" lon="1.90951">
        <ele>381.3</ele>
        <time>2026-05-16T07:14:11Z</time>
      </trkpt>
      <trkpt lat="44.72093" lon="1.90953">
        <ele>381.3</ele>
        <time>2026-05-16T07:14:12Z</time>
      </trkpt>
      <trkpt lat="44.72093" lon="1.90954">
        <ele>381.3</ele>
        <time>2026-05-16T07:14:13Z</time>
      </trkpt>
      <trkpt lat="44.72104" lon="1.90979">
        <ele>379.86</ele>
        <time>2026-05-16T07:14:27Z</time>
      </trkpt>
      <trkpt lat="44.7211" lon="1.91002">
        <ele>377.94</ele>
        <time>2026-05-16T07:14:40Z</time>
      </trkpt>
      <trkpt lat="44.72117" lon="1.9103">
        <ele>376.01</ele>
        <time>2026-05-16T07:14:55Z</time>
      </trkpt>
      <trkpt lat="44.72123" lon="1.91052">
        <ele>374.09</ele>
        <time>2026-05-16T07:15:07Z</time>
      </trkpt>
      <trkpt lat="44.72129" lon="1.91078">
        <ele>372.65</ele>
        <time>2026-05-16T07:15:21Z</time>
      </trkpt>
      <trkpt lat="44.72137" lon="1.91103">
        <ele>371.21</ele>
        <time>2026-05-16T07:15:36Z</time>
      </trkpt>
      <trkpt lat="44.72144" lon="1.91128">
        <ele>370.24</ele>
        <time>2026-05-16T07:15:50Z</time>
      </trkpt>
      <trkpt lat="44.7215" lon="1.91158">
        <ele>368.8</ele>
        <time>2026-05-16T07:16:06Z</time>
      </trkpt>
      <trkpt lat="44.72154" lon="1.91183">
        <ele>367.36</ele>
        <time>2026-05-16T07:16:19Z</time>
      </trkpt>
      <trkpt lat="44.7216" lon="1.91205">
        <ele>365.92</ele>
        <time>2026-05-16T07:16:31Z</time>
      </trkpt>
      <trkpt lat="44.72168" lon="1.91233">
        <ele>364.96</ele>
        <time>2026-05-16T07:16:46Z</time>
      </trkpt>
      <trkpt lat="44.72178" lon="1.91254">
        <ele>364.48</ele>
        <time>2026-05-16T07:17:00Z</time>
      </trkpt>
      <trkpt lat="44.72189" lon="1.91275">
        <ele>364</ele>
        <time>2026-05-16T07:17:14Z</time>
      </trkpt>
      <trkpt lat="44.72197" lon="1.91289">
        <ele>364</ele>
        <time>2026-05-16T07:17:25Z</time>
      </trkpt>
      <trkpt lat="44.72208" lon="1.91304">
        <ele>364</ele>
        <time>2026-05-16T07:17:37Z</time>
      </trkpt>
      <trkpt lat="44.72209" lon="1.91306">
        <ele>364</ele>
        <time>2026-05-16T07:17:38Z</time>
      </trkpt>
      <trkpt lat="44.72222" lon="1.91332">
        <ele>364</ele>
        <time>2026-05-16T07:17:53Z</time>
      </trkpt>
      <trkpt lat="44.72235" lon="1.9135">
        <ele>365.44</ele>
        <time>2026-05-16T07:18:07Z</time>
      </trkpt>
      <trkpt lat="44.72251" lon="1.9137">
        <ele>365.92</ele>
        <time>2026-05-16T07:18:23Z</time>
      </trkpt>
      <trkpt lat="44.72268" lon="1.91393">
        <ele>366.88</ele>
        <time>2026-05-16T07:18:40Z</time>
      </trkpt>
      <trkpt lat="44.72285" lon="1.91407">
        <ele>368.8</ele>
        <time>2026-05-16T07:18:55Z</time>
      </trkpt>
      <trkpt lat="44.72302" lon="1.91419">
        <ele>370.24</ele>
        <time>2026-05-16T07:19:10Z</time>
      </trkpt>
      <trkpt lat="44.7232" lon="1.9143">
        <ele>371.21</ele>
        <time>2026-05-16T07:19:25Z</time>
      </trkpt>
      <trkpt lat="44.72335" lon="1.91442">
        <ele>372.65</ele>
        <time>2026-05-16T07:19:39Z</time>
      </trkpt>
      <trkpt lat="44.72351" lon="1.91456">
        <ele>372.65</ele>
        <time>2026-05-16T07:19:53Z</time>
      </trkpt>
      <trkpt lat="44.72366" lon="1.9147">
        <ele>372.65</ele>
        <time>2026-05-16T07:20:07Z</time>
      </trkpt>
      <trkpt lat="44.72379" lon="1.91488">
        <ele>371.21</ele>
        <time>2026-05-16T07:20:22Z</time>
      </trkpt>
      <trkpt lat="44.7238" lon="1.91494">
        <ele>371.21</ele>
        <time>2026-05-16T07:20:36Z</time>
      </trkpt>
      <trkpt lat="44.72382" lon="1.91494">
        <ele>371.21</ele>
        <time>2026-05-16T07:21:04Z</time>
      </trkpt>
      <trkpt lat="44.72394" lon="1.91501">
        <ele>371.21</ele>
        <time>2026-05-16T07:21:16Z</time>
      </trkpt>
      <trkpt lat="44.72403" lon="1.91509">
        <ele>371.21</ele>
        <time>2026-05-16T07:21:24Z</time>
      </trkpt>
      <trkpt lat="44.72404" lon="1.9151">
        <ele>371.21</ele>
        <time>2026-05-16T07:21:25Z</time>
      </trkpt>
      <trkpt lat="44.72405" lon="1.91512">
        <ele>371.21</ele>
        <time>2026-05-16T07:21:26Z</time>
      </trkpt>
      <trkpt lat="44.72406" lon="1.91513">
        <ele>370.73</ele>
        <time>2026-05-16T07:21:27Z</time>
      </trkpt>
      <trkpt lat="44.72407" lon="1.91514">
        <ele>370.73</ele>
        <time>2026-05-16T07:21:28Z</time>
      </trkpt>
      <trkpt lat="44.72421" lon="1.91532">
        <ele>370.73</ele>
        <time>2026-05-16T07:21:42Z</time>
      </trkpt>
      <trkpt lat="44.72436" lon="1.91547">
        <ele>370.73</ele>
        <time>2026-05-16T07:21:55Z</time>
      </trkpt>
      <trkpt lat="44.7245" lon="1.91564">
        <ele>370.73</ele>
        <time>2026-05-16T07:22:09Z</time>
      </trkpt>
      <trkpt lat="44.72467" lon="1.91584">
        <ele>370.24</ele>
        <time>2026-05-16T07:22:26Z</time>
      </trkpt>
      <trkpt lat="44.72485" lon="1.91604">
        <ele>369.76</ele>
        <time>2026-05-16T07:22:42Z</time>
      </trkpt>
      <trkpt lat="44.72497" lon="1.91619">
        <ele>369.76</ele>
        <time>2026-05-16T07:22:53Z</time>
      </trkpt>
      <trkpt lat="44.72498" lon="1.9162">
        <ele>369.76</ele>
        <time>2026-05-16T07:22:54Z</time>
      </trkpt>
      <trkpt lat="44.72499" lon="1.91621">
        <ele>369.76</ele>
        <time>2026-05-16T07:22:55Z</time>
      </trkpt>
      <trkpt lat="44.725" lon="1.91622">
        <ele>369.76</ele>
        <time>2026-05-16T07:22:56Z</time>
      </trkpt>
      <trkpt lat="44.72501" lon="1.91624">
        <ele>369.76</ele>
        <time>2026-05-16T07:22:57Z</time>
      </trkpt>
      <trkpt lat="44.72514" lon="1.91641">
        <ele>369.76</ele>
        <time>2026-05-16T07:23:11Z</time>
      </trkpt>
      <trkpt lat="44.72526" lon="1.91659">
        <ele>369.76</ele>
        <time>2026-05-16T07:23:26Z</time>
      </trkpt>
      <trkpt lat="44.72544" lon="1.91683">
        <ele>371.21</ele>
        <time>2026-05-16T07:23:44Z</time>
      </trkpt>
      <trkpt lat="44.72553" lon="1.91694">
        <ele>371.69</ele>
        <time>2026-05-16T07:23:53Z</time>
      </trkpt>
      <trkpt lat="44.72554" lon="1.91696">
        <ele>371.69</ele>
        <time>2026-05-16T07:23:54Z</time>
      </trkpt>
      <trkpt lat="44.72555" lon="1.91698">
        <ele>371.69</ele>
        <time>2026-05-16T07:23:55Z</time>
      </trkpt>
      <trkpt lat="44.72556" lon="1.91699">
        <ele>371.69</ele>
        <time>2026-05-16T07:23:56Z</time>
      </trkpt>
      <trkpt lat="44.72557" lon="1.91701">
        <ele>371.69</ele>
        <time>2026-05-16T07:23:57Z</time>
      </trkpt>
      <trkpt lat="44.72558" lon="1.91702">
        <ele>371.69</ele>
        <time>2026-05-16T07:23:58Z</time>
      </trkpt>
      <trkpt lat="44.72559" lon="1.91703">
        <ele>371.69</ele>
        <time>2026-05-16T07:23:59Z</time>
      </trkpt>
      <trkpt lat="44.7256" lon="1.91705">
        <ele>372.17</ele>
        <time>2026-05-16T07:24:00Z</time>
      </trkpt>
      <trkpt lat="44.72561" lon="1.91706">
        <ele>372.17</ele>
        <time>2026-05-16T07:24:01Z</time>
      </trkpt>
      <trkpt lat="44.72576" lon="1.91729">
        <ele>373.13</ele>
        <time>2026-05-16T07:24:18Z</time>
      </trkpt>
      <trkpt lat="44.72591" lon="1.91751">
        <ele>374.57</ele>
        <time>2026-05-16T07:24:34Z</time>
      </trkpt>
      <trkpt lat="44.726" lon="1.91772">
        <ele>375.05</ele>
        <time>2026-05-16T07:24:48Z</time>
      </trkpt>
      <trkpt lat="44.72614" lon="1.9179">
        <ele>376.49</ele>
        <time>2026-05-16T07:25:03Z</time>
      </trkpt>
      <trkpt lat="44.72633" lon="1.91816">
        <ele>376.97</ele>
        <time>2026-05-16T07:25:21Z</time>
      </trkpt>
      <trkpt lat="44.72645" lon="1.91831">
        <ele>376.97</ele>
        <time>2026-05-16T07:25:34Z</time>
      </trkpt>
      <trkpt lat="44.72657" lon="1.91843">
        <ele>377.45</ele>
        <time>2026-05-16T07:25:47Z</time>
      </trkpt>
      <trkpt lat="44.72658" lon="1.91843">
        <ele>377.45</ele>
        <time>2026-05-16T07:26:00Z</time>
      </trkpt>
      <trkpt lat="44.72659" lon="1.91844">
        <ele>377.45</ele>
        <time>2026-05-16T07:26:01Z</time>
      </trkpt>
      <trkpt lat="44.72674" lon="1.91864">
        <ele>377.45</ele>
        <time>2026-05-16T07:26:16Z</time>
      </trkpt>
      <trkpt lat="44.72692" lon="1.91889">
        <ele>377.45</ele>
        <time>2026-05-16T07:26:34Z</time>
      </trkpt>
      <trkpt lat="44.72702" lon="1.91921">
        <ele>377.45</ele>
        <time>2026-05-16T07:26:53Z</time>
      </trkpt>
      <trkpt lat="44.72708" lon="1.91943">
        <ele>377.45</ele>
        <time>2026-05-16T07:27:05Z</time>
      </trkpt>
      <trkpt lat="44.72709" lon="1.91945">
        <ele>377.45</ele>
        <time>2026-05-16T07:27:06Z</time>
      </trkpt>
      <trkpt lat="44.7271" lon="1.91947">
        <ele>377.45</ele>
        <time>2026-05-16T07:27:07Z</time>
      </trkpt>
      <trkpt lat="44.7272" lon="1.91973">
        <ele>377.45</ele>
        <time>2026-05-16T07:27:23Z</time>
      </trkpt>
      <trkpt lat="44.7273" lon="1.91995">
        <ele>377.45</ele>
        <time>2026-05-16T07:27:37Z</time>
      </trkpt>
      <trkpt lat="44.72739" lon="1.92018">
        <ele>377.94</ele>
        <time>2026-05-16T07:27:51Z</time>
      </trkpt>
      <trkpt lat="44.7274" lon="1.92014">
        <ele>377.94</ele>
        <time>2026-05-16T07:27:54Z</time>
      </trkpt>
      <trkpt lat="44.7274" lon="1.92012">
        <ele>377.94</ele>
        <time>2026-05-16T07:27:55Z</time>
      </trkpt>
      <trkpt lat="44.72738" lon="1.92008">
        <ele>377.94</ele>
        <time>2026-05-16T07:28:11Z</time>
      </trkpt>
      <trkpt lat="44.72739" lon="1.92011">
        <ele>377.94</ele>
        <time>2026-05-16T07:28:14Z</time>
      </trkpt>
      <trkpt lat="44.7274" lon="1.92013">
        <ele>378.42</ele>
        <time>2026-05-16T07:28:15Z</time>
      </trkpt>
      <trkpt lat="44.72748" lon="1.92035">
        <ele>378.42</ele>
        <time>2026-05-16T07:28:27Z</time>
      </trkpt>
      <trkpt lat="44.72754" lon="1.92052">
        <ele>378.42</ele>
        <time>2026-05-16T07:28:39Z</time>
      </trkpt>
      <trkpt lat="44.72754" lon="1.92053">
        <ele>378.42</ele>
        <time>2026-05-16T07:28:47Z</time>
      </trkpt>
      <trkpt lat="44.72759" lon="1.92063">
        <ele>378.42</ele>
        <time>2026-05-16T07:28:54Z</time>
      </trkpt>
      <trkpt lat="44.72767" lon="1.92076">
        <ele>378.42</ele>
        <time>2026-05-16T07:29:09Z</time>
      </trkpt>
      <trkpt lat="44.72773" lon="1.92088">
        <ele>378.42</ele>
        <time>2026-05-16T07:29:16Z</time>
      </trkpt>
      <trkpt lat="44.72775" lon="1.92091">
        <ele>378.42</ele>
        <time>2026-05-16T07:29:19Z</time>
      </trkpt>
      <trkpt lat="44.72785" lon="1.92119">
        <ele>378.9</ele>
        <time>2026-05-16T07:29:36Z</time>
      </trkpt>
      <trkpt lat="44.72794" lon="1.9214">
        <ele>378.9</ele>
        <time>2026-05-16T07:29:50Z</time>
      </trkpt>
      <trkpt lat="44.72804" lon="1.92163">
        <ele>379.38</ele>
        <time>2026-05-16T07:30:04Z</time>
      </trkpt>
      <trkpt lat="44.72805" lon="1.92165">
        <ele>379.38</ele>
        <time>2026-05-16T07:30:06Z</time>
      </trkpt>
      <trkpt lat="44.72815" lon="1.92191">
        <ele>379.38</ele>
        <time>2026-05-16T07:30:20Z</time>
      </trkpt>
      <trkpt lat="44.72826" lon="1.92223">
        <ele>379.86</ele>
        <time>2026-05-16T07:30:36Z</time>
      </trkpt>
      <trkpt lat="44.72832" lon="1.92236">
        <ele>379.86</ele>
        <time>2026-05-16T07:30:46Z</time>
      </trkpt>
      <trkpt lat="44.72836" lon="1.92245">
        <ele>379.86</ele>
        <time>2026-05-16T07:30:52Z</time>
      </trkpt>
      <trkpt lat="44.72836" lon="1.92247">
        <ele>379.86</ele>
        <time>2026-05-16T07:30:55Z</time>
      </trkpt>
      <trkpt lat="44.72835" lon="1.92253">
        <ele>379.86</ele>
        <time>2026-05-16T07:30:58Z</time>
      </trkpt>
      <trkpt lat="44.72834" lon="1.92256">
        <ele>379.86</ele>
        <time>2026-05-16T07:30:59Z</time>
      </trkpt>
      <trkpt lat="44.72834" lon="1.92259">
        <ele>379.86</ele>
        <time>2026-05-16T07:31:00Z</time>
      </trkpt>
      <trkpt lat="44.72843" lon="1.92266">
        <ele>380.34</ele>
        <time>2026-05-16T07:31:07Z</time>
      </trkpt>
      <trkpt lat="44.72845" lon="1.92267">
        <ele>380.34</ele>
        <time>2026-05-16T07:31:08Z</time>
      </trkpt>
      <trkpt lat="44.72847" lon="1.92268">
        <ele>380.34</ele>
        <time>2026-05-16T07:31:09Z</time>
      </trkpt>
      <trkpt lat="44.72861" lon="1.92277">
        <ele>381.78</ele>
        <time>2026-05-16T07:31:21Z</time>
      </trkpt>
      <trkpt lat="44.72866" lon="1.92281">
        <ele>381.3</ele>
        <time>2026-05-16T07:31:33Z</time>
      </trkpt>
      <trkpt lat="44.72867" lon="1.92282">
        <ele>381.3</ele>
        <time>2026-05-16T07:31:55Z</time>
      </trkpt>
      <trkpt lat="44.72866" lon="1.9228">
        <ele>381.78</ele>
        <time>2026-05-16T07:32:11Z</time>
      </trkpt>
      <trkpt lat="44.72864" lon="1.92282">
        <ele>384.66</ele>
        <time>2026-05-16T07:32:21Z</time>
      </trkpt>
      <trkpt lat="44.72867" lon="1.92281">
        <ele>381.3</ele>
        <time>2026-05-16T07:37:09Z</time>
      </trkpt>
      <trkpt lat="44.72867" lon="1.9228">
        <ele>381.3</ele>
        <time>2026-05-16T07:37:54Z</time>
      </trkpt>
      <trkpt lat="44.72869" lon="1.92276">
        <ele>381.3</ele>
        <time>2026-05-16T07:38:31Z</time>
      </trkpt>
      <trkpt lat="44.72875" lon="1.9227">
        <ele>381.3</ele>
        <time>2026-05-16T07:39:05Z</time>
      </trkpt>
      <trkpt lat="44.72874" lon="1.92276">
        <ele>381.3</ele>
        <time>2026-05-16T07:39:36Z</time>
      </trkpt>
      <trkpt lat="44.72866" lon="1.92278">
        <ele>381.3</ele>
        <time>2026-05-16T07:40:05Z</time>
      </trkpt>
      <trkpt lat="44.72862" lon="1.92275">
        <ele>381.3</ele>
        <time>2026-05-16T07:40:33Z</time>
      </trkpt>
      <trkpt lat="44.72866" lon="1.92274">
        <ele>381.3</ele>
        <time>2026-05-16T07:40:56Z</time>
      </trkpt>
      <trkpt lat="44.72862" lon="1.92275">
        <ele>381.3</ele>
        <time>2026-05-16T07:41:24Z</time>
      </trkpt>
      <trkpt lat="44.72864" lon="1.92284">
        <ele>381.3</ele>
        <time>2026-05-16T07:41:48Z</time>
      </trkpt>
      <trkpt lat="44.72868" lon="1.92283">
        <ele>381.3</ele>
        <time>2026-05-16T07:42:16Z</time>
      </trkpt>
      <trkpt lat="44.72868" lon="1.92282">
        <ele>382.26</ele>
        <time>2026-05-16T07:42:41Z</time>
      </trkpt>
      <trkpt lat="44.72869" lon="1.92277">
        <ele>380.82</ele>
        <time>2026-05-16T07:43:02Z</time>
      </trkpt>
      <trkpt lat="44.72873" lon="1.92277">
        <ele>380.82</ele>
        <time>2026-05-16T07:43:24Z</time>
      </trkpt>
      <trkpt lat="44.72867" lon="1.92279">
        <ele>382.26</ele>
        <time>2026-05-16T07:43:51Z</time>
      </trkpt>
      <trkpt lat="44.72867" lon="1.92279">
        <ele>382.26</ele>
        <time>2026-05-16T07:43:52Z</time>
      </trkpt>
      <trkpt lat="44.72875" lon="1.92269">
        <ele>381.78</ele>
        <time>2026-05-16T07:44:23Z</time>
      </trkpt>
      <trkpt lat="44.72879" lon="1.92263">
        <ele>381.78</ele>
        <time>2026-05-16T07:44:52Z</time>
      </trkpt>
      <trkpt lat="44.7288" lon="1.92262">
        <ele>381.78</ele>
        <time>2026-05-16T07:45:22Z</time>
      </trkpt>
      <trkpt lat="44.72878" lon="1.92268">
        <ele>381.78</ele>
        <time>2026-05-16T07:45:51Z</time>
      </trkpt>
      <trkpt lat="44.72874" lon="1.92276">
        <ele>380.82</ele>
        <time>2026-05-16T07:46:18Z</time>
      </trkpt>
      <trkpt lat="44.72874" lon="1.92284">
        <ele>380.82</ele>
        <time>2026-05-16T07:46:43Z</time>
      </trkpt>
      <trkpt lat="44.7288" lon="1.92285">
        <ele>380.82</ele>
        <time>2026-05-16T07:47:07Z</time>
      </trkpt>
      <trkpt lat="44.72872" lon="1.92283">
        <ele>380.82</ele>
        <time>2026-05-16T07:47:32Z</time>
      </trkpt>
      <trkpt lat="44.72873" lon="1.92279">
        <ele>380.82</ele>
        <time>2026-05-16T07:48:00Z</time>
      </trkpt>
      <trkpt lat="44.72872" lon="1.92276">
        <ele>380.82</ele>
        <time>2026-05-16T07:48:25Z</time>
      </trkpt>
      <trkpt lat="44.7287" lon="1.92275">
        <ele>380.82</ele>
        <time>2026-05-16T07:48:41Z</time>
      </trkpt>
      <trkpt lat="44.72872" lon="1.92273">
        <ele>380.82</ele>
        <time>2026-05-16T07:48:54Z</time>
      </trkpt>
      <trkpt lat="44.72873" lon="1.92275">
        <ele>380.82</ele>
        <time>2026-05-16T07:49:17Z</time>
      </trkpt>
      <trkpt lat="44.7287" lon="1.92269">
        <ele>380.82</ele>
        <time>2026-05-16T07:49:30Z</time>
      </trkpt>
      <trkpt lat="44.72866" lon="1.92261">
        <ele>380.34</ele>
        <time>2026-05-16T07:49:50Z</time>
      </trkpt>
      <trkpt lat="44.72864" lon="1.92256">
        <ele>380.34</ele>
        <time>2026-05-16T07:49:57Z</time>
      </trkpt>
      <trkpt lat="44.7286" lon="1.92253">
        <ele>380.34</ele>
        <time>2026-05-16T07:50:01Z</time>
      </trkpt>
      <trkpt lat="44.72855" lon="1.92256">
        <ele>379.86</ele>
        <time>2026-05-16T07:50:09Z</time>
      </trkpt>
      <trkpt lat="44.7285" lon="1.92265">
        <ele>379.86</ele>
        <time>2026-05-16T07:50:15Z</time>
      </trkpt>
      <trkpt lat="44.72849" lon="1.92271">
        <ele>379.86</ele>
        <time>2026-05-16T07:50:19Z</time>
      </trkpt>
      <trkpt lat="44.72843" lon="1.92284">
        <ele>379.86</ele>
        <time>2026-05-16T07:50:28Z</time>
      </trkpt>
      <trkpt lat="44.72836" lon="1.92304">
        <ele>379.38</ele>
        <time>2026-05-16T07:50:39Z</time>
      </trkpt>
      <trkpt lat="44.72829" lon="1.92309">
        <ele>379.38</ele>
        <time>2026-05-16T07:50:44Z</time>
      </trkpt>
      <trkpt lat="44.72825" lon="1.9235">
        <ele>379.38</ele>
        <time>2026-05-16T07:51:01Z</time>
      </trkpt>
      <trkpt lat="44.72817" lon="1.92381">
        <ele>379.86</ele>
        <time>2026-05-16T07:51:17Z</time>
      </trkpt>
      <trkpt lat="44.72815" lon="1.92413">
        <ele>379.86</ele>
        <time>2026-05-16T07:51:34Z</time>
      </trkpt>
      <trkpt lat="44.72818" lon="1.92422">
        <ele>379.86</ele>
        <time>2026-05-16T07:51:38Z</time>
      </trkpt>
      <trkpt lat="44.72818" lon="1.92424">
        <ele>379.86</ele>
        <time>2026-05-16T07:51:39Z</time>
      </trkpt>
      <trkpt lat="44.72818" lon="1.92427">
        <ele>379.86</ele>
        <time>2026-05-16T07:51:40Z</time>
      </trkpt>
      <trkpt lat="44.72818" lon="1.92429">
        <ele>379.86</ele>
        <time>2026-05-16T07:51:41Z</time>
      </trkpt>
      <trkpt lat="44.72815" lon="1.92442">
        <ele>380.34</ele>
        <time>2026-05-16T07:51:55Z</time>
      </trkpt>
      <trkpt lat="44.72814" lon="1.92445">
        <ele>380.34</ele>
        <time>2026-05-16T07:52:00Z</time>
      </trkpt>
      <trkpt lat="44.72813" lon="1.92446">
        <ele>380.34</ele>
        <time>2026-05-16T07:52:01Z</time>
      </trkpt>
      <trkpt lat="44.72807" lon="1.92459">
        <ele>380.34</ele>
        <time>2026-05-16T07:52:12Z</time>
      </trkpt>
      <trkpt lat="44.72806" lon="1.9246">
        <ele>380.34</ele>
        <time>2026-05-16T07:52:13Z</time>
      </trkpt>
      <trkpt lat="44.72804" lon="1.92461">
        <ele>380.34</ele>
        <time>2026-05-16T07:52:14Z</time>
      </trkpt>
      <trkpt lat="44.72799" lon="1.92473">
        <ele>380.34</ele>
        <time>2026-05-16T07:52:21Z</time>
      </trkpt>
      <trkpt lat="44.72799" lon="1.92476">
        <ele>380.34</ele>
        <time>2026-05-16T07:52:22Z</time>
      </trkpt>
      <trkpt lat="44.728" lon="1.92493">
        <ele>380.34</ele>
        <time>2026-05-16T07:52:30Z</time>
      </trkpt>
      <trkpt lat="44.728" lon="1.92495">
        <ele>380.34</ele>
        <time>2026-05-16T07:52:31Z</time>
      </trkpt>
      <trkpt lat="44.728" lon="1.92501">
        <ele>380.34</ele>
        <time>2026-05-16T07:52:34Z</time>
      </trkpt>
      <trkpt lat="44.72799" lon="1.92503">
        <ele>380.34</ele>
        <time>2026-05-16T07:52:35Z</time>
      </trkpt>
      <trkpt lat="44.72799" lon="1.9251">
        <ele>380.34</ele>
        <time>2026-05-16T07:52:39Z</time>
      </trkpt>
      <trkpt lat="44.72799" lon="1.92512">
        <ele>380.34</ele>
        <time>2026-05-16T07:52:40Z</time>
      </trkpt>
      <trkpt lat="44.72799" lon="1.92516">
        <ele>380.34</ele>
        <time>2026-05-16T07:52:42Z</time>
      </trkpt>
      <trkpt lat="44.72799" lon="1.92519">
        <ele>380.34</ele>
        <time>2026-05-16T07:52:43Z</time>
      </trkpt>
      <trkpt lat="44.72799" lon="1.92521">
        <ele>380.34</ele>
        <time>2026-05-16T07:52:44Z</time>
      </trkpt>
      <trkpt lat="44.72797" lon="1.92522">
        <ele>380.34</ele>
        <time>2026-05-16T07:52:45Z</time>
      </trkpt>
      <trkpt lat="44.72795" lon="1.92549">
        <ele>380.82</ele>
        <time>2026-05-16T07:53:02Z</time>
      </trkpt>
      <trkpt lat="44.72795" lon="1.92556">
        <ele>380.82</ele>
        <time>2026-05-16T07:53:07Z</time>
      </trkpt>
      <trkpt lat="44.72795" lon="1.92558">
        <ele>380.82</ele>
        <time>2026-05-16T07:53:08Z</time>
      </trkpt>
      <trkpt lat="44.72794" lon="1.9256">
        <ele>380.82</ele>
        <time>2026-05-16T07:53:09Z</time>
      </trkpt>
      <trkpt lat="44.72791" lon="1.92561">
        <ele>380.82</ele>
        <time>2026-05-16T07:53:10Z</time>
      </trkpt>
      <trkpt lat="44.72789" lon="1.92563">
        <ele>380.82</ele>
        <time>2026-05-16T07:53:11Z</time>
      </trkpt>
      <trkpt lat="44.72787" lon="1.92569">
        <ele>380.82</ele>
        <time>2026-05-16T07:53:15Z</time>
      </trkpt>
      <trkpt lat="44.72787" lon="1.92571">
        <ele>380.82</ele>
        <time>2026-05-16T07:53:16Z</time>
      </trkpt>
      <trkpt lat="44.72789" lon="1.92587">
        <ele>380.82</ele>
        <time>2026-05-16T07:53:34Z</time>
      </trkpt>
      <trkpt lat="44.7279" lon="1.92605">
        <ele>380.82</ele>
        <time>2026-05-16T07:53:46Z</time>
      </trkpt>
      <trkpt lat="44.7279" lon="1.92607">
        <ele>380.82</ele>
        <time>2026-05-16T07:53:47Z</time>
      </trkpt>
      <trkpt lat="44.72792" lon="1.92612">
        <ele>381.3</ele>
        <time>2026-05-16T07:54:03Z</time>
      </trkpt>
      <trkpt lat="44.72779" lon="1.92623">
        <ele>381.3</ele>
        <time>2026-05-16T07:54:18Z</time>
      </trkpt>
      <trkpt lat="44.7279" lon="1.92628">
        <ele>380.82</ele>
        <time>2026-05-16T07:54:32Z</time>
      </trkpt>
      <trkpt lat="44.72794" lon="1.92637">
        <ele>380.34</ele>
        <time>2026-05-16T07:54:53Z</time>
      </trkpt>
      <trkpt lat="44.72782" lon="1.92651">
        <ele>380.34</ele>
        <time>2026-05-16T07:55:09Z</time>
      </trkpt>
      <trkpt lat="44.72778" lon="1.92665">
        <ele>379.86</ele>
        <time>2026-05-16T07:55:21Z</time>
      </trkpt>
      <trkpt lat="44.72781" lon="1.92662">
        <ele>379.38</ele>
        <time>2026-05-16T07:55:50Z</time>
      </trkpt>
      <trkpt lat="44.72781" lon="1.92668">
        <ele>379.38</ele>
        <time>2026-05-16T07:56:03Z</time>
      </trkpt>
      <trkpt lat="44.72782" lon="1.92674">
        <ele>378.9</ele>
        <time>2026-05-16T07:56:09Z</time>
      </trkpt>
      <trkpt lat="44.72782" lon="1.92675">
        <ele>378.9</ele>
        <time>2026-05-16T07:56:10Z</time>
      </trkpt>
      <trkpt lat="44.72781" lon="1.92688">
        <ele>378.9</ele>
        <time>2026-05-16T07:56:23Z</time>
      </trkpt>
      <trkpt lat="44.7278" lon="1.9269">
        <ele>378.9</ele>
        <time>2026-05-16T07:56:24Z</time>
      </trkpt>
      <trkpt lat="44.7278" lon="1.92692">
        <ele>378.9</ele>
        <time>2026-05-16T07:56:25Z</time>
      </trkpt>
      <trkpt lat="44.72779" lon="1.92702">
        <ele>378.9</ele>
        <time>2026-05-16T07:56:31Z</time>
      </trkpt>
      <trkpt lat="44.72779" lon="1.92704">
        <ele>378.9</ele>
        <time>2026-05-16T07:56:32Z</time>
      </trkpt>
      <trkpt lat="44.72779" lon="1.92707">
        <ele>378.9</ele>
        <time>2026-05-16T07:56:33Z</time>
      </trkpt>
      <trkpt lat="44.72779" lon="1.92709">
        <ele>378.9</ele>
        <time>2026-05-16T07:56:34Z</time>
      </trkpt>
      <trkpt lat="44.72779" lon="1.92711">
        <ele>378.9</ele>
        <time>2026-05-16T07:56:35Z</time>
      </trkpt>
      <trkpt lat="44.72777" lon="1.92736">
        <ele>379.38</ele>
        <time>2026-05-16T07:56:48Z</time>
      </trkpt>
      <trkpt lat="44.72776" lon="1.92738">
        <ele>379.38</ele>
        <time>2026-05-16T07:56:50Z</time>
      </trkpt>
      <trkpt lat="44.72774" lon="1.92741">
        <ele>379.38</ele>
        <time>2026-05-16T07:56:53Z</time>
      </trkpt>
      <trkpt lat="44.72759" lon="1.92743">
        <ele>379.38</ele>
        <time>2026-05-16T07:57:06Z</time>
      </trkpt>
      <trkpt lat="44.72754" lon="1.92744">
        <ele>379.38</ele>
        <time>2026-05-16T07:57:16Z</time>
      </trkpt>
      <trkpt lat="44.72753" lon="1.92744">
        <ele>379.38</ele>
        <time>2026-05-16T07:57:20Z</time>
      </trkpt>
      <trkpt lat="44.72751" lon="1.92743">
        <ele>379.38</ele>
        <time>2026-05-16T07:57:22Z</time>
      </trkpt>
      <trkpt lat="44.7275" lon="1.92742">
        <ele>379.38</ele>
        <time>2026-05-16T07:57:23Z</time>
      </trkpt>
      <trkpt lat="44.72729" lon="1.92739">
        <ele>379.38</ele>
        <time>2026-05-16T07:57:38Z</time>
      </trkpt>
      <trkpt lat="44.72715" lon="1.92739">
        <ele>378.42</ele>
        <time>2026-05-16T07:57:49Z</time>
      </trkpt>
      <trkpt lat="44.72707" lon="1.92738">
        <ele>378.42</ele>
        <time>2026-05-16T07:57:56Z</time>
      </trkpt>
      <trkpt lat="44.72687" lon="1.9273">
        <ele>377.94</ele>
        <time>2026-05-16T07:58:09Z</time>
      </trkpt>
      <trkpt lat="44.72665" lon="1.92731">
        <ele>376.97</ele>
        <time>2026-05-16T07:58:23Z</time>
      </trkpt>
      <trkpt lat="44.72648" lon="1.92743">
        <ele>376.49</ele>
        <time>2026-05-16T07:58:37Z</time>
      </trkpt>
      <trkpt lat="44.72646" lon="1.92743">
        <ele>376.49</ele>
        <time>2026-05-16T07:58:38Z</time>
      </trkpt>
      <trkpt lat="44.72645" lon="1.92744">
        <ele>376.49</ele>
        <time>2026-05-16T07:58:39Z</time>
      </trkpt>
      <trkpt lat="44.72643" lon="1.92744">
        <ele>376.49</ele>
        <time>2026-05-16T07:58:40Z</time>
      </trkpt>
      <trkpt lat="44.72642" lon="1.92744">
        <ele>376.49</ele>
        <time>2026-05-16T07:58:41Z</time>
      </trkpt>
      <trkpt lat="44.72642" lon="1.92743">
        <ele>376.49</ele>
        <time>2026-05-16T07:58:42Z</time>
      </trkpt>
      <trkpt lat="44.7263" lon="1.92751">
        <ele>376.49</ele>
        <time>2026-05-16T07:58:55Z</time>
      </trkpt>
      <trkpt lat="44.72629" lon="1.9275">
        <ele>376.49</ele>
        <time>2026-05-16T07:58:57Z</time>
      </trkpt>
      <trkpt lat="44.72628" lon="1.92753">
        <ele>375.05</ele>
        <time>2026-05-16T07:59:09Z</time>
      </trkpt>
      <trkpt lat="44.72627" lon="1.92761">
        <ele>376.49</ele>
        <time>2026-05-16T07:59:16Z</time>
      </trkpt>
      <trkpt lat="44.72626" lon="1.92763">
        <ele>376.49</ele>
        <time>2026-05-16T07:59:17Z</time>
      </trkpt>
      <trkpt lat="44.72622" lon="1.92767">
        <ele>378.42</ele>
        <time>2026-05-16T07:59:22Z</time>
      </trkpt>
      <trkpt lat="44.72619" lon="1.92768">
        <ele>376.97</ele>
        <time>2026-05-16T07:59:25Z</time>
      </trkpt>
      <trkpt lat="44.72602" lon="1.92769">
        <ele>376.97</ele>
        <time>2026-05-16T07:59:42Z</time>
      </trkpt>
      <trkpt lat="44.72598" lon="1.92765">
        <ele>376.97</ele>
        <time>2026-05-16T07:59:51Z</time>
      </trkpt>
      <trkpt lat="44.72597" lon="1.92764">
        <ele>376.97</ele>
        <time>2026-05-16T07:59:52Z</time>
      </trkpt>
      <trkpt lat="44.72595" lon="1.92763">
        <ele>376.97</ele>
        <time>2026-05-16T07:59:53Z</time>
      </trkpt>
      <trkpt lat="44.72593" lon="1.92762">
        <ele>376.97</ele>
        <time>2026-05-16T07:59:54Z</time>
      </trkpt>
      <trkpt lat="44.72592" lon="1.92761">
        <ele>376.97</ele>
        <time>2026-05-16T07:59:55Z</time>
      </trkpt>
      <trkpt lat="44.7259" lon="1.9276">
        <ele>376.97</ele>
        <time>2026-05-16T07:59:56Z</time>
      </trkpt>
      <trkpt lat="44.72575" lon="1.9275">
        <ele>376.97</ele>
        <time>2026-05-16T08:00:08Z</time>
      </trkpt>
      <trkpt lat="44.72559" lon="1.92737">
        <ele>376.49</ele>
        <time>2026-05-16T08:00:21Z</time>
      </trkpt>
      <trkpt lat="44.72541" lon="1.92726">
        <ele>376.01</ele>
        <time>2026-05-16T08:00:35Z</time>
      </trkpt>
      <trkpt lat="44.72522" lon="1.92715">
        <ele>376.01</ele>
        <time>2026-05-16T08:00:48Z</time>
      </trkpt>
      <trkpt lat="44.72505" lon="1.927">
        <ele>376.01</ele>
        <time>2026-05-16T08:01:02Z</time>
      </trkpt>
      <trkpt lat="44.72492" lon="1.92694">
        <ele>376.01</ele>
        <time>2026-05-16T08:01:14Z</time>
      </trkpt>
      <trkpt lat="44.72489" lon="1.92696">
        <ele>375.05</ele>
        <time>2026-05-16T08:01:21Z</time>
      </trkpt>
      <trkpt lat="44.72488" lon="1.92699">
        <ele>375.05</ele>
        <time>2026-05-16T08:01:22Z</time>
      </trkpt>
      <trkpt lat="44.72487" lon="1.927">
        <ele>375.05</ele>
        <time>2026-05-16T08:01:23Z</time>
      </trkpt>
      <trkpt lat="44.72486" lon="1.92703">
        <ele>376.49</ele>
        <time>2026-05-16T08:01:25Z</time>
      </trkpt>
      <trkpt lat="44.72475" lon="1.92725">
        <ele>376.97</ele>
        <time>2026-05-16T08:01:39Z</time>
      </trkpt>
      <trkpt lat="44.7247" lon="1.9273">
        <ele>376.97</ele>
        <time>2026-05-16T08:01:57Z</time>
      </trkpt>
      <trkpt lat="44.72467" lon="1.92739">
        <ele>376.97</ele>
        <time>2026-05-16T08:02:24Z</time>
      </trkpt>
      <trkpt lat="44.72452" lon="1.92765">
        <ele>377.45</ele>
        <time>2026-05-16T08:02:40Z</time>
      </trkpt>
      <trkpt lat="44.72445" lon="1.9278">
        <ele>377.45</ele>
        <time>2026-05-16T08:02:51Z</time>
      </trkpt>
      <trkpt lat="44.72444" lon="1.92781">
        <ele>377.45</ele>
        <time>2026-05-16T08:02:52Z</time>
      </trkpt>
      <trkpt lat="44.72433" lon="1.92807">
        <ele>377.94</ele>
        <time>2026-05-16T08:03:07Z</time>
      </trkpt>
      <trkpt lat="44.72421" lon="1.92839">
        <ele>378.9</ele>
        <time>2026-05-16T08:03:24Z</time>
      </trkpt>
      <trkpt lat="44.72409" lon="1.92863">
        <ele>379.38</ele>
        <time>2026-05-16T08:03:39Z</time>
      </trkpt>
      <trkpt lat="44.72393" lon="1.92896">
        <ele>380.34</ele>
        <time>2026-05-16T08:03:58Z</time>
      </trkpt>
      <trkpt lat="44.72383" lon="1.92917">
        <ele>380.34</ele>
        <time>2026-05-16T08:04:12Z</time>
      </trkpt>
      <trkpt lat="44.72379" lon="1.92935">
        <ele>380.82</ele>
        <time>2026-05-16T08:04:25Z</time>
      </trkpt>
      <trkpt lat="44.72368" lon="1.92962">
        <ele>381.78</ele>
        <time>2026-05-16T08:04:44Z</time>
      </trkpt>
      <trkpt lat="44.72356" lon="1.92995">
        <ele>382.26</ele>
        <time>2026-05-16T08:05:03Z</time>
      </trkpt>
      <trkpt lat="44.72347" lon="1.93028">
        <ele>382.26</ele>
        <time>2026-05-16T08:05:24Z</time>
      </trkpt>
      <trkpt lat="44.72339" lon="1.93048">
        <ele>382.26</ele>
        <time>2026-05-16T08:05:38Z</time>
      </trkpt>
      <trkpt lat="44.72337" lon="1.93049">
        <ele>382.26</ele>
        <time>2026-05-16T08:05:39Z</time>
      </trkpt>
      <trkpt lat="44.72328" lon="1.93072">
        <ele>383.22</ele>
        <time>2026-05-16T08:05:54Z</time>
      </trkpt>
      <trkpt lat="44.72325" lon="1.93098">
        <ele>383.7</ele>
        <time>2026-05-16T08:06:08Z</time>
      </trkpt>
      <trkpt lat="44.72325" lon="1.93103">
        <ele>383.7</ele>
        <time>2026-05-16T08:06:11Z</time>
      </trkpt>
      <trkpt lat="44.72325" lon="1.93105">
        <ele>383.7</ele>
        <time>2026-05-16T08:06:12Z</time>
      </trkpt>
      <trkpt lat="44.72325" lon="1.93107">
        <ele>383.7</ele>
        <time>2026-05-16T08:06:13Z</time>
      </trkpt>
      <trkpt lat="44.72324" lon="1.93108">
        <ele>383.7</ele>
        <time>2026-05-16T08:06:14Z</time>
      </trkpt>
      <trkpt lat="44.72325" lon="1.9311">
        <ele>383.7</ele>
        <time>2026-05-16T08:06:15Z</time>
      </trkpt>
      <trkpt lat="44.72327" lon="1.93131">
        <ele>384.18</ele>
        <time>2026-05-16T08:06:30Z</time>
      </trkpt>
      <trkpt lat="44.72327" lon="1.93152">
        <ele>385.15</ele>
        <time>2026-05-16T08:06:43Z</time>
      </trkpt>
      <trkpt lat="44.72323" lon="1.93178">
        <ele>385.63</ele>
        <time>2026-05-16T08:06:57Z</time>
      </trkpt>
      <trkpt lat="44.7232" lon="1.93211">
        <ele>386.11</ele>
        <time>2026-05-16T08:07:15Z</time>
      </trkpt>
      <trkpt lat="44.72317" lon="1.93219">
        <ele>386.11</ele>
        <time>2026-05-16T08:07:20Z</time>
      </trkpt>
      <trkpt lat="44.7231" lon="1.93245">
        <ele>386.59</ele>
        <time>2026-05-16T08:07:37Z</time>
      </trkpt>
      <trkpt lat="44.72302" lon="1.93269">
        <ele>386.59</ele>
        <time>2026-05-16T08:07:52Z</time>
      </trkpt>
      <trkpt lat="44.72292" lon="1.93298">
        <ele>386.59</ele>
        <time>2026-05-16T08:08:08Z</time>
      </trkpt>
      <trkpt lat="44.72284" lon="1.93322">
        <ele>387.55</ele>
        <time>2026-05-16T08:08:23Z</time>
      </trkpt>
      <trkpt lat="44.7228" lon="1.93342">
        <ele>388.51</ele>
        <time>2026-05-16T08:08:36Z</time>
      </trkpt>
      <trkpt lat="44.72278" lon="1.93349">
        <ele>389.47</ele>
        <time>2026-05-16T08:08:42Z</time>
      </trkpt>
      <trkpt lat="44.72278" lon="1.93351">
        <ele>389.47</ele>
        <time>2026-05-16T08:08:43Z</time>
      </trkpt>
      <trkpt lat="44.72272" lon="1.93376">
        <ele>391.39</ele>
        <time>2026-05-16T08:08:59Z</time>
      </trkpt>
      <trkpt lat="44.72269" lon="1.93403">
        <ele>392.36</ele>
        <time>2026-05-16T08:09:14Z</time>
      </trkpt>
      <trkpt lat="44.72268" lon="1.93405">
        <ele>392.36</ele>
        <time>2026-05-16T08:09:16Z</time>
      </trkpt>
      <trkpt lat="44.72268" lon="1.93407">
        <ele>392.36</ele>
        <time>2026-05-16T08:09:17Z</time>
      </trkpt>
      <trkpt lat="44.72264" lon="1.93436">
        <ele>393.32</ele>
        <time>2026-05-16T08:09:32Z</time>
      </trkpt>
      <trkpt lat="44.72264" lon="1.9344">
        <ele>393.32</ele>
        <time>2026-05-16T08:09:35Z</time>
      </trkpt>
      <trkpt lat="44.72264" lon="1.93443">
        <ele>393.32</ele>
        <time>2026-05-16T08:09:36Z</time>
      </trkpt>
      <trkpt lat="44.72263" lon="1.93461">
        <ele>393.32</ele>
        <time>2026-05-16T08:09:46Z</time>
      </trkpt>
      <trkpt lat="44.72263" lon="1.93463">
        <ele>393.32</ele>
        <time>2026-05-16T08:09:47Z</time>
      </trkpt>
      <trkpt lat="44.72263" lon="1.93465">
        <ele>393.8</ele>
        <time>2026-05-16T08:09:48Z</time>
      </trkpt>
      <trkpt lat="44.72263" lon="1.93468">
        <ele>393.8</ele>
        <time>2026-05-16T08:09:49Z</time>
      </trkpt>
      <trkpt lat="44.72263" lon="1.9347">
        <ele>393.8</ele>
        <time>2026-05-16T08:09:50Z</time>
      </trkpt>
      <trkpt lat="44.72263" lon="1.93492">
        <ele>393.8</ele>
        <time>2026-05-16T08:10:03Z</time>
      </trkpt>
      <trkpt lat="44.72262" lon="1.93497">
        <ele>393.8</ele>
        <time>2026-05-16T08:10:07Z</time>
      </trkpt>
      <trkpt lat="44.72261" lon="1.93499">
        <ele>393.8</ele>
        <time>2026-05-16T08:10:08Z</time>
      </trkpt>
      <trkpt lat="44.72257" lon="1.93515">
        <ele>393.8</ele>
        <time>2026-05-16T08:10:19Z</time>
      </trkpt>
      <trkpt lat="44.72257" lon="1.93517">
        <ele>393.8</ele>
        <time>2026-05-16T08:10:20Z</time>
      </trkpt>
      <trkpt lat="44.72246" lon="1.93543">
        <ele>393.8</ele>
        <time>2026-05-16T08:10:36Z</time>
      </trkpt>
      <trkpt lat="44.72233" lon="1.93568">
        <ele>393.8</ele>
        <time>2026-05-16T08:10:53Z</time>
      </trkpt>
      <trkpt lat="44.72222" lon="1.93596">
        <ele>394.28</ele>
        <time>2026-05-16T08:11:10Z</time>
      </trkpt>
      <trkpt lat="44.72222" lon="1.93598">
        <ele>394.28</ele>
        <time>2026-05-16T08:11:11Z</time>
      </trkpt>
      <trkpt lat="44.72217" lon="1.93616">
        <ele>394.76</ele>
        <time>2026-05-16T08:11:23Z</time>
      </trkpt>
      <trkpt lat="44.72211" lon="1.93635">
        <ele>394.76</ele>
        <time>2026-05-16T08:11:36Z</time>
      </trkpt>
      <trkpt lat="44.72201" lon="1.93658">
        <ele>395.72</ele>
        <time>2026-05-16T08:11:50Z</time>
      </trkpt>
      <trkpt lat="44.72195" lon="1.93661">
        <ele>396.2</ele>
        <time>2026-05-16T08:12:09Z</time>
      </trkpt>
      <trkpt lat="44.7219" lon="1.93678">
        <ele>396.2</ele>
        <time>2026-05-16T08:12:36Z</time>
      </trkpt>
      <trkpt lat="44.72177" lon="1.93708">
        <ele>397.64</ele>
        <time>2026-05-16T08:12:53Z</time>
      </trkpt>
      <trkpt lat="44.72167" lon="1.93732">
        <ele>399.57</ele>
        <time>2026-05-16T08:13:08Z</time>
      </trkpt>
      <trkpt lat="44.72156" lon="1.93756">
        <ele>401.49</ele>
        <time>2026-05-16T08:13:25Z</time>
      </trkpt>
      <trkpt lat="44.72152" lon="1.93781">
        <ele>401.97</ele>
        <time>2026-05-16T08:13:40Z</time>
      </trkpt>
      <trkpt lat="44.72146" lon="1.93802">
        <ele>403.41</ele>
        <time>2026-05-16T08:13:55Z</time>
      </trkpt>
      <trkpt lat="44.72146" lon="1.93803">
        <ele>403.41</ele>
        <time>2026-05-16T08:13:56Z</time>
      </trkpt>
      <trkpt lat="44.72139" lon="1.93829">
        <ele>404.37</ele>
        <time>2026-05-16T08:14:13Z</time>
      </trkpt>
      <trkpt lat="44.72137" lon="1.9384">
        <ele>404.85</ele>
        <time>2026-05-16T08:14:19Z</time>
      </trkpt>
      <trkpt lat="44.72137" lon="1.93843">
        <ele>404.85</ele>
        <time>2026-05-16T08:14:20Z</time>
      </trkpt>
      <trkpt lat="44.72137" lon="1.93845">
        <ele>404.85</ele>
        <time>2026-05-16T08:14:21Z</time>
      </trkpt>
      <trkpt lat="44.72136" lon="1.93848">
        <ele>405.33</ele>
        <time>2026-05-16T08:14:22Z</time>
      </trkpt>
      <trkpt lat="44.72136" lon="1.9385">
        <ele>405.33</ele>
        <time>2026-05-16T08:14:23Z</time>
      </trkpt>
      <trkpt lat="44.72133" lon="1.93875">
        <ele>407.74</ele>
        <time>2026-05-16T08:14:38Z</time>
      </trkpt>
      <trkpt lat="44.72129" lon="1.93903">
        <ele>408.7</ele>
        <time>2026-05-16T08:14:55Z</time>
      </trkpt>
      <trkpt lat="44.72126" lon="1.93919">
        <ele>409.66</ele>
        <time>2026-05-16T08:15:04Z</time>
      </trkpt>
      <trkpt lat="44.72126" lon="1.93922">
        <ele>409.66</ele>
        <time>2026-05-16T08:15:05Z</time>
      </trkpt>
      <trkpt lat="44.72122" lon="1.93947">
        <ele>410.62</ele>
        <time>2026-05-16T08:15:21Z</time>
      </trkpt>
      <trkpt lat="44.7212" lon="1.93959">
        <ele>411.1</ele>
        <time>2026-05-16T08:15:27Z</time>
      </trkpt>
      <trkpt lat="44.72119" lon="1.93961">
        <ele>411.1</ele>
        <time>2026-05-16T08:15:28Z</time>
      </trkpt>
      <trkpt lat="44.72119" lon="1.93963">
        <ele>411.58</ele>
        <time>2026-05-16T08:15:29Z</time>
      </trkpt>
      <trkpt lat="44.72109" lon="1.93997">
        <ele>412.54</ele>
        <time>2026-05-16T08:15:46Z</time>
      </trkpt>
      <trkpt lat="44.72116" lon="1.93998">
        <ele>413.02</ele>
        <time>2026-05-16T08:16:00Z</time>
      </trkpt>
      <trkpt lat="44.72117" lon="1.94001">
        <ele>413.02</ele>
        <time>2026-05-16T08:16:17Z</time>
      </trkpt>
      <trkpt lat="44.72117" lon="1.94004">
        <ele>413.02</ele>
        <time>2026-05-16T08:16:18Z</time>
      </trkpt>
      <trkpt lat="44.72107" lon="1.94017">
        <ele>413.02</ele>
        <time>2026-05-16T08:16:29Z</time>
      </trkpt>
      <trkpt lat="44.72097" lon="1.94043">
        <ele>413.5</ele>
        <time>2026-05-16T08:16:46Z</time>
      </trkpt>
      <trkpt lat="44.72087" lon="1.94069">
        <ele>414.47</ele>
        <time>2026-05-16T08:17:03Z</time>
      </trkpt>
      <trkpt lat="44.72083" lon="1.94086">
        <ele>414.95</ele>
        <time>2026-05-16T08:17:12Z</time>
      </trkpt>
      <trkpt lat="44.72075" lon="1.94108">
        <ele>415.91</ele>
        <time>2026-05-16T08:17:28Z</time>
      </trkpt>
      <trkpt lat="44.72069" lon="1.94146">
        <ele>418.31</ele>
        <time>2026-05-16T08:17:49Z</time>
      </trkpt>
      <trkpt lat="44.72069" lon="1.94166">
        <ele>419.75</ele>
        <time>2026-05-16T08:18:00Z</time>
      </trkpt>
      <trkpt lat="44.72068" lon="1.94169">
        <ele>419.75</ele>
        <time>2026-05-16T08:18:01Z</time>
      </trkpt>
      <trkpt lat="44.72067" lon="1.94171">
        <ele>419.75</ele>
        <time>2026-05-16T08:18:02Z</time>
      </trkpt>
      <trkpt lat="44.72063" lon="1.94209">
        <ele>421.68</ele>
        <time>2026-05-16T08:18:20Z</time>
      </trkpt>
      <trkpt lat="44.72055" lon="1.94231">
        <ele>422.16</ele>
        <time>2026-05-16T08:18:37Z</time>
      </trkpt>
      <trkpt lat="44.72042" lon="1.94251">
        <ele>423.12</ele>
        <time>2026-05-16T08:18:54Z</time>
      </trkpt>
      <trkpt lat="44.72031" lon="1.94264">
        <ele>424.08</ele>
        <time>2026-05-16T08:19:06Z</time>
      </trkpt>
      <trkpt lat="44.72021" lon="1.94272">
        <ele>424.56</ele>
        <time>2026-05-16T08:19:16Z</time>
      </trkpt>
      <trkpt lat="44.72003" lon="1.9429">
        <ele>426.96</ele>
        <time>2026-05-16T08:19:36Z</time>
      </trkpt>
      <trkpt lat="44.71997" lon="1.943">
        <ele>427.92</ele>
        <time>2026-05-16T08:19:42Z</time>
      </trkpt>
      <trkpt lat="44.71994" lon="1.94301">
        <ele>428.4</ele>
        <time>2026-05-16T08:19:43Z</time>
      </trkpt>
      <trkpt lat="44.71992" lon="1.94302">
        <ele>428.4</ele>
        <time>2026-05-16T08:19:44Z</time>
      </trkpt>
      <trkpt lat="44.71991" lon="1.94304">
        <ele>428.4</ele>
        <time>2026-05-16T08:19:45Z</time>
      </trkpt>
      <trkpt lat="44.71989" lon="1.94306">
        <ele>428.4</ele>
        <time>2026-05-16T08:19:46Z</time>
      </trkpt>
      <trkpt lat="44.71986" lon="1.94312">
        <ele>429.37</ele>
        <time>2026-05-16T08:19:49Z</time>
      </trkpt>
      <trkpt lat="44.71986" lon="1.94324">
        <ele>429.37</ele>
        <time>2026-05-16T08:19:53Z</time>
      </trkpt>
      <trkpt lat="44.71984" lon="1.94337">
        <ele>429.85</ele>
        <time>2026-05-16T08:20:00Z</time>
      </trkpt>
      <trkpt lat="44.71976" lon="1.94367">
        <ele>432.73</ele>
        <time>2026-05-16T08:20:18Z</time>
      </trkpt>
      <trkpt lat="44.71967" lon="1.94392">
        <ele>435.13</ele>
        <time>2026-05-16T08:20:36Z</time>
      </trkpt>
      <trkpt lat="44.71957" lon="1.94411">
        <ele>437.54</ele>
        <time>2026-05-16T08:20:52Z</time>
      </trkpt>
      <trkpt lat="44.71952" lon="1.94421">
        <ele>438.98</ele>
        <time>2026-05-16T08:21:00Z</time>
      </trkpt>
      <trkpt lat="44.71941" lon="1.9444">
        <ele>440.42</ele>
        <time>2026-05-16T08:21:19Z</time>
      </trkpt>
      <trkpt lat="44.71925" lon="1.94457">
        <ele>442.34</ele>
        <time>2026-05-16T08:21:37Z</time>
      </trkpt>
      <trkpt lat="44.71907" lon="1.94483">
        <ele>444.27</ele>
        <time>2026-05-16T08:21:55Z</time>
      </trkpt>
      <trkpt lat="44.71896" lon="1.94493">
        <ele>444.75</ele>
        <time>2026-05-16T08:22:05Z</time>
      </trkpt>
      <trkpt lat="44.71878" lon="1.94506">
        <ele>446.19</ele>
        <time>2026-05-16T08:22:22Z</time>
      </trkpt>
      <trkpt lat="44.71859" lon="1.94523">
        <ele>447.15</ele>
        <time>2026-05-16T08:22:41Z</time>
      </trkpt>
      <trkpt lat="44.71857" lon="1.94527">
        <ele>447.15</ele>
        <time>2026-05-16T08:22:45Z</time>
      </trkpt>
      <trkpt lat="44.71855" lon="1.94528">
        <ele>447.15</ele>
        <time>2026-05-16T08:22:46Z</time>
      </trkpt>
      <trkpt lat="44.71854" lon="1.9453">
        <ele>447.15</ele>
        <time>2026-05-16T08:22:47Z</time>
      </trkpt>
      <trkpt lat="44.71837" lon="1.94549">
        <ele>448.11</ele>
        <time>2026-05-16T08:23:05Z</time>
      </trkpt>
      <trkpt lat="44.71819" lon="1.94569">
        <ele>450.52</ele>
        <time>2026-05-16T08:23:23Z</time>
      </trkpt>
      <trkpt lat="44.71813" lon="1.94572">
        <ele>451</ele>
        <time>2026-05-16T08:23:40Z</time>
      </trkpt>
      <trkpt lat="44.71802" lon="1.94569">
        <ele>452.92</ele>
        <time>2026-05-16T08:24:08Z</time>
      </trkpt>
      <trkpt lat="44.71776" lon="1.94567">
        <ele>454.84</ele>
        <time>2026-05-16T08:24:26Z</time>
      </trkpt>
      <trkpt lat="44.71756" lon="1.94563">
        <ele>457.72</ele>
        <time>2026-05-16T08:24:45Z</time>
      </trkpt>
      <trkpt lat="44.71741" lon="1.94558">
        <ele>460.61</ele>
        <time>2026-05-16T08:25:05Z</time>
      </trkpt>
      <trkpt lat="44.71715" lon="1.94547">
        <ele>464.45</ele>
        <time>2026-05-16T08:25:20Z</time>
      </trkpt>
      <trkpt lat="44.717" lon="1.94544">
        <ele>467.34</ele>
        <time>2026-05-16T08:25:35Z</time>
      </trkpt>
      <trkpt lat="44.71685" lon="1.94554">
        <ele>470.22</ele>
        <time>2026-05-16T08:25:53Z</time>
      </trkpt>
      <trkpt lat="44.71665" lon="1.94558">
        <ele>473.11</ele>
        <time>2026-05-16T08:26:13Z</time>
      </trkpt>
      <trkpt lat="44.71654" lon="1.94561">
        <ele>474.55</ele>
        <time>2026-05-16T08:26:21Z</time>
      </trkpt>
      <trkpt lat="44.71653" lon="1.94561">
        <ele>474.55</ele>
        <time>2026-05-16T08:26:22Z</time>
      </trkpt>
      <trkpt lat="44.71636" lon="1.94567">
        <ele>476.95</ele>
        <time>2026-05-16T08:26:43Z</time>
      </trkpt>
      <trkpt lat="44.7162" lon="1.94572">
        <ele>480.32</ele>
        <time>2026-05-16T08:27:02Z</time>
      </trkpt>
      <trkpt lat="44.71595" lon="1.94577">
        <ele>484.16</ele>
        <time>2026-05-16T08:27:21Z</time>
      </trkpt>
      <trkpt lat="44.71581" lon="1.94574">
        <ele>487.53</ele>
        <time>2026-05-16T08:27:39Z</time>
      </trkpt>
      <trkpt lat="44.71553" lon="1.94574">
        <ele>490.41</ele>
        <time>2026-05-16T08:27:56Z</time>
      </trkpt>
      <trkpt lat="44.71538" lon="1.94597">
        <ele>492.33</ele>
        <time>2026-05-16T08:28:16Z</time>
      </trkpt>
      <trkpt lat="44.71535" lon="1.94617">
        <ele>493.29</ele>
        <time>2026-05-16T08:28:24Z</time>
      </trkpt>
      <trkpt lat="44.71534" lon="1.94623">
        <ele>493.29</ele>
        <time>2026-05-16T08:28:25Z</time>
      </trkpt>
      <trkpt lat="44.71533" lon="1.94627">
        <ele>493.29</ele>
        <time>2026-05-16T08:28:26Z</time>
      </trkpt>
      <trkpt lat="44.7153" lon="1.94657">
        <ele>494.26</ele>
        <time>2026-05-16T08:28:41Z</time>
      </trkpt>
      <trkpt lat="44.7153" lon="1.94663">
        <ele>494.26</ele>
        <time>2026-05-16T08:28:44Z</time>
      </trkpt>
      <trkpt lat="44.71534" lon="1.94679">
        <ele>495.22</ele>
        <time>2026-05-16T08:28:54Z</time>
      </trkpt>
      <trkpt lat="44.71544" lon="1.94703">
        <ele>498.1</ele>
        <time>2026-05-16T08:29:11Z</time>
      </trkpt>
      <trkpt lat="44.71559" lon="1.94724">
        <ele>500.5</ele>
        <time>2026-05-16T08:29:25Z</time>
      </trkpt>
      <trkpt lat="44.7157" lon="1.94743">
        <ele>501.95</ele>
        <time>2026-05-16T08:29:39Z</time>
      </trkpt>
      <trkpt lat="44.71575" lon="1.94766">
        <ele>502.91</ele>
        <time>2026-05-16T08:29:54Z</time>
      </trkpt>
      <trkpt lat="44.71575" lon="1.94768">
        <ele>502.91</ele>
        <time>2026-05-16T08:29:55Z</time>
      </trkpt>
      <trkpt lat="44.71575" lon="1.9477">
        <ele>502.91</ele>
        <time>2026-05-16T08:29:56Z</time>
      </trkpt>
      <trkpt lat="44.71562" lon="1.94789">
        <ele>505.31</ele>
        <time>2026-05-16T08:30:15Z</time>
      </trkpt>
      <trkpt lat="44.71552" lon="1.94801">
        <ele>507.71</ele>
        <time>2026-05-16T08:30:31Z</time>
      </trkpt>
      <trkpt lat="44.71542" lon="1.94811">
        <ele>510.6</ele>
        <time>2026-05-16T08:30:45Z</time>
      </trkpt>
      <trkpt lat="44.71532" lon="1.94824">
        <ele>513.48</ele>
        <time>2026-05-16T08:31:01Z</time>
      </trkpt>
      <trkpt lat="44.71525" lon="1.94835">
        <ele>514.92</ele>
        <time>2026-05-16T08:31:20Z</time>
      </trkpt>
      <trkpt lat="44.71521" lon="1.94842">
        <ele>514.92</ele>
        <time>2026-05-16T08:31:52Z</time>
      </trkpt>
      <trkpt lat="44.71512" lon="1.94837">
        <ele>517.33</ele>
        <time>2026-05-16T08:32:08Z</time>
      </trkpt>
      <trkpt lat="44.71507" lon="1.94826">
        <ele>520.21</ele>
        <time>2026-05-16T08:32:27Z</time>
      </trkpt>
      <trkpt lat="44.71502" lon="1.94814">
        <ele>523.58</ele>
        <time>2026-05-16T08:32:42Z</time>
      </trkpt>
      <trkpt lat="44.71497" lon="1.94799">
        <ele>526.46</ele>
        <time>2026-05-16T08:32:56Z</time>
      </trkpt>
      <trkpt lat="44.71489" lon="1.94781">
        <ele>528.38</ele>
        <time>2026-05-16T08:33:13Z</time>
      </trkpt>
      <trkpt lat="44.71471" lon="1.94778">
        <ele>530.79</ele>
        <time>2026-05-16T08:33:28Z</time>
      </trkpt>
      <trkpt lat="44.71454" lon="1.94791">
        <ele>534.15</ele>
        <time>2026-05-16T08:33:44Z</time>
      </trkpt>
      <trkpt lat="44.71439" lon="1.94801">
        <ele>537.51</ele>
        <time>2026-05-16T08:34:02Z</time>
      </trkpt>
      <trkpt lat="44.71427" lon="1.94812">
        <ele>540.4</ele>
        <time>2026-05-16T08:34:18Z</time>
      </trkpt>
      <trkpt lat="44.71414" lon="1.94821">
        <ele>543.28</ele>
        <time>2026-05-16T08:34:34Z</time>
      </trkpt>
      <trkpt lat="44.714" lon="1.94832">
        <ele>545.69</ele>
        <time>2026-05-16T08:34:54Z</time>
      </trkpt>
      <trkpt lat="44.71385" lon="1.94849">
        <ele>548.57</ele>
        <time>2026-05-16T08:35:13Z</time>
      </trkpt>
      <trkpt lat="44.71381" lon="1.9485">
        <ele>549.53</ele>
        <time>2026-05-16T08:35:18Z</time>
      </trkpt>
      <trkpt lat="44.71369" lon="1.94854">
        <ele>551.93</ele>
        <time>2026-05-16T08:35:33Z</time>
      </trkpt>
      <trkpt lat="44.71349" lon="1.94864">
        <ele>554.82</ele>
        <time>2026-05-16T08:35:51Z</time>
      </trkpt>
      <trkpt lat="44.71347" lon="1.94865">
        <ele>554.82</ele>
        <time>2026-05-16T08:35:53Z</time>
      </trkpt>
      <trkpt lat="44.71338" lon="1.94871">
        <ele>555.78</ele>
        <time>2026-05-16T08:36:01Z</time>
      </trkpt>
      <trkpt lat="44.71318" lon="1.94889">
        <ele>556.74</ele>
        <time>2026-05-16T08:36:21Z</time>
      </trkpt>
      <trkpt lat="44.71295" lon="1.94917">
        <ele>556.74</ele>
        <time>2026-05-16T08:36:43Z</time>
      </trkpt>
      <trkpt lat="44.71285" lon="1.94941">
        <ele>558.66</ele>
        <time>2026-05-16T08:36:57Z</time>
      </trkpt>
      <trkpt lat="44.71275" lon="1.94966">
        <ele>560.59</ele>
        <time>2026-05-16T08:37:09Z</time>
      </trkpt>
      <trkpt lat="44.71264" lon="1.94996">
        <ele>562.51</ele>
        <time>2026-05-16T08:37:29Z</time>
      </trkpt>
      <trkpt lat="44.71254" lon="1.95024">
        <ele>562.99</ele>
        <time>2026-05-16T08:37:47Z</time>
      </trkpt>
      <trkpt lat="44.71242" lon="1.95051">
        <ele>563.47</ele>
        <time>2026-05-16T08:38:05Z</time>
      </trkpt>
      <trkpt lat="44.71234" lon="1.95071">
        <ele>564.91</ele>
        <time>2026-05-16T08:38:20Z</time>
      </trkpt>
      <trkpt lat="44.71228" lon="1.95094">
        <ele>566.83</ele>
        <time>2026-05-16T08:38:37Z</time>
      </trkpt>
      <trkpt lat="44.71227" lon="1.95138">
        <ele>568.28</ele>
        <time>2026-05-16T08:38:58Z</time>
      </trkpt>
      <trkpt lat="44.71223" lon="1.95157">
        <ele>569.24</ele>
        <time>2026-05-16T08:39:08Z</time>
      </trkpt>
      <trkpt lat="44.7122" lon="1.95184">
        <ele>570.2</ele>
        <time>2026-05-16T08:39:23Z</time>
      </trkpt>
      <trkpt lat="44.71204" lon="1.95189">
        <ele>572.12</ele>
        <time>2026-05-16T08:39:38Z</time>
      </trkpt>
      <trkpt lat="44.71204" lon="1.95206">
        <ele>572.12</ele>
        <time>2026-05-16T08:39:49Z</time>
      </trkpt>
      <trkpt lat="44.71202" lon="1.9522">
        <ele>572.12</ele>
        <time>2026-05-16T08:39:55Z</time>
      </trkpt>
      <trkpt lat="44.71203" lon="1.95233">
        <ele>572.12</ele>
        <time>2026-05-16T08:40:00Z</time>
      </trkpt>
      <trkpt lat="44.71203" lon="1.95242">
        <ele>571.16</ele>
        <time>2026-05-16T08:40:04Z</time>
      </trkpt>
      <trkpt lat="44.71203" lon="1.95245">
        <ele>571.16</ele>
        <time>2026-05-16T08:40:06Z</time>
      </trkpt>
      <trkpt lat="44.71203" lon="1.95254">
        <ele>571.16</ele>
        <time>2026-05-16T08:40:10Z</time>
      </trkpt>
      <trkpt lat="44.71204" lon="1.95286">
        <ele>570.2</ele>
        <time>2026-05-16T08:40:28Z</time>
      </trkpt>
      <trkpt lat="44.712" lon="1.95316">
        <ele>570.2</ele>
        <time>2026-05-16T08:40:44Z</time>
      </trkpt>
      <trkpt lat="44.71195" lon="1.95347">
        <ele>571.64</ele>
        <time>2026-05-16T08:41:01Z</time>
      </trkpt>
      <trkpt lat="44.71187" lon="1.95379">
        <ele>571.64</ele>
        <time>2026-05-16T08:41:18Z</time>
      </trkpt>
      <trkpt lat="44.71182" lon="1.95407">
        <ele>571.64</ele>
        <time>2026-05-16T08:41:32Z</time>
      </trkpt>
      <trkpt lat="44.71179" lon="1.95423">
        <ele>570.2</ele>
        <time>2026-05-16T08:41:41Z</time>
      </trkpt>
      <trkpt lat="44.7117" lon="1.95443">
        <ele>569.72</ele>
        <time>2026-05-16T08:41:56Z</time>
      </trkpt>
      <trkpt lat="44.7117" lon="1.95443">
        <ele>569.72</ele>
        <time>2026-05-16T08:42:06Z</time>
      </trkpt>
      <trkpt lat="44.71169" lon="1.95441">
        <ele>571.64</ele>
        <time>2026-05-16T08:42:08Z</time>
      </trkpt>
      <trkpt lat="44.71168" lon="1.9544">
        <ele>571.64</ele>
        <time>2026-05-16T08:42:09Z</time>
      </trkpt>
      <trkpt lat="44.71164" lon="1.95432">
        <ele>568.76</ele>
        <time>2026-05-16T08:42:16Z</time>
      </trkpt>
      <trkpt lat="44.7115" lon="1.95408">
        <ele>566.83</ele>
        <time>2026-05-16T08:42:37Z</time>
      </trkpt>
      <trkpt lat="44.71146" lon="1.95392">
        <ele>563.95</ele>
        <time>2026-05-16T08:42:51Z</time>
      </trkpt>
      <trkpt lat="44.71138" lon="1.95373">
        <ele>561.07</ele>
        <time>2026-05-16T08:43:05Z</time>
      </trkpt>
      <trkpt lat="44.71136" lon="1.9537">
        <ele>560.11</ele>
        <time>2026-05-16T08:43:07Z</time>
      </trkpt>
      <trkpt lat="44.71121" lon="1.95353">
        <ele>558.18</ele>
        <time>2026-05-16T08:43:21Z</time>
      </trkpt>
      <trkpt lat="44.71112" lon="1.95337">
        <ele>556.74</ele>
        <time>2026-05-16T08:43:34Z</time>
      </trkpt>
      <trkpt lat="44.71099" lon="1.95321">
        <ele>556.26</ele>
        <time>2026-05-16T08:43:50Z</time>
      </trkpt>
      <trkpt lat="44.71097" lon="1.95319">
        <ele>556.26</ele>
        <time>2026-05-16T08:43:52Z</time>
      </trkpt>
      <trkpt lat="44.71077" lon="1.95303">
        <ele>556.26</ele>
        <time>2026-05-16T08:44:05Z</time>
      </trkpt>
      <trkpt lat="44.7106" lon="1.95289">
        <ele>556.26</ele>
        <time>2026-05-16T08:44:21Z</time>
      </trkpt>
      <trkpt lat="44.7105" lon="1.95281">
        <ele>556.26</ele>
        <time>2026-05-16T08:44:37Z</time>
      </trkpt>
      <trkpt lat="44.71035" lon="1.95269">
        <ele>557.7</ele>
        <time>2026-05-16T08:44:53Z</time>
      </trkpt>
      <trkpt lat="44.71027" lon="1.95267">
        <ele>558.18</ele>
        <time>2026-05-16T08:45:00Z</time>
      </trkpt>
      <trkpt lat="44.71009" lon="1.95264">
        <ele>558.18</ele>
        <time>2026-05-16T08:45:12Z</time>
      </trkpt>
      <trkpt lat="44.70985" lon="1.95258">
        <ele>557.22</ele>
        <time>2026-05-16T08:45:30Z</time>
      </trkpt>
      <trkpt lat="44.70959" lon="1.95251">
        <ele>556.26</ele>
        <time>2026-05-16T08:45:49Z</time>
      </trkpt>
      <trkpt lat="44.70937" lon="1.95247">
        <ele>554.82</ele>
        <time>2026-05-16T08:46:02Z</time>
      </trkpt>
      <trkpt lat="44.70927" lon="1.95244">
        <ele>553.86</ele>
        <time>2026-05-16T08:46:11Z</time>
      </trkpt>
      <trkpt lat="44.7092" lon="1.95243">
        <ele>553.86</ele>
        <time>2026-05-16T08:46:15Z</time>
      </trkpt>
      <trkpt lat="44.70895" lon="1.9524">
        <ele>552.9</ele>
        <time>2026-05-16T08:46:30Z</time>
      </trkpt>
      <trkpt lat="44.70879" lon="1.95241">
        <ele>552.9</ele>
        <time>2026-05-16T08:46:40Z</time>
      </trkpt>
      <trkpt lat="44.70861" lon="1.95243">
        <ele>552.9</ele>
        <time>2026-05-16T08:46:54Z</time>
      </trkpt>
      <trkpt lat="44.7086" lon="1.95244">
        <ele>552.9</ele>
        <time>2026-05-16T08:47:11Z</time>
      </trkpt>
      <trkpt lat="44.7086" lon="1.95249">
        <ele>552.9</ele>
        <time>2026-05-16T08:47:21Z</time>
      </trkpt>
      <trkpt lat="44.70841" lon="1.95255">
        <ele>552.9</ele>
        <time>2026-05-16T08:47:35Z</time>
      </trkpt>
      <trkpt lat="44.7082" lon="1.95263">
        <ele>552.9</ele>
        <time>2026-05-16T08:47:51Z</time>
      </trkpt>
      <trkpt lat="44.70816" lon="1.95265">
        <ele>553.86</ele>
        <time>2026-05-16T08:47:53Z</time>
      </trkpt>
      <trkpt lat="44.70807" lon="1.95272">
        <ele>553.86</ele>
        <time>2026-05-16T08:48:01Z</time>
      </trkpt>
      <trkpt lat="44.70789" lon="1.9529">
        <ele>553.86</ele>
        <time>2026-05-16T08:48:16Z</time>
      </trkpt>
      <trkpt lat="44.70786" lon="1.95293">
        <ele>552.41</ele>
        <time>2026-05-16T08:48:18Z</time>
      </trkpt>
      <trkpt lat="44.70782" lon="1.95297">
        <ele>552.41</ele>
        <time>2026-05-16T08:48:22Z</time>
      </trkpt>
      <trkpt lat="44.70778" lon="1.95302">
        <ele>551.93</ele>
        <time>2026-05-16T08:48:26Z</time>
      </trkpt>
      <trkpt lat="44.70762" lon="1.95316">
        <ele>551.45</ele>
        <time>2026-05-16T08:48:39Z</time>
      </trkpt>
      <trkpt lat="44.70757" lon="1.9532">
        <ele>550.97</ele>
        <time>2026-05-16T08:48:42Z</time>
      </trkpt>
      <trkpt lat="44.70755" lon="1.95323">
        <ele>550.97</ele>
        <time>2026-05-16T08:48:45Z</time>
      </trkpt>
      <trkpt lat="44.70737" lon="1.95338">
        <ele>550.01</ele>
        <time>2026-05-16T08:49:00Z</time>
      </trkpt>
      <trkpt lat="44.70727" lon="1.95345">
        <ele>550.01</ele>
        <time>2026-05-16T08:49:07Z</time>
      </trkpt>
      <trkpt lat="44.70725" lon="1.95348">
        <ele>550.01</ele>
        <time>2026-05-16T08:49:10Z</time>
      </trkpt>
      <trkpt lat="44.70719" lon="1.95352">
        <ele>550.01</ele>
        <time>2026-05-16T08:49:15Z</time>
      </trkpt>
      <trkpt lat="44.7071" lon="1.9536">
        <ele>550.01</ele>
        <time>2026-05-16T08:49:22Z</time>
      </trkpt>
      <trkpt lat="44.70695" lon="1.95373">
        <ele>550.01</ele>
        <time>2026-05-16T08:49:37Z</time>
      </trkpt>
      <trkpt lat="44.70695" lon="1.95375">
        <ele>549.53</ele>
        <time>2026-05-16T08:50:00Z</time>
      </trkpt>
      <trkpt lat="44.70692" lon="1.95377">
        <ele>549.53</ele>
        <time>2026-05-16T08:50:12Z</time>
      </trkpt>
      <trkpt lat="44.70678" lon="1.95382">
        <ele>549.53</ele>
        <time>2026-05-16T08:50:26Z</time>
      </trkpt>
      <trkpt lat="44.70655" lon="1.95388">
        <ele>550.49</ele>
        <time>2026-05-16T08:50:41Z</time>
      </trkpt>
      <trkpt lat="44.70635" lon="1.95396">
        <ele>550.97</ele>
        <time>2026-05-16T08:50:58Z</time>
      </trkpt>
      <trkpt lat="44.70616" lon="1.95409">
        <ele>550.97</ele>
        <time>2026-05-16T08:51:14Z</time>
      </trkpt>
      <trkpt lat="44.70601" lon="1.95424">
        <ele>549.53</ele>
        <time>2026-05-16T08:51:26Z</time>
      </trkpt>
      <trkpt lat="44.70584" lon="1.95449">
        <ele>548.09</ele>
        <time>2026-05-16T08:51:44Z</time>
      </trkpt>
      <trkpt lat="44.70572" lon="1.95473">
        <ele>546.65</ele>
        <time>2026-05-16T08:52:00Z</time>
      </trkpt>
      <trkpt lat="44.70555" lon="1.95499">
        <ele>545.2</ele>
        <time>2026-05-16T08:52:17Z</time>
      </trkpt>
      <trkpt lat="44.70541" lon="1.95515">
        <ele>542.8</ele>
        <time>2026-05-16T08:52:31Z</time>
      </trkpt>
      <trkpt lat="44.70531" lon="1.95521">
        <ele>542.32</ele>
        <time>2026-05-16T08:52:41Z</time>
      </trkpt>
      <trkpt lat="44.7053" lon="1.95521">
        <ele>541.84</ele>
        <time>2026-05-16T08:52:42Z</time>
      </trkpt>
      <trkpt lat="44.70509" lon="1.95529">
        <ele>540.4</ele>
        <time>2026-05-16T08:52:56Z</time>
      </trkpt>
      <trkpt lat="44.705" lon="1.95535">
        <ele>539.92</ele>
        <time>2026-05-16T08:53:02Z</time>
      </trkpt>
      <trkpt lat="44.70499" lon="1.95536">
        <ele>539.92</ele>
        <time>2026-05-16T08:53:03Z</time>
      </trkpt>
      <trkpt lat="44.70498" lon="1.95537">
        <ele>539.92</ele>
        <time>2026-05-16T08:53:04Z</time>
      </trkpt>
      <trkpt lat="44.70497" lon="1.95538">
        <ele>539.92</ele>
        <time>2026-05-16T08:53:05Z</time>
      </trkpt>
      <trkpt lat="44.70495" lon="1.95539">
        <ele>538.96</ele>
        <time>2026-05-16T08:53:06Z</time>
      </trkpt>
      <trkpt lat="44.70493" lon="1.9554">
        <ele>538.96</ele>
        <time>2026-05-16T08:53:07Z</time>
      </trkpt>
      <trkpt lat="44.70485" lon="1.95547">
        <ele>538.48</ele>
        <time>2026-05-16T08:53:14Z</time>
      </trkpt>
      <trkpt lat="44.70483" lon="1.95548">
        <ele>538.48</ele>
        <time>2026-05-16T08:53:15Z</time>
      </trkpt>
      <trkpt lat="44.70482" lon="1.95549">
        <ele>538.48</ele>
        <time>2026-05-16T08:53:16Z</time>
      </trkpt>
      <trkpt lat="44.70462" lon="1.95563">
        <ele>536.07</ele>
        <time>2026-05-16T08:53:31Z</time>
      </trkpt>
      <trkpt lat="44.70442" lon="1.9558">
        <ele>534.15</ele>
        <time>2026-05-16T08:53:48Z</time>
      </trkpt>
      <trkpt lat="44.70439" lon="1.95586">
        <ele>534.15</ele>
        <time>2026-05-16T08:53:51Z</time>
      </trkpt>
      <trkpt lat="44.70438" lon="1.95588">
        <ele>534.15</ele>
        <time>2026-05-16T08:53:52Z</time>
      </trkpt>
      <trkpt lat="44.70427" lon="1.95615">
        <ele>533.19</ele>
        <time>2026-05-16T08:54:06Z</time>
      </trkpt>
      <trkpt lat="44.70424" lon="1.95623">
        <ele>532.71</ele>
        <time>2026-05-16T08:54:10Z</time>
      </trkpt>
      <trkpt lat="44.70422" lon="1.95627">
        <ele>532.23</ele>
        <time>2026-05-16T08:54:23Z</time>
      </trkpt>
      <trkpt lat="44.7042" lon="1.95634">
        <ele>532.23</ele>
        <time>2026-05-16T08:54:31Z</time>
      </trkpt>
      <trkpt lat="44.7042" lon="1.95636">
        <ele>532.23</ele>
        <time>2026-05-16T08:54:32Z</time>
      </trkpt>
      <trkpt lat="44.70409" lon="1.95663">
        <ele>531.75</ele>
        <time>2026-05-16T08:54:48Z</time>
      </trkpt>
      <trkpt lat="44.70398" lon="1.95687">
        <ele>530.3</ele>
        <time>2026-05-16T08:55:02Z</time>
      </trkpt>
      <trkpt lat="44.70383" lon="1.9571">
        <ele>528.38</ele>
        <time>2026-05-16T08:55:18Z</time>
      </trkpt>
      <trkpt lat="44.70374" lon="1.95729">
        <ele>526.46</ele>
        <time>2026-05-16T08:55:32Z</time>
      </trkpt>
      <trkpt lat="44.70373" lon="1.95734">
        <ele>525.98</ele>
        <time>2026-05-16T08:55:42Z</time>
      </trkpt>
      <trkpt lat="44.70377" lon="1.95739">
        <ele>525.98</ele>
        <time>2026-05-16T08:55:54Z</time>
      </trkpt>
      <trkpt lat="44.70379" lon="1.95739">
        <ele>525.98</ele>
        <time>2026-05-16T08:55:58Z</time>
      </trkpt>
      <trkpt lat="44.70381" lon="1.95741">
        <ele>525.5</ele>
        <time>2026-05-16T08:56:12Z</time>
      </trkpt>
      <trkpt lat="44.70383" lon="1.95743">
        <ele>525.02</ele>
        <time>2026-05-16T08:56:15Z</time>
      </trkpt>
      <trkpt lat="44.70391" lon="1.9575">
        <ele>524.06</ele>
        <time>2026-05-16T08:56:27Z</time>
      </trkpt>
      <trkpt lat="44.70402" lon="1.95761">
        <ele>522.61</ele>
        <time>2026-05-16T08:56:39Z</time>
      </trkpt>
      <trkpt lat="44.70409" lon="1.95766">
        <ele>522.13</ele>
        <time>2026-05-16T08:56:53Z</time>
      </trkpt>
      <trkpt lat="44.70412" lon="1.9577">
        <ele>521.65</ele>
        <time>2026-05-16T08:56:57Z</time>
      </trkpt>
      <trkpt lat="44.70413" lon="1.95772">
        <ele>521.65</ele>
        <time>2026-05-16T08:56:58Z</time>
      </trkpt>
      <trkpt lat="44.70421" lon="1.95784">
        <ele>520.69</ele>
        <time>2026-05-16T08:57:10Z</time>
      </trkpt>
      <trkpt lat="44.70424" lon="1.95797">
        <ele>519.73</ele>
        <time>2026-05-16T08:57:21Z</time>
      </trkpt>
      <trkpt lat="44.70425" lon="1.95804">
        <ele>519.25</ele>
        <time>2026-05-16T08:57:26Z</time>
      </trkpt>
      <trkpt lat="44.70425" lon="1.95806">
        <ele>518.77</ele>
        <time>2026-05-16T08:57:27Z</time>
      </trkpt>
      <trkpt lat="44.70425" lon="1.95808">
        <ele>518.77</ele>
        <time>2026-05-16T08:57:28Z</time>
      </trkpt>
      <trkpt lat="44.70425" lon="1.95815">
        <ele>518.77</ele>
        <time>2026-05-16T08:57:33Z</time>
      </trkpt>
      <trkpt lat="44.70424" lon="1.9582">
        <ele>518.29</ele>
        <time>2026-05-16T08:57:37Z</time>
      </trkpt>
      <trkpt lat="44.70425" lon="1.95822">
        <ele>518.29</ele>
        <time>2026-05-16T08:57:38Z</time>
      </trkpt>
      <trkpt lat="44.70425" lon="1.95824">
        <ele>518.29</ele>
        <time>2026-05-16T08:57:39Z</time>
      </trkpt>
      <trkpt lat="44.70424" lon="1.95845">
        <ele>517.33</ele>
        <time>2026-05-16T08:57:51Z</time>
      </trkpt>
      <trkpt lat="44.70427" lon="1.95856">
        <ele>516.85</ele>
        <time>2026-05-16T08:57:58Z</time>
      </trkpt>
      <trkpt lat="44.70428" lon="1.95858">
        <ele>516.85</ele>
        <time>2026-05-16T08:57:59Z</time>
      </trkpt>
      <trkpt lat="44.70432" lon="1.95878">
        <ele>515.88</ele>
        <time>2026-05-16T08:58:11Z</time>
      </trkpt>
      <trkpt lat="44.70433" lon="1.9588">
        <ele>515.88</ele>
        <time>2026-05-16T08:58:13Z</time>
      </trkpt>
      <trkpt lat="44.70436" lon="1.95893">
        <ele>515.4</ele>
        <time>2026-05-16T08:58:21Z</time>
      </trkpt>
      <trkpt lat="44.70437" lon="1.95895">
        <ele>515.4</ele>
        <time>2026-05-16T08:58:22Z</time>
      </trkpt>
      <trkpt lat="44.70435" lon="1.95907">
        <ele>514.44</ele>
        <time>2026-05-16T08:58:29Z</time>
      </trkpt>
      <trkpt lat="44.70435" lon="1.95908">
        <ele>514.44</ele>
        <time>2026-05-16T08:58:30Z</time>
      </trkpt>
      <trkpt lat="44.70435" lon="1.9591">
        <ele>514.44</ele>
        <time>2026-05-16T08:58:31Z</time>
      </trkpt>
      <trkpt lat="44.7043" lon="1.9592">
        <ele>514.44</ele>
        <time>2026-05-16T08:58:39Z</time>
      </trkpt>
      <trkpt lat="44.7043" lon="1.95921">
        <ele>514.44</ele>
        <time>2026-05-16T08:58:40Z</time>
      </trkpt>
      <trkpt lat="44.70424" lon="1.95927">
        <ele>514.44</ele>
        <time>2026-05-16T08:58:47Z</time>
      </trkpt>
      <trkpt lat="44.70423" lon="1.95929">
        <ele>514.44</ele>
        <time>2026-05-16T08:58:48Z</time>
      </trkpt>
      <trkpt lat="44.70421" lon="1.9593">
        <ele>514.44</ele>
        <time>2026-05-16T08:58:49Z</time>
      </trkpt>
      <trkpt lat="44.7042" lon="1.9593">
        <ele>514.44</ele>
        <time>2026-05-16T08:58:50Z</time>
      </trkpt>
      <trkpt lat="44.70419" lon="1.95931">
        <ele>514.44</ele>
        <time>2026-05-16T08:58:51Z</time>
      </trkpt>
      <trkpt lat="44.70408" lon="1.95942">
        <ele>513.96</ele>
        <time>2026-05-16T08:59:03Z</time>
      </trkpt>
      <trkpt lat="44.70407" lon="1.95943">
        <ele>513.96</ele>
        <time>2026-05-16T08:59:04Z</time>
      </trkpt>
      <trkpt lat="44.70406" lon="1.95944">
        <ele>513.96</ele>
        <time>2026-05-16T08:59:05Z</time>
      </trkpt>
      <trkpt lat="44.70405" lon="1.95946">
        <ele>513.96</ele>
        <time>2026-05-16T08:59:06Z</time>
      </trkpt>
      <trkpt lat="44.70404" lon="1.95947">
        <ele>513.96</ele>
        <time>2026-05-16T08:59:07Z</time>
      </trkpt>
      <trkpt lat="44.70399" lon="1.95958">
        <ele>513.48</ele>
        <time>2026-05-16T08:59:14Z</time>
      </trkpt>
      <trkpt lat="44.70389" lon="1.95976">
        <ele>513.48</ele>
        <time>2026-05-16T08:59:27Z</time>
      </trkpt>
      <trkpt lat="44.7038" lon="1.95995">
        <ele>513.48</ele>
        <time>2026-05-16T08:59:40Z</time>
      </trkpt>
      <trkpt lat="44.70369" lon="1.96012">
        <ele>513.48</ele>
        <time>2026-05-16T08:59:53Z</time>
      </trkpt>
      <trkpt lat="44.70361" lon="1.96027">
        <ele>512.52</ele>
        <time>2026-05-16T09:00:05Z</time>
      </trkpt>
      <trkpt lat="44.7036" lon="1.96028">
        <ele>512.52</ele>
        <time>2026-05-16T09:00:06Z</time>
      </trkpt>
      <trkpt lat="44.70359" lon="1.96029">
        <ele>512.52</ele>
        <time>2026-05-16T09:00:07Z</time>
      </trkpt>
      <trkpt lat="44.70358" lon="1.96031">
        <ele>512.52</ele>
        <time>2026-05-16T09:00:08Z</time>
      </trkpt>
      <trkpt lat="44.70357" lon="1.96033">
        <ele>512.04</ele>
        <time>2026-05-16T09:00:09Z</time>
      </trkpt>
      <trkpt lat="44.70356" lon="1.96034">
        <ele>512.04</ele>
        <time>2026-05-16T09:00:10Z</time>
      </trkpt>
      <trkpt lat="44.70348" lon="1.96047">
        <ele>512.04</ele>
        <time>2026-05-16T09:00:21Z</time>
      </trkpt>
      <trkpt lat="44.70339" lon="1.96067">
        <ele>512.04</ele>
        <time>2026-05-16T09:00:34Z</time>
      </trkpt>
      <trkpt lat="44.7033" lon="1.96083">
        <ele>511.56</ele>
        <time>2026-05-16T09:00:47Z</time>
      </trkpt>
      <trkpt lat="44.70321" lon="1.961">
        <ele>511.56</ele>
        <time>2026-05-16T09:01:00Z</time>
      </trkpt>
      <trkpt lat="44.7031" lon="1.96119">
        <ele>511.08</ele>
        <time>2026-05-16T09:01:13Z</time>
      </trkpt>
      <trkpt lat="44.703" lon="1.96137">
        <ele>510.6</ele>
        <time>2026-05-16T09:01:27Z</time>
      </trkpt>
      <trkpt lat="44.7029" lon="1.96156">
        <ele>510.6</ele>
        <time>2026-05-16T09:01:40Z</time>
      </trkpt>
      <trkpt lat="44.70279" lon="1.96172">
        <ele>509.64</ele>
        <time>2026-05-16T09:01:53Z</time>
      </trkpt>
      <trkpt lat="44.70264" lon="1.96176">
        <ele>508.67</ele>
        <time>2026-05-16T09:02:06Z</time>
      </trkpt>
      <trkpt lat="44.70262" lon="1.96177">
        <ele>509.16</ele>
        <time>2026-05-16T09:02:09Z</time>
      </trkpt>
      <trkpt lat="44.7026" lon="1.96177">
        <ele>508.67</ele>
        <time>2026-05-16T09:02:10Z</time>
      </trkpt>
      <trkpt lat="44.70242" lon="1.96178">
        <ele>508.67</ele>
        <time>2026-05-16T09:02:23Z</time>
      </trkpt>
      <trkpt lat="44.70226" lon="1.96182">
        <ele>510.12</ele>
        <time>2026-05-16T09:02:37Z</time>
      </trkpt>
      <trkpt lat="44.7021" lon="1.96186">
        <ele>508.19</ele>
        <time>2026-05-16T09:02:50Z</time>
      </trkpt>
      <trkpt lat="44.70205" lon="1.96187">
        <ele>507.71</ele>
        <time>2026-05-16T09:02:54Z</time>
      </trkpt>
      <trkpt lat="44.70191" lon="1.96187">
        <ele>507.23</ele>
        <time>2026-05-16T09:03:07Z</time>
      </trkpt>
      <trkpt lat="44.70172" lon="1.96186">
        <ele>506.75</ele>
        <time>2026-05-16T09:03:21Z</time>
      </trkpt>
      <trkpt lat="44.70158" lon="1.96183">
        <ele>506.75</ele>
        <time>2026-05-16T09:03:33Z</time>
      </trkpt>
      <trkpt lat="44.70143" lon="1.96183">
        <ele>508.19</ele>
        <time>2026-05-16T09:03:47Z</time>
      </trkpt>
      <trkpt lat="44.7013" lon="1.96184">
        <ele>508.19</ele>
        <time>2026-05-16T09:03:58Z</time>
      </trkpt>
      <trkpt lat="44.70128" lon="1.96185">
        <ele>508.19</ele>
        <time>2026-05-16T09:03:59Z</time>
      </trkpt>
      <trkpt lat="44.70127" lon="1.96185">
        <ele>508.19</ele>
        <time>2026-05-16T09:04:00Z</time>
      </trkpt>
      <trkpt lat="44.70121" lon="1.96186">
        <ele>506.75</ele>
        <time>2026-05-16T09:04:05Z</time>
      </trkpt>
      <trkpt lat="44.70101" lon="1.96186">
        <ele>505.79</ele>
        <time>2026-05-16T09:04:21Z</time>
      </trkpt>
      <trkpt lat="44.70084" lon="1.96186">
        <ele>504.35</ele>
        <time>2026-05-16T09:04:34Z</time>
      </trkpt>
      <trkpt lat="44.70068" lon="1.96185">
        <ele>503.87</ele>
        <time>2026-05-16T09:04:47Z</time>
      </trkpt>
      <trkpt lat="44.70065" lon="1.96185">
        <ele>503.87</ele>
        <time>2026-05-16T09:04:51Z</time>
      </trkpt>
      <trkpt lat="44.70063" lon="1.96185">
        <ele>503.87</ele>
        <time>2026-05-16T09:04:52Z</time>
      </trkpt>
      <trkpt lat="44.70061" lon="1.96184">
        <ele>503.87</ele>
        <time>2026-05-16T09:04:53Z</time>
      </trkpt>
      <trkpt lat="44.70042" lon="1.96182">
        <ele>502.43</ele>
        <time>2026-05-16T09:05:08Z</time>
      </trkpt>
      <trkpt lat="44.70021" lon="1.96184">
        <ele>501.95</ele>
        <time>2026-05-16T09:05:24Z</time>
      </trkpt>
      <trkpt lat="44.70004" lon="1.96194">
        <ele>501.46</ele>
        <time>2026-05-16T09:05:38Z</time>
      </trkpt>
      <trkpt lat="44.69989" lon="1.96204">
        <ele>502.43</ele>
        <time>2026-05-16T09:05:52Z</time>
      </trkpt>
      <trkpt lat="44.69971" lon="1.96216">
        <ele>503.39</ele>
        <time>2026-05-16T09:06:07Z</time>
      </trkpt>
      <trkpt lat="44.69963" lon="1.96226">
        <ele>503.87</ele>
        <time>2026-05-16T09:06:15Z</time>
      </trkpt>
      <trkpt lat="44.69962" lon="1.96227">
        <ele>503.87</ele>
        <time>2026-05-16T09:06:16Z</time>
      </trkpt>
      <trkpt lat="44.69961" lon="1.96228">
        <ele>503.87</ele>
        <time>2026-05-16T09:06:17Z</time>
      </trkpt>
      <trkpt lat="44.69959" lon="1.96232">
        <ele>503.87</ele>
        <time>2026-05-16T09:06:21Z</time>
      </trkpt>
      <trkpt lat="44.69957" lon="1.96233">
        <ele>503.87</ele>
        <time>2026-05-16T09:06:22Z</time>
      </trkpt>
      <trkpt lat="44.69956" lon="1.96235">
        <ele>503.87</ele>
        <time>2026-05-16T09:06:23Z</time>
      </trkpt>
      <trkpt lat="44.69955" lon="1.96237">
        <ele>503.87</ele>
        <time>2026-05-16T09:06:24Z</time>
      </trkpt>
      <trkpt lat="44.69955" lon="1.96238">
        <ele>503.87</ele>
        <time>2026-05-16T09:06:25Z</time>
      </trkpt>
      <trkpt lat="44.69954" lon="1.9624">
        <ele>503.87</ele>
        <time>2026-05-16T09:06:26Z</time>
      </trkpt>
      <trkpt lat="44.69943" lon="1.96255">
        <ele>504.35</ele>
        <time>2026-05-16T09:06:39Z</time>
      </trkpt>
      <trkpt lat="44.69931" lon="1.96273">
        <ele>504.35</ele>
        <time>2026-05-16T09:06:52Z</time>
      </trkpt>
      <trkpt lat="44.69922" lon="1.9629">
        <ele>504.35</ele>
        <time>2026-05-16T09:07:04Z</time>
      </trkpt>
      <trkpt lat="44.69922" lon="1.96294">
        <ele>502.91</ele>
        <time>2026-05-16T09:07:07Z</time>
      </trkpt>
      <trkpt lat="44.69921" lon="1.96296">
        <ele>502.91</ele>
        <time>2026-05-16T09:07:08Z</time>
      </trkpt>
      <trkpt lat="44.6992" lon="1.96298">
        <ele>502.91</ele>
        <time>2026-05-16T09:07:09Z</time>
      </trkpt>
      <trkpt lat="44.6992" lon="1.963">
        <ele>502.91</ele>
        <time>2026-05-16T09:07:10Z</time>
      </trkpt>
      <trkpt lat="44.6992" lon="1.96302">
        <ele>502.43</ele>
        <time>2026-05-16T09:07:11Z</time>
      </trkpt>
      <trkpt lat="44.69922" lon="1.96306">
        <ele>502.43</ele>
        <time>2026-05-16T09:07:24Z</time>
      </trkpt>
      <trkpt lat="44.69925" lon="1.96299">
        <ele>502.43</ele>
        <time>2026-05-16T09:07:31Z</time>
      </trkpt>
      <trkpt lat="44.6993" lon="1.96285">
        <ele>503.87</ele>
        <time>2026-05-16T09:07:45Z</time>
      </trkpt>
      <trkpt lat="44.69939" lon="1.96266">
        <ele>504.35</ele>
        <time>2026-05-16T09:08:00Z</time>
      </trkpt>
      <trkpt lat="44.69954" lon="1.9625">
        <ele>504.35</ele>
        <time>2026-05-16T09:08:14Z</time>
      </trkpt>
      <trkpt lat="44.69967" lon="1.96232">
        <ele>504.35</ele>
        <time>2026-05-16T09:08:27Z</time>
      </trkpt>
      <trkpt lat="44.69981" lon="1.96217">
        <ele>502.91</ele>
        <time>2026-05-16T09:08:39Z</time>
      </trkpt>
      <trkpt lat="44.70003" lon="1.96204">
        <ele>500.98</ele>
        <time>2026-05-16T09:08:56Z</time>
      </trkpt>
      <trkpt lat="44.70019" lon="1.96193">
        <ele>500.5</ele>
        <time>2026-05-16T09:09:10Z</time>
      </trkpt>
      <trkpt lat="44.70037" lon="1.9619">
        <ele>500.5</ele>
        <time>2026-05-16T09:09:26Z</time>
      </trkpt>
      <trkpt lat="44.70046" lon="1.96191">
        <ele>502.91</ele>
        <time>2026-05-16T09:09:31Z</time>
      </trkpt>
      <trkpt lat="44.70048" lon="1.9619">
        <ele>501.46</ele>
        <time>2026-05-16T09:09:33Z</time>
      </trkpt>
      <trkpt lat="44.70056" lon="1.96193">
        <ele>501.46</ele>
        <time>2026-05-16T09:09:39Z</time>
      </trkpt>
      <trkpt lat="44.70069" lon="1.96194">
        <ele>502.91</ele>
        <time>2026-05-16T09:09:50Z</time>
      </trkpt>
      <trkpt lat="44.7007" lon="1.96194">
        <ele>502.91</ele>
        <time>2026-05-16T09:09:51Z</time>
      </trkpt>
      <trkpt lat="44.70072" lon="1.96194">
        <ele>502.91</ele>
        <time>2026-05-16T09:09:52Z</time>
      </trkpt>
      <trkpt lat="44.70073" lon="1.96194">
        <ele>502.43</ele>
        <time>2026-05-16T09:09:53Z</time>
      </trkpt>
      <trkpt lat="44.70085" lon="1.96196">
        <ele>501.95</ele>
        <time>2026-05-16T09:10:02Z</time>
      </trkpt>
      <trkpt lat="44.70086" lon="1.96195">
        <ele>504.83</ele>
        <time>2026-05-16T09:10:03Z</time>
      </trkpt>
      <trkpt lat="44.70095" lon="1.96196">
        <ele>505.79</ele>
        <time>2026-05-16T09:10:18Z</time>
      </trkpt>
      <trkpt lat="44.70089" lon="1.96201">
        <ele>506.27</ele>
        <time>2026-05-16T09:10:25Z</time>
      </trkpt>
      <trkpt lat="44.70088" lon="1.96202">
        <ele>506.27</ele>
        <time>2026-05-16T09:10:26Z</time>
      </trkpt>
      <trkpt lat="44.70087" lon="1.96203">
        <ele>506.27</ele>
        <time>2026-05-16T09:10:27Z</time>
      </trkpt>
      <trkpt lat="44.70075" lon="1.9622">
        <ele>508.67</ele>
        <time>2026-05-16T09:10:41Z</time>
      </trkpt>
      <trkpt lat="44.70069" lon="1.96235">
        <ele>511.08</ele>
        <time>2026-05-16T09:10:55Z</time>
      </trkpt>
      <trkpt lat="44.70065" lon="1.96256">
        <ele>513</ele>
        <time>2026-05-16T09:11:10Z</time>
      </trkpt>
      <trkpt lat="44.70065" lon="1.96259">
        <ele>513.48</ele>
        <time>2026-05-16T09:11:12Z</time>
      </trkpt>
      <trkpt lat="44.70067" lon="1.96277">
        <ele>514.44</ele>
        <time>2026-05-16T09:11:22Z</time>
      </trkpt>
      <trkpt lat="44.70068" lon="1.96279">
        <ele>515.4</ele>
        <time>2026-05-16T09:11:23Z</time>
      </trkpt>
      <trkpt lat="44.70069" lon="1.96281">
        <ele>515.4</ele>
        <time>2026-05-16T09:11:24Z</time>
      </trkpt>
      <trkpt lat="44.7007" lon="1.96283">
        <ele>515.88</ele>
        <time>2026-05-16T09:11:25Z</time>
      </trkpt>
      <trkpt lat="44.7007" lon="1.96285">
        <ele>515.88</ele>
        <time>2026-05-16T09:11:26Z</time>
      </trkpt>
      <trkpt lat="44.70071" lon="1.96287">
        <ele>515.88</ele>
        <time>2026-05-16T09:11:27Z</time>
      </trkpt>
      <trkpt lat="44.70072" lon="1.96289">
        <ele>515.88</ele>
        <time>2026-05-16T09:11:28Z</time>
      </trkpt>
      <trkpt lat="44.70083" lon="1.96306">
        <ele>518.29</ele>
        <time>2026-05-16T09:11:42Z</time>
      </trkpt>
      <trkpt lat="44.70087" lon="1.9631">
        <ele>518.77</ele>
        <time>2026-05-16T09:11:46Z</time>
      </trkpt>
      <trkpt lat="44.70088" lon="1.96311">
        <ele>518.29</ele>
        <time>2026-05-16T09:11:47Z</time>
      </trkpt>
      <trkpt lat="44.70089" lon="1.96312">
        <ele>518.29</ele>
        <time>2026-05-16T09:11:48Z</time>
      </trkpt>
      <trkpt lat="44.7009" lon="1.96313">
        <ele>518.77</ele>
        <time>2026-05-16T09:11:49Z</time>
      </trkpt>
      <trkpt lat="44.70091" lon="1.96314">
        <ele>518.77</ele>
        <time>2026-05-16T09:11:50Z</time>
      </trkpt>
      <trkpt lat="44.70093" lon="1.96316">
        <ele>518.29</ele>
        <time>2026-05-16T09:11:51Z</time>
      </trkpt>
      <trkpt lat="44.70099" lon="1.96322">
        <ele>520.21</ele>
        <time>2026-05-16T09:11:59Z</time>
      </trkpt>
      <trkpt lat="44.701" lon="1.96323">
        <ele>520.21</ele>
        <time>2026-05-16T09:12:00Z</time>
      </trkpt>
      <trkpt lat="44.70101" lon="1.96324">
        <ele>520.21</ele>
        <time>2026-05-16T09:12:01Z</time>
      </trkpt>
      <trkpt lat="44.70102" lon="1.96325">
        <ele>520.21</ele>
        <time>2026-05-16T09:12:02Z</time>
      </trkpt>
      <trkpt lat="44.70104" lon="1.96326">
        <ele>520.21</ele>
        <time>2026-05-16T09:12:03Z</time>
      </trkpt>
      <trkpt lat="44.70105" lon="1.96327">
        <ele>520.69</ele>
        <time>2026-05-16T09:12:04Z</time>
      </trkpt>
      <trkpt lat="44.70106" lon="1.96328">
        <ele>521.17</ele>
        <time>2026-05-16T09:12:05Z</time>
      </trkpt>
      <trkpt lat="44.70107" lon="1.96329">
        <ele>521.17</ele>
        <time>2026-05-16T09:12:06Z</time>
      </trkpt>
      <trkpt lat="44.70118" lon="1.9634">
        <ele>522.61</ele>
        <time>2026-05-16T09:12:18Z</time>
      </trkpt>
      <trkpt lat="44.70119" lon="1.96341">
        <ele>522.61</ele>
        <time>2026-05-16T09:12:19Z</time>
      </trkpt>
      <trkpt lat="44.70121" lon="1.96342">
        <ele>523.09</ele>
        <time>2026-05-16T09:12:21Z</time>
      </trkpt>
      <trkpt lat="44.70123" lon="1.96343">
        <ele>523.09</ele>
        <time>2026-05-16T09:12:22Z</time>
      </trkpt>
      <trkpt lat="44.70124" lon="1.96344">
        <ele>523.09</ele>
        <time>2026-05-16T09:12:23Z</time>
      </trkpt>
      <trkpt lat="44.70125" lon="1.96345">
        <ele>523.09</ele>
        <time>2026-05-16T09:12:24Z</time>
      </trkpt>
      <trkpt lat="44.70127" lon="1.96345">
        <ele>523.09</ele>
        <time>2026-05-16T09:12:25Z</time>
      </trkpt>
      <trkpt lat="44.70131" lon="1.96347">
        <ele>523.58</ele>
        <time>2026-05-16T09:12:30Z</time>
      </trkpt>
      <trkpt lat="44.70142" lon="1.96354">
        <ele>524.54</ele>
        <time>2026-05-16T09:12:40Z</time>
      </trkpt>
      <trkpt lat="44.70152" lon="1.96365">
        <ele>524.54</ele>
        <time>2026-05-16T09:12:52Z</time>
      </trkpt>
      <trkpt lat="44.70156" lon="1.96368">
        <ele>524.54</ele>
        <time>2026-05-16T09:13:05Z</time>
      </trkpt>
      <trkpt lat="44.70161" lon="1.96376">
        <ele>524.54</ele>
        <time>2026-05-16T09:13:20Z</time>
      </trkpt>
      <trkpt lat="44.70161" lon="1.96377">
        <ele>524.54</ele>
        <time>2026-05-16T09:13:35Z</time>
      </trkpt>
      <trkpt lat="44.70167" lon="1.9639">
        <ele>525.02</ele>
        <time>2026-05-16T09:13:44Z</time>
      </trkpt>
      <trkpt lat="44.70173" lon="1.964">
        <ele>525.5</ele>
        <time>2026-05-16T09:13:58Z</time>
      </trkpt>
      <trkpt lat="44.70178" lon="1.96399">
        <ele>526.46</ele>
        <time>2026-05-16T09:14:04Z</time>
      </trkpt>
      <trkpt lat="44.7018" lon="1.96399">
        <ele>526.46</ele>
        <time>2026-05-16T09:14:05Z</time>
      </trkpt>
      <trkpt lat="44.70195" lon="1.96395">
        <ele>528.86</ele>
        <time>2026-05-16T09:14:22Z</time>
      </trkpt>
      <trkpt lat="44.70206" lon="1.96395">
        <ele>530.79</ele>
        <time>2026-05-16T09:14:33Z</time>
      </trkpt>
      <trkpt lat="44.7022" lon="1.96404">
        <ele>533.19</ele>
        <time>2026-05-16T09:14:49Z</time>
      </trkpt>
      <trkpt lat="44.70231" lon="1.96417">
        <ele>535.59</ele>
        <time>2026-05-16T09:15:04Z</time>
      </trkpt>
      <trkpt lat="44.70242" lon="1.9643">
        <ele>538.48</ele>
        <time>2026-05-16T09:15:22Z</time>
      </trkpt>
      <trkpt lat="44.70249" lon="1.96447">
        <ele>541.36</ele>
        <time>2026-05-16T09:15:38Z</time>
      </trkpt>
      <trkpt lat="44.70252" lon="1.9647">
        <ele>543.76</ele>
        <time>2026-05-16T09:15:55Z</time>
      </trkpt>
      <trkpt lat="44.70253" lon="1.96477">
        <ele>545.2</ele>
        <time>2026-05-16T09:15:59Z</time>
      </trkpt>
      <trkpt lat="44.70253" lon="1.96479">
        <ele>545.2</ele>
        <time>2026-05-16T09:16:00Z</time>
      </trkpt>
      <trkpt lat="44.70256" lon="1.965">
        <ele>546.65</ele>
        <time>2026-05-16T09:16:14Z</time>
      </trkpt>
      <trkpt lat="44.70258" lon="1.96513">
        <ele>548.57</ele>
        <time>2026-05-16T09:16:22Z</time>
      </trkpt>
      <trkpt lat="44.70259" lon="1.96515">
        <ele>548.57</ele>
        <time>2026-05-16T09:16:23Z</time>
      </trkpt>
      <trkpt lat="44.70259" lon="1.96517">
        <ele>548.57</ele>
        <time>2026-05-16T09:16:24Z</time>
      </trkpt>
      <trkpt lat="44.7026" lon="1.96523">
        <ele>549.53</ele>
        <time>2026-05-16T09:16:29Z</time>
      </trkpt>
      <trkpt lat="44.7026" lon="1.96524">
        <ele>549.53</ele>
        <time>2026-05-16T09:16:30Z</time>
      </trkpt>
      <trkpt lat="44.70269" lon="1.9654">
        <ele>551.45</ele>
        <time>2026-05-16T09:16:43Z</time>
      </trkpt>
      <trkpt lat="44.70282" lon="1.96551">
        <ele>552.9</ele>
        <time>2026-05-16T09:16:59Z</time>
      </trkpt>
      <trkpt lat="44.70301" lon="1.96558">
        <ele>553.86</ele>
        <time>2026-05-16T09:17:16Z</time>
      </trkpt>
      <trkpt lat="44.70309" lon="1.9658">
        <ele>556.74</ele>
        <time>2026-05-16T09:17:32Z</time>
      </trkpt>
      <trkpt lat="44.70309" lon="1.96581">
        <ele>556.74</ele>
        <time>2026-05-16T09:17:33Z</time>
      </trkpt>
      <trkpt lat="44.7031" lon="1.96588">
        <ele>557.22</ele>
        <time>2026-05-16T09:17:37Z</time>
      </trkpt>
      <trkpt lat="44.70307" lon="1.96602">
        <ele>558.18</ele>
        <time>2026-05-16T09:17:47Z</time>
      </trkpt>
      <trkpt lat="44.70294" lon="1.96618">
        <ele>555.78</ele>
        <time>2026-05-16T09:18:00Z</time>
      </trkpt>
      <trkpt lat="44.70294" lon="1.96644">
        <ele>553.86</ele>
        <time>2026-05-16T09:18:13Z</time>
      </trkpt>
      <trkpt lat="44.70296" lon="1.96651">
        <ele>552.9</ele>
        <time>2026-05-16T09:18:16Z</time>
      </trkpt>
      <trkpt lat="44.70297" lon="1.96652">
        <ele>553.38</ele>
        <time>2026-05-16T09:18:17Z</time>
      </trkpt>
      <trkpt lat="44.70298" lon="1.96654">
        <ele>552.41</ele>
        <time>2026-05-16T09:18:18Z</time>
      </trkpt>
      <trkpt lat="44.703" lon="1.96665">
        <ele>550.97</ele>
        <time>2026-05-16T09:18:25Z</time>
      </trkpt>
      <trkpt lat="44.703" lon="1.96666">
        <ele>550.97</ele>
        <time>2026-05-16T09:18:26Z</time>
      </trkpt>
      <trkpt lat="44.703" lon="1.9667">
        <ele>550.97</ele>
        <time>2026-05-16T09:18:28Z</time>
      </trkpt>
      <trkpt lat="44.70299" lon="1.96674">
        <ele>550.01</ele>
        <time>2026-05-16T09:18:42Z</time>
      </trkpt>
      <trkpt lat="44.70302" lon="1.96681">
        <ele>549.53</ele>
        <time>2026-05-16T09:19:03Z</time>
      </trkpt>
      <trkpt lat="44.70298" lon="1.96706">
        <ele>548.09</ele>
        <time>2026-05-16T09:19:16Z</time>
      </trkpt>
      <trkpt lat="44.70299" lon="1.9671">
        <ele>548.57</ele>
        <time>2026-05-16T09:19:20Z</time>
      </trkpt>
      <trkpt lat="44.70299" lon="1.96712">
        <ele>548.09</ele>
        <time>2026-05-16T09:19:21Z</time>
      </trkpt>
      <trkpt lat="44.70299" lon="1.96718">
        <ele>547.13</ele>
        <time>2026-05-16T09:19:25Z</time>
      </trkpt>
      <trkpt lat="44.70299" lon="1.9672">
        <ele>547.13</ele>
        <time>2026-05-16T09:19:26Z</time>
      </trkpt>
      <trkpt lat="44.70301" lon="1.96749">
        <ele>546.65</ele>
        <time>2026-05-16T09:19:40Z</time>
      </trkpt>
      <trkpt lat="44.70299" lon="1.96759">
        <ele>545.69</ele>
        <time>2026-05-16T09:19:46Z</time>
      </trkpt>
      <trkpt lat="44.70299" lon="1.96761">
        <ele>545.69</ele>
        <time>2026-05-16T09:19:47Z</time>
      </trkpt>
      <trkpt lat="44.70298" lon="1.96763">
        <ele>545.2</ele>
        <time>2026-05-16T09:19:48Z</time>
      </trkpt>
      <trkpt lat="44.70298" lon="1.96766">
        <ele>545.2</ele>
        <time>2026-05-16T09:19:49Z</time>
      </trkpt>
      <trkpt lat="44.70299" lon="1.96768">
        <ele>545.2</ele>
        <time>2026-05-16T09:19:50Z</time>
      </trkpt>
      <trkpt lat="44.70299" lon="1.9677">
        <ele>544.72</ele>
        <time>2026-05-16T09:19:51Z</time>
      </trkpt>
      <trkpt lat="44.70298" lon="1.96773">
        <ele>544.72</ele>
        <time>2026-05-16T09:19:52Z</time>
      </trkpt>
      <trkpt lat="44.70298" lon="1.96775">
        <ele>544.72</ele>
        <time>2026-05-16T09:19:53Z</time>
      </trkpt>
      <trkpt lat="44.70297" lon="1.96778">
        <ele>544.72</ele>
        <time>2026-05-16T09:19:54Z</time>
      </trkpt>
      <trkpt lat="44.70297" lon="1.9678">
        <ele>544.72</ele>
        <time>2026-05-16T09:19:55Z</time>
      </trkpt>
      <trkpt lat="44.70292" lon="1.96802">
        <ele>542.8</ele>
        <time>2026-05-16T09:20:08Z</time>
      </trkpt>
      <trkpt lat="44.70289" lon="1.96832">
        <ele>541.84</ele>
        <time>2026-05-16T09:20:24Z</time>
      </trkpt>
      <trkpt lat="44.70284" lon="1.96855">
        <ele>541.36</ele>
        <time>2026-05-16T09:20:37Z</time>
      </trkpt>
      <trkpt lat="44.70276" lon="1.9688">
        <ele>538.96</ele>
        <time>2026-05-16T09:20:51Z</time>
      </trkpt>
      <trkpt lat="44.70271" lon="1.96897">
        <ele>538.48</ele>
        <time>2026-05-16T09:21:01Z</time>
      </trkpt>
      <trkpt lat="44.70269" lon="1.96901">
        <ele>538.48</ele>
        <time>2026-05-16T09:21:03Z</time>
      </trkpt>
      <trkpt lat="44.70263" lon="1.96916">
        <ele>538.48</ele>
        <time>2026-05-16T09:21:11Z</time>
      </trkpt>
      <trkpt lat="44.70262" lon="1.96917">
        <ele>538.48</ele>
        <time>2026-05-16T09:21:12Z</time>
      </trkpt>
      <trkpt lat="44.70262" lon="1.96919">
        <ele>538.48</ele>
        <time>2026-05-16T09:21:13Z</time>
      </trkpt>
      <trkpt lat="44.70251" lon="1.96942">
        <ele>537.99</ele>
        <time>2026-05-16T09:21:28Z</time>
      </trkpt>
      <trkpt lat="44.70244" lon="1.96964">
        <ele>537.51</ele>
        <time>2026-05-16T09:21:41Z</time>
      </trkpt>
      <trkpt lat="44.70245" lon="1.96971">
        <ele>538.48</ele>
        <time>2026-05-16T09:21:45Z</time>
      </trkpt>
      <trkpt lat="44.7025" lon="1.96983">
        <ele>538.48</ele>
        <time>2026-05-16T09:21:51Z</time>
      </trkpt>
      <trkpt lat="44.7025" lon="1.97015">
        <ele>538.48</ele>
        <time>2026-05-16T09:22:06Z</time>
      </trkpt>
      <trkpt lat="44.7025" lon="1.97045">
        <ele>538.48</ele>
        <time>2026-05-16T09:22:21Z</time>
      </trkpt>
      <trkpt lat="44.7025" lon="1.97069">
        <ele>538.48</ele>
        <time>2026-05-16T09:22:34Z</time>
      </trkpt>
      <trkpt lat="44.70251" lon="1.97085">
        <ele>537.51</ele>
        <time>2026-05-16T09:22:42Z</time>
      </trkpt>
      <trkpt lat="44.70252" lon="1.97087">
        <ele>537.51</ele>
        <time>2026-05-16T09:22:43Z</time>
      </trkpt>
      <trkpt lat="44.70253" lon="1.97089">
        <ele>537.51</ele>
        <time>2026-05-16T09:22:44Z</time>
      </trkpt>
      <trkpt lat="44.70255" lon="1.97095">
        <ele>537.51</ele>
        <time>2026-05-16T09:22:48Z</time>
      </trkpt>
      <trkpt lat="44.70255" lon="1.97098">
        <ele>537.51</ele>
        <time>2026-05-16T09:22:49Z</time>
      </trkpt>
      <trkpt lat="44.70253" lon="1.97126">
        <ele>537.03</ele>
        <time>2026-05-16T09:23:03Z</time>
      </trkpt>
      <trkpt lat="44.70248" lon="1.97153">
        <ele>536.55</ele>
        <time>2026-05-16T09:23:17Z</time>
      </trkpt>
      <trkpt lat="44.7024" lon="1.97177">
        <ele>536.55</ele>
        <time>2026-05-16T09:23:31Z</time>
      </trkpt>
      <trkpt lat="44.70234" lon="1.97195">
        <ele>536.55</ele>
        <time>2026-05-16T09:23:43Z</time>
      </trkpt>
      <trkpt lat="44.70235" lon="1.97198">
        <ele>536.55</ele>
        <time>2026-05-16T09:23:44Z</time>
      </trkpt>
      <trkpt lat="44.70238" lon="1.97203">
        <ele>537.51</ele>
        <time>2026-05-16T09:23:47Z</time>
      </trkpt>
      <trkpt lat="44.70239" lon="1.97204">
        <ele>537.51</ele>
        <time>2026-05-16T09:23:48Z</time>
      </trkpt>
      <trkpt lat="44.7024" lon="1.97206">
        <ele>537.51</ele>
        <time>2026-05-16T09:23:49Z</time>
      </trkpt>
      <trkpt lat="44.70256" lon="1.97216">
        <ele>539.92</ele>
        <time>2026-05-16T09:24:04Z</time>
      </trkpt>
      <trkpt lat="44.70279" lon="1.97225">
        <ele>540.88</ele>
        <time>2026-05-16T09:24:20Z</time>
      </trkpt>
      <trkpt lat="44.70301" lon="1.97233">
        <ele>542.32</ele>
        <time>2026-05-16T09:24:36Z</time>
      </trkpt>
      <trkpt lat="44.70301" lon="1.97234">
        <ele>542.32</ele>
        <time>2026-05-16T09:24:37Z</time>
      </trkpt>
      <trkpt lat="44.70302" lon="1.97236">
        <ele>542.32</ele>
        <time>2026-05-16T09:24:39Z</time>
      </trkpt>
      <trkpt lat="44.70298" lon="1.97241">
        <ele>542.8</ele>
        <time>2026-05-16T09:24:45Z</time>
      </trkpt>
      <trkpt lat="44.70279" lon="1.97251">
        <ele>543.76</ele>
        <time>2026-05-16T09:24:59Z</time>
      </trkpt>
      <trkpt lat="44.70276" lon="1.97254">
        <ele>543.76</ele>
        <time>2026-05-16T09:25:04Z</time>
      </trkpt>
      <trkpt lat="44.70275" lon="1.97254">
        <ele>543.76</ele>
        <time>2026-05-16T09:25:05Z</time>
      </trkpt>
      <trkpt lat="44.70274" lon="1.97255">
        <ele>543.76</ele>
        <time>2026-05-16T09:25:06Z</time>
      </trkpt>
      <trkpt lat="44.70266" lon="1.97257">
        <ele>544.24</ele>
        <time>2026-05-16T09:25:18Z</time>
      </trkpt>
      <trkpt lat="44.70263" lon="1.97261">
        <ele>543.76</ele>
        <time>2026-05-16T09:25:23Z</time>
      </trkpt>
      <trkpt lat="44.7025" lon="1.9728">
        <ele>544.72</ele>
        <time>2026-05-16T09:25:38Z</time>
      </trkpt>
      <trkpt lat="44.70239" lon="1.97304">
        <ele>546.65</ele>
        <time>2026-05-16T09:25:53Z</time>
      </trkpt>
      <trkpt lat="44.7023" lon="1.97332">
        <ele>546.65</ele>
        <time>2026-05-16T09:26:07Z</time>
      </trkpt>
      <trkpt lat="44.70227" lon="1.97344">
        <ele>547.13</ele>
        <time>2026-05-16T09:26:15Z</time>
      </trkpt>
      <trkpt lat="44.70221" lon="1.9737">
        <ele>547.13</ele>
        <time>2026-05-16T09:26:31Z</time>
      </trkpt>
      <trkpt lat="44.70219" lon="1.97373">
        <ele>547.61</ele>
        <time>2026-05-16T09:26:33Z</time>
      </trkpt>
      <trkpt lat="44.70219" lon="1.97374">
        <ele>547.61</ele>
        <time>2026-05-16T09:26:34Z</time>
      </trkpt>
      <trkpt lat="44.70218" lon="1.97376">
        <ele>547.61</ele>
        <time>2026-05-16T09:26:35Z</time>
      </trkpt>
      <trkpt lat="44.70211" lon="1.97399">
        <ele>548.57</ele>
        <time>2026-05-16T09:26:50Z</time>
      </trkpt>
      <trkpt lat="44.70201" lon="1.97424">
        <ele>549.53</ele>
        <time>2026-05-16T09:27:05Z</time>
      </trkpt>
      <trkpt lat="44.70194" lon="1.97435">
        <ele>550.01</ele>
        <time>2026-05-16T09:27:13Z</time>
      </trkpt>
      <trkpt lat="44.70191" lon="1.97438">
        <ele>550.01</ele>
        <time>2026-05-16T09:27:16Z</time>
      </trkpt>
      <trkpt lat="44.7019" lon="1.9744">
        <ele>550.01</ele>
        <time>2026-05-16T09:27:17Z</time>
      </trkpt>
      <trkpt lat="44.70189" lon="1.97442">
        <ele>550.01</ele>
        <time>2026-05-16T09:27:18Z</time>
      </trkpt>
      <trkpt lat="44.70183" lon="1.97467">
        <ele>550.49</ele>
        <time>2026-05-16T09:27:35Z</time>
      </trkpt>
      <trkpt lat="44.70159" lon="1.97496">
        <ele>550.97</ele>
        <time>2026-05-16T09:27:53Z</time>
      </trkpt>
      <trkpt lat="44.70144" lon="1.9752">
        <ele>551.93</ele>
        <time>2026-05-16T09:28:10Z</time>
      </trkpt>
      <trkpt lat="44.70131" lon="1.97541">
        <ele>552.41</ele>
        <time>2026-05-16T09:28:25Z</time>
      </trkpt>
      <trkpt lat="44.70116" lon="1.97568">
        <ele>552.9</ele>
        <time>2026-05-16T09:28:43Z</time>
      </trkpt>
      <trkpt lat="44.70101" lon="1.9759">
        <ele>552.9</ele>
        <time>2026-05-16T09:28:57Z</time>
      </trkpt>
      <trkpt lat="44.70089" lon="1.97608">
        <ele>552.9</ele>
        <time>2026-05-16T09:29:11Z</time>
      </trkpt>
      <trkpt lat="44.70075" lon="1.97624">
        <ele>551.45</ele>
        <time>2026-05-16T09:29:24Z</time>
      </trkpt>
      <trkpt lat="44.70058" lon="1.97643">
        <ele>550.97</ele>
        <time>2026-05-16T09:29:40Z</time>
      </trkpt>
      <trkpt lat="44.70043" lon="1.97659">
        <ele>549.05</ele>
        <time>2026-05-16T09:29:53Z</time>
      </trkpt>
      <trkpt lat="44.70026" lon="1.97674">
        <ele>548.57</ele>
        <time>2026-05-16T09:30:07Z</time>
      </trkpt>
      <trkpt lat="44.70011" lon="1.9769">
        <ele>548.09</ele>
        <time>2026-05-16T09:30:21Z</time>
      </trkpt>
      <trkpt lat="44.69993" lon="1.97702">
        <ele>547.61</ele>
        <time>2026-05-16T09:30:34Z</time>
      </trkpt>
      <trkpt lat="44.69977" lon="1.97711">
        <ele>547.13</ele>
        <time>2026-05-16T09:30:47Z</time>
      </trkpt>
      <trkpt lat="44.69959" lon="1.97717">
        <ele>546.65</ele>
        <time>2026-05-16T09:31:02Z</time>
      </trkpt>
      <trkpt lat="44.69939" lon="1.97725">
        <ele>546.65</ele>
        <time>2026-05-16T09:31:17Z</time>
      </trkpt>
      <trkpt lat="44.69926" lon="1.97725">
        <ele>546.17</ele>
        <time>2026-05-16T09:31:27Z</time>
      </trkpt>
      <trkpt lat="44.69925" lon="1.97723">
        <ele>546.17</ele>
        <time>2026-05-16T09:31:29Z</time>
      </trkpt>
      <trkpt lat="44.69924" lon="1.97697">
        <ele>543.28</ele>
        <time>2026-05-16T09:31:44Z</time>
      </trkpt>
      <trkpt lat="44.69924" lon="1.97693">
        <ele>542.8</ele>
        <time>2026-05-16T09:31:46Z</time>
      </trkpt>
      <trkpt lat="44.69923" lon="1.9768">
        <ele>541.36</ele>
        <time>2026-05-16T09:31:53Z</time>
      </trkpt>
      <trkpt lat="44.69923" lon="1.97678">
        <ele>540.4</ele>
        <time>2026-05-16T09:31:54Z</time>
      </trkpt>
      <trkpt lat="44.69923" lon="1.97675">
        <ele>540.4</ele>
        <time>2026-05-16T09:31:55Z</time>
      </trkpt>
      <trkpt lat="44.69923" lon="1.97673">
        <ele>539.92</ele>
        <time>2026-05-16T09:31:56Z</time>
      </trkpt>
      <trkpt lat="44.69923" lon="1.97671">
        <ele>539.44</ele>
        <time>2026-05-16T09:31:57Z</time>
      </trkpt>
      <trkpt lat="44.69921" lon="1.97647">
        <ele>537.99</ele>
        <time>2026-05-16T09:32:09Z</time>
      </trkpt>
      <trkpt lat="44.69922" lon="1.97617">
        <ele>537.51</ele>
        <time>2026-05-16T09:32:23Z</time>
      </trkpt>
      <trkpt lat="44.69917" lon="1.9759">
        <ele>537.03</ele>
        <time>2026-05-16T09:32:38Z</time>
      </trkpt>
      <trkpt lat="44.69907" lon="1.97572">
        <ele>537.03</ele>
        <time>2026-05-16T09:32:52Z</time>
      </trkpt>
      <trkpt lat="44.69897" lon="1.97561">
        <ele>537.99</ele>
        <time>2026-05-16T09:33:08Z</time>
      </trkpt>
      <trkpt lat="44.69889" lon="1.97562">
        <ele>537.99</ele>
        <time>2026-05-16T09:33:27Z</time>
      </trkpt>
      <trkpt lat="44.69889" lon="1.97569">
        <ele>536.55</ele>
        <time>2026-05-16T09:33:50Z</time>
      </trkpt>
      <trkpt lat="44.69875" lon="1.97563">
        <ele>537.99</ele>
        <time>2026-05-16T09:34:19Z</time>
      </trkpt>
      <trkpt lat="44.69885" lon="1.97565">
        <ele>537.99</ele>
        <time>2026-05-16T09:34:55Z</time>
      </trkpt>
      <trkpt lat="44.69885" lon="1.97566">
        <ele>535.59</ele>
        <time>2026-05-16T09:35:04Z</time>
      </trkpt>
      <trkpt lat="44.69884" lon="1.97567">
        <ele>538.96</ele>
        <time>2026-05-16T09:35:05Z</time>
      </trkpt>
      <trkpt lat="44.69884" lon="1.97567">
        <ele>537.51</ele>
        <time>2026-05-16T09:35:06Z</time>
      </trkpt>
      <trkpt lat="44.69887" lon="1.97577">
        <ele>537.51</ele>
        <time>2026-05-16T09:35:36Z</time>
      </trkpt>
      <trkpt lat="44.69882" lon="1.97582">
        <ele>537.51</ele>
        <time>2026-05-16T09:36:09Z</time>
      </trkpt>
      <trkpt lat="44.69883" lon="1.97584">
        <ele>537.51</ele>
        <time>2026-05-16T09:36:39Z</time>
      </trkpt>
      <trkpt lat="44.69887" lon="1.97573">
        <ele>537.51</ele>
        <time>2026-05-16T09:36:45Z</time>
      </trkpt>
      <trkpt lat="44.69887" lon="1.97566">
        <ele>537.51</ele>
        <time>2026-05-16T09:37:02Z</time>
      </trkpt>
      <trkpt lat="44.69885" lon="1.97574">
        <ele>537.51</ele>
        <time>2026-05-16T09:37:22Z</time>
      </trkpt>
      <trkpt lat="44.6989" lon="1.97575">
        <ele>537.51</ele>
        <time>2026-05-16T09:37:50Z</time>
      </trkpt>
      <trkpt lat="44.69884" lon="1.97592">
        <ele>537.51</ele>
        <time>2026-05-16T09:38:17Z</time>
      </trkpt>
      <trkpt lat="44.69884" lon="1.97586">
        <ele>537.51</ele>
        <time>2026-05-16T09:38:46Z</time>
      </trkpt>
      <trkpt lat="44.69876" lon="1.97598">
        <ele>537.03</ele>
        <time>2026-05-16T09:39:12Z</time>
      </trkpt>
      <trkpt lat="44.69879" lon="1.97581">
        <ele>537.03</ele>
        <time>2026-05-16T09:39:39Z</time>
      </trkpt>
      <trkpt lat="44.69885" lon="1.97578">
        <ele>537.03</ele>
        <time>2026-05-16T09:40:07Z</time>
      </trkpt>
      <trkpt lat="44.6988" lon="1.97584">
        <ele>536.55</ele>
        <time>2026-05-16T09:40:37Z</time>
      </trkpt>
      <trkpt lat="44.69883" lon="1.97573">
        <ele>536.07</ele>
        <time>2026-05-16T09:41:06Z</time>
      </trkpt>
      <trkpt lat="44.69885" lon="1.97577">
        <ele>536.07</ele>
        <time>2026-05-16T09:41:33Z</time>
      </trkpt>
      <trkpt lat="44.69883" lon="1.97568">
        <ele>536.07</ele>
        <time>2026-05-16T09:42:06Z</time>
      </trkpt>
      <trkpt lat="44.69889" lon="1.97572">
        <ele>536.07</ele>
        <time>2026-05-16T09:42:37Z</time>
      </trkpt>
      <trkpt lat="44.69894" lon="1.97568">
        <ele>536.07</ele>
        <time>2026-05-16T09:43:07Z</time>
      </trkpt>
      <trkpt lat="44.69893" lon="1.97563">
        <ele>537.51</ele>
        <time>2026-05-16T09:43:20Z</time>
      </trkpt>
      <trkpt lat="44.69886" lon="1.97567">
        <ele>537.51</ele>
        <time>2026-05-16T09:43:45Z</time>
      </trkpt>
      <trkpt lat="44.69889" lon="1.97562">
        <ele>537.51</ele>
        <time>2026-05-16T09:44:04Z</time>
      </trkpt>
      <trkpt lat="44.69887" lon="1.97571">
        <ele>537.51</ele>
        <time>2026-05-16T09:44:23Z</time>
      </trkpt>
      <trkpt lat="44.69888" lon="1.97563">
        <ele>537.51</ele>
        <time>2026-05-16T09:44:53Z</time>
      </trkpt>
      <trkpt lat="44.69885" lon="1.97566">
        <ele>537.51</ele>
        <time>2026-05-16T09:45:22Z</time>
      </trkpt>
      <trkpt lat="44.69887" lon="1.97571">
        <ele>537.99</ele>
        <time>2026-05-16T09:45:55Z</time>
      </trkpt>
      <trkpt lat="44.69888" lon="1.97574">
        <ele>537.99</ele>
        <time>2026-05-16T09:46:22Z</time>
      </trkpt>
      <trkpt lat="44.69889" lon="1.97567">
        <ele>536.55</ele>
        <time>2026-05-16T09:46:47Z</time>
      </trkpt>
      <trkpt lat="44.69887" lon="1.97564">
        <ele>536.55</ele>
        <time>2026-05-16T09:47:15Z</time>
      </trkpt>
      <trkpt lat="44.69888" lon="1.97573">
        <ele>536.07</ele>
        <time>2026-05-16T09:47:45Z</time>
      </trkpt>
      <trkpt lat="44.69889" lon="1.97573">
        <ele>536.07</ele>
        <time>2026-05-16T09:48:17Z</time>
      </trkpt>
      <trkpt lat="44.69889" lon="1.97578">
        <ele>537.03</ele>
        <time>2026-05-16T09:48:24Z</time>
      </trkpt>
      <trkpt lat="44.69886" lon="1.97566">
        <ele>536.07</ele>
        <time>2026-05-16T09:48:51Z</time>
      </trkpt>
      <trkpt lat="44.6988" lon="1.97578">
        <ele>536.07</ele>
        <time>2026-05-16T09:49:18Z</time>
      </trkpt>
      <trkpt lat="44.69882" lon="1.97576">
        <ele>534.63</ele>
        <time>2026-05-16T09:49:28Z</time>
      </trkpt>
      <trkpt lat="44.69882" lon="1.97576">
        <ele>536.55</ele>
        <time>2026-05-16T09:49:30Z</time>
      </trkpt>
      <trkpt lat="44.69885" lon="1.97575">
        <ele>535.59</ele>
        <time>2026-05-16T09:49:42Z</time>
      </trkpt>
      <trkpt lat="44.69886" lon="1.97571">
        <ele>535.11</ele>
        <time>2026-05-16T09:50:05Z</time>
      </trkpt>
      <trkpt lat="44.69884" lon="1.97572">
        <ele>535.11</ele>
        <time>2026-05-16T09:50:22Z</time>
      </trkpt>
      <trkpt lat="44.69887" lon="1.97565">
        <ele>535.11</ele>
        <time>2026-05-16T09:50:51Z</time>
      </trkpt>
      <trkpt lat="44.69891" lon="1.97571">
        <ele>535.11</ele>
        <time>2026-05-16T09:51:12Z</time>
      </trkpt>
      <trkpt lat="44.69886" lon="1.97562">
        <ele>534.63</ele>
        <time>2026-05-16T09:51:37Z</time>
      </trkpt>
      <trkpt lat="44.69886" lon="1.97569">
        <ele>534.63</ele>
        <time>2026-05-16T09:51:53Z</time>
      </trkpt>
      <trkpt lat="44.69878" lon="1.97572">
        <ele>534.63</ele>
        <time>2026-05-16T09:52:13Z</time>
      </trkpt>
      <trkpt lat="44.69882" lon="1.9757">
        <ele>534.15</ele>
        <time>2026-05-16T09:52:40Z</time>
      </trkpt>
      <trkpt lat="44.69882" lon="1.97566">
        <ele>534.15</ele>
        <time>2026-05-16T09:53:14Z</time>
      </trkpt>
      <trkpt lat="44.69884" lon="1.97567">
        <ele>534.15</ele>
        <time>2026-05-16T09:53:38Z</time>
      </trkpt>
      <trkpt lat="44.69886" lon="1.97569">
        <ele>534.15</ele>
        <time>2026-05-16T09:53:57Z</time>
      </trkpt>
      <trkpt lat="44.69885" lon="1.97566">
        <ele>535.11</ele>
        <time>2026-05-16T09:54:05Z</time>
      </trkpt>
      <trkpt lat="44.69886" lon="1.97576">
        <ele>534.15</ele>
        <time>2026-05-16T09:54:33Z</time>
      </trkpt>
      <trkpt lat="44.69882" lon="1.97572">
        <ele>532.23</ele>
        <time>2026-05-16T09:54:39Z</time>
      </trkpt>
      <trkpt lat="44.69882" lon="1.97571">
        <ele>536.07</ele>
        <time>2026-05-16T09:54:40Z</time>
      </trkpt>
      <trkpt lat="44.69882" lon="1.9757">
        <ele>534.63</ele>
        <time>2026-05-16T09:54:41Z</time>
      </trkpt>
      <trkpt lat="44.69882" lon="1.97569">
        <ele>538.48</ele>
        <time>2026-05-16T09:54:43Z</time>
      </trkpt>
      <trkpt lat="44.69882" lon="1.97569">
        <ele>534.63</ele>
        <time>2026-05-16T09:54:45Z</time>
      </trkpt>
      <trkpt lat="44.69884" lon="1.97568">
        <ele>534.63</ele>
        <time>2026-05-16T09:54:46Z</time>
      </trkpt>
      <trkpt lat="44.69886" lon="1.97558">
        <ele>536.07</ele>
        <time>2026-05-16T09:54:53Z</time>
      </trkpt>
      <trkpt lat="44.69877" lon="1.97554">
        <ele>536.07</ele>
        <time>2026-05-16T09:55:02Z</time>
      </trkpt>
      <trkpt lat="44.69876" lon="1.97555">
        <ele>536.07</ele>
        <time>2026-05-16T09:55:03Z</time>
      </trkpt>
      <trkpt lat="44.69864" lon="1.9756">
        <ele>534.63</ele>
        <time>2026-05-16T09:55:14Z</time>
      </trkpt>
      <trkpt lat="44.69845" lon="1.97561">
        <ele>531.75</ele>
        <time>2026-05-16T09:55:31Z</time>
      </trkpt>
      <trkpt lat="44.69839" lon="1.97563">
        <ele>531.27</ele>
        <time>2026-05-16T09:55:36Z</time>
      </trkpt>
      <trkpt lat="44.69817" lon="1.9756">
        <ele>528.38</ele>
        <time>2026-05-16T09:55:54Z</time>
      </trkpt>
      <trkpt lat="44.69801" lon="1.97554">
        <ele>525.98</ele>
        <time>2026-05-16T09:56:08Z</time>
      </trkpt>
      <trkpt lat="44.69785" lon="1.97551">
        <ele>522.61</ele>
        <time>2026-05-16T09:56:20Z</time>
      </trkpt>
      <trkpt lat="44.69775" lon="1.97546">
        <ele>520.69</ele>
        <time>2026-05-16T09:56:27Z</time>
      </trkpt>
      <trkpt lat="44.69765" lon="1.97541">
        <ele>519.25</ele>
        <time>2026-05-16T09:56:34Z</time>
      </trkpt>
      <trkpt lat="44.69758" lon="1.97528">
        <ele>515.88</ele>
        <time>2026-05-16T09:56:45Z</time>
      </trkpt>
      <trkpt lat="44.69752" lon="1.97512">
        <ele>513</ele>
        <time>2026-05-16T09:56:56Z</time>
      </trkpt>
      <trkpt lat="44.69742" lon="1.97496">
        <ele>510.12</ele>
        <time>2026-05-16T09:57:09Z</time>
      </trkpt>
      <trkpt lat="44.69723" lon="1.97472">
        <ele>507.71</ele>
        <time>2026-05-16T09:57:27Z</time>
      </trkpt>
      <trkpt lat="44.69708" lon="1.97443">
        <ele>505.79</ele>
        <time>2026-05-16T09:57:44Z</time>
      </trkpt>
      <trkpt lat="44.69706" lon="1.97437">
        <ele>504.83</ele>
        <time>2026-05-16T09:57:48Z</time>
      </trkpt>
      <trkpt lat="44.69697" lon="1.97417">
        <ele>501.46</ele>
        <time>2026-05-16T09:58:01Z</time>
      </trkpt>
      <trkpt lat="44.69696" lon="1.97415">
        <ele>501.46</ele>
        <time>2026-05-16T09:58:02Z</time>
      </trkpt>
      <trkpt lat="44.69688" lon="1.97394">
        <ele>499.06</ele>
        <time>2026-05-16T09:58:17Z</time>
      </trkpt>
      <trkpt lat="44.69676" lon="1.97373">
        <ele>496.18</ele>
        <time>2026-05-16T09:58:31Z</time>
      </trkpt>
      <trkpt lat="44.6967" lon="1.9736">
        <ele>495.7</ele>
        <time>2026-05-16T09:58:39Z</time>
      </trkpt>
      <trkpt lat="44.69668" lon="1.97355">
        <ele>495.7</ele>
        <time>2026-05-16T09:58:41Z</time>
      </trkpt>
      <trkpt lat="44.69666" lon="1.97352">
        <ele>495.22</ele>
        <time>2026-05-16T09:58:43Z</time>
      </trkpt>
      <trkpt lat="44.69652" lon="1.97334">
        <ele>492.33</ele>
        <time>2026-05-16T09:58:57Z</time>
      </trkpt>
      <trkpt lat="44.69647" lon="1.9733">
        <ele>491.85</ele>
        <time>2026-05-16T09:59:01Z</time>
      </trkpt>
      <trkpt lat="44.69646" lon="1.97328">
        <ele>491.37</ele>
        <time>2026-05-16T09:59:02Z</time>
      </trkpt>
      <trkpt lat="44.6963" lon="1.97313">
        <ele>489.45</ele>
        <time>2026-05-16T09:59:17Z</time>
      </trkpt>
      <trkpt lat="44.69623" lon="1.97285">
        <ele>488.49</ele>
        <time>2026-05-16T09:59:33Z</time>
      </trkpt>
      <trkpt lat="44.69621" lon="1.97279">
        <ele>487.53</ele>
        <time>2026-05-16T09:59:37Z</time>
      </trkpt>
      <trkpt lat="44.69621" lon="1.97267">
        <ele>487.53</ele>
        <time>2026-05-16T09:59:45Z</time>
      </trkpt>
      <trkpt lat="44.69618" lon="1.97256">
        <ele>487.05</ele>
        <time>2026-05-16T09:59:54Z</time>
      </trkpt>
      <trkpt lat="44.69617" lon="1.97255">
        <ele>487.05</ele>
        <time>2026-05-16T09:59:55Z</time>
      </trkpt>
      <trkpt lat="44.69614" lon="1.97252">
        <ele>487.05</ele>
        <time>2026-05-16T09:59:58Z</time>
      </trkpt>
      <trkpt lat="44.69607" lon="1.97249">
        <ele>486.08</ele>
        <time>2026-05-16T10:00:07Z</time>
      </trkpt>
      <trkpt lat="44.69603" lon="1.97251">
        <ele>485.6</ele>
        <time>2026-05-16T10:00:22Z</time>
      </trkpt>
      <trkpt lat="44.69607" lon="1.9725">
        <ele>485.6</ele>
        <time>2026-05-16T10:00:41Z</time>
      </trkpt>
      <trkpt lat="44.69603" lon="1.97243">
        <ele>485.6</ele>
        <time>2026-05-16T10:00:53Z</time>
      </trkpt>
      <trkpt lat="44.69591" lon="1.97219">
        <ele>484.64</ele>
        <time>2026-05-16T10:01:11Z</time>
      </trkpt>
      <trkpt lat="44.6959" lon="1.97217">
        <ele>484.64</ele>
        <time>2026-05-16T10:01:12Z</time>
      </trkpt>
      <trkpt lat="44.6959" lon="1.97215">
        <ele>484.64</ele>
        <time>2026-05-16T10:01:13Z</time>
      </trkpt>
      <trkpt lat="44.69589" lon="1.97213">
        <ele>484.64</ele>
        <time>2026-05-16T10:01:14Z</time>
      </trkpt>
      <trkpt lat="44.69581" lon="1.97188">
        <ele>481.76</ele>
        <time>2026-05-16T10:01:29Z</time>
      </trkpt>
      <trkpt lat="44.69576" lon="1.97156">
        <ele>479.35</ele>
        <time>2026-05-16T10:01:45Z</time>
      </trkpt>
      <trkpt lat="44.69566" lon="1.97121">
        <ele>475.99</ele>
        <time>2026-05-16T10:02:01Z</time>
      </trkpt>
      <trkpt lat="44.69556" lon="1.97096">
        <ele>472.63</ele>
        <time>2026-05-16T10:02:16Z</time>
      </trkpt>
      <trkpt lat="44.69548" lon="1.97072">
        <ele>470.22</ele>
        <time>2026-05-16T10:02:30Z</time>
      </trkpt>
      <trkpt lat="44.6954" lon="1.97048">
        <ele>468.78</ele>
        <time>2026-05-16T10:02:44Z</time>
      </trkpt>
      <trkpt lat="44.69534" lon="1.97018">
        <ele>466.86</ele>
        <time>2026-05-16T10:03:00Z</time>
      </trkpt>
      <trkpt lat="44.69532" lon="1.97014">
        <ele>466.38</ele>
        <time>2026-05-16T10:03:03Z</time>
      </trkpt>
      <trkpt lat="44.69517" lon="1.9699">
        <ele>463.49</ele>
        <time>2026-05-16T10:03:20Z</time>
      </trkpt>
      <trkpt lat="44.69514" lon="1.96986">
        <ele>463.01</ele>
        <time>2026-05-16T10:03:23Z</time>
      </trkpt>
      <trkpt lat="44.69513" lon="1.96985">
        <ele>463.01</ele>
        <time>2026-05-16T10:03:24Z</time>
      </trkpt>
      <trkpt lat="44.69494" lon="1.96973">
        <ele>460.61</ele>
        <time>2026-05-16T10:03:37Z</time>
      </trkpt>
      <trkpt lat="44.69475" lon="1.96952">
        <ele>459.17</ele>
        <time>2026-05-16T10:03:53Z</time>
      </trkpt>
      <trkpt lat="44.69456" lon="1.96931">
        <ele>458.21</ele>
        <time>2026-05-16T10:04:10Z</time>
      </trkpt>
      <trkpt lat="44.69436" lon="1.96902">
        <ele>458.21</ele>
        <time>2026-05-16T10:04:28Z</time>
      </trkpt>
      <trkpt lat="44.69431" lon="1.96897">
        <ele>459.65</ele>
        <time>2026-05-16T10:04:32Z</time>
      </trkpt>
      <trkpt lat="44.69416" lon="1.96885">
        <ele>460.61</ele>
        <time>2026-05-16T10:04:48Z</time>
      </trkpt>
      <trkpt lat="44.69398" lon="1.96871">
        <ele>460.61</ele>
        <time>2026-05-16T10:05:01Z</time>
      </trkpt>
      <trkpt lat="44.69383" lon="1.96864">
        <ele>459.17</ele>
        <time>2026-05-16T10:05:11Z</time>
      </trkpt>
      <trkpt lat="44.69377" lon="1.96864">
        <ele>458.21</ele>
        <time>2026-05-16T10:05:17Z</time>
      </trkpt>
      <trkpt lat="44.69375" lon="1.96864">
        <ele>458.21</ele>
        <time>2026-05-16T10:05:18Z</time>
      </trkpt>
      <trkpt lat="44.69374" lon="1.96864">
        <ele>458.21</ele>
        <time>2026-05-16T10:05:19Z</time>
      </trkpt>
      <trkpt lat="44.69357" lon="1.96877">
        <ele>456.28</ele>
        <time>2026-05-16T10:05:33Z</time>
      </trkpt>
      <trkpt lat="44.69336" lon="1.9688">
        <ele>453.88</ele>
        <time>2026-05-16T10:05:49Z</time>
      </trkpt>
      <trkpt lat="44.69329" lon="1.96881">
        <ele>452.44</ele>
        <time>2026-05-16T10:06:03Z</time>
      </trkpt>
      <trkpt lat="44.69319" lon="1.9688">
        <ele>451.48</ele>
        <time>2026-05-16T10:06:32Z</time>
      </trkpt>
      <trkpt lat="44.69301" lon="1.96868">
        <ele>448.11</ele>
        <time>2026-05-16T10:06:48Z</time>
      </trkpt>
      <trkpt lat="44.69299" lon="1.96864">
        <ele>448.11</ele>
        <time>2026-05-16T10:06:51Z</time>
      </trkpt>
      <trkpt lat="44.69298" lon="1.96862">
        <ele>447.63</ele>
        <time>2026-05-16T10:06:52Z</time>
      </trkpt>
      <trkpt lat="44.69297" lon="1.9686">
        <ele>447.15</ele>
        <time>2026-05-16T10:06:53Z</time>
      </trkpt>
      <trkpt lat="44.69297" lon="1.96858">
        <ele>447.15</ele>
        <time>2026-05-16T10:06:54Z</time>
      </trkpt>
      <trkpt lat="44.69296" lon="1.96856">
        <ele>447.15</ele>
        <time>2026-05-16T10:06:55Z</time>
      </trkpt>
      <trkpt lat="44.69296" lon="1.96854">
        <ele>446.19</ele>
        <time>2026-05-16T10:06:56Z</time>
      </trkpt>
      <trkpt lat="44.69296" lon="1.96846">
        <ele>445.23</ele>
        <time>2026-05-16T10:07:00Z</time>
      </trkpt>
      <trkpt lat="44.69296" lon="1.96844">
        <ele>444.75</ele>
        <time>2026-05-16T10:07:01Z</time>
      </trkpt>
      <trkpt lat="44.69296" lon="1.96843">
        <ele>444.75</ele>
        <time>2026-05-16T10:07:02Z</time>
      </trkpt>
      <trkpt lat="44.69294" lon="1.96828">
        <ele>442.34</ele>
        <time>2026-05-16T10:07:11Z</time>
      </trkpt>
      <trkpt lat="44.69275" lon="1.96812">
        <ele>439.46</ele>
        <time>2026-05-16T10:07:26Z</time>
      </trkpt>
      <trkpt lat="44.69257" lon="1.96806">
        <ele>437.54</ele>
        <time>2026-05-16T10:07:40Z</time>
      </trkpt>
      <trkpt lat="44.69255" lon="1.96806">
        <ele>437.06</ele>
        <time>2026-05-16T10:07:42Z</time>
      </trkpt>
      <trkpt lat="44.69253" lon="1.96807">
        <ele>437.06</ele>
        <time>2026-05-16T10:07:43Z</time>
      </trkpt>
      <trkpt lat="44.69252" lon="1.96808">
        <ele>436.58</ele>
        <time>2026-05-16T10:07:44Z</time>
      </trkpt>
      <trkpt lat="44.69251" lon="1.96809">
        <ele>437.06</ele>
        <time>2026-05-16T10:07:45Z</time>
      </trkpt>
      <trkpt lat="44.6925" lon="1.96811">
        <ele>437.06</ele>
        <time>2026-05-16T10:07:46Z</time>
      </trkpt>
      <trkpt lat="44.69249" lon="1.96812">
        <ele>437.06</ele>
        <time>2026-05-16T10:07:47Z</time>
      </trkpt>
      <trkpt lat="44.69247" lon="1.96813">
        <ele>436.1</ele>
        <time>2026-05-16T10:07:48Z</time>
      </trkpt>
      <trkpt lat="44.69246" lon="1.96815">
        <ele>436.1</ele>
        <time>2026-05-16T10:07:49Z</time>
      </trkpt>
      <trkpt lat="44.69245" lon="1.96817">
        <ele>436.1</ele>
        <time>2026-05-16T10:07:50Z</time>
      </trkpt>
      <trkpt lat="44.69245" lon="1.96817">
        <ele>436.1</ele>
        <time>2026-05-16T10:07:51Z</time>
      </trkpt>
      <trkpt lat="44.69236" lon="1.96844">
        <ele>435.13</ele>
        <time>2026-05-16T10:08:06Z</time>
      </trkpt>
      <trkpt lat="44.69227" lon="1.96876">
        <ele>433.21</ele>
        <time>2026-05-16T10:08:22Z</time>
      </trkpt>
      <trkpt lat="44.69229" lon="1.96911">
        <ele>432.25</ele>
        <time>2026-05-16T10:08:39Z</time>
      </trkpt>
      <trkpt lat="44.6924" lon="1.96941">
        <ele>430.33</ele>
        <time>2026-05-16T10:08:55Z</time>
      </trkpt>
      <trkpt lat="44.69241" lon="1.96942">
        <ele>430.33</ele>
        <time>2026-05-16T10:09:01Z</time>
      </trkpt>
      <trkpt lat="44.69242" lon="1.96944">
        <ele>430.33</ele>
        <time>2026-05-16T10:09:02Z</time>
      </trkpt>
      <trkpt lat="44.69254" lon="1.96967">
        <ele>430.33</ele>
        <time>2026-05-16T10:09:17Z</time>
      </trkpt>
      <trkpt lat="44.69266" lon="1.96992">
        <ele>429.37</ele>
        <time>2026-05-16T10:09:33Z</time>
      </trkpt>
      <trkpt lat="44.69278" lon="1.97017">
        <ele>428.89</ele>
        <time>2026-05-16T10:09:49Z</time>
      </trkpt>
      <trkpt lat="44.69292" lon="1.97047">
        <ele>427.92</ele>
        <time>2026-05-16T10:10:08Z</time>
      </trkpt>
      <trkpt lat="44.69292" lon="1.9705">
        <ele>427.92</ele>
        <time>2026-05-16T10:10:09Z</time>
      </trkpt>
      <trkpt lat="44.69292" lon="1.97052">
        <ele>427.92</ele>
        <time>2026-05-16T10:10:10Z</time>
      </trkpt>
      <trkpt lat="44.69292" lon="1.97054">
        <ele>427.92</ele>
        <time>2026-05-16T10:10:11Z</time>
      </trkpt>
      <trkpt lat="44.69291" lon="1.97057">
        <ele>427.92</ele>
        <time>2026-05-16T10:10:12Z</time>
      </trkpt>
      <trkpt lat="44.69279" lon="1.97075">
        <ele>426</ele>
        <time>2026-05-16T10:10:26Z</time>
      </trkpt>
      <trkpt lat="44.69263" lon="1.97093">
        <ele>425.04</ele>
        <time>2026-05-16T10:10:41Z</time>
      </trkpt>
      <trkpt lat="44.69257" lon="1.97111">
        <ele>424.08</ele>
        <time>2026-05-16T10:10:53Z</time>
      </trkpt>
      <trkpt lat="44.69256" lon="1.97112">
        <ele>424.08</ele>
        <time>2026-05-16T10:10:54Z</time>
      </trkpt>
      <trkpt lat="44.69254" lon="1.97119">
        <ele>422.64</ele>
        <time>2026-05-16T10:10:58Z</time>
      </trkpt>
      <trkpt lat="44.69255" lon="1.97121">
        <ele>422.64</ele>
        <time>2026-05-16T10:10:59Z</time>
      </trkpt>
      <trkpt lat="44.69255" lon="1.97123">
        <ele>422.64</ele>
        <time>2026-05-16T10:11:00Z</time>
      </trkpt>
      <trkpt lat="44.69255" lon="1.97151">
        <ele>421.68</ele>
        <time>2026-05-16T10:11:13Z</time>
      </trkpt>
      <trkpt lat="44.69255" lon="1.97153">
        <ele>421.68</ele>
        <time>2026-05-16T10:11:14Z</time>
      </trkpt>
      <trkpt lat="44.69256" lon="1.97155">
        <ele>421.19</ele>
        <time>2026-05-16T10:11:15Z</time>
      </trkpt>
      <trkpt lat="44.69256" lon="1.97158">
        <ele>421.19</ele>
        <time>2026-05-16T10:11:16Z</time>
      </trkpt>
      <trkpt lat="44.69255" lon="1.97161">
        <ele>421.19</ele>
        <time>2026-05-16T10:11:17Z</time>
      </trkpt>
      <trkpt lat="44.69249" lon="1.97186">
        <ele>420.23</ele>
        <time>2026-05-16T10:11:30Z</time>
      </trkpt>
      <trkpt lat="44.69234" lon="1.97191">
        <ele>419.27</ele>
        <time>2026-05-16T10:11:44Z</time>
      </trkpt>
      <trkpt lat="44.6923" lon="1.97187">
        <ele>418.79</ele>
        <time>2026-05-16T10:11:47Z</time>
      </trkpt>
      <trkpt lat="44.69228" lon="1.97186">
        <ele>418.79</ele>
        <time>2026-05-16T10:11:48Z</time>
      </trkpt>
      <trkpt lat="44.69226" lon="1.97186">
        <ele>418.79</ele>
        <time>2026-05-16T10:11:49Z</time>
      </trkpt>
      <trkpt lat="44.69225" lon="1.97185">
        <ele>418.79</ele>
        <time>2026-05-16T10:11:50Z</time>
      </trkpt>
      <trkpt lat="44.69223" lon="1.97184">
        <ele>418.79</ele>
        <time>2026-05-16T10:11:51Z</time>
      </trkpt>
      <trkpt lat="44.69222" lon="1.97183">
        <ele>418.79</ele>
        <time>2026-05-16T10:11:52Z</time>
      </trkpt>
      <trkpt lat="44.69212" lon="1.97178">
        <ele>418.31</ele>
        <time>2026-05-16T10:11:58Z</time>
      </trkpt>
      <trkpt lat="44.69194" lon="1.97171">
        <ele>417.35</ele>
        <time>2026-05-16T10:12:14Z</time>
      </trkpt>
      <trkpt lat="44.69193" lon="1.9717">
        <ele>417.35</ele>
        <time>2026-05-16T10:12:16Z</time>
      </trkpt>
      <trkpt lat="44.69173" lon="1.97167">
        <ele>416.87</ele>
        <time>2026-05-16T10:12:32Z</time>
      </trkpt>
      <trkpt lat="44.69161" lon="1.97165">
        <ele>416.39</ele>
        <time>2026-05-16T10:12:42Z</time>
      </trkpt>
      <trkpt lat="44.69153" lon="1.97165">
        <ele>416.39</ele>
        <time>2026-05-16T10:12:47Z</time>
      </trkpt>
      <trkpt lat="44.69151" lon="1.97164">
        <ele>416.39</ele>
        <time>2026-05-16T10:12:48Z</time>
      </trkpt>
      <trkpt lat="44.69132" lon="1.97161">
        <ele>415.91</ele>
        <time>2026-05-16T10:13:01Z</time>
      </trkpt>
      <trkpt lat="44.69121" lon="1.97162">
        <ele>414.47</ele>
        <time>2026-05-16T10:13:08Z</time>
      </trkpt>
      <trkpt lat="44.69117" lon="1.97161">
        <ele>414.47</ele>
        <time>2026-05-16T10:13:11Z</time>
      </trkpt>
      <trkpt lat="44.69102" lon="1.97166">
        <ele>413.5</ele>
        <time>2026-05-16T10:13:26Z</time>
      </trkpt>
      <trkpt lat="44.69077" lon="1.97164">
        <ele>411.58</ele>
        <time>2026-05-16T10:13:41Z</time>
      </trkpt>
      <trkpt lat="44.69075" lon="1.97164">
        <ele>411.58</ele>
        <time>2026-05-16T10:13:43Z</time>
      </trkpt>
      <trkpt lat="44.69072" lon="1.97166">
        <ele>411.58</ele>
        <time>2026-05-16T10:13:44Z</time>
      </trkpt>
      <trkpt lat="44.69071" lon="1.97167">
        <ele>411.58</ele>
        <time>2026-05-16T10:13:45Z</time>
      </trkpt>
      <trkpt lat="44.6907" lon="1.97167">
        <ele>411.58</ele>
        <time>2026-05-16T10:13:46Z</time>
      </trkpt>
      <trkpt lat="44.69057" lon="1.97175">
        <ele>412.54</ele>
        <time>2026-05-16T10:13:59Z</time>
      </trkpt>
      <trkpt lat="44.69038" lon="1.9718">
        <ele>414.47</ele>
        <time>2026-05-16T10:14:14Z</time>
      </trkpt>
      <trkpt lat="44.69035" lon="1.97183">
        <ele>413.98</ele>
        <time>2026-05-16T10:14:19Z</time>
      </trkpt>
      <trkpt lat="44.69034" lon="1.97184">
        <ele>413.98</ele>
        <time>2026-05-16T10:14:20Z</time>
      </trkpt>
      <trkpt lat="44.69033" lon="1.97185">
        <ele>414.47</ele>
        <time>2026-05-16T10:14:21Z</time>
      </trkpt>
      <trkpt lat="44.69029" lon="1.97191">
        <ele>415.43</ele>
        <time>2026-05-16T10:14:26Z</time>
      </trkpt>
      <trkpt lat="44.69028" lon="1.97192">
        <ele>415.43</ele>
        <time>2026-05-16T10:14:27Z</time>
      </trkpt>
      <trkpt lat="44.69026" lon="1.97192">
        <ele>415.43</ele>
        <time>2026-05-16T10:14:28Z</time>
      </trkpt>
      <trkpt lat="44.69003" lon="1.97201">
        <ele>416.87</ele>
        <time>2026-05-16T10:14:45Z</time>
      </trkpt>
      <trkpt lat="44.68986" lon="1.97205">
        <ele>418.31</ele>
        <time>2026-05-16T10:14:59Z</time>
      </trkpt>
      <trkpt lat="44.68984" lon="1.97206">
        <ele>418.79</ele>
        <time>2026-05-16T10:15:01Z</time>
      </trkpt>
      <trkpt lat="44.68981" lon="1.97207">
        <ele>418.79</ele>
        <time>2026-05-16T10:15:03Z</time>
      </trkpt>
      <trkpt lat="44.6898" lon="1.97207">
        <ele>418.79</ele>
        <time>2026-05-16T10:15:04Z</time>
      </trkpt>
      <trkpt lat="44.68979" lon="1.97207">
        <ele>418.79</ele>
        <time>2026-05-16T10:15:05Z</time>
      </trkpt>
      <trkpt lat="44.68963" lon="1.97217">
        <ele>420.23</ele>
        <time>2026-05-16T10:15:19Z</time>
      </trkpt>
      <trkpt lat="44.6895" lon="1.9723">
        <ele>421.19</ele>
        <time>2026-05-16T10:15:30Z</time>
      </trkpt>
      <trkpt lat="44.68929" lon="1.97254">
        <ele>423.12</ele>
        <time>2026-05-16T10:15:47Z</time>
      </trkpt>
      <trkpt lat="44.68924" lon="1.97273">
        <ele>425.04</ele>
        <time>2026-05-16T10:16:03Z</time>
      </trkpt>
      <trkpt lat="44.68923" lon="1.97275">
        <ele>425.52</ele>
        <time>2026-05-16T10:16:04Z</time>
      </trkpt>
      <trkpt lat="44.68919" lon="1.9728">
        <ele>426</ele>
        <time>2026-05-16T10:16:19Z</time>
      </trkpt>
      <trkpt lat="44.68919" lon="1.9728">
        <ele>423.12</ele>
        <time>2026-05-16T10:16:27Z</time>
      </trkpt>
      <trkpt lat="44.68919" lon="1.9728">
        <ele>427.44</ele>
        <time>2026-05-16T10:16:28Z</time>
      </trkpt>
      <trkpt lat="44.6892" lon="1.9728">
        <ele>425.52</ele>
        <time>2026-05-16T10:16:31Z</time>
      </trkpt>
      <trkpt lat="44.6892" lon="1.97282">
        <ele>425.52</ele>
        <time>2026-05-16T10:16:57Z</time>
      </trkpt>
      <trkpt lat="44.68919" lon="1.97284">
        <ele>425.04</ele>
        <time>2026-05-16T10:17:08Z</time>
      </trkpt>
      <trkpt lat="44.68918" lon="1.97285">
        <ele>426.48</ele>
        <time>2026-05-16T10:17:12Z</time>
      </trkpt>
      <trkpt lat="44.68917" lon="1.97283">
        <ele>423.6</ele>
        <time>2026-05-16T10:17:27Z</time>
      </trkpt>
      <trkpt lat="44.68917" lon="1.97283">
        <ele>427.44</ele>
        <time>2026-05-16T10:17:28Z</time>
      </trkpt>
      <trkpt lat="44.68916" lon="1.97289">
        <ele>425.04</ele>
        <time>2026-05-16T10:17:59Z</time>
      </trkpt>
      <trkpt lat="44.68923" lon="1.97281">
        <ele>426</ele>
        <time>2026-05-16T10:18:34Z</time>
      </trkpt>
      <trkpt lat="44.68923" lon="1.9728">
        <ele>424.56</ele>
        <time>2026-05-16T10:18:38Z</time>
      </trkpt>
      <trkpt lat="44.68923" lon="1.97286">
        <ele>426</ele>
        <time>2026-05-16T10:19:03Z</time>
      </trkpt>
      <trkpt lat="44.68924" lon="1.97285">
        <ele>425.04</ele>
        <time>2026-05-16T10:19:05Z</time>
      </trkpt>
      <trkpt lat="44.68924" lon="1.97283">
        <ele>423.12</ele>
        <time>2026-05-16T10:19:08Z</time>
      </trkpt>
      <trkpt lat="44.68924" lon="1.97283">
        <ele>426.48</ele>
        <time>2026-05-16T10:19:09Z</time>
      </trkpt>
      <trkpt lat="44.68924" lon="1.97283">
        <ele>422.16</ele>
        <time>2026-05-16T10:19:10Z</time>
      </trkpt>
      <trkpt lat="44.68922" lon="1.97285">
        <ele>425.52</ele>
        <time>2026-05-16T10:19:13Z</time>
      </trkpt>
      <trkpt lat="44.68921" lon="1.97285">
        <ele>425.52</ele>
        <time>2026-05-16T10:19:14Z</time>
      </trkpt>
      <trkpt lat="44.68924" lon="1.97289">
        <ele>424.56</ele>
        <time>2026-05-16T10:19:53Z</time>
      </trkpt>
      <trkpt lat="44.68922" lon="1.97289">
        <ele>425.52</ele>
        <time>2026-05-16T10:20:14Z</time>
      </trkpt>
      <trkpt lat="44.6892" lon="1.97296">
        <ele>425.04</ele>
        <time>2026-05-16T10:20:20Z</time>
      </trkpt>
      <trkpt lat="44.6892" lon="1.97298">
        <ele>426</ele>
        <time>2026-05-16T10:20:21Z</time>
      </trkpt>
      <trkpt lat="44.68915" lon="1.97312">
        <ele>426.48</ele>
        <time>2026-05-16T10:20:32Z</time>
      </trkpt>
      <trkpt lat="44.68913" lon="1.97333">
        <ele>427.44</ele>
        <time>2026-05-16T10:20:44Z</time>
      </trkpt>
      <trkpt lat="44.68913" lon="1.97356">
        <ele>427.44</ele>
        <time>2026-05-16T10:20:57Z</time>
      </trkpt>
      <trkpt lat="44.68913" lon="1.97358">
        <ele>427.44</ele>
        <time>2026-05-16T10:20:58Z</time>
      </trkpt>
      <trkpt lat="44.68917" lon="1.97388">
        <ele>427.44</ele>
        <time>2026-05-16T10:21:14Z</time>
      </trkpt>
      <trkpt lat="44.6892" lon="1.97396">
        <ele>426</ele>
        <time>2026-05-16T10:21:18Z</time>
      </trkpt>
      <trkpt lat="44.68919" lon="1.97424">
        <ele>426</ele>
        <time>2026-05-16T10:21:33Z</time>
      </trkpt>
      <trkpt lat="44.68918" lon="1.97452">
        <ele>426</ele>
        <time>2026-05-16T10:21:46Z</time>
      </trkpt>
      <trkpt lat="44.68917" lon="1.97458">
        <ele>426</ele>
        <time>2026-05-16T10:21:50Z</time>
      </trkpt>
      <trkpt lat="44.68914" lon="1.97466">
        <ele>427.44</ele>
        <time>2026-05-16T10:21:56Z</time>
      </trkpt>
      <trkpt lat="44.68903" lon="1.97495">
        <ele>427.92</ele>
        <time>2026-05-16T10:22:12Z</time>
      </trkpt>
      <trkpt lat="44.68894" lon="1.97517">
        <ele>427.92</ele>
        <time>2026-05-16T10:22:25Z</time>
      </trkpt>
      <trkpt lat="44.68893" lon="1.97519">
        <ele>427.92</ele>
        <time>2026-05-16T10:22:26Z</time>
      </trkpt>
      <trkpt lat="44.68892" lon="1.97522">
        <ele>427.92</ele>
        <time>2026-05-16T10:22:27Z</time>
      </trkpt>
      <trkpt lat="44.68886" lon="1.97543">
        <ele>428.4</ele>
        <time>2026-05-16T10:22:43Z</time>
      </trkpt>
      <trkpt lat="44.68881" lon="1.97571">
        <ele>428.89</ele>
        <time>2026-05-16T10:22:58Z</time>
      </trkpt>
      <trkpt lat="44.68882" lon="1.97598">
        <ele>428.89</ele>
        <time>2026-05-16T10:23:12Z</time>
      </trkpt>
      <trkpt lat="44.68887" lon="1.9761">
        <ele>429.37</ele>
        <time>2026-05-16T10:23:20Z</time>
      </trkpt>
      <trkpt lat="44.68893" lon="1.9762">
        <ele>429.37</ele>
        <time>2026-05-16T10:23:27Z</time>
      </trkpt>
      <trkpt lat="44.68895" lon="1.97623">
        <ele>428.4</ele>
        <time>2026-05-16T10:23:30Z</time>
      </trkpt>
      <trkpt lat="44.68911" lon="1.97649">
        <ele>426.48</ele>
        <time>2026-05-16T10:23:46Z</time>
      </trkpt>
      <trkpt lat="44.68913" lon="1.97659">
        <ele>426.48</ele>
        <time>2026-05-16T10:23:52Z</time>
      </trkpt>
      <trkpt lat="44.68913" lon="1.97661">
        <ele>426.48</ele>
        <time>2026-05-16T10:23:53Z</time>
      </trkpt>
      <trkpt lat="44.6891" lon="1.9768">
        <ele>426.48</ele>
        <time>2026-05-16T10:24:04Z</time>
      </trkpt>
      <trkpt lat="44.6891" lon="1.97682">
        <ele>426.48</ele>
        <time>2026-05-16T10:24:05Z</time>
      </trkpt>
      <trkpt lat="44.68909" lon="1.97684">
        <ele>426.48</ele>
        <time>2026-05-16T10:24:06Z</time>
      </trkpt>
      <trkpt lat="44.68909" lon="1.97687">
        <ele>426.48</ele>
        <time>2026-05-16T10:24:07Z</time>
      </trkpt>
      <trkpt lat="44.68908" lon="1.97689">
        <ele>426.48</ele>
        <time>2026-05-16T10:24:08Z</time>
      </trkpt>
      <trkpt lat="44.68908" lon="1.97691">
        <ele>426.48</ele>
        <time>2026-05-16T10:24:09Z</time>
      </trkpt>
      <trkpt lat="44.68907" lon="1.97693">
        <ele>426.48</ele>
        <time>2026-05-16T10:24:10Z</time>
      </trkpt>
      <trkpt lat="44.68901" lon="1.97708">
        <ele>426.96</ele>
        <time>2026-05-16T10:24:23Z</time>
      </trkpt>
      <trkpt lat="44.68901" lon="1.97712">
        <ele>426</ele>
        <time>2026-05-16T10:24:42Z</time>
      </trkpt>
      <trkpt lat="44.68901" lon="1.97717">
        <ele>426.48</ele>
        <time>2026-05-16T10:24:44Z</time>
      </trkpt>
      <trkpt lat="44.689" lon="1.97719">
        <ele>426.48</ele>
        <time>2026-05-16T10:24:45Z</time>
      </trkpt>
      <trkpt lat="44.68899" lon="1.97721">
        <ele>426.48</ele>
        <time>2026-05-16T10:24:46Z</time>
      </trkpt>
      <trkpt lat="44.68893" lon="1.97741">
        <ele>426</ele>
        <time>2026-05-16T10:24:59Z</time>
      </trkpt>
      <trkpt lat="44.68885" lon="1.9776">
        <ele>426</ele>
        <time>2026-05-16T10:25:14Z</time>
      </trkpt>
      <trkpt lat="44.68885" lon="1.97761">
        <ele>426</ele>
        <time>2026-05-16T10:25:15Z</time>
      </trkpt>
      <trkpt lat="44.68884" lon="1.97763">
        <ele>426</ele>
        <time>2026-05-16T10:25:16Z</time>
      </trkpt>
      <trkpt lat="44.68873" lon="1.97791">
        <ele>427.44</ele>
        <time>2026-05-16T10:25:32Z</time>
      </trkpt>
      <trkpt lat="44.6886" lon="1.97808">
        <ele>427.44</ele>
        <time>2026-05-16T10:25:46Z</time>
      </trkpt>
      <trkpt lat="44.68854" lon="1.9782">
        <ele>428.4</ele>
        <time>2026-05-16T10:25:59Z</time>
      </trkpt>
      <trkpt lat="44.68842" lon="1.97847">
        <ele>428.89</ele>
        <time>2026-05-16T10:26:13Z</time>
      </trkpt>
      <trkpt lat="44.6883" lon="1.97869">
        <ele>429.37</ele>
        <time>2026-05-16T10:26:25Z</time>
      </trkpt>
      <trkpt lat="44.68827" lon="1.97872">
        <ele>429.37</ele>
        <time>2026-05-16T10:26:28Z</time>
      </trkpt>
      <trkpt lat="44.68826" lon="1.97874">
        <ele>429.37</ele>
        <time>2026-05-16T10:26:29Z</time>
      </trkpt>
      <trkpt lat="44.68825" lon="1.97876">
        <ele>429.37</ele>
        <time>2026-05-16T10:26:30Z</time>
      </trkpt>
      <trkpt lat="44.68824" lon="1.97878">
        <ele>428.4</ele>
        <time>2026-05-16T10:26:31Z</time>
      </trkpt>
      <trkpt lat="44.68823" lon="1.97881">
        <ele>428.4</ele>
        <time>2026-05-16T10:26:32Z</time>
      </trkpt>
      <trkpt lat="44.68821" lon="1.97883">
        <ele>428.4</ele>
        <time>2026-05-16T10:26:33Z</time>
      </trkpt>
      <trkpt lat="44.68808" lon="1.97912">
        <ele>427.44</ele>
        <time>2026-05-16T10:26:48Z</time>
      </trkpt>
      <trkpt lat="44.688" lon="1.9794">
        <ele>426</ele>
        <time>2026-05-16T10:27:01Z</time>
      </trkpt>
      <trkpt lat="44.68791" lon="1.97966">
        <ele>424.56</ele>
        <time>2026-05-16T10:27:17Z</time>
      </trkpt>
      <trkpt lat="44.68782" lon="1.97983">
        <ele>423.12</ele>
        <time>2026-05-16T10:27:30Z</time>
      </trkpt>
      <trkpt lat="44.68771" lon="1.98004">
        <ele>421.68</ele>
        <time>2026-05-16T10:27:44Z</time>
      </trkpt>
      <trkpt lat="44.6876" lon="1.9803">
        <ele>421.19</ele>
        <time>2026-05-16T10:27:59Z</time>
      </trkpt>
      <trkpt lat="44.6876" lon="1.98032">
        <ele>421.19</ele>
        <time>2026-05-16T10:28:00Z</time>
      </trkpt>
      <trkpt lat="44.68759" lon="1.98034">
        <ele>421.19</ele>
        <time>2026-05-16T10:28:01Z</time>
      </trkpt>
      <trkpt lat="44.6875" lon="1.9806">
        <ele>421.19</ele>
        <time>2026-05-16T10:28:15Z</time>
      </trkpt>
      <trkpt lat="44.68739" lon="1.98078">
        <ele>421.19</ele>
        <time>2026-05-16T10:28:29Z</time>
      </trkpt>
      <trkpt lat="44.68736" lon="1.98086">
        <ele>421.19</ele>
        <time>2026-05-16T10:28:37Z</time>
      </trkpt>
      <trkpt lat="44.68735" lon="1.98088">
        <ele>421.19</ele>
        <time>2026-05-16T10:28:38Z</time>
      </trkpt>
      <trkpt lat="44.68723" lon="1.98111">
        <ele>420.71</ele>
        <time>2026-05-16T10:28:53Z</time>
      </trkpt>
      <trkpt lat="44.68706" lon="1.98141">
        <ele>419.27</ele>
        <time>2026-05-16T10:29:08Z</time>
      </trkpt>
      <trkpt lat="44.68694" lon="1.98171">
        <ele>417.35</ele>
        <time>2026-05-16T10:29:23Z</time>
      </trkpt>
      <trkpt lat="44.68692" lon="1.98197">
        <ele>415.91</ele>
        <time>2026-05-16T10:29:36Z</time>
      </trkpt>
      <trkpt lat="44.68691" lon="1.98222">
        <ele>413.98</ele>
        <time>2026-05-16T10:29:49Z</time>
      </trkpt>
      <trkpt lat="44.68688" lon="1.9824">
        <ele>413.5</ele>
        <time>2026-05-16T10:30:02Z</time>
      </trkpt>
      <trkpt lat="44.68687" lon="1.98242">
        <ele>413.5</ele>
        <time>2026-05-16T10:30:03Z</time>
      </trkpt>
      <trkpt lat="44.68687" lon="1.98245">
        <ele>413.02</ele>
        <time>2026-05-16T10:30:04Z</time>
      </trkpt>
      <trkpt lat="44.68686" lon="1.98248">
        <ele>413.02</ele>
        <time>2026-05-16T10:30:05Z</time>
      </trkpt>
      <trkpt lat="44.68686" lon="1.98251">
        <ele>413.02</ele>
        <time>2026-05-16T10:30:06Z</time>
      </trkpt>
      <trkpt lat="44.68686" lon="1.98253">
        <ele>413.02</ele>
        <time>2026-05-16T10:30:07Z</time>
      </trkpt>
      <trkpt lat="44.68684" lon="1.9827">
        <ele>413.02</ele>
        <time>2026-05-16T10:30:15Z</time>
      </trkpt>
      <trkpt lat="44.68683" lon="1.98272">
        <ele>413.02</ele>
        <time>2026-05-16T10:30:17Z</time>
      </trkpt>
      <trkpt lat="44.68678" lon="1.98271">
        <ele>411.58</ele>
        <time>2026-05-16T10:30:24Z</time>
      </trkpt>
      <trkpt lat="44.68679" lon="1.98272">
        <ele>411.58</ele>
        <time>2026-05-16T10:30:25Z</time>
      </trkpt>
      <trkpt lat="44.68679" lon="1.98271">
        <ele>411.1</ele>
        <time>2026-05-16T10:30:26Z</time>
      </trkpt>
      <trkpt lat="44.68673" lon="1.98255">
        <ele>410.62</ele>
        <time>2026-05-16T10:30:40Z</time>
      </trkpt>
      <trkpt lat="44.68665" lon="1.98235">
        <ele>409.66</ele>
        <time>2026-05-16T10:30:54Z</time>
      </trkpt>
      <trkpt lat="44.68655" lon="1.98225">
        <ele>408.7</ele>
        <time>2026-05-16T10:31:03Z</time>
      </trkpt>
      <trkpt lat="44.68654" lon="1.98224">
        <ele>408.7</ele>
        <time>2026-05-16T10:31:04Z</time>
      </trkpt>
      <trkpt lat="44.68626" lon="1.98205">
        <ele>406.77</ele>
        <time>2026-05-16T10:31:21Z</time>
      </trkpt>
      <trkpt lat="44.6862" lon="1.98204">
        <ele>405.81</ele>
        <time>2026-05-16T10:31:26Z</time>
      </trkpt>
      <trkpt lat="44.68618" lon="1.98204">
        <ele>405.81</ele>
        <time>2026-05-16T10:31:27Z</time>
      </trkpt>
      <trkpt lat="44.68616" lon="1.98204">
        <ele>405.81</ele>
        <time>2026-05-16T10:31:28Z</time>
      </trkpt>
      <trkpt lat="44.68614" lon="1.98204">
        <ele>405.81</ele>
        <time>2026-05-16T10:31:29Z</time>
      </trkpt>
      <trkpt lat="44.68613" lon="1.98205">
        <ele>405.81</ele>
        <time>2026-05-16T10:31:30Z</time>
      </trkpt>
      <trkpt lat="44.68611" lon="1.98206">
        <ele>405.33</ele>
        <time>2026-05-16T10:31:31Z</time>
      </trkpt>
      <trkpt lat="44.68609" lon="1.98207">
        <ele>405.33</ele>
        <time>2026-05-16T10:31:32Z</time>
      </trkpt>
      <trkpt lat="44.68597" lon="1.9821">
        <ele>404.37</ele>
        <time>2026-05-16T10:31:42Z</time>
      </trkpt>
      <trkpt lat="44.68596" lon="1.9821">
        <ele>403.89</ele>
        <time>2026-05-16T10:31:43Z</time>
      </trkpt>
      <trkpt lat="44.68567" lon="1.98215">
        <ele>401.01</ele>
        <time>2026-05-16T10:32:02Z</time>
      </trkpt>
      <trkpt lat="44.68543" lon="1.98225">
        <ele>399.57</ele>
        <time>2026-05-16T10:32:17Z</time>
      </trkpt>
      <trkpt lat="44.68523" lon="1.9823">
        <ele>397.16</ele>
        <time>2026-05-16T10:32:30Z</time>
      </trkpt>
      <trkpt lat="44.68508" lon="1.98229">
        <ele>395.72</ele>
        <time>2026-05-16T10:32:41Z</time>
      </trkpt>
      <trkpt lat="44.68498" lon="1.98232">
        <ele>394.28</ele>
        <time>2026-05-16T10:32:51Z</time>
      </trkpt>
      <trkpt lat="44.68497" lon="1.98233">
        <ele>394.28</ele>
        <time>2026-05-16T10:32:52Z</time>
      </trkpt>
      <trkpt lat="44.68495" lon="1.98233">
        <ele>394.28</ele>
        <time>2026-05-16T10:32:53Z</time>
      </trkpt>
      <trkpt lat="44.68493" lon="1.98234">
        <ele>393.32</ele>
        <time>2026-05-16T10:32:54Z</time>
      </trkpt>
      <trkpt lat="44.68491" lon="1.98234">
        <ele>393.32</ele>
        <time>2026-05-16T10:32:55Z</time>
      </trkpt>
      <trkpt lat="44.68483" lon="1.98233">
        <ele>392.84</ele>
        <time>2026-05-16T10:33:03Z</time>
      </trkpt>
      <trkpt lat="44.68481" lon="1.98232">
        <ele>392.36</ele>
        <time>2026-05-16T10:33:04Z</time>
      </trkpt>
      <trkpt lat="44.68477" lon="1.98231">
        <ele>392.36</ele>
        <time>2026-05-16T10:33:06Z</time>
      </trkpt>
      <trkpt lat="44.68475" lon="1.9823">
        <ele>391.87</ele>
        <time>2026-05-16T10:33:07Z</time>
      </trkpt>
      <trkpt lat="44.68474" lon="1.9823">
        <ele>391.87</ele>
        <time>2026-05-16T10:33:08Z</time>
      </trkpt>
      <trkpt lat="44.68472" lon="1.98229">
        <ele>391.87</ele>
        <time>2026-05-16T10:33:09Z</time>
      </trkpt>
      <trkpt lat="44.6847" lon="1.98229">
        <ele>391.87</ele>
        <time>2026-05-16T10:33:10Z</time>
      </trkpt>
      <trkpt lat="44.68468" lon="1.9823">
        <ele>391.39</ele>
        <time>2026-05-16T10:33:11Z</time>
      </trkpt>
      <trkpt lat="44.68459" lon="1.98224">
        <ele>390.43</ele>
        <time>2026-05-16T10:33:22Z</time>
      </trkpt>
      <trkpt lat="44.68451" lon="1.98216">
        <ele>388.99</ele>
        <time>2026-05-16T10:33:33Z</time>
      </trkpt>
      <trkpt lat="44.68442" lon="1.98207">
        <ele>387.55</ele>
        <time>2026-05-16T10:33:42Z</time>
      </trkpt>
      <trkpt lat="44.68432" lon="1.98199">
        <ele>386.11</ele>
        <time>2026-05-16T10:33:53Z</time>
      </trkpt>
      <trkpt lat="44.6843" lon="1.98197">
        <ele>385.63</ele>
        <time>2026-05-16T10:33:55Z</time>
      </trkpt>
      <trkpt lat="44.6842" lon="1.98194">
        <ele>384.18</ele>
        <time>2026-05-16T10:34:04Z</time>
      </trkpt>
      <trkpt lat="44.68405" lon="1.98194">
        <ele>381.3</ele>
        <time>2026-05-16T10:34:17Z</time>
      </trkpt>
      <trkpt lat="44.68395" lon="1.98195">
        <ele>380.82</ele>
        <time>2026-05-16T10:34:22Z</time>
      </trkpt>
      <trkpt lat="44.68392" lon="1.98195">
        <ele>380.82</ele>
        <time>2026-05-16T10:34:23Z</time>
      </trkpt>
      <trkpt lat="44.68375" lon="1.98199">
        <ele>380.34</ele>
        <time>2026-05-16T10:34:28Z</time>
      </trkpt>
      <trkpt lat="44.68367" lon="1.98202">
        <ele>379.38</ele>
        <time>2026-05-16T10:34:31Z</time>
      </trkpt>
      <trkpt lat="44.68349" lon="1.98204">
        <ele>377.45</ele>
        <time>2026-05-16T10:34:43Z</time>
      </trkpt>
      <trkpt lat="44.68347" lon="1.98204">
        <ele>377.45</ele>
        <time>2026-05-16T10:34:44Z</time>
      </trkpt>
      <trkpt lat="44.68345" lon="1.98205">
        <ele>376.97</ele>
        <time>2026-05-16T10:34:45Z</time>
      </trkpt>
      <trkpt lat="44.68343" lon="1.98205">
        <ele>376.97</ele>
        <time>2026-05-16T10:34:46Z</time>
      </trkpt>
      <trkpt lat="44.68341" lon="1.98205">
        <ele>376.97</ele>
        <time>2026-05-16T10:34:47Z</time>
      </trkpt>
      <trkpt lat="44.68339" lon="1.98205">
        <ele>376.97</ele>
        <time>2026-05-16T10:34:48Z</time>
      </trkpt>
      <trkpt lat="44.68327" lon="1.98205">
        <ele>376.01</ele>
        <time>2026-05-16T10:34:57Z</time>
      </trkpt>
      <trkpt lat="44.68326" lon="1.98205">
        <ele>375.05</ele>
        <time>2026-05-16T10:34:58Z</time>
      </trkpt>
      <trkpt lat="44.6831" lon="1.98203">
        <ele>372.65</ele>
        <time>2026-05-16T10:35:12Z</time>
      </trkpt>
      <trkpt lat="44.68298" lon="1.98195">
        <ele>371.21</ele>
        <time>2026-05-16T10:35:24Z</time>
      </trkpt>
      <trkpt lat="44.68289" lon="1.98192">
        <ele>369.76</ele>
        <time>2026-05-16T10:35:34Z</time>
      </trkpt>
      <trkpt lat="44.68269" lon="1.98187">
        <ele>366.88</ele>
        <time>2026-05-16T10:35:47Z</time>
      </trkpt>
      <trkpt lat="44.68249" lon="1.98184">
        <ele>364.48</ele>
        <time>2026-05-16T10:36:01Z</time>
      </trkpt>
      <trkpt lat="44.68237" lon="1.98177">
        <ele>361.59</ele>
        <time>2026-05-16T10:36:13Z</time>
      </trkpt>
      <trkpt lat="44.68217" lon="1.98167">
        <ele>360.15</ele>
        <time>2026-05-16T10:36:26Z</time>
      </trkpt>
      <trkpt lat="44.68215" lon="1.98166">
        <ele>360.15</ele>
        <time>2026-05-16T10:36:27Z</time>
      </trkpt>
      <trkpt lat="44.68213" lon="1.98165">
        <ele>360.15</ele>
        <time>2026-05-16T10:36:28Z</time>
      </trkpt>
      <trkpt lat="44.68212" lon="1.98164">
        <ele>360.15</ele>
        <time>2026-05-16T10:36:29Z</time>
      </trkpt>
      <trkpt lat="44.68203" lon="1.98164">
        <ele>358.71</ele>
        <time>2026-05-16T10:36:36Z</time>
      </trkpt>
      <trkpt lat="44.68197" lon="1.98167">
        <ele>357.75</ele>
        <time>2026-05-16T10:36:43Z</time>
      </trkpt>
      <trkpt lat="44.68191" lon="1.98171">
        <ele>356.79</ele>
        <time>2026-05-16T10:36:48Z</time>
      </trkpt>
      <trkpt lat="44.68188" lon="1.98173">
        <ele>356.31</ele>
        <time>2026-05-16T10:36:50Z</time>
      </trkpt>
      <trkpt lat="44.68184" lon="1.98176">
        <ele>355.83</ele>
        <time>2026-05-16T10:36:53Z</time>
      </trkpt>
      <trkpt lat="44.68171" lon="1.9818">
        <ele>354.38</ele>
        <time>2026-05-16T10:37:01Z</time>
      </trkpt>
      <trkpt lat="44.68169" lon="1.98181">
        <ele>353.9</ele>
        <time>2026-05-16T10:37:02Z</time>
      </trkpt>
      <trkpt lat="44.68162" lon="1.98196">
        <ele>352.46</ele>
        <time>2026-05-16T10:37:16Z</time>
      </trkpt>
      <trkpt lat="44.68151" lon="1.98207">
        <ele>351.98</ele>
        <time>2026-05-16T10:37:26Z</time>
      </trkpt>
      <trkpt lat="44.68146" lon="1.98208">
        <ele>351.02</ele>
        <time>2026-05-16T10:37:44Z</time>
      </trkpt>
      <trkpt lat="44.68148" lon="1.98201">
        <ele>351.02</ele>
        <time>2026-05-16T10:38:02Z</time>
      </trkpt>
      <trkpt lat="44.68139" lon="1.98196">
        <ele>351.02</ele>
        <time>2026-05-16T10:38:37Z</time>
      </trkpt>
      <trkpt lat="44.68142" lon="1.98202">
        <ele>351.98</ele>
        <time>2026-05-16T10:38:50Z</time>
      </trkpt>
      <trkpt lat="44.68144" lon="1.98206">
        <ele>351.02</ele>
        <time>2026-05-16T10:38:55Z</time>
      </trkpt>
      <trkpt lat="44.68138" lon="1.98215">
        <ele>351.5</ele>
        <time>2026-05-16T10:39:18Z</time>
      </trkpt>
      <trkpt lat="44.68144" lon="1.98213">
        <ele>351.5</ele>
        <time>2026-05-16T10:39:52Z</time>
      </trkpt>
      <trkpt lat="44.68148" lon="1.98215">
        <ele>351.5</ele>
        <time>2026-05-16T10:40:15Z</time>
      </trkpt>
      <trkpt lat="44.6815" lon="1.98215">
        <ele>351.5</ele>
        <time>2026-05-16T10:40:48Z</time>
      </trkpt>
      <trkpt lat="44.68146" lon="1.98212">
        <ele>351.98</ele>
        <time>2026-05-16T10:41:20Z</time>
      </trkpt>
      <trkpt lat="44.68144" lon="1.9821">
        <ele>352.94</ele>
        <time>2026-05-16T10:41:41Z</time>
      </trkpt>
      <trkpt lat="44.68143" lon="1.98213">
        <ele>352.94</ele>
        <time>2026-05-16T10:41:53Z</time>
      </trkpt>
      <trkpt lat="44.68143" lon="1.98215">
        <ele>352.94</ele>
        <time>2026-05-16T10:41:54Z</time>
      </trkpt>
      <trkpt lat="44.68143" lon="1.98216">
        <ele>352.94</ele>
        <time>2026-05-16T10:41:55Z</time>
      </trkpt>
      <trkpt lat="44.68138" lon="1.98233">
        <ele>351.98</ele>
        <time>2026-05-16T10:42:06Z</time>
      </trkpt>
      <trkpt lat="44.68132" lon="1.98255">
        <ele>351.5</ele>
        <time>2026-05-16T10:42:20Z</time>
      </trkpt>
      <trkpt lat="44.68129" lon="1.9828">
        <ele>350.54</ele>
        <time>2026-05-16T10:42:34Z</time>
      </trkpt>
      <trkpt lat="44.68135" lon="1.98309">
        <ele>348.62</ele>
        <time>2026-05-16T10:42:46Z</time>
      </trkpt>
      <trkpt lat="44.68137" lon="1.98327">
        <ele>346.69</ele>
        <time>2026-05-16T10:42:57Z</time>
      </trkpt>
      <trkpt lat="44.6814" lon="1.98331">
        <ele>346.69</ele>
        <time>2026-05-16T10:43:01Z</time>
      </trkpt>
      <trkpt lat="44.68142" lon="1.98335">
        <ele>346.69</ele>
        <time>2026-05-16T10:43:03Z</time>
      </trkpt>
      <trkpt lat="44.68147" lon="1.98341">
        <ele>346.21</ele>
        <time>2026-05-16T10:43:07Z</time>
      </trkpt>
      <trkpt lat="44.68148" lon="1.98343">
        <ele>345.73</ele>
        <time>2026-05-16T10:43:08Z</time>
      </trkpt>
      <trkpt lat="44.6815" lon="1.98344">
        <ele>346.21</ele>
        <time>2026-05-16T10:43:09Z</time>
      </trkpt>
      <trkpt lat="44.68153" lon="1.98346">
        <ele>345.25</ele>
        <time>2026-05-16T10:43:10Z</time>
      </trkpt>
      <trkpt lat="44.68154" lon="1.98346">
        <ele>345.25</ele>
        <time>2026-05-16T10:43:11Z</time>
      </trkpt>
      <trkpt lat="44.68165" lon="1.9835">
        <ele>344.77</ele>
        <time>2026-05-16T10:43:20Z</time>
      </trkpt>
      <trkpt lat="44.68166" lon="1.98351">
        <ele>344.29</ele>
        <time>2026-05-16T10:43:21Z</time>
      </trkpt>
      <trkpt lat="44.68175" lon="1.98361">
        <ele>343.81</ele>
        <time>2026-05-16T10:43:34Z</time>
      </trkpt>
      <trkpt lat="44.68175" lon="1.98363">
        <ele>343.33</ele>
        <time>2026-05-16T10:43:35Z</time>
      </trkpt>
      <trkpt lat="44.68172" lon="1.98378">
        <ele>343.81</ele>
        <time>2026-05-16T10:43:47Z</time>
      </trkpt>
      <trkpt lat="44.68172" lon="1.98378">
        <ele>343.81</ele>
        <time>2026-05-16T10:43:48Z</time>
      </trkpt>
      <trkpt lat="44.6816" lon="1.98386">
        <ele>343.81</ele>
        <time>2026-05-16T10:44:02Z</time>
      </trkpt>
      <trkpt lat="44.68158" lon="1.98387">
        <ele>343.81</ele>
        <time>2026-05-16T10:44:04Z</time>
      </trkpt>
      <trkpt lat="44.68156" lon="1.98388">
        <ele>343.81</ele>
        <time>2026-05-16T10:44:05Z</time>
      </trkpt>
      <trkpt lat="44.68155" lon="1.98389">
        <ele>343.81</ele>
        <time>2026-05-16T10:44:06Z</time>
      </trkpt>
      <trkpt lat="44.68154" lon="1.98391">
        <ele>343.81</ele>
        <time>2026-05-16T10:44:07Z</time>
      </trkpt>
      <trkpt lat="44.68153" lon="1.98393">
        <ele>343.81</ele>
        <time>2026-05-16T10:44:08Z</time>
      </trkpt>
      <trkpt lat="44.68152" lon="1.98395">
        <ele>343.81</ele>
        <time>2026-05-16T10:44:09Z</time>
      </trkpt>
      <trkpt lat="44.68151" lon="1.98396">
        <ele>343.81</ele>
        <time>2026-05-16T10:44:10Z</time>
      </trkpt>
      <trkpt lat="44.68143" lon="1.98418">
        <ele>343.81</ele>
        <time>2026-05-16T10:44:25Z</time>
      </trkpt>
      <trkpt lat="44.68135" lon="1.98433">
        <ele>343.81</ele>
        <time>2026-05-16T10:44:38Z</time>
      </trkpt>
      <trkpt lat="44.68124" lon="1.98441">
        <ele>343.81</ele>
        <time>2026-05-16T10:44:44Z</time>
      </trkpt>
      <trkpt lat="44.68121" lon="1.98443">
        <ele>343.81</ele>
        <time>2026-05-16T10:44:45Z</time>
      </trkpt>
      <trkpt lat="44.68112" lon="1.9845">
        <ele>343.33</ele>
        <time>2026-05-16T10:44:58Z</time>
      </trkpt>
      <trkpt lat="44.68101" lon="1.98454">
        <ele>344.77</ele>
        <time>2026-05-16T10:45:16Z</time>
      </trkpt>
      <trkpt lat="44.68087" lon="1.98454">
        <ele>344.77</ele>
        <time>2026-05-16T10:45:27Z</time>
      </trkpt>
      <trkpt lat="44.68085" lon="1.98454">
        <ele>344.77</ele>
        <time>2026-05-16T10:45:28Z</time>
      </trkpt>
      <trkpt lat="44.68083" lon="1.98455">
        <ele>344.77</ele>
        <time>2026-05-16T10:45:29Z</time>
      </trkpt>
      <trkpt lat="44.68081" lon="1.98455">
        <ele>344.77</ele>
        <time>2026-05-16T10:45:30Z</time>
      </trkpt>
      <trkpt lat="44.68079" lon="1.98455">
        <ele>345.25</ele>
        <time>2026-05-16T10:45:31Z</time>
      </trkpt>
      <trkpt lat="44.68078" lon="1.98455">
        <ele>345.25</ele>
        <time>2026-05-16T10:45:32Z</time>
      </trkpt>
      <trkpt lat="44.68076" lon="1.98456">
        <ele>345.25</ele>
        <time>2026-05-16T10:45:33Z</time>
      </trkpt>
      <trkpt lat="44.68057" lon="1.98454">
        <ele>345.73</ele>
        <time>2026-05-16T10:45:46Z</time>
      </trkpt>
      <trkpt lat="44.68038" lon="1.98458">
        <ele>346.21</ele>
        <time>2026-05-16T10:45:57Z</time>
      </trkpt>
      <trkpt lat="44.68022" lon="1.9846">
        <ele>345.25</ele>
        <time>2026-05-16T10:46:10Z</time>
      </trkpt>
      <trkpt lat="44.68013" lon="1.98464">
        <ele>345.25</ele>
        <time>2026-05-16T10:46:16Z</time>
      </trkpt>
      <trkpt lat="44.68004" lon="1.98466">
        <ele>344.77</ele>
        <time>2026-05-16T10:46:21Z</time>
      </trkpt>
      <trkpt lat="44.68003" lon="1.98466">
        <ele>344.77</ele>
        <time>2026-05-16T10:46:22Z</time>
      </trkpt>
      <trkpt lat="44.68001" lon="1.98466">
        <ele>344.77</ele>
        <time>2026-05-16T10:46:23Z</time>
      </trkpt>
      <trkpt lat="44.68" lon="1.98466">
        <ele>344.77</ele>
        <time>2026-05-16T10:46:24Z</time>
      </trkpt>
      <trkpt lat="44.67999" lon="1.98466">
        <ele>344.77</ele>
        <time>2026-05-16T10:46:25Z</time>
      </trkpt>
      <trkpt lat="44.67987" lon="1.9847">
        <ele>344.77</ele>
        <time>2026-05-16T10:46:37Z</time>
      </trkpt>
      <trkpt lat="44.67979" lon="1.98468">
        <ele>345.25</ele>
        <time>2026-05-16T10:46:51Z</time>
      </trkpt>
      <trkpt lat="44.67977" lon="1.98467">
        <ele>345.25</ele>
        <time>2026-05-16T10:47:09Z</time>
      </trkpt>
      <trkpt lat="44.67958" lon="1.98479">
        <ele>347.17</ele>
        <time>2026-05-16T10:47:24Z</time>
      </trkpt>
      <trkpt lat="44.67935" lon="1.98489">
        <ele>347.65</ele>
        <time>2026-05-16T10:47:39Z</time>
      </trkpt>
      <trkpt lat="44.67933" lon="1.9849">
        <ele>347.65</ele>
        <time>2026-05-16T10:47:40Z</time>
      </trkpt>
      <trkpt lat="44.6792" lon="1.98497">
        <ele>348.13</ele>
        <time>2026-05-16T10:47:54Z</time>
      </trkpt>
      <trkpt lat="44.67918" lon="1.98497">
        <ele>348.13</ele>
        <time>2026-05-16T10:47:56Z</time>
      </trkpt>
      <trkpt lat="44.67915" lon="1.98499">
        <ele>348.13</ele>
        <time>2026-05-16T10:48:00Z</time>
      </trkpt>
      <trkpt lat="44.67911" lon="1.98501">
        <ele>348.13</ele>
        <time>2026-05-16T10:48:02Z</time>
      </trkpt>
      <trkpt lat="44.67894" lon="1.98512">
        <ele>348.62</ele>
        <time>2026-05-16T10:48:17Z</time>
      </trkpt>
      <trkpt lat="44.67901" lon="1.98518">
        <ele>349.1</ele>
        <time>2026-05-16T10:48:42Z</time>
      </trkpt>
      <trkpt lat="44.67899" lon="1.98526">
        <ele>349.1</ele>
        <time>2026-05-16T10:49:01Z</time>
      </trkpt>
      <trkpt lat="44.67898" lon="1.98528">
        <ele>349.1</ele>
        <time>2026-05-16T10:49:02Z</time>
      </trkpt>
      <trkpt lat="44.67898" lon="1.9853">
        <ele>349.1</ele>
        <time>2026-05-16T10:49:03Z</time>
      </trkpt>
      <trkpt lat="44.67896" lon="1.98542">
        <ele>349.1</ele>
        <time>2026-05-16T10:49:11Z</time>
      </trkpt>
      <trkpt lat="44.67905" lon="1.98566">
        <ele>349.58</ele>
        <time>2026-05-16T10:49:26Z</time>
      </trkpt>
      <trkpt lat="44.67923" lon="1.98585">
        <ele>350.06</ele>
        <time>2026-05-16T10:49:41Z</time>
      </trkpt>
      <trkpt lat="44.67932" lon="1.98604">
        <ele>350.54</ele>
        <time>2026-05-16T10:49:56Z</time>
      </trkpt>
      <trkpt lat="44.67948" lon="1.98626">
        <ele>351.5</ele>
        <time>2026-05-16T10:50:12Z</time>
      </trkpt>
      <trkpt lat="44.67962" lon="1.98643">
        <ele>351.98</ele>
        <time>2026-05-16T10:50:29Z</time>
      </trkpt>
      <trkpt lat="44.67977" lon="1.9866">
        <ele>352.46</ele>
        <time>2026-05-16T10:50:45Z</time>
      </trkpt>
      <trkpt lat="44.6799" lon="1.98672">
        <ele>353.9</ele>
        <time>2026-05-16T10:51:01Z</time>
      </trkpt>
      <trkpt lat="44.67991" lon="1.98673">
        <ele>354.38</ele>
        <time>2026-05-16T10:51:02Z</time>
      </trkpt>
      <trkpt lat="44.68007" lon="1.98693">
        <ele>354.86</ele>
        <time>2026-05-16T10:51:18Z</time>
      </trkpt>
      <trkpt lat="44.68008" lon="1.98697">
        <ele>355.83</ele>
        <time>2026-05-16T10:51:21Z</time>
      </trkpt>
      <trkpt lat="44.68011" lon="1.98714">
        <ele>356.79</ele>
        <time>2026-05-16T10:51:37Z</time>
      </trkpt>
      <trkpt lat="44.68003" lon="1.98727">
        <ele>358.23</ele>
        <time>2026-05-16T10:51:52Z</time>
      </trkpt>
      <trkpt lat="44.67997" lon="1.98737">
        <ele>358.23</ele>
        <time>2026-05-16T10:52:00Z</time>
      </trkpt>
      <trkpt lat="44.67983" lon="1.98749">
        <ele>359.19</ele>
        <time>2026-05-16T10:52:12Z</time>
      </trkpt>
      <trkpt lat="44.67972" lon="1.98765">
        <ele>359.19</ele>
        <time>2026-05-16T10:52:26Z</time>
      </trkpt>
      <trkpt lat="44.67969" lon="1.98779">
        <ele>357.75</ele>
        <time>2026-05-16T10:52:34Z</time>
      </trkpt>
      <trkpt lat="44.67967" lon="1.98783">
        <ele>357.75</ele>
        <time>2026-05-16T10:52:36Z</time>
      </trkpt>
      <trkpt lat="44.67967" lon="1.98787">
        <ele>357.75</ele>
        <time>2026-05-16T10:52:38Z</time>
      </trkpt>
      <trkpt lat="44.6796" lon="1.98815">
        <ele>357.75</ele>
        <time>2026-05-16T10:52:52Z</time>
      </trkpt>
      <trkpt lat="44.67966" lon="1.98849">
        <ele>356.79</ele>
        <time>2026-05-16T10:53:05Z</time>
      </trkpt>
      <trkpt lat="44.6797" lon="1.98869">
        <ele>356.79</ele>
        <time>2026-05-16T10:53:13Z</time>
      </trkpt>
      <trkpt lat="44.67966" lon="1.98897">
        <ele>356.79</ele>
        <time>2026-05-16T10:53:29Z</time>
      </trkpt>
      <trkpt lat="44.67966" lon="1.9892">
        <ele>355.83</ele>
        <time>2026-05-16T10:53:42Z</time>
      </trkpt>
      <trkpt lat="44.67965" lon="1.98926">
        <ele>355.83</ele>
        <time>2026-05-16T10:53:48Z</time>
      </trkpt>
      <trkpt lat="44.67966" lon="1.98935">
        <ele>355.83</ele>
        <time>2026-05-16T10:53:53Z</time>
      </trkpt>
      <trkpt lat="44.67971" lon="1.98961">
        <ele>358.23</ele>
        <time>2026-05-16T10:54:06Z</time>
      </trkpt>
      <trkpt lat="44.67977" lon="1.9897">
        <ele>358.71</ele>
        <time>2026-05-16T10:54:11Z</time>
      </trkpt>
      <trkpt lat="44.67986" lon="1.98998">
        <ele>360.63</ele>
        <time>2026-05-16T10:54:25Z</time>
      </trkpt>
      <trkpt lat="44.67987" lon="1.98999">
        <ele>360.63</ele>
        <time>2026-05-16T10:54:26Z</time>
      </trkpt>
      <trkpt lat="44.67998" lon="1.99013">
        <ele>362.07</ele>
        <time>2026-05-16T10:54:38Z</time>
      </trkpt>
      <trkpt lat="44.68011" lon="1.99025">
        <ele>364</ele>
        <time>2026-05-16T10:54:51Z</time>
      </trkpt>
      <trkpt lat="44.68021" lon="1.99035">
        <ele>364.96</ele>
        <time>2026-05-16T10:55:00Z</time>
      </trkpt>
      <trkpt lat="44.68036" lon="1.99047">
        <ele>366.88</ele>
        <time>2026-05-16T10:55:15Z</time>
      </trkpt>
      <trkpt lat="44.68037" lon="1.99048">
        <ele>366.88</ele>
        <time>2026-05-16T10:55:16Z</time>
      </trkpt>
      <trkpt lat="44.68054" lon="1.99062">
        <ele>368.8</ele>
        <time>2026-05-16T10:55:31Z</time>
      </trkpt>
      <trkpt lat="44.68063" lon="1.99071">
        <ele>370.73</ele>
        <time>2026-05-16T10:55:45Z</time>
      </trkpt>
      <trkpt lat="44.68072" lon="1.99082">
        <ele>372.17</ele>
        <time>2026-05-16T10:55:55Z</time>
      </trkpt>
      <trkpt lat="44.68084" lon="1.99094">
        <ele>373.61</ele>
        <time>2026-05-16T10:56:06Z</time>
      </trkpt>
      <trkpt lat="44.68098" lon="1.99102">
        <ele>375.53</ele>
        <time>2026-05-16T10:56:22Z</time>
      </trkpt>
      <trkpt lat="44.68101" lon="1.99104">
        <ele>376.01</ele>
        <time>2026-05-16T10:56:26Z</time>
      </trkpt>
      <trkpt lat="44.68106" lon="1.9911">
        <ele>376.49</ele>
        <time>2026-05-16T10:56:31Z</time>
      </trkpt>
      <trkpt lat="44.68117" lon="1.99126">
        <ele>377.45</ele>
        <time>2026-05-16T10:56:45Z</time>
      </trkpt>
      <trkpt lat="44.68123" lon="1.99143">
        <ele>377.94</ele>
        <time>2026-05-16T10:56:58Z</time>
      </trkpt>
      <trkpt lat="44.68131" lon="1.99169">
        <ele>377.94</ele>
        <time>2026-05-16T10:57:12Z</time>
      </trkpt>
      <trkpt lat="44.68146" lon="1.99194">
        <ele>377.94</ele>
        <time>2026-05-16T10:57:29Z</time>
      </trkpt>
      <trkpt lat="44.68161" lon="1.99219">
        <ele>378.42</ele>
        <time>2026-05-16T10:57:46Z</time>
      </trkpt>
      <trkpt lat="44.68178" lon="1.99231">
        <ele>378.42</ele>
        <time>2026-05-16T10:57:59Z</time>
      </trkpt>
      <trkpt lat="44.68183" lon="1.99235">
        <ele>378.42</ele>
        <time>2026-05-16T10:58:03Z</time>
      </trkpt>
      <trkpt lat="44.68191" lon="1.99241">
        <ele>378.42</ele>
        <time>2026-05-16T10:58:10Z</time>
      </trkpt>
      <trkpt lat="44.68209" lon="1.9925">
        <ele>376.97</ele>
        <time>2026-05-16T10:58:25Z</time>
      </trkpt>
      <trkpt lat="44.68218" lon="1.99257">
        <ele>376.97</ele>
        <time>2026-05-16T10:58:32Z</time>
      </trkpt>
      <trkpt lat="44.68228" lon="1.9927">
        <ele>376.97</ele>
        <time>2026-05-16T10:58:48Z</time>
      </trkpt>
      <trkpt lat="44.68233" lon="1.99275">
        <ele>374.09</ele>
        <time>2026-05-16T10:58:56Z</time>
      </trkpt>
      <trkpt lat="44.68236" lon="1.99288">
        <ele>371.21</ele>
        <time>2026-05-16T10:59:08Z</time>
      </trkpt>
      <trkpt lat="44.68236" lon="1.99299">
        <ele>368.8</ele>
        <time>2026-05-16T10:59:17Z</time>
      </trkpt>
      <trkpt lat="44.68233" lon="1.99302">
        <ele>367.84</ele>
        <time>2026-05-16T10:59:20Z</time>
      </trkpt>
      <trkpt lat="44.68237" lon="1.99324">
        <ele>364.48</ele>
        <time>2026-05-16T10:59:33Z</time>
      </trkpt>
      <trkpt lat="44.68248" lon="1.99335">
        <ele>361.11</ele>
        <time>2026-05-16T10:59:49Z</time>
      </trkpt>
      <trkpt lat="44.68256" lon="1.99342">
        <ele>358.23</ele>
        <time>2026-05-16T11:00:05Z</time>
      </trkpt>
      <trkpt lat="44.68274" lon="1.99364">
        <ele>355.83</ele>
        <time>2026-05-16T11:00:23Z</time>
      </trkpt>
      <trkpt lat="44.68278" lon="1.99367">
        <ele>355.34</ele>
        <time>2026-05-16T11:00:26Z</time>
      </trkpt>
      <trkpt lat="44.68296" lon="1.99372">
        <ele>353.42</ele>
        <time>2026-05-16T11:00:39Z</time>
      </trkpt>
      <trkpt lat="44.6831" lon="1.99375">
        <ele>351.98</ele>
        <time>2026-05-16T11:00:50Z</time>
      </trkpt>
      <trkpt lat="44.68327" lon="1.99364">
        <ele>351.02</ele>
        <time>2026-05-16T11:01:02Z</time>
      </trkpt>
      <trkpt lat="44.6833" lon="1.99373">
        <ele>348.13</ele>
        <time>2026-05-16T11:01:18Z</time>
      </trkpt>
      <trkpt lat="44.68328" lon="1.99375">
        <ele>347.65</ele>
        <time>2026-05-16T11:01:22Z</time>
      </trkpt>
      <trkpt lat="44.68331" lon="1.99389">
        <ele>345.25</ele>
        <time>2026-05-16T11:01:36Z</time>
      </trkpt>
      <trkpt lat="44.68346" lon="1.9939">
        <ele>342.85</ele>
        <time>2026-05-16T11:01:52Z</time>
      </trkpt>
      <trkpt lat="44.68353" lon="1.99392">
        <ele>340.44</ele>
        <time>2026-05-16T11:02:07Z</time>
      </trkpt>
      <trkpt lat="44.68358" lon="1.99391">
        <ele>339.48</ele>
        <time>2026-05-16T11:02:30Z</time>
      </trkpt>
      <trkpt lat="44.68351" lon="1.99392">
        <ele>336.6</ele>
        <time>2026-05-16T11:02:46Z</time>
      </trkpt>
      <trkpt lat="44.68349" lon="1.994">
        <ele>334.68</ele>
        <time>2026-05-16T11:03:05Z</time>
      </trkpt>
      <trkpt lat="44.68341" lon="1.99409">
        <ele>330.83</ele>
        <time>2026-05-16T11:03:21Z</time>
      </trkpt>
      <trkpt lat="44.68341" lon="1.99425">
        <ele>330.35</ele>
        <time>2026-05-16T11:03:38Z</time>
      </trkpt>
      <trkpt lat="44.68341" lon="1.99429">
        <ele>330.35</ele>
        <time>2026-05-16T11:03:43Z</time>
      </trkpt>
      <trkpt lat="44.6833" lon="1.9944">
        <ele>331.79</ele>
        <time>2026-05-16T11:03:56Z</time>
      </trkpt>
      <trkpt lat="44.68327" lon="1.99451">
        <ele>334.68</ele>
        <time>2026-05-16T11:04:14Z</time>
      </trkpt>
      <trkpt lat="44.68319" lon="1.99462">
        <ele>336.12</ele>
        <time>2026-05-16T11:04:31Z</time>
      </trkpt>
      <trkpt lat="44.68304" lon="1.99467">
        <ele>339.48</ele>
        <time>2026-05-16T11:04:45Z</time>
      </trkpt>
      <trkpt lat="44.68294" lon="1.9947">
        <ele>341.41</ele>
        <time>2026-05-16T11:04:57Z</time>
      </trkpt>
      <trkpt lat="44.68285" lon="1.99475">
        <ele>342.85</ele>
        <time>2026-05-16T11:05:05Z</time>
      </trkpt>
      <trkpt lat="44.68277" lon="1.99489">
        <ele>343.33</ele>
        <time>2026-05-16T11:05:17Z</time>
      </trkpt>
      <trkpt lat="44.68271" lon="1.99499">
        <ele>342.85</ele>
        <time>2026-05-16T11:05:28Z</time>
      </trkpt>
      <trkpt lat="44.68264" lon="1.99511">
        <ele>341.41</ele>
        <time>2026-05-16T11:05:39Z</time>
      </trkpt>
      <trkpt lat="44.68264" lon="1.9952">
        <ele>340.44</ele>
        <time>2026-05-16T11:05:47Z</time>
      </trkpt>
      <trkpt lat="44.68272" lon="1.99518">
        <ele>338.52</ele>
        <time>2026-05-16T11:05:55Z</time>
      </trkpt>
      <trkpt lat="44.68277" lon="1.99508">
        <ele>337.08</ele>
        <time>2026-05-16T11:06:04Z</time>
      </trkpt>
      <trkpt lat="44.68278" lon="1.99497">
        <ele>334.68</ele>
        <time>2026-05-16T11:06:15Z</time>
      </trkpt>
      <trkpt lat="44.68274" lon="1.99492">
        <ele>333.23</ele>
        <time>2026-05-16T11:06:27Z</time>
      </trkpt>
      <trkpt lat="44.68267" lon="1.99503">
        <ele>334.2</ele>
        <time>2026-05-16T11:06:39Z</time>
      </trkpt>
      <trkpt lat="44.68264" lon="1.99505">
        <ele>334.2</ele>
        <time>2026-05-16T11:06:43Z</time>
      </trkpt>
      <trkpt lat="44.68252" lon="1.99517">
        <ele>335.16</ele>
        <time>2026-05-16T11:06:57Z</time>
      </trkpt>
      <trkpt lat="44.68247" lon="1.99527">
        <ele>336.6</ele>
        <time>2026-05-16T11:07:10Z</time>
      </trkpt>
      <trkpt lat="44.68231" lon="1.99541">
        <ele>338.04</ele>
        <time>2026-05-16T11:07:28Z</time>
      </trkpt>
      <trkpt lat="44.68222" lon="1.99541">
        <ele>338.52</ele>
        <time>2026-05-16T11:07:35Z</time>
      </trkpt>
      <trkpt lat="44.68202" lon="1.99542">
        <ele>340.92</ele>
        <time>2026-05-16T11:07:48Z</time>
      </trkpt>
      <trkpt lat="44.68194" lon="1.99541">
        <ele>342.85</ele>
        <time>2026-05-16T11:07:53Z</time>
      </trkpt>
      <trkpt lat="44.6818" lon="1.99547">
        <ele>344.29</ele>
        <time>2026-05-16T11:08:10Z</time>
      </trkpt>
      <trkpt lat="44.68169" lon="1.99544">
        <ele>346.69</ele>
        <time>2026-05-16T11:08:24Z</time>
      </trkpt>
      <trkpt lat="44.68169" lon="1.99543">
        <ele>348.13</ele>
        <time>2026-05-16T11:08:29Z</time>
      </trkpt>
      <trkpt lat="44.68163" lon="1.99544">
        <ele>351.02</ele>
        <time>2026-05-16T11:08:43Z</time>
      </trkpt>
      <trkpt lat="44.68161" lon="1.99549">
        <ele>352.46</ele>
        <time>2026-05-16T11:08:55Z</time>
      </trkpt>
      <trkpt lat="44.68149" lon="1.99559">
        <ele>354.38</ele>
        <time>2026-05-16T11:09:08Z</time>
      </trkpt>
      <trkpt lat="44.68142" lon="1.99564">
        <ele>356.79</ele>
        <time>2026-05-16T11:09:22Z</time>
      </trkpt>
      <trkpt lat="44.68132" lon="1.9956">
        <ele>359.67</ele>
        <time>2026-05-16T11:09:36Z</time>
      </trkpt>
      <trkpt lat="44.68129" lon="1.99556">
        <ele>360.15</ele>
        <time>2026-05-16T11:09:41Z</time>
      </trkpt>
      <trkpt lat="44.68118" lon="1.99548">
        <ele>362.07</ele>
        <time>2026-05-16T11:09:54Z</time>
      </trkpt>
      <trkpt lat="44.68113" lon="1.99539">
        <ele>364.48</ele>
        <time>2026-05-16T11:10:06Z</time>
      </trkpt>
      <trkpt lat="44.68105" lon="1.99529">
        <ele>367.36</ele>
        <time>2026-05-16T11:10:17Z</time>
      </trkpt>
      <trkpt lat="44.68086" lon="1.99522">
        <ele>369.76</ele>
        <time>2026-05-16T11:10:30Z</time>
      </trkpt>
      <trkpt lat="44.68077" lon="1.99513">
        <ele>371.69</ele>
        <time>2026-05-16T11:10:41Z</time>
      </trkpt>
      <trkpt lat="44.68062" lon="1.99509">
        <ele>372.65</ele>
        <time>2026-05-16T11:10:53Z</time>
      </trkpt>
      <trkpt lat="44.68045" lon="1.99502">
        <ele>373.13</ele>
        <time>2026-05-16T11:11:04Z</time>
      </trkpt>
      <trkpt lat="44.68044" lon="1.995">
        <ele>373.13</ele>
        <time>2026-05-16T11:11:06Z</time>
      </trkpt>
      <trkpt lat="44.68036" lon="1.99488">
        <ele>372.65</ele>
        <time>2026-05-16T11:11:16Z</time>
      </trkpt>
      <trkpt lat="44.68035" lon="1.99479">
        <ele>372.65</ele>
        <time>2026-05-16T11:11:26Z</time>
      </trkpt>
      <trkpt lat="44.68026" lon="1.99463">
        <ele>372.65</ele>
        <time>2026-05-16T11:11:40Z</time>
      </trkpt>
      <trkpt lat="44.68016" lon="1.99453">
        <ele>372.65</ele>
        <time>2026-05-16T11:11:52Z</time>
      </trkpt>
      <trkpt lat="44.68013" lon="1.9945">
        <ele>372.65</ele>
        <time>2026-05-16T11:11:54Z</time>
      </trkpt>
      <trkpt lat="44.68012" lon="1.99443">
        <ele>374.09</ele>
        <time>2026-05-16T11:12:00Z</time>
      </trkpt>
      <trkpt lat="44.67993" lon="1.99432">
        <ele>377.45</ele>
        <time>2026-05-16T11:12:15Z</time>
      </trkpt>
      <trkpt lat="44.6797" lon="1.9943">
        <ele>380.34</ele>
        <time>2026-05-16T11:12:30Z</time>
      </trkpt>
      <trkpt lat="44.67939" lon="1.99452">
        <ele>383.22</ele>
        <time>2026-05-16T11:12:45Z</time>
      </trkpt>
      <trkpt lat="44.6794" lon="1.99455">
        <ele>383.7</ele>
        <time>2026-05-16T11:12:47Z</time>
      </trkpt>
      <trkpt lat="44.67936" lon="1.99459">
        <ele>384.66</ele>
        <time>2026-05-16T11:12:51Z</time>
      </trkpt>
      <trkpt lat="44.6793" lon="1.99476">
        <ele>385.63</ele>
        <time>2026-05-16T11:13:03Z</time>
      </trkpt>
      <trkpt lat="44.67931" lon="1.99479">
        <ele>385.63</ele>
        <time>2026-05-16T11:13:18Z</time>
      </trkpt>
      <trkpt lat="44.67931" lon="1.99478">
        <ele>385.63</ele>
        <time>2026-05-16T11:13:22Z</time>
      </trkpt>
      <trkpt lat="44.67932" lon="1.99484">
        <ele>385.63</ele>
        <time>2026-05-16T11:13:29Z</time>
      </trkpt>
      <trkpt lat="44.67936" lon="1.99495">
        <ele>385.63</ele>
        <time>2026-05-16T11:13:40Z</time>
      </trkpt>
      <trkpt lat="44.67939" lon="1.995">
        <ele>385.63</ele>
        <time>2026-05-16T11:13:45Z</time>
      </trkpt>
      <trkpt lat="44.67949" lon="1.99511">
        <ele>385.63</ele>
        <time>2026-05-16T11:13:54Z</time>
      </trkpt>
      <trkpt lat="44.6795" lon="1.99517">
        <ele>385.63</ele>
        <time>2026-05-16T11:13:57Z</time>
      </trkpt>
      <trkpt lat="44.67948" lon="1.99527">
        <ele>385.63</ele>
        <time>2026-05-16T11:14:02Z</time>
      </trkpt>
      <trkpt lat="44.67939" lon="1.99549">
        <ele>384.18</ele>
        <time>2026-05-16T11:14:15Z</time>
      </trkpt>
      <trkpt lat="44.67938" lon="1.99551">
        <ele>384.18</ele>
        <time>2026-05-16T11:14:16Z</time>
      </trkpt>
      <trkpt lat="44.67929" lon="1.99568">
        <ele>383.7</ele>
        <time>2026-05-16T11:14:28Z</time>
      </trkpt>
      <trkpt lat="44.67914" lon="1.99585">
        <ele>383.22</ele>
        <time>2026-05-16T11:14:40Z</time>
      </trkpt>
      <trkpt lat="44.67914" lon="1.99589">
        <ele>383.22</ele>
        <time>2026-05-16T11:14:45Z</time>
      </trkpt>
      <trkpt lat="44.67913" lon="1.99591">
        <ele>383.22</ele>
        <time>2026-05-16T11:14:46Z</time>
      </trkpt>
      <trkpt lat="44.67912" lon="1.99593">
        <ele>382.74</ele>
        <time>2026-05-16T11:14:47Z</time>
      </trkpt>
      <trkpt lat="44.67911" lon="1.99594">
        <ele>382.74</ele>
        <time>2026-05-16T11:14:48Z</time>
      </trkpt>
      <trkpt lat="44.67909" lon="1.99595">
        <ele>382.74</ele>
        <time>2026-05-16T11:14:49Z</time>
      </trkpt>
      <trkpt lat="44.67906" lon="1.99599">
        <ele>382.74</ele>
        <time>2026-05-16T11:14:53Z</time>
      </trkpt>
      <trkpt lat="44.67905" lon="1.996">
        <ele>382.74</ele>
        <time>2026-05-16T11:14:54Z</time>
      </trkpt>
      <trkpt lat="44.67899" lon="1.99615">
        <ele>381.78</ele>
        <time>2026-05-16T11:15:03Z</time>
      </trkpt>
      <trkpt lat="44.67898" lon="1.99617">
        <ele>381.78</ele>
        <time>2026-05-16T11:15:04Z</time>
      </trkpt>
      <trkpt lat="44.67897" lon="1.99619">
        <ele>381.78</ele>
        <time>2026-05-16T11:15:05Z</time>
      </trkpt>
      <trkpt lat="44.67895" lon="1.9962">
        <ele>381.78</ele>
        <time>2026-05-16T11:15:06Z</time>
      </trkpt>
      <trkpt lat="44.67894" lon="1.99622">
        <ele>381.78</ele>
        <time>2026-05-16T11:15:07Z</time>
      </trkpt>
      <trkpt lat="44.6789" lon="1.99643">
        <ele>381.3</ele>
        <time>2026-05-16T11:15:19Z</time>
      </trkpt>
      <trkpt lat="44.67888" lon="1.99649">
        <ele>381.3</ele>
        <time>2026-05-16T11:15:23Z</time>
      </trkpt>
      <trkpt lat="44.67888" lon="1.9965">
        <ele>380.82</ele>
        <time>2026-05-16T11:15:24Z</time>
      </trkpt>
      <trkpt lat="44.67887" lon="1.99652">
        <ele>380.82</ele>
        <time>2026-05-16T11:15:25Z</time>
      </trkpt>
      <trkpt lat="44.67878" lon="1.99673">
        <ele>380.34</ele>
        <time>2026-05-16T11:15:38Z</time>
      </trkpt>
      <trkpt lat="44.67865" lon="1.99689">
        <ele>379.38</ele>
        <time>2026-05-16T11:15:49Z</time>
      </trkpt>
      <trkpt lat="44.67863" lon="1.99696">
        <ele>379.38</ele>
        <time>2026-05-16T11:15:54Z</time>
      </trkpt>
      <trkpt lat="44.67862" lon="1.99698">
        <ele>379.38</ele>
        <time>2026-05-16T11:15:55Z</time>
      </trkpt>
      <trkpt lat="44.67861" lon="1.997">
        <ele>379.38</ele>
        <time>2026-05-16T11:15:56Z</time>
      </trkpt>
      <trkpt lat="44.6786" lon="1.99702">
        <ele>379.38</ele>
        <time>2026-05-16T11:15:57Z</time>
      </trkpt>
      <trkpt lat="44.67859" lon="1.99704">
        <ele>379.38</ele>
        <time>2026-05-16T11:15:58Z</time>
      </trkpt>
      <trkpt lat="44.67858" lon="1.99706">
        <ele>379.38</ele>
        <time>2026-05-16T11:15:59Z</time>
      </trkpt>
      <trkpt lat="44.67857" lon="1.99707">
        <ele>379.38</ele>
        <time>2026-05-16T11:16:00Z</time>
      </trkpt>
      <trkpt lat="44.67856" lon="1.99712">
        <ele>378.9</ele>
        <time>2026-05-16T11:16:04Z</time>
      </trkpt>
      <trkpt lat="44.67855" lon="1.99713">
        <ele>378.9</ele>
        <time>2026-05-16T11:16:05Z</time>
      </trkpt>
      <trkpt lat="44.67855" lon="1.99715">
        <ele>378.9</ele>
        <time>2026-05-16T11:16:06Z</time>
      </trkpt>
      <trkpt lat="44.67854" lon="1.99717">
        <ele>378.42</ele>
        <time>2026-05-16T11:16:07Z</time>
      </trkpt>
      <trkpt lat="44.67854" lon="1.99719">
        <ele>378.42</ele>
        <time>2026-05-16T11:16:08Z</time>
      </trkpt>
      <trkpt lat="44.67846" lon="1.99734">
        <ele>377.94</ele>
        <time>2026-05-16T11:16:19Z</time>
      </trkpt>
      <trkpt lat="44.67839" lon="1.99744">
        <ele>377.45</ele>
        <time>2026-05-16T11:16:31Z</time>
      </trkpt>
      <trkpt lat="44.67834" lon="1.99747">
        <ele>377.45</ele>
        <time>2026-05-16T11:16:36Z</time>
      </trkpt>
      <trkpt lat="44.67826" lon="1.99758">
        <ele>377.45</ele>
        <time>2026-05-16T11:16:46Z</time>
      </trkpt>
      <trkpt lat="44.67826" lon="1.9976">
        <ele>377.45</ele>
        <time>2026-05-16T11:16:47Z</time>
      </trkpt>
      <trkpt lat="44.67832" lon="1.9978">
        <ele>377.45</ele>
        <time>2026-05-16T11:16:59Z</time>
      </trkpt>
      <trkpt lat="44.67832" lon="1.99788">
        <ele>378.42</ele>
        <time>2026-05-16T11:17:06Z</time>
      </trkpt>
      <trkpt lat="44.67832" lon="1.9979">
        <ele>378.42</ele>
        <time>2026-05-16T11:17:07Z</time>
      </trkpt>
      <trkpt lat="44.67825" lon="1.99804">
        <ele>379.86</ele>
        <time>2026-05-16T11:17:19Z</time>
      </trkpt>
      <trkpt lat="44.67826" lon="1.99811">
        <ele>381.3</ele>
        <time>2026-05-16T11:17:33Z</time>
      </trkpt>
      <trkpt lat="44.67825" lon="1.99821">
        <ele>381.3</ele>
        <time>2026-05-16T11:17:56Z</time>
      </trkpt>
      <trkpt lat="44.67823" lon="1.99821">
        <ele>381.3</ele>
        <time>2026-05-16T11:17:59Z</time>
      </trkpt>
      <trkpt lat="44.67812" lon="1.99823">
        <ele>381.78</ele>
        <time>2026-05-16T11:18:10Z</time>
      </trkpt>
      <trkpt lat="44.67794" lon="1.99828">
        <ele>382.74</ele>
        <time>2026-05-16T11:18:23Z</time>
      </trkpt>
      <trkpt lat="44.67788" lon="1.99831">
        <ele>383.22</ele>
        <time>2026-05-16T11:18:28Z</time>
      </trkpt>
      <trkpt lat="44.6777" lon="1.99843">
        <ele>384.18</ele>
        <time>2026-05-16T11:18:44Z</time>
      </trkpt>
      <trkpt lat="44.67762" lon="1.99861">
        <ele>384.18</ele>
        <time>2026-05-16T11:18:58Z</time>
      </trkpt>
      <trkpt lat="44.67761" lon="1.99883">
        <ele>386.11</ele>
        <time>2026-05-16T11:19:10Z</time>
      </trkpt>
      <trkpt lat="44.67761" lon="1.99886">
        <ele>386.59</ele>
        <time>2026-05-16T11:19:12Z</time>
      </trkpt>
      <trkpt lat="44.67762" lon="1.99888">
        <ele>386.59</ele>
        <time>2026-05-16T11:19:13Z</time>
      </trkpt>
      <trkpt lat="44.67766" lon="1.999">
        <ele>387.55</ele>
        <time>2026-05-16T11:19:21Z</time>
      </trkpt>
      <trkpt lat="44.67766" lon="1.99902">
        <ele>387.55</ele>
        <time>2026-05-16T11:19:22Z</time>
      </trkpt>
      <trkpt lat="44.67766" lon="1.99904">
        <ele>387.55</ele>
        <time>2026-05-16T11:19:23Z</time>
      </trkpt>
      <trkpt lat="44.67765" lon="1.99906">
        <ele>388.03</ele>
        <time>2026-05-16T11:19:24Z</time>
      </trkpt>
      <trkpt lat="44.67764" lon="1.99908">
        <ele>388.03</ele>
        <time>2026-05-16T11:19:25Z</time>
      </trkpt>
      <trkpt lat="44.67764" lon="1.99913">
        <ele>388.51</ele>
        <time>2026-05-16T11:19:30Z</time>
      </trkpt>
      <trkpt lat="44.67764" lon="1.99915">
        <ele>388.51</ele>
        <time>2026-05-16T11:19:31Z</time>
      </trkpt>
      <trkpt lat="44.67764" lon="1.99917">
        <ele>388.51</ele>
        <time>2026-05-16T11:19:32Z</time>
      </trkpt>
      <trkpt lat="44.6776" lon="1.99938">
        <ele>390.43</ele>
        <time>2026-05-16T11:19:46Z</time>
      </trkpt>
      <trkpt lat="44.67755" lon="1.99951">
        <ele>391.87</ele>
        <time>2026-05-16T11:19:57Z</time>
      </trkpt>
      <trkpt lat="44.67755" lon="1.99953">
        <ele>392.84</ele>
        <time>2026-05-16T11:19:58Z</time>
      </trkpt>
      <trkpt lat="44.67751" lon="1.99967">
        <ele>394.76</ele>
        <time>2026-05-16T11:20:10Z</time>
      </trkpt>
      <trkpt lat="44.67747" lon="1.99985">
        <ele>396.68</ele>
        <time>2026-05-16T11:20:22Z</time>
      </trkpt>
      <trkpt lat="44.67747" lon="1.99999">
        <ele>399.08</ele>
        <time>2026-05-16T11:20:35Z</time>
      </trkpt>
      <trkpt lat="44.67747" lon="2.00006">
        <ele>400.05</ele>
        <time>2026-05-16T11:20:41Z</time>
      </trkpt>
      <trkpt lat="44.67746" lon="2.00008">
        <ele>400.53</ele>
        <time>2026-05-16T11:20:42Z</time>
      </trkpt>
      <trkpt lat="44.67746" lon="2.0001">
        <ele>400.53</ele>
        <time>2026-05-16T11:20:43Z</time>
      </trkpt>
      <trkpt lat="44.67745" lon="2.00027">
        <ele>402.93</ele>
        <time>2026-05-16T11:20:57Z</time>
      </trkpt>
      <trkpt lat="44.67745" lon="2.00028">
        <ele>404.37</ele>
        <time>2026-05-16T11:20:58Z</time>
      </trkpt>
      <trkpt lat="44.67744" lon="2.00041">
        <ele>405.81</ele>
        <time>2026-05-16T11:21:07Z</time>
      </trkpt>
      <trkpt lat="44.67743" lon="2.0005">
        <ele>406.29</ele>
        <time>2026-05-16T11:21:13Z</time>
      </trkpt>
      <trkpt lat="44.67743" lon="2.00053">
        <ele>406.77</ele>
        <time>2026-05-16T11:21:15Z</time>
      </trkpt>
      <trkpt lat="44.67743" lon="2.00072">
        <ele>409.18</ele>
        <time>2026-05-16T11:21:28Z</time>
      </trkpt>
      <trkpt lat="44.67743" lon="2.00073">
        <ele>409.66</ele>
        <time>2026-05-16T11:21:29Z</time>
      </trkpt>
      <trkpt lat="44.67743" lon="2.00075">
        <ele>409.66</ele>
        <time>2026-05-16T11:21:30Z</time>
      </trkpt>
      <trkpt lat="44.67742" lon="2.00093">
        <ele>411.58</ele>
        <time>2026-05-16T11:21:42Z</time>
      </trkpt>
      <trkpt lat="44.67741" lon="2.0011">
        <ele>413.02</ele>
        <time>2026-05-16T11:21:53Z</time>
      </trkpt>
      <trkpt lat="44.67739" lon="2.0013">
        <ele>413.98</ele>
        <time>2026-05-16T11:22:06Z</time>
      </trkpt>
      <trkpt lat="44.67742" lon="2.00146">
        <ele>416.87</ele>
        <time>2026-05-16T11:22:18Z</time>
      </trkpt>
      <trkpt lat="44.67743" lon="2.00148">
        <ele>416.87</ele>
        <time>2026-05-16T11:22:19Z</time>
      </trkpt>
      <trkpt lat="44.67743" lon="2.00149">
        <ele>416.87</ele>
        <time>2026-05-16T11:22:20Z</time>
      </trkpt>
      <trkpt lat="44.67746" lon="2.00158">
        <ele>417.83</ele>
        <time>2026-05-16T11:22:27Z</time>
      </trkpt>
      <trkpt lat="44.67747" lon="2.00159">
        <ele>417.83</ele>
        <time>2026-05-16T11:22:28Z</time>
      </trkpt>
      <trkpt lat="44.67748" lon="2.00161">
        <ele>418.31</ele>
        <time>2026-05-16T11:22:29Z</time>
      </trkpt>
      <trkpt lat="44.67754" lon="2.00172">
        <ele>419.27</ele>
        <time>2026-05-16T11:22:38Z</time>
      </trkpt>
      <trkpt lat="44.67762" lon="2.00188">
        <ele>421.68</ele>
        <time>2026-05-16T11:22:51Z</time>
      </trkpt>
      <trkpt lat="44.67768" lon="2.00201">
        <ele>423.6</ele>
        <time>2026-05-16T11:23:03Z</time>
      </trkpt>
      <trkpt lat="44.67768" lon="2.00202">
        <ele>423.6</ele>
        <time>2026-05-16T11:23:04Z</time>
      </trkpt>
      <trkpt lat="44.67769" lon="2.00204">
        <ele>423.6</ele>
        <time>2026-05-16T11:23:05Z</time>
      </trkpt>
      <trkpt lat="44.67769" lon="2.00206">
        <ele>423.6</ele>
        <time>2026-05-16T11:23:06Z</time>
      </trkpt>
      <trkpt lat="44.67769" lon="2.00208">
        <ele>424.08</ele>
        <time>2026-05-16T11:23:07Z</time>
      </trkpt>
      <trkpt lat="44.67769" lon="2.00214">
        <ele>424.08</ele>
        <time>2026-05-16T11:23:11Z</time>
      </trkpt>
      <trkpt lat="44.67768" lon="2.00221">
        <ele>424.56</ele>
        <time>2026-05-16T11:23:25Z</time>
      </trkpt>
      <trkpt lat="44.67768" lon="2.00223">
        <ele>424.56</ele>
        <time>2026-05-16T11:23:26Z</time>
      </trkpt>
      <trkpt lat="44.67768" lon="2.00226">
        <ele>424.56</ele>
        <time>2026-05-16T11:23:27Z</time>
      </trkpt>
      <trkpt lat="44.67768" lon="2.0025">
        <ele>425.52</ele>
        <time>2026-05-16T11:23:41Z</time>
      </trkpt>
      <trkpt lat="44.67767" lon="2.00272">
        <ele>427.44</ele>
        <time>2026-05-16T11:23:53Z</time>
      </trkpt>
      <trkpt lat="44.67766" lon="2.0029">
        <ele>427.92</ele>
        <time>2026-05-16T11:24:05Z</time>
      </trkpt>
      <trkpt lat="44.67766" lon="2.00293">
        <ele>427.92</ele>
        <time>2026-05-16T11:24:06Z</time>
      </trkpt>
      <trkpt lat="44.67767" lon="2.00295">
        <ele>427.92</ele>
        <time>2026-05-16T11:24:07Z</time>
      </trkpt>
      <trkpt lat="44.67766" lon="2.00302">
        <ele>428.89</ele>
        <time>2026-05-16T11:24:13Z</time>
      </trkpt>
      <trkpt lat="44.67765" lon="2.00304">
        <ele>428.89</ele>
        <time>2026-05-16T11:24:14Z</time>
      </trkpt>
      <trkpt lat="44.67765" lon="2.00306">
        <ele>428.89</ele>
        <time>2026-05-16T11:24:15Z</time>
      </trkpt>
      <trkpt lat="44.67764" lon="2.00328">
        <ele>430.81</ele>
        <time>2026-05-16T11:24:28Z</time>
      </trkpt>
      <trkpt lat="44.67756" lon="2.00353">
        <ele>432.25</ele>
        <time>2026-05-16T11:24:43Z</time>
      </trkpt>
      <trkpt lat="44.67749" lon="2.00379">
        <ele>433.21</ele>
        <time>2026-05-16T11:24:57Z</time>
      </trkpt>
      <trkpt lat="44.67743" lon="2.00403">
        <ele>434.17</ele>
        <time>2026-05-16T11:25:11Z</time>
      </trkpt>
      <trkpt lat="44.67734" lon="2.00425">
        <ele>435.13</ele>
        <time>2026-05-16T11:25:26Z</time>
      </trkpt>
      <trkpt lat="44.67731" lon="2.00432">
        <ele>435.61</ele>
        <time>2026-05-16T11:25:33Z</time>
      </trkpt>
      <trkpt lat="44.67723" lon="2.00459">
        <ele>436.1</ele>
        <time>2026-05-16T11:25:48Z</time>
      </trkpt>
      <trkpt lat="44.67715" lon="2.00485">
        <ele>437.06</ele>
        <time>2026-05-16T11:26:03Z</time>
      </trkpt>
      <trkpt lat="44.67706" lon="2.00513">
        <ele>438.5</ele>
        <time>2026-05-16T11:26:19Z</time>
      </trkpt>
      <trkpt lat="44.67701" lon="2.00538">
        <ele>438.98</ele>
        <time>2026-05-16T11:26:34Z</time>
      </trkpt>
      <trkpt lat="44.67694" lon="2.00563">
        <ele>439.46</ele>
        <time>2026-05-16T11:26:49Z</time>
      </trkpt>
      <trkpt lat="44.67684" lon="2.0057">
        <ele>440.42</ele>
        <time>2026-05-16T11:27:01Z</time>
      </trkpt>
      <trkpt lat="44.67683" lon="2.0057">
        <ele>440.42</ele>
        <time>2026-05-16T11:27:02Z</time>
      </trkpt>
      <trkpt lat="44.67679" lon="2.00566">
        <ele>439.94</ele>
        <time>2026-05-16T11:27:06Z</time>
      </trkpt>
      <trkpt lat="44.67665" lon="2.00554">
        <ele>439.94</ele>
        <time>2026-05-16T11:27:20Z</time>
      </trkpt>
      <trkpt lat="44.67652" lon="2.00549">
        <ele>439.94</ele>
        <time>2026-05-16T11:27:31Z</time>
      </trkpt>
      <trkpt lat="44.67644" lon="2.00563">
        <ele>439.94</ele>
        <time>2026-05-16T11:27:40Z</time>
      </trkpt>
      <trkpt lat="44.67635" lon="2.00579">
        <ele>439.94</ele>
        <time>2026-05-16T11:27:55Z</time>
      </trkpt>
      <trkpt lat="44.67633" lon="2.00586">
        <ele>440.42</ele>
        <time>2026-05-16T11:28:00Z</time>
      </trkpt>
      <trkpt lat="44.67622" lon="2.00599">
        <ele>439.94</ele>
        <time>2026-05-16T11:28:13Z</time>
      </trkpt>
      <trkpt lat="44.67607" lon="2.00631">
        <ele>439.94</ele>
        <time>2026-05-16T11:28:29Z</time>
      </trkpt>
      <trkpt lat="44.67599" lon="2.0065">
        <ele>439.94</ele>
        <time>2026-05-16T11:28:41Z</time>
      </trkpt>
      <trkpt lat="44.6759" lon="2.00665">
        <ele>438.5</ele>
        <time>2026-05-16T11:28:51Z</time>
      </trkpt>
      <trkpt lat="44.67578" lon="2.00673">
        <ele>436.1</ele>
        <time>2026-05-16T11:29:01Z</time>
      </trkpt>
      <trkpt lat="44.67574" lon="2.00688">
        <ele>432.73</ele>
        <time>2026-05-16T11:29:12Z</time>
      </trkpt>
      <trkpt lat="44.6758" lon="2.00703">
        <ele>428.89</ele>
        <time>2026-05-16T11:29:23Z</time>
      </trkpt>
      <trkpt lat="44.67584" lon="2.00716">
        <ele>427.44</ele>
        <time>2026-05-16T11:29:31Z</time>
      </trkpt>
      <trkpt lat="44.67597" lon="2.00734">
        <ele>426.96</ele>
        <time>2026-05-16T11:29:47Z</time>
      </trkpt>
      <trkpt lat="44.67612" lon="2.00756">
        <ele>425.04</ele>
        <time>2026-05-16T11:30:04Z</time>
      </trkpt>
      <trkpt lat="44.67617" lon="2.0076">
        <ele>426</ele>
        <time>2026-05-16T11:30:17Z</time>
      </trkpt>
      <trkpt lat="44.67613" lon="2.00769">
        <ele>426</ele>
        <time>2026-05-16T11:30:29Z</time>
      </trkpt>
      <trkpt lat="44.67608" lon="2.00785">
        <ele>427.92</ele>
        <time>2026-05-16T11:30:43Z</time>
      </trkpt>
      <trkpt lat="44.67607" lon="2.00801">
        <ele>429.85</ele>
        <time>2026-05-16T11:30:57Z</time>
      </trkpt>
      <trkpt lat="44.67603" lon="2.00814">
        <ele>431.29</ele>
        <time>2026-05-16T11:31:09Z</time>
      </trkpt>
      <trkpt lat="44.67593" lon="2.00831">
        <ele>432.25</ele>
        <time>2026-05-16T11:31:23Z</time>
      </trkpt>
      <trkpt lat="44.67582" lon="2.00845">
        <ele>432.73</ele>
        <time>2026-05-16T11:31:35Z</time>
      </trkpt>
      <trkpt lat="44.67566" lon="2.00867">
        <ele>432.73</ele>
        <time>2026-05-16T11:31:54Z</time>
      </trkpt>
      <trkpt lat="44.67559" lon="2.00884">
        <ele>433.69</ele>
        <time>2026-05-16T11:32:07Z</time>
      </trkpt>
      <trkpt lat="44.67556" lon="2.009">
        <ele>434.65</ele>
        <time>2026-05-16T11:32:21Z</time>
      </trkpt>
      <trkpt lat="44.67551" lon="2.00909">
        <ele>435.13</ele>
        <time>2026-05-16T11:32:39Z</time>
      </trkpt>
      <trkpt lat="44.67552" lon="2.00907">
        <ele>435.61</ele>
        <time>2026-05-16T11:33:09Z</time>
      </trkpt>
      <trkpt lat="44.67552" lon="2.00908">
        <ele>435.61</ele>
        <time>2026-05-16T11:33:13Z</time>
      </trkpt>
      <trkpt lat="44.6756" lon="2.0093">
        <ele>436.1</ele>
        <time>2026-05-16T11:33:21Z</time>
      </trkpt>
      <trkpt lat="44.6756" lon="2.00936">
        <ele>437.06</ele>
        <time>2026-05-16T11:33:25Z</time>
      </trkpt>
      <trkpt lat="44.67546" lon="2.00958">
        <ele>438.5</ele>
        <time>2026-05-16T11:33:40Z</time>
      </trkpt>
      <trkpt lat="44.67541" lon="2.00967">
        <ele>440.9</ele>
        <time>2026-05-16T11:33:50Z</time>
      </trkpt>
      <trkpt lat="44.67536" lon="2.00971">
        <ele>441.38</ele>
        <time>2026-05-16T11:33:54Z</time>
      </trkpt>
      <trkpt lat="44.67532" lon="2.00975">
        <ele>442.34</ele>
        <time>2026-05-16T11:34:00Z</time>
      </trkpt>
      <trkpt lat="44.67524" lon="2.00994">
        <ele>442.82</ele>
        <time>2026-05-16T11:34:12Z</time>
      </trkpt>
      <trkpt lat="44.67526" lon="2.01021">
        <ele>442.82</ele>
        <time>2026-05-16T11:34:21Z</time>
      </trkpt>
      <trkpt lat="44.67529" lon="2.01038">
        <ele>440.42</ele>
        <time>2026-05-16T11:34:28Z</time>
      </trkpt>
      <trkpt lat="44.67531" lon="2.01069">
        <ele>438.5</ele>
        <time>2026-05-16T11:34:43Z</time>
      </trkpt>
      <trkpt lat="44.67532" lon="2.01089">
        <ele>437.06</ele>
        <time>2026-05-16T11:34:57Z</time>
      </trkpt>
      <trkpt lat="44.67538" lon="2.01115">
        <ele>436.1</ele>
        <time>2026-05-16T11:35:14Z</time>
      </trkpt>
      <trkpt lat="44.67529" lon="2.0113">
        <ele>437.06</ele>
        <time>2026-05-16T11:35:31Z</time>
      </trkpt>
      <trkpt lat="44.67527" lon="2.01131">
        <ele>437.06</ele>
        <time>2026-05-16T11:35:33Z</time>
      </trkpt>
      <trkpt lat="44.67514" lon="2.01143">
        <ele>437.06</ele>
        <time>2026-05-16T11:35:49Z</time>
      </trkpt>
      <trkpt lat="44.67492" lon="2.01171">
        <ele>435.13</ele>
        <time>2026-05-16T11:36:08Z</time>
      </trkpt>
      <trkpt lat="44.67489" lon="2.0118">
        <ele>434.17</ele>
        <time>2026-05-16T11:36:15Z</time>
      </trkpt>
      <trkpt lat="44.67483" lon="2.01213">
        <ele>431.29</ele>
        <time>2026-05-16T11:36:32Z</time>
      </trkpt>
      <trkpt lat="44.67484" lon="2.0124">
        <ele>429.85</ele>
        <time>2026-05-16T11:36:46Z</time>
      </trkpt>
      <trkpt lat="44.6748" lon="2.01236">
        <ele>429.85</ele>
        <time>2026-05-16T11:37:19Z</time>
      </trkpt>
      <trkpt lat="44.67482" lon="2.01231">
        <ele>429.85</ele>
        <time>2026-05-16T11:37:55Z</time>
      </trkpt>
      <trkpt lat="44.6748" lon="2.01243">
        <ele>429.85</ele>
        <time>2026-05-16T11:38:21Z</time>
      </trkpt>
      <trkpt lat="44.67481" lon="2.01263">
        <ele>429.85</ele>
        <time>2026-05-16T11:38:35Z</time>
      </trkpt>
      <trkpt lat="44.67483" lon="2.01288">
        <ele>428.89</ele>
        <time>2026-05-16T11:38:52Z</time>
      </trkpt>
      <trkpt lat="44.67484" lon="2.01316">
        <ele>428.89</ele>
        <time>2026-05-16T11:39:07Z</time>
      </trkpt>
      <trkpt lat="44.67482" lon="2.01338">
        <ele>428.89</ele>
        <time>2026-05-16T11:39:25Z</time>
      </trkpt>
      <trkpt lat="44.67476" lon="2.01342">
        <ele>430.81</ele>
        <time>2026-05-16T11:39:39Z</time>
      </trkpt>
      <trkpt lat="44.67465" lon="2.0136">
        <ele>432.73</ele>
        <time>2026-05-16T11:39:54Z</time>
      </trkpt>
      <trkpt lat="44.67461" lon="2.01375">
        <ele>436.1</ele>
        <time>2026-05-16T11:40:07Z</time>
      </trkpt>
      <trkpt lat="44.67457" lon="2.01383">
        <ele>438.5</ele>
        <time>2026-05-16T11:40:21Z</time>
      </trkpt>
      <trkpt lat="44.67449" lon="2.01391">
        <ele>441.38</ele>
        <time>2026-05-16T11:40:37Z</time>
      </trkpt>
      <trkpt lat="44.67446" lon="2.01399">
        <ele>443.79</ele>
        <time>2026-05-16T11:40:49Z</time>
      </trkpt>
      <trkpt lat="44.67457" lon="2.01429">
        <ele>445.23</ele>
        <time>2026-05-16T11:41:09Z</time>
      </trkpt>
      <trkpt lat="44.67457" lon="2.01429">
        <ele>444.27</ele>
        <time>2026-05-16T11:41:16Z</time>
      </trkpt>
      <trkpt lat="44.67465" lon="2.01437">
        <ele>444.75</ele>
        <time>2026-05-16T11:41:44Z</time>
      </trkpt>
      <trkpt lat="44.67466" lon="2.01445">
        <ele>445.71</ele>
        <time>2026-05-16T11:41:55Z</time>
      </trkpt>
      <trkpt lat="44.67457" lon="2.01458">
        <ele>449.07</ele>
        <time>2026-05-16T11:42:09Z</time>
      </trkpt>
      <trkpt lat="44.67453" lon="2.01475">
        <ele>451</ele>
        <time>2026-05-16T11:42:22Z</time>
      </trkpt>
      <trkpt lat="44.6745" lon="2.01488">
        <ele>453.4</ele>
        <time>2026-05-16T11:42:34Z</time>
      </trkpt>
      <trkpt lat="44.67448" lon="2.01494">
        <ele>454.36</ele>
        <time>2026-05-16T11:42:39Z</time>
      </trkpt>
      <trkpt lat="44.67446" lon="2.0151">
        <ele>457.24</ele>
        <time>2026-05-16T11:42:51Z</time>
      </trkpt>
      <trkpt lat="44.67446" lon="2.0151">
        <ele>457.24</ele>
        <time>2026-05-16T11:42:52Z</time>
      </trkpt>
      <trkpt lat="44.67446" lon="2.0152">
        <ele>459.17</ele>
        <time>2026-05-16T11:43:00Z</time>
      </trkpt>
      <trkpt lat="44.67441" lon="2.01541">
        <ele>461.57</ele>
        <time>2026-05-16T11:43:15Z</time>
      </trkpt>
      <trkpt lat="44.67451" lon="2.01551">
        <ele>461.09</ele>
        <time>2026-05-16T11:43:24Z</time>
      </trkpt>
      <trkpt lat="44.6745" lon="2.01558">
        <ele>462.53</ele>
        <time>2026-05-16T11:43:29Z</time>
      </trkpt>
      <trkpt lat="44.67445" lon="2.01567">
        <ele>463.97</ele>
        <time>2026-05-16T11:43:38Z</time>
      </trkpt>
      <trkpt lat="44.67438" lon="2.01572">
        <ele>464.93</ele>
        <time>2026-05-16T11:43:47Z</time>
      </trkpt>
      <trkpt lat="44.67436" lon="2.01576">
        <ele>464.93</ele>
        <time>2026-05-16T11:43:50Z</time>
      </trkpt>
      <trkpt lat="44.67429" lon="2.01595">
        <ele>467.34</ele>
        <time>2026-05-16T11:44:05Z</time>
      </trkpt>
      <trkpt lat="44.6742" lon="2.01613">
        <ele>469.26</ele>
        <time>2026-05-16T11:44:20Z</time>
      </trkpt>
      <trkpt lat="44.67419" lon="2.01615">
        <ele>470.22</ele>
        <time>2026-05-16T11:44:34Z</time>
      </trkpt>
      <trkpt lat="44.67412" lon="2.01617">
        <ele>472.14</ele>
        <time>2026-05-16T11:44:47Z</time>
      </trkpt>
      <trkpt lat="44.67412" lon="2.01617">
        <ele>472.14</ele>
        <time>2026-05-16T11:44:48Z</time>
      </trkpt>
      <trkpt lat="44.67411" lon="2.01618">
        <ele>471.66</ele>
        <time>2026-05-16T11:45:01Z</time>
      </trkpt>
      <trkpt lat="44.67409" lon="2.0163">
        <ele>471.66</ele>
        <time>2026-05-16T11:45:11Z</time>
      </trkpt>
      <trkpt lat="44.67404" lon="2.01642">
        <ele>473.59</ele>
        <time>2026-05-16T11:45:23Z</time>
      </trkpt>
      <trkpt lat="44.67402" lon="2.01649">
        <ele>473.11</ele>
        <time>2026-05-16T11:45:29Z</time>
      </trkpt>
      <trkpt lat="44.67399" lon="2.01651">
        <ele>474.55</ele>
        <time>2026-05-16T11:45:42Z</time>
      </trkpt>
      <trkpt lat="44.67399" lon="2.01648">
        <ele>474.55</ele>
        <time>2026-05-16T11:45:45Z</time>
      </trkpt>
      <trkpt lat="44.67397" lon="2.01651">
        <ele>474.55</ele>
        <time>2026-05-16T11:45:51Z</time>
      </trkpt>
      <trkpt lat="44.67394" lon="2.01673">
        <ele>475.03</ele>
        <time>2026-05-16T11:46:06Z</time>
      </trkpt>
      <trkpt lat="44.67394" lon="2.01678">
        <ele>475.03</ele>
        <time>2026-05-16T11:46:09Z</time>
      </trkpt>
      <trkpt lat="44.67393" lon="2.01683">
        <ele>475.99</ele>
        <time>2026-05-16T11:46:12Z</time>
      </trkpt>
      <trkpt lat="44.67392" lon="2.01691">
        <ele>475.51</ele>
        <time>2026-05-16T11:46:20Z</time>
      </trkpt>
      <trkpt lat="44.67394" lon="2.01683">
        <ele>475.51</ele>
        <time>2026-05-16T11:46:25Z</time>
      </trkpt>
      <trkpt lat="44.67397" lon="2.01667">
        <ele>474.07</ele>
        <time>2026-05-16T11:46:35Z</time>
      </trkpt>
      <trkpt lat="44.67403" lon="2.01647">
        <ele>473.11</ele>
        <time>2026-05-16T11:46:47Z</time>
      </trkpt>
      <trkpt lat="44.67407" lon="2.01638">
        <ele>472.14</ele>
        <time>2026-05-16T11:46:53Z</time>
      </trkpt>
      <trkpt lat="44.67406" lon="2.01632">
        <ele>472.14</ele>
        <time>2026-05-16T11:46:56Z</time>
      </trkpt>
      <trkpt lat="44.67411" lon="2.0161">
        <ele>469.74</ele>
        <time>2026-05-16T11:47:10Z</time>
      </trkpt>
      <trkpt lat="44.67411" lon="2.01607">
        <ele>469.74</ele>
        <time>2026-05-16T11:47:11Z</time>
      </trkpt>
      <trkpt lat="44.67412" lon="2.01601">
        <ele>469.26</ele>
        <time>2026-05-16T11:47:14Z</time>
      </trkpt>
      <trkpt lat="44.67417" lon="2.01579">
        <ele>466.86</ele>
        <time>2026-05-16T11:47:26Z</time>
      </trkpt>
      <trkpt lat="44.67408" lon="2.01561">
        <ele>465.42</ele>
        <time>2026-05-16T11:47:35Z</time>
      </trkpt>
      <trkpt lat="44.67402" lon="2.0155">
        <ele>463.97</ele>
        <time>2026-05-16T11:47:44Z</time>
      </trkpt>
      <trkpt lat="44.67397" lon="2.01545">
        <ele>463.01</ele>
        <time>2026-05-16T11:47:48Z</time>
      </trkpt>
      <trkpt lat="44.67387" lon="2.01527">
        <ele>460.61</ele>
        <time>2026-05-16T11:48:02Z</time>
      </trkpt>
      <trkpt lat="44.6738" lon="2.01501">
        <ele>458.69</ele>
        <time>2026-05-16T11:48:16Z</time>
      </trkpt>
      <trkpt lat="44.67381" lon="2.01473">
        <ele>456.76</ele>
        <time>2026-05-16T11:48:30Z</time>
      </trkpt>
      <trkpt lat="44.67383" lon="2.01464">
        <ele>456.28</ele>
        <time>2026-05-16T11:48:34Z</time>
      </trkpt>
      <trkpt lat="44.67384" lon="2.01457">
        <ele>455.32</ele>
        <time>2026-05-16T11:48:37Z</time>
      </trkpt>
      <trkpt lat="44.67384" lon="2.01437">
        <ele>452.44</ele>
        <time>2026-05-16T11:48:47Z</time>
      </trkpt>
      <trkpt lat="44.67383" lon="2.01425">
        <ele>452.44</ele>
        <time>2026-05-16T11:48:54Z</time>
      </trkpt>
      <trkpt lat="44.67379" lon="2.01417">
        <ele>452.44</ele>
        <time>2026-05-16T11:48:59Z</time>
      </trkpt>
      <trkpt lat="44.67362" lon="2.01406">
        <ele>451.48</ele>
        <time>2026-05-16T11:49:14Z</time>
      </trkpt>
      <trkpt lat="44.67348" lon="2.01407">
        <ele>451</ele>
        <time>2026-05-16T11:49:24Z</time>
      </trkpt>
      <trkpt lat="44.67332" lon="2.01421">
        <ele>451</ele>
        <time>2026-05-16T11:49:39Z</time>
      </trkpt>
      <trkpt lat="44.6732" lon="2.01439">
        <ele>450.52</ele>
        <time>2026-05-16T11:49:52Z</time>
      </trkpt>
      <trkpt lat="44.67301" lon="2.01448">
        <ele>449.07</ele>
        <time>2026-05-16T11:50:07Z</time>
      </trkpt>
      <trkpt lat="44.67298" lon="2.0145">
        <ele>448.59</ele>
        <time>2026-05-16T11:50:12Z</time>
      </trkpt>
      <trkpt lat="44.67279" lon="2.01454">
        <ele>446.67</ele>
        <time>2026-05-16T11:50:27Z</time>
      </trkpt>
      <trkpt lat="44.67256" lon="2.01454">
        <ele>445.71</ele>
        <time>2026-05-16T11:50:41Z</time>
      </trkpt>
      <trkpt lat="44.67246" lon="2.01453">
        <ele>445.23</ele>
        <time>2026-05-16T11:50:46Z</time>
      </trkpt>
      <trkpt lat="44.67229" lon="2.01448">
        <ele>443.79</ele>
        <time>2026-05-16T11:50:59Z</time>
      </trkpt>
      <trkpt lat="44.67228" lon="2.01448">
        <ele>443.79</ele>
        <time>2026-05-16T11:51:00Z</time>
      </trkpt>
      <trkpt lat="44.67206" lon="2.01449">
        <ele>442.34</ele>
        <time>2026-05-16T11:51:16Z</time>
      </trkpt>
      <trkpt lat="44.672" lon="2.01448">
        <ele>441.86</ele>
        <time>2026-05-16T11:51:21Z</time>
      </trkpt>
      <trkpt lat="44.67196" lon="2.01449">
        <ele>443.79</ele>
        <time>2026-05-16T11:51:23Z</time>
      </trkpt>
      <trkpt lat="44.67193" lon="2.01451">
        <ele>443.79</ele>
        <time>2026-05-16T11:51:24Z</time>
      </trkpt>
      <trkpt lat="44.67187" lon="2.01452">
        <ele>441.86</ele>
        <time>2026-05-16T11:51:27Z</time>
      </trkpt>
      <trkpt lat="44.67168" lon="2.01451">
        <ele>440.9</ele>
        <time>2026-05-16T11:51:40Z</time>
      </trkpt>
      <trkpt lat="44.67159" lon="2.01448">
        <ele>439.94</ele>
        <time>2026-05-16T11:51:46Z</time>
      </trkpt>
      <trkpt lat="44.67144" lon="2.01437">
        <ele>439.46</ele>
        <time>2026-05-16T11:52:02Z</time>
      </trkpt>
      <trkpt lat="44.67125" lon="2.01431">
        <ele>438.98</ele>
        <time>2026-05-16T11:52:14Z</time>
      </trkpt>
      <trkpt lat="44.67104" lon="2.01427">
        <ele>437.54</ele>
        <time>2026-05-16T11:52:29Z</time>
      </trkpt>
      <trkpt lat="44.67097" lon="2.01427">
        <ele>437.54</ele>
        <time>2026-05-16T11:52:35Z</time>
      </trkpt>
      <trkpt lat="44.67071" lon="2.01428">
        <ele>437.06</ele>
        <time>2026-05-16T11:52:51Z</time>
      </trkpt>
      <trkpt lat="44.67051" lon="2.01423">
        <ele>436.58</ele>
        <time>2026-05-16T11:53:05Z</time>
      </trkpt>
      <trkpt lat="44.67023" lon="2.01414">
        <ele>436.1</ele>
        <time>2026-05-16T11:53:21Z</time>
      </trkpt>
      <trkpt lat="44.66998" lon="2.01414">
        <ele>434.17</ele>
        <time>2026-05-16T11:53:35Z</time>
      </trkpt>
      <trkpt lat="44.66985" lon="2.01412">
        <ele>432.73</ele>
        <time>2026-05-16T11:53:47Z</time>
      </trkpt>
      <trkpt lat="44.66968" lon="2.01401">
        <ele>430.81</ele>
        <time>2026-05-16T11:53:59Z</time>
      </trkpt>
      <trkpt lat="44.66952" lon="2.01393">
        <ele>429.85</ele>
        <time>2026-05-16T11:54:14Z</time>
      </trkpt>
      <trkpt lat="44.66934" lon="2.01389">
        <ele>428.89</ele>
        <time>2026-05-16T11:54:29Z</time>
      </trkpt>
      <trkpt lat="44.66915" lon="2.01385">
        <ele>427.92</ele>
        <time>2026-05-16T11:54:43Z</time>
      </trkpt>
      <trkpt lat="44.66897" lon="2.01383">
        <ele>427.92</ele>
        <time>2026-05-16T11:54:59Z</time>
      </trkpt>
      <trkpt lat="44.66877" lon="2.01376">
        <ele>427.44</ele>
        <time>2026-05-16T11:55:13Z</time>
      </trkpt>
      <trkpt lat="44.66876" lon="2.01376">
        <ele>427.44</ele>
        <time>2026-05-16T11:55:14Z</time>
      </trkpt>
      <trkpt lat="44.6685" lon="2.01372">
        <ele>426.96</ele>
        <time>2026-05-16T11:55:28Z</time>
      </trkpt>
      <trkpt lat="44.6683" lon="2.01366">
        <ele>426</ele>
        <time>2026-05-16T11:55:44Z</time>
      </trkpt>
      <trkpt lat="44.66824" lon="2.01364">
        <ele>425.52</ele>
        <time>2026-05-16T11:55:48Z</time>
      </trkpt>
      <trkpt lat="44.66823" lon="2.01363">
        <ele>425.52</ele>
        <time>2026-05-16T11:55:49Z</time>
      </trkpt>
      <trkpt lat="44.66807" lon="2.01354">
        <ele>424.08</ele>
        <time>2026-05-16T11:56:02Z</time>
      </trkpt>
      <trkpt lat="44.66788" lon="2.01351">
        <ele>423.6</ele>
        <time>2026-05-16T11:56:17Z</time>
      </trkpt>
      <trkpt lat="44.66768" lon="2.01351">
        <ele>422.64</ele>
        <time>2026-05-16T11:56:32Z</time>
      </trkpt>
      <trkpt lat="44.66758" lon="2.01354">
        <ele>422.16</ele>
        <time>2026-05-16T11:56:38Z</time>
      </trkpt>
      <trkpt lat="44.66742" lon="2.01357">
        <ele>421.19</ele>
        <time>2026-05-16T11:56:49Z</time>
      </trkpt>
      <trkpt lat="44.66741" lon="2.01357">
        <ele>421.19</ele>
        <time>2026-05-16T11:56:50Z</time>
      </trkpt>
      <trkpt lat="44.66735" lon="2.0136">
        <ele>420.71</ele>
        <time>2026-05-16T11:56:54Z</time>
      </trkpt>
      <trkpt lat="44.66733" lon="2.0136">
        <ele>420.71</ele>
        <time>2026-05-16T11:56:55Z</time>
      </trkpt>
      <trkpt lat="44.66731" lon="2.01361">
        <ele>420.71</ele>
        <time>2026-05-16T11:56:56Z</time>
      </trkpt>
      <trkpt lat="44.66714" lon="2.01362">
        <ele>419.75</ele>
        <time>2026-05-16T11:57:09Z</time>
      </trkpt>
      <trkpt lat="44.6671" lon="2.01364">
        <ele>419.27</ele>
        <time>2026-05-16T11:57:12Z</time>
      </trkpt>
      <trkpt lat="44.66708" lon="2.01365">
        <ele>419.27</ele>
        <time>2026-05-16T11:57:13Z</time>
      </trkpt>
      <trkpt lat="44.66699" lon="2.01367">
        <ele>419.27</ele>
        <time>2026-05-16T11:57:19Z</time>
      </trkpt>
      <trkpt lat="44.66675" lon="2.01367">
        <ele>417.35</ele>
        <time>2026-05-16T11:57:34Z</time>
      </trkpt>
      <trkpt lat="44.66656" lon="2.01368">
        <ele>415.91</ele>
        <time>2026-05-16T11:57:48Z</time>
      </trkpt>
      <trkpt lat="44.66635" lon="2.01366">
        <ele>414.47</ele>
        <time>2026-05-16T11:58:02Z</time>
      </trkpt>
      <trkpt lat="44.66629" lon="2.01366">
        <ele>413.98</ele>
        <time>2026-05-16T11:58:07Z</time>
      </trkpt>
      <trkpt lat="44.66627" lon="2.01366">
        <ele>413.98</ele>
        <time>2026-05-16T11:58:08Z</time>
      </trkpt>
      <trkpt lat="44.66607" lon="2.01364">
        <ele>412.54</ele>
        <time>2026-05-16T11:58:20Z</time>
      </trkpt>
      <trkpt lat="44.66606" lon="2.01364">
        <ele>412.06</ele>
        <time>2026-05-16T11:58:21Z</time>
      </trkpt>
      <trkpt lat="44.66605" lon="2.01363">
        <ele>412.06</ele>
        <time>2026-05-16T11:58:22Z</time>
      </trkpt>
      <trkpt lat="44.66586" lon="2.01361">
        <ele>411.1</ele>
        <time>2026-05-16T11:58:36Z</time>
      </trkpt>
      <trkpt lat="44.66584" lon="2.0136">
        <ele>411.1</ele>
        <time>2026-05-16T11:58:37Z</time>
      </trkpt>
      <trkpt lat="44.66583" lon="2.0136">
        <ele>411.1</ele>
        <time>2026-05-16T11:58:38Z</time>
      </trkpt>
      <trkpt lat="44.66582" lon="2.0136">
        <ele>410.62</ele>
        <time>2026-05-16T11:58:39Z</time>
      </trkpt>
      <trkpt lat="44.66558" lon="2.01359">
        <ele>410.14</ele>
        <time>2026-05-16T11:58:55Z</time>
      </trkpt>
      <trkpt lat="44.66533" lon="2.0136">
        <ele>408.22</ele>
        <time>2026-05-16T11:59:10Z</time>
      </trkpt>
      <trkpt lat="44.66515" lon="2.01361">
        <ele>406.29</ele>
        <time>2026-05-16T11:59:21Z</time>
      </trkpt>
      <trkpt lat="44.66491" lon="2.01372">
        <ele>405.33</ele>
        <time>2026-05-16T11:59:37Z</time>
      </trkpt>
      <trkpt lat="44.6648" lon="2.01387">
        <ele>404.85</ele>
        <time>2026-05-16T11:59:48Z</time>
      </trkpt>
      <trkpt lat="44.66479" lon="2.01388">
        <ele>404.85</ele>
        <time>2026-05-16T11:59:49Z</time>
      </trkpt>
      <trkpt lat="44.66477" lon="2.01389">
        <ele>404.85</ele>
        <time>2026-05-16T11:59:50Z</time>
      </trkpt>
      <trkpt lat="44.66476" lon="2.0139">
        <ele>404.85</ele>
        <time>2026-05-16T11:59:51Z</time>
      </trkpt>
      <trkpt lat="44.66467" lon="2.01405">
        <ele>402.93</ele>
        <time>2026-05-16T12:00:02Z</time>
      </trkpt>
      <trkpt lat="44.66467" lon="2.01405">
        <ele>402.93</ele>
        <time>2026-05-16T12:00:03Z</time>
      </trkpt>
      <trkpt lat="44.66465" lon="2.01405">
        <ele>402.93</ele>
        <time>2026-05-16T12:00:04Z</time>
      </trkpt>
      <trkpt lat="44.66464" lon="2.01405">
        <ele>402.93</ele>
        <time>2026-05-16T12:00:05Z</time>
      </trkpt>
      <trkpt lat="44.66463" lon="2.01406">
        <ele>402.93</ele>
        <time>2026-05-16T12:00:06Z</time>
      </trkpt>
      <trkpt lat="44.66461" lon="2.01406">
        <ele>402.93</ele>
        <time>2026-05-16T12:00:07Z</time>
      </trkpt>
      <trkpt lat="44.66448" lon="2.01408">
        <ele>400.53</ele>
        <time>2026-05-16T12:00:18Z</time>
      </trkpt>
      <trkpt lat="44.66447" lon="2.01409">
        <ele>400.05</ele>
        <time>2026-05-16T12:00:19Z</time>
      </trkpt>
      <trkpt lat="44.66445" lon="2.01409">
        <ele>399.57</ele>
        <time>2026-05-16T12:00:20Z</time>
      </trkpt>
      <trkpt lat="44.66445" lon="2.01409">
        <ele>399.08</ele>
        <time>2026-05-16T12:00:21Z</time>
      </trkpt>
      <trkpt lat="44.66443" lon="2.0141">
        <ele>399.08</ele>
        <time>2026-05-16T12:00:22Z</time>
      </trkpt>
      <trkpt lat="44.66442" lon="2.0141">
        <ele>399.08</ele>
        <time>2026-05-16T12:00:23Z</time>
      </trkpt>
      <trkpt lat="44.66425" lon="2.01414">
        <ele>401.01</ele>
        <time>2026-05-16T12:00:38Z</time>
      </trkpt>
      <trkpt lat="44.66423" lon="2.01413">
        <ele>399.57</ele>
        <time>2026-05-16T12:00:40Z</time>
      </trkpt>
      <trkpt lat="44.66399" lon="2.01406">
        <ele>398.12</ele>
        <time>2026-05-16T12:00:55Z</time>
      </trkpt>
      <trkpt lat="44.66386" lon="2.01403">
        <ele>396.68</ele>
        <time>2026-05-16T12:01:06Z</time>
      </trkpt>
      <trkpt lat="44.66385" lon="2.01402">
        <ele>396.68</ele>
        <time>2026-05-16T12:01:07Z</time>
      </trkpt>
      <trkpt lat="44.66383" lon="2.01402">
        <ele>396.68</ele>
        <time>2026-05-16T12:01:08Z</time>
      </trkpt>
      <trkpt lat="44.6638" lon="2.01402">
        <ele>396.68</ele>
        <time>2026-05-16T12:01:10Z</time>
      </trkpt>
      <trkpt lat="44.66364" lon="2.01399">
        <ele>395.72</ele>
        <time>2026-05-16T12:01:23Z</time>
      </trkpt>
      <trkpt lat="44.66353" lon="2.01396">
        <ele>395.24</ele>
        <time>2026-05-16T12:01:30Z</time>
      </trkpt>
      <trkpt lat="44.66343" lon="2.0139">
        <ele>394.28</ele>
        <time>2026-05-16T12:01:39Z</time>
      </trkpt>
      <trkpt lat="44.66342" lon="2.01389">
        <ele>394.28</ele>
        <time>2026-05-16T12:01:40Z</time>
      </trkpt>
      <trkpt lat="44.66324" lon="2.01369">
        <ele>394.28</ele>
        <time>2026-05-16T12:01:56Z</time>
      </trkpt>
      <trkpt lat="44.66315" lon="2.01358">
        <ele>394.28</ele>
        <time>2026-05-16T12:02:05Z</time>
      </trkpt>
      <trkpt lat="44.66314" lon="2.01357">
        <ele>394.28</ele>
        <time>2026-05-16T12:02:06Z</time>
      </trkpt>
      <trkpt lat="44.66312" lon="2.01356">
        <ele>394.28</ele>
        <time>2026-05-16T12:02:07Z</time>
      </trkpt>
      <trkpt lat="44.66293" lon="2.01349">
        <ele>393.8</ele>
        <time>2026-05-16T12:02:21Z</time>
      </trkpt>
      <trkpt lat="44.66288" lon="2.01346">
        <ele>393.8</ele>
        <time>2026-05-16T12:02:28Z</time>
      </trkpt>
      <trkpt lat="44.66286" lon="2.01345">
        <ele>393.8</ele>
        <time>2026-05-16T12:02:29Z</time>
      </trkpt>
      <trkpt lat="44.66265" lon="2.01336">
        <ele>395.24</ele>
        <time>2026-05-16T12:02:42Z</time>
      </trkpt>
      <trkpt lat="44.66247" lon="2.01332">
        <ele>396.2</ele>
        <time>2026-05-16T12:02:57Z</time>
      </trkpt>
      <trkpt lat="44.66228" lon="2.01334">
        <ele>396.2</ele>
        <time>2026-05-16T12:03:12Z</time>
      </trkpt>
      <trkpt lat="44.66207" lon="2.01338">
        <ele>395.72</ele>
        <time>2026-05-16T12:03:27Z</time>
      </trkpt>
      <trkpt lat="44.66202" lon="2.01338">
        <ele>394.28</ele>
        <time>2026-05-16T12:03:30Z</time>
      </trkpt>
      <trkpt lat="44.66187" lon="2.0134">
        <ele>393.8</ele>
        <time>2026-05-16T12:03:44Z</time>
      </trkpt>
      <trkpt lat="44.66184" lon="2.01339">
        <ele>392.84</ele>
        <time>2026-05-16T12:03:47Z</time>
      </trkpt>
      <trkpt lat="44.66181" lon="2.01338">
        <ele>392.84</ele>
        <time>2026-05-16T12:03:49Z</time>
      </trkpt>
      <trkpt lat="44.66161" lon="2.01339">
        <ele>392.36</ele>
        <time>2026-05-16T12:04:05Z</time>
      </trkpt>
      <trkpt lat="44.66159" lon="2.0134">
        <ele>392.36</ele>
        <time>2026-05-16T12:04:06Z</time>
      </trkpt>
      <trkpt lat="44.66138" lon="2.01357">
        <ele>390.91</ele>
        <time>2026-05-16T12:04:21Z</time>
      </trkpt>
      <trkpt lat="44.66133" lon="2.0136">
        <ele>390.91</ele>
        <time>2026-05-16T12:04:27Z</time>
      </trkpt>
      <trkpt lat="44.66132" lon="2.01361">
        <ele>390.43</ele>
        <time>2026-05-16T12:04:28Z</time>
      </trkpt>
      <trkpt lat="44.66128" lon="2.01364">
        <ele>390.43</ele>
        <time>2026-05-16T12:04:31Z</time>
      </trkpt>
      <trkpt lat="44.66125" lon="2.01366">
        <ele>390.43</ele>
        <time>2026-05-16T12:04:33Z</time>
      </trkpt>
      <trkpt lat="44.66124" lon="2.01366">
        <ele>390.43</ele>
        <time>2026-05-16T12:04:34Z</time>
      </trkpt>
      <trkpt lat="44.66122" lon="2.01366">
        <ele>389.95</ele>
        <time>2026-05-16T12:04:35Z</time>
      </trkpt>
      <trkpt lat="44.6612" lon="2.01366">
        <ele>389.95</ele>
        <time>2026-05-16T12:04:36Z</time>
      </trkpt>
      <trkpt lat="44.66118" lon="2.01365">
        <ele>389.95</ele>
        <time>2026-05-16T12:04:37Z</time>
      </trkpt>
      <trkpt lat="44.66097" lon="2.01365">
        <ele>388.51</ele>
        <time>2026-05-16T12:04:53Z</time>
      </trkpt>
      <trkpt lat="44.66075" lon="2.01367">
        <ele>387.55</ele>
        <time>2026-05-16T12:05:09Z</time>
      </trkpt>
      <trkpt lat="44.66051" lon="2.01374">
        <ele>386.59</ele>
        <time>2026-05-16T12:05:25Z</time>
      </trkpt>
      <trkpt lat="44.66037" lon="2.01384">
        <ele>385.63</ele>
        <time>2026-05-16T12:05:40Z</time>
      </trkpt>
      <trkpt lat="44.66034" lon="2.01387">
        <ele>385.63</ele>
        <time>2026-05-16T12:05:43Z</time>
      </trkpt>
      <trkpt lat="44.66033" lon="2.01387">
        <ele>385.63</ele>
        <time>2026-05-16T12:05:44Z</time>
      </trkpt>
      <trkpt lat="44.66019" lon="2.01399">
        <ele>385.15</ele>
        <time>2026-05-16T12:05:57Z</time>
      </trkpt>
      <trkpt lat="44.65994" lon="2.01408">
        <ele>383.7</ele>
        <time>2026-05-16T12:06:16Z</time>
      </trkpt>
      <trkpt lat="44.65989" lon="2.01408">
        <ele>383.7</ele>
        <time>2026-05-16T12:06:20Z</time>
      </trkpt>
      <trkpt lat="44.65971" lon="2.01408">
        <ele>382.26</ele>
        <time>2026-05-16T12:06:33Z</time>
      </trkpt>
      <trkpt lat="44.65968" lon="2.01407">
        <ele>382.26</ele>
        <time>2026-05-16T12:06:35Z</time>
      </trkpt>
      <trkpt lat="44.65951" lon="2.01395">
        <ele>380.82</ele>
        <time>2026-05-16T12:06:49Z</time>
      </trkpt>
      <trkpt lat="44.65937" lon="2.01381">
        <ele>379.86</ele>
        <time>2026-05-16T12:07:02Z</time>
      </trkpt>
      <trkpt lat="44.65932" lon="2.01381">
        <ele>379.86</ele>
        <time>2026-05-16T12:07:05Z</time>
      </trkpt>
      <trkpt lat="44.6593" lon="2.01381">
        <ele>379.86</ele>
        <time>2026-05-16T12:07:06Z</time>
      </trkpt>
      <trkpt lat="44.65909" lon="2.01375">
        <ele>377.94</ele>
        <time>2026-05-16T12:07:24Z</time>
      </trkpt>
      <trkpt lat="44.65894" lon="2.01377">
        <ele>375.53</ele>
        <time>2026-05-16T12:07:36Z</time>
      </trkpt>
      <trkpt lat="44.65892" lon="2.01379">
        <ele>375.53</ele>
        <time>2026-05-16T12:07:37Z</time>
      </trkpt>
      <trkpt lat="44.6589" lon="2.0138">
        <ele>375.05</ele>
        <time>2026-05-16T12:07:38Z</time>
      </trkpt>
      <trkpt lat="44.65878" lon="2.01383">
        <ele>375.05</ele>
        <time>2026-05-16T12:07:46Z</time>
      </trkpt>
      <trkpt lat="44.65877" lon="2.01384">
        <ele>374.09</ele>
        <time>2026-05-16T12:07:47Z</time>
      </trkpt>
      <trkpt lat="44.65875" lon="2.01385">
        <ele>374.09</ele>
        <time>2026-05-16T12:07:49Z</time>
      </trkpt>
      <trkpt lat="44.65869" lon="2.01391">
        <ele>373.61</ele>
        <time>2026-05-16T12:07:54Z</time>
      </trkpt>
      <trkpt lat="44.65863" lon="2.01396">
        <ele>373.13</ele>
        <time>2026-05-16T12:08:00Z</time>
      </trkpt>
      <trkpt lat="44.65858" lon="2.01401">
        <ele>372.65</ele>
        <time>2026-05-16T12:08:05Z</time>
      </trkpt>
      <trkpt lat="44.65851" lon="2.0141">
        <ele>371.69</ele>
        <time>2026-05-16T12:08:12Z</time>
      </trkpt>
      <trkpt lat="44.65833" lon="2.01427">
        <ele>369.28</ele>
        <time>2026-05-16T12:08:28Z</time>
      </trkpt>
      <trkpt lat="44.65813" lon="2.01444">
        <ele>368.32</ele>
        <time>2026-05-16T12:08:43Z</time>
      </trkpt>
      <trkpt lat="44.65803" lon="2.01455">
        <ele>367.36</ele>
        <time>2026-05-16T12:08:54Z</time>
      </trkpt>
      <trkpt lat="44.658" lon="2.01457">
        <ele>367.36</ele>
        <time>2026-05-16T12:08:56Z</time>
      </trkpt>
      <trkpt lat="44.65784" lon="2.01468">
        <ele>365.92</ele>
        <time>2026-05-16T12:09:10Z</time>
      </trkpt>
      <trkpt lat="44.65783" lon="2.01469">
        <ele>365.44</ele>
        <time>2026-05-16T12:09:11Z</time>
      </trkpt>
      <trkpt lat="44.65771" lon="2.01479">
        <ele>364.48</ele>
        <time>2026-05-16T12:09:24Z</time>
      </trkpt>
      <trkpt lat="44.65769" lon="2.01479">
        <ele>364</ele>
        <time>2026-05-16T12:09:56Z</time>
      </trkpt>
      <trkpt lat="44.6575" lon="2.01492">
        <ele>363.52</ele>
        <time>2026-05-16T12:10:14Z</time>
      </trkpt>
      <trkpt lat="44.65741" lon="2.01495">
        <ele>363.04</ele>
        <time>2026-05-16T12:10:22Z</time>
      </trkpt>
      <trkpt lat="44.65739" lon="2.01497">
        <ele>363.04</ele>
        <time>2026-05-16T12:10:24Z</time>
      </trkpt>
      <trkpt lat="44.65735" lon="2.01499">
        <ele>363.04</ele>
        <time>2026-05-16T12:10:27Z</time>
      </trkpt>
      <trkpt lat="44.65734" lon="2.01502">
        <ele>363.04</ele>
        <time>2026-05-16T12:10:28Z</time>
      </trkpt>
      <trkpt lat="44.65733" lon="2.01504">
        <ele>362.55</ele>
        <time>2026-05-16T12:10:29Z</time>
      </trkpt>
      <trkpt lat="44.65732" lon="2.01505">
        <ele>362.55</ele>
        <time>2026-05-16T12:10:30Z</time>
      </trkpt>
      <trkpt lat="44.6573" lon="2.01508">
        <ele>362.07</ele>
        <time>2026-05-16T12:10:32Z</time>
      </trkpt>
      <trkpt lat="44.6573" lon="2.01509">
        <ele>361.59</ele>
        <time>2026-05-16T12:10:33Z</time>
      </trkpt>
      <trkpt lat="44.65722" lon="2.01515">
        <ele>360.15</ele>
        <time>2026-05-16T12:10:40Z</time>
      </trkpt>
      <trkpt lat="44.65704" lon="2.01517">
        <ele>357.27</ele>
        <time>2026-05-16T12:10:56Z</time>
      </trkpt>
      <trkpt lat="44.65679" lon="2.01516">
        <ele>353.9</ele>
        <time>2026-05-16T12:11:11Z</time>
      </trkpt>
      <trkpt lat="44.65673" lon="2.01517">
        <ele>353.42</ele>
        <time>2026-05-16T12:11:15Z</time>
      </trkpt>
      <trkpt lat="44.6567" lon="2.01517">
        <ele>352.46</ele>
        <time>2026-05-16T12:11:18Z</time>
      </trkpt>
      <trkpt lat="44.65652" lon="2.01515">
        <ele>350.06</ele>
        <time>2026-05-16T12:11:31Z</time>
      </trkpt>
      <trkpt lat="44.65641" lon="2.01511">
        <ele>348.62</ele>
        <time>2026-05-16T12:11:39Z</time>
      </trkpt>
      <trkpt lat="44.65639" lon="2.0151">
        <ele>347.65</ele>
        <time>2026-05-16T12:11:40Z</time>
      </trkpt>
      <trkpt lat="44.6562" lon="2.01502">
        <ele>345.25</ele>
        <time>2026-05-16T12:11:55Z</time>
      </trkpt>
      <trkpt lat="44.65599" lon="2.01494">
        <ele>341.41</ele>
        <time>2026-05-16T12:12:10Z</time>
      </trkpt>
      <trkpt lat="44.65581" lon="2.01492">
        <ele>339</ele>
        <time>2026-05-16T12:12:25Z</time>
      </trkpt>
      <trkpt lat="44.65571" lon="2.01493">
        <ele>337.08</ele>
        <time>2026-05-16T12:12:32Z</time>
      </trkpt>
      <trkpt lat="44.65563" lon="2.01494">
        <ele>336.12</ele>
        <time>2026-05-16T12:12:38Z</time>
      </trkpt>
      <trkpt lat="44.6556" lon="2.01505">
        <ele>335.16</ele>
        <time>2026-05-16T12:12:54Z</time>
      </trkpt>
      <trkpt lat="44.65555" lon="2.01502">
        <ele>334.2</ele>
        <time>2026-05-16T12:13:03Z</time>
      </trkpt>
      <trkpt lat="44.65553" lon="2.01502">
        <ele>334.2</ele>
        <time>2026-05-16T12:13:04Z</time>
      </trkpt>
      <trkpt lat="44.65551" lon="2.01502">
        <ele>334.2</ele>
        <time>2026-05-16T12:13:05Z</time>
      </trkpt>
      <trkpt lat="44.6554" lon="2.01508">
        <ele>331.79</ele>
        <time>2026-05-16T12:13:16Z</time>
      </trkpt>
      <trkpt lat="44.65523" lon="2.01523">
        <ele>329.87</ele>
        <time>2026-05-16T12:13:31Z</time>
      </trkpt>
      <trkpt lat="44.65519" lon="2.01528">
        <ele>328.91</ele>
        <time>2026-05-16T12:13:35Z</time>
      </trkpt>
      <trkpt lat="44.65517" lon="2.01528">
        <ele>328.91</ele>
        <time>2026-05-16T12:13:36Z</time>
      </trkpt>
      <trkpt lat="44.65515" lon="2.01529">
        <ele>328.43</ele>
        <time>2026-05-16T12:13:37Z</time>
      </trkpt>
      <trkpt lat="44.65498" lon="2.01546">
        <ele>326.5</ele>
        <time>2026-05-16T12:13:52Z</time>
      </trkpt>
      <trkpt lat="44.65479" lon="2.01562">
        <ele>324.58</ele>
        <time>2026-05-16T12:14:07Z</time>
      </trkpt>
      <trkpt lat="44.65475" lon="2.01566">
        <ele>324.1</ele>
        <time>2026-05-16T12:14:10Z</time>
      </trkpt>
      <trkpt lat="44.65472" lon="2.01568">
        <ele>323.62</ele>
        <time>2026-05-16T12:14:12Z</time>
      </trkpt>
      <trkpt lat="44.65463" lon="2.01575">
        <ele>322.66</ele>
        <time>2026-05-16T12:14:19Z</time>
      </trkpt>
      <trkpt lat="44.6546" lon="2.01578">
        <ele>322.18</ele>
        <time>2026-05-16T12:14:22Z</time>
      </trkpt>
      <trkpt lat="44.65458" lon="2.0158">
        <ele>322.18</ele>
        <time>2026-05-16T12:14:23Z</time>
      </trkpt>
      <trkpt lat="44.6545" lon="2.01587">
        <ele>320.74</ele>
        <time>2026-05-16T12:14:30Z</time>
      </trkpt>
      <trkpt lat="44.65448" lon="2.01588">
        <ele>320.74</ele>
        <time>2026-05-16T12:14:31Z</time>
      </trkpt>
      <trkpt lat="44.65429" lon="2.01601">
        <ele>317.85</ele>
        <time>2026-05-16T12:14:49Z</time>
      </trkpt>
      <trkpt lat="44.65411" lon="2.01613">
        <ele>316.41</ele>
        <time>2026-05-16T12:15:03Z</time>
      </trkpt>
      <trkpt lat="44.65391" lon="2.01622">
        <ele>314.49</ele>
        <time>2026-05-16T12:15:19Z</time>
      </trkpt>
      <trkpt lat="44.65373" lon="2.01631">
        <ele>313.05</ele>
        <time>2026-05-16T12:15:33Z</time>
      </trkpt>
      <trkpt lat="44.65353" lon="2.01637">
        <ele>310.64</ele>
        <time>2026-05-16T12:15:46Z</time>
      </trkpt>
      <trkpt lat="44.65351" lon="2.01637">
        <ele>310.64</ele>
        <time>2026-05-16T12:15:47Z</time>
      </trkpt>
      <trkpt lat="44.65328" lon="2.01642">
        <ele>308.72</ele>
        <time>2026-05-16T12:16:02Z</time>
      </trkpt>
      <trkpt lat="44.65309" lon="2.01644">
        <ele>306.8</ele>
        <time>2026-05-16T12:16:17Z</time>
      </trkpt>
      <trkpt lat="44.6529" lon="2.01642">
        <ele>305.36</ele>
        <time>2026-05-16T12:16:29Z</time>
      </trkpt>
      <trkpt lat="44.65284" lon="2.01642">
        <ele>304.88</ele>
        <time>2026-05-16T12:16:34Z</time>
      </trkpt>
      <trkpt lat="44.65283" lon="2.01642">
        <ele>304.39</ele>
        <time>2026-05-16T12:16:35Z</time>
      </trkpt>
      <trkpt lat="44.65281" lon="2.01641">
        <ele>304.39</ele>
        <time>2026-05-16T12:16:36Z</time>
      </trkpt>
      <trkpt lat="44.65266" lon="2.0164">
        <ele>301.99</ele>
        <time>2026-05-16T12:16:47Z</time>
      </trkpt>
      <trkpt lat="44.65249" lon="2.01644">
        <ele>300.07</ele>
        <time>2026-05-16T12:17:00Z</time>
      </trkpt>
      <trkpt lat="44.65241" lon="2.01645">
        <ele>299.11</ele>
        <time>2026-05-16T12:17:06Z</time>
      </trkpt>
      <trkpt lat="44.65237" lon="2.01645">
        <ele>298.15</ele>
        <time>2026-05-16T12:17:09Z</time>
      </trkpt>
      <trkpt lat="44.65215" lon="2.01648">
        <ele>296.7</ele>
        <time>2026-05-16T12:17:23Z</time>
      </trkpt>
      <trkpt lat="44.65196" lon="2.01649">
        <ele>294.3</ele>
        <time>2026-05-16T12:17:36Z</time>
      </trkpt>
      <trkpt lat="44.6518" lon="2.01649">
        <ele>292.86</ele>
        <time>2026-05-16T12:17:48Z</time>
      </trkpt>
      <trkpt lat="44.65165" lon="2.0165">
        <ele>291.42</ele>
        <time>2026-05-16T12:17:59Z</time>
      </trkpt>
      <trkpt lat="44.6515" lon="2.01651">
        <ele>289.49</ele>
        <time>2026-05-16T12:18:10Z</time>
      </trkpt>
      <trkpt lat="44.65135" lon="2.0165">
        <ele>287.57</ele>
        <time>2026-05-16T12:18:20Z</time>
      </trkpt>
      <trkpt lat="44.6513" lon="2.0165">
        <ele>286.61</ele>
        <time>2026-05-16T12:18:24Z</time>
      </trkpt>
      <trkpt lat="44.65129" lon="2.01651">
        <ele>286.61</ele>
        <time>2026-05-16T12:18:25Z</time>
      </trkpt>
      <trkpt lat="44.65127" lon="2.0165">
        <ele>286.61</ele>
        <time>2026-05-16T12:18:26Z</time>
      </trkpt>
      <trkpt lat="44.65126" lon="2.0165">
        <ele>286.13</ele>
        <time>2026-05-16T12:18:27Z</time>
      </trkpt>
      <trkpt lat="44.65125" lon="2.0165">
        <ele>286.13</ele>
        <time>2026-05-16T12:18:28Z</time>
      </trkpt>
      <trkpt lat="44.65106" lon="2.01653">
        <ele>282.77</ele>
        <time>2026-05-16T12:18:42Z</time>
      </trkpt>
      <trkpt lat="44.65087" lon="2.01656">
        <ele>280.84</ele>
        <time>2026-05-16T12:18:55Z</time>
      </trkpt>
      <trkpt lat="44.65071" lon="2.0166">
        <ele>278.44</ele>
        <time>2026-05-16T12:19:08Z</time>
      </trkpt>
      <trkpt lat="44.65066" lon="2.0166">
        <ele>277.96</ele>
        <time>2026-05-16T12:19:12Z</time>
      </trkpt>
      <trkpt lat="44.6505" lon="2.01661">
        <ele>275.56</ele>
        <time>2026-05-16T12:19:25Z</time>
      </trkpt>
      <trkpt lat="44.65032" lon="2.01662">
        <ele>274.11</ele>
        <time>2026-05-16T12:19:39Z</time>
      </trkpt>
      <trkpt lat="44.6503" lon="2.01663">
        <ele>274.11</ele>
        <time>2026-05-16T12:19:40Z</time>
      </trkpt>
      <trkpt lat="44.65028" lon="2.01664">
        <ele>274.11</ele>
        <time>2026-05-16T12:19:41Z</time>
      </trkpt>
      <trkpt lat="44.6501" lon="2.01678">
        <ele>273.15</ele>
        <time>2026-05-16T12:19:54Z</time>
      </trkpt>
      <trkpt lat="44.64998" lon="2.01698">
        <ele>271.23</ele>
        <time>2026-05-16T12:20:07Z</time>
      </trkpt>
      <trkpt lat="44.64995" lon="2.01704">
        <ele>270.27</ele>
        <time>2026-05-16T12:20:11Z</time>
      </trkpt>
      <trkpt lat="44.64986" lon="2.01723">
        <ele>270.27</ele>
        <time>2026-05-16T12:20:24Z</time>
      </trkpt>
      <trkpt lat="44.64986" lon="2.01725">
        <ele>269.79</ele>
        <time>2026-05-16T12:20:25Z</time>
      </trkpt>
      <trkpt lat="44.64975" lon="2.01745">
        <ele>268.35</ele>
        <time>2026-05-16T12:20:39Z</time>
      </trkpt>
      <trkpt lat="44.6496" lon="2.01766">
        <ele>267.86</ele>
        <time>2026-05-16T12:20:54Z</time>
      </trkpt>
      <trkpt lat="44.64958" lon="2.01771">
        <ele>267.38</ele>
        <time>2026-05-16T12:20:57Z</time>
      </trkpt>
      <trkpt lat="44.64957" lon="2.01773">
        <ele>267.38</ele>
        <time>2026-05-16T12:20:58Z</time>
      </trkpt>
      <trkpt lat="44.64951" lon="2.01783">
        <ele>266.9</ele>
        <time>2026-05-16T12:21:03Z</time>
      </trkpt>
      <trkpt lat="44.6495" lon="2.01784">
        <ele>266.9</ele>
        <time>2026-05-16T12:21:04Z</time>
      </trkpt>
      <trkpt lat="44.64948" lon="2.01789">
        <ele>266.9</ele>
        <time>2026-05-16T12:21:07Z</time>
      </trkpt>
      <trkpt lat="44.64947" lon="2.01791">
        <ele>266.9</ele>
        <time>2026-05-16T12:21:08Z</time>
      </trkpt>
      <trkpt lat="44.64934" lon="2.01812">
        <ele>265.46</ele>
        <time>2026-05-16T12:21:21Z</time>
      </trkpt>
      <trkpt lat="44.64923" lon="2.01834">
        <ele>265.46</ele>
        <time>2026-05-16T12:21:35Z</time>
      </trkpt>
      <trkpt lat="44.64913" lon="2.01854">
        <ele>264.98</ele>
        <time>2026-05-16T12:21:50Z</time>
      </trkpt>
      <trkpt lat="44.64902" lon="2.01885">
        <ele>264.98</ele>
        <time>2026-05-16T12:22:06Z</time>
      </trkpt>
      <trkpt lat="44.6489" lon="2.01903">
        <ele>264.5</ele>
        <time>2026-05-16T12:22:20Z</time>
      </trkpt>
      <trkpt lat="44.64881" lon="2.0192">
        <ele>264.5</ele>
        <time>2026-05-16T12:22:33Z</time>
      </trkpt>
      <trkpt lat="44.64864" lon="2.01949">
        <ele>264.02</ele>
        <time>2026-05-16T12:22:49Z</time>
      </trkpt>
      <trkpt lat="44.6485" lon="2.0198">
        <ele>263.54</ele>
        <time>2026-05-16T12:23:06Z</time>
      </trkpt>
      <trkpt lat="44.64837" lon="2.01994">
        <ele>263.06</ele>
        <time>2026-05-16T12:23:21Z</time>
      </trkpt>
      <trkpt lat="44.64818" lon="2.02009">
        <ele>262.58</ele>
        <time>2026-05-16T12:23:35Z</time>
      </trkpt>
      <trkpt lat="44.64794" lon="2.02025">
        <ele>262.58</ele>
        <time>2026-05-16T12:23:53Z</time>
      </trkpt>
      <trkpt lat="44.64777" lon="2.02037">
        <ele>262.1</ele>
        <time>2026-05-16T12:24:08Z</time>
      </trkpt>
      <trkpt lat="44.6476" lon="2.02043">
        <ele>262.1</ele>
        <time>2026-05-16T12:24:22Z</time>
      </trkpt>
      <trkpt lat="44.6474" lon="2.02054">
        <ele>262.1</ele>
        <time>2026-05-16T12:24:37Z</time>
      </trkpt>
      <trkpt lat="44.64721" lon="2.02061">
        <ele>262.1</ele>
        <time>2026-05-16T12:24:51Z</time>
      </trkpt>
      <trkpt lat="44.647" lon="2.02069">
        <ele>261.62</ele>
        <time>2026-05-16T12:25:07Z</time>
      </trkpt>
      <trkpt lat="44.64677" lon="2.02075">
        <ele>261.14</ele>
        <time>2026-05-16T12:25:22Z</time>
      </trkpt>
      <trkpt lat="44.64659" lon="2.02079">
        <ele>260.65</ele>
        <time>2026-05-16T12:25:37Z</time>
      </trkpt>
      <trkpt lat="44.64633" lon="2.02087">
        <ele>260.17</ele>
        <time>2026-05-16T12:25:54Z</time>
      </trkpt>
      <trkpt lat="44.64615" lon="2.02102">
        <ele>259.69</ele>
        <time>2026-05-16T12:26:10Z</time>
      </trkpt>
      <trkpt lat="44.646" lon="2.02112">
        <ele>259.21</ele>
        <time>2026-05-16T12:26:23Z</time>
      </trkpt>
      <trkpt lat="44.64578" lon="2.02128">
        <ele>259.21</ele>
        <time>2026-05-16T12:26:38Z</time>
      </trkpt>
      <trkpt lat="44.64569" lon="2.02133">
        <ele>258.73</ele>
        <time>2026-05-16T12:26:48Z</time>
      </trkpt>
      <trkpt lat="44.64568" lon="2.02135">
        <ele>258.73</ele>
        <time>2026-05-16T12:26:49Z</time>
      </trkpt>
      <trkpt lat="44.64547" lon="2.0215">
        <ele>258.73</ele>
        <time>2026-05-16T12:27:03Z</time>
      </trkpt>
      <trkpt lat="44.64535" lon="2.02168">
        <ele>258.73</ele>
        <time>2026-05-16T12:27:17Z</time>
      </trkpt>
      <trkpt lat="44.64528" lon="2.02177">
        <ele>259.69</ele>
        <time>2026-05-16T12:27:24Z</time>
      </trkpt>
      <trkpt lat="44.64508" lon="2.02192">
        <ele>258.25</ele>
        <time>2026-05-16T12:27:41Z</time>
      </trkpt>
      <trkpt lat="44.64489" lon="2.02207">
        <ele>257.77</ele>
        <time>2026-05-16T12:27:57Z</time>
      </trkpt>
      <trkpt lat="44.64473" lon="2.02217">
        <ele>257.77</ele>
        <time>2026-05-16T12:28:11Z</time>
      </trkpt>
      <trkpt lat="44.64448" lon="2.02228">
        <ele>257.77</ele>
        <time>2026-05-16T12:28:27Z</time>
      </trkpt>
      <trkpt lat="44.64437" lon="2.02234">
        <ele>258.73</ele>
        <time>2026-05-16T12:28:36Z</time>
      </trkpt>
      <trkpt lat="44.64425" lon="2.02245">
        <ele>259.21</ele>
        <time>2026-05-16T12:28:51Z</time>
      </trkpt>
      <trkpt lat="44.64405" lon="2.02261">
        <ele>259.21</ele>
        <time>2026-05-16T12:29:07Z</time>
      </trkpt>
      <trkpt lat="44.64383" lon="2.02277">
        <ele>259.21</ele>
        <time>2026-05-16T12:29:23Z</time>
      </trkpt>
      <trkpt lat="44.64375" lon="2.02288">
        <ele>257.77</ele>
        <time>2026-05-16T12:29:33Z</time>
      </trkpt>
      <trkpt lat="44.64373" lon="2.02289">
        <ele>257.77</ele>
        <time>2026-05-16T12:29:34Z</time>
      </trkpt>
      <trkpt lat="44.64349" lon="2.02304">
        <ele>257.29</ele>
        <time>2026-05-16T12:29:50Z</time>
      </trkpt>
      <trkpt lat="44.64342" lon="2.02312">
        <ele>257.29</ele>
        <time>2026-05-16T12:29:59Z</time>
      </trkpt>
      <trkpt lat="44.6434" lon="2.02314">
        <ele>256.81</ele>
        <time>2026-05-16T12:30:01Z</time>
      </trkpt>
      <trkpt lat="44.64339" lon="2.02315">
        <ele>256.81</ele>
        <time>2026-05-16T12:30:02Z</time>
      </trkpt>
      <trkpt lat="44.64338" lon="2.02316">
        <ele>256.81</ele>
        <time>2026-05-16T12:30:03Z</time>
      </trkpt>
      <trkpt lat="44.64336" lon="2.02317">
        <ele>256.81</ele>
        <time>2026-05-16T12:30:04Z</time>
      </trkpt>
      <trkpt lat="44.64334" lon="2.02317">
        <ele>257.29</ele>
        <time>2026-05-16T12:30:05Z</time>
      </trkpt>
      <trkpt lat="44.64327" lon="2.02321">
        <ele>256.81</ele>
        <time>2026-05-16T12:30:10Z</time>
      </trkpt>
      <trkpt lat="44.64326" lon="2.02322">
        <ele>256.81</ele>
        <time>2026-05-16T12:30:11Z</time>
      </trkpt>
      <trkpt lat="44.64324" lon="2.02322">
        <ele>257.29</ele>
        <time>2026-05-16T12:30:12Z</time>
      </trkpt>
      <trkpt lat="44.6431" lon="2.02329">
        <ele>256.81</ele>
        <time>2026-05-16T12:30:25Z</time>
      </trkpt>
      <trkpt lat="44.64309" lon="2.0233">
        <ele>256.81</ele>
        <time>2026-05-16T12:30:26Z</time>
      </trkpt>
      <trkpt lat="44.64308" lon="2.0233">
        <ele>256.81</ele>
        <time>2026-05-16T12:30:27Z</time>
      </trkpt>
      <trkpt lat="44.64286" lon="2.02347">
        <ele>256.81</ele>
        <time>2026-05-16T12:30:41Z</time>
      </trkpt>
      <trkpt lat="44.64275" lon="2.02355">
        <ele>256.81</ele>
        <time>2026-05-16T12:30:53Z</time>
      </trkpt>
      <trkpt lat="44.64274" lon="2.02357">
        <ele>256.33</ele>
        <time>2026-05-16T12:30:54Z</time>
      </trkpt>
      <trkpt lat="44.64266" lon="2.02362">
        <ele>256.33</ele>
        <time>2026-05-16T12:31:07Z</time>
      </trkpt>
      <trkpt lat="44.64263" lon="2.02354">
        <ele>256.33</ele>
        <time>2026-05-16T12:31:40Z</time>
      </trkpt>
      <trkpt lat="44.64262" lon="2.02355">
        <ele>256.33</ele>
        <time>2026-05-16T12:31:41Z</time>
      </trkpt>
      <trkpt lat="44.6426" lon="2.02357">
        <ele>256.33</ele>
        <time>2026-05-16T12:31:42Z</time>
      </trkpt>
      <trkpt lat="44.64259" lon="2.02359">
        <ele>256.33</ele>
        <time>2026-05-16T12:31:43Z</time>
      </trkpt>
      <trkpt lat="44.64257" lon="2.0236">
        <ele>256.33</ele>
        <time>2026-05-16T12:31:44Z</time>
      </trkpt>
      <trkpt lat="44.64256" lon="2.02361">
        <ele>256.33</ele>
        <time>2026-05-16T12:31:45Z</time>
      </trkpt>
      <trkpt lat="44.64239" lon="2.02373">
        <ele>256.33</ele>
        <time>2026-05-16T12:32:00Z</time>
      </trkpt>
      <trkpt lat="44.64216" lon="2.02388">
        <ele>256.33</ele>
        <time>2026-05-16T12:32:15Z</time>
      </trkpt>
      <trkpt lat="44.64207" lon="2.02404">
        <ele>257.77</ele>
        <time>2026-05-16T12:32:29Z</time>
      </trkpt>
      <trkpt lat="44.64199" lon="2.02425">
        <ele>258.73</ele>
        <time>2026-05-16T12:32:41Z</time>
      </trkpt>
      <trkpt lat="44.64198" lon="2.02427">
        <ele>258.73</ele>
        <time>2026-05-16T12:32:42Z</time>
      </trkpt>
      <trkpt lat="44.64193" lon="2.02453">
        <ele>259.21</ele>
        <time>2026-05-16T12:32:56Z</time>
      </trkpt>
      <trkpt lat="44.64186" lon="2.02458">
        <ele>257.77</ele>
        <time>2026-05-16T12:33:02Z</time>
      </trkpt>
      <trkpt lat="44.64184" lon="2.0246">
        <ele>257.77</ele>
        <time>2026-05-16T12:33:03Z</time>
      </trkpt>
      <trkpt lat="44.64183" lon="2.02461">
        <ele>257.77</ele>
        <time>2026-05-16T12:33:04Z</time>
      </trkpt>
      <trkpt lat="44.64182" lon="2.02463">
        <ele>257.29</ele>
        <time>2026-05-16T12:33:05Z</time>
      </trkpt>
      <trkpt lat="44.64181" lon="2.02465">
        <ele>257.29</ele>
        <time>2026-05-16T12:33:06Z</time>
      </trkpt>
      <trkpt lat="44.6418" lon="2.02467">
        <ele>257.29</ele>
        <time>2026-05-16T12:33:07Z</time>
      </trkpt>
      <trkpt lat="44.64178" lon="2.02468">
        <ele>257.29</ele>
        <time>2026-05-16T12:33:08Z</time>
      </trkpt>
      <trkpt lat="44.64178" lon="2.02469">
        <ele>257.29</ele>
        <time>2026-05-16T12:33:09Z</time>
      </trkpt>
      <trkpt lat="44.64166" lon="2.02494">
        <ele>255.85</ele>
        <time>2026-05-16T12:33:23Z</time>
      </trkpt>
      <trkpt lat="44.64149" lon="2.02507">
        <ele>253.44</ele>
        <time>2026-05-16T12:33:38Z</time>
      </trkpt>
      <trkpt lat="44.64146" lon="2.0251">
        <ele>252.96</ele>
        <time>2026-05-16T12:33:41Z</time>
      </trkpt>
      <trkpt lat="44.64144" lon="2.02512">
        <ele>252.96</ele>
        <time>2026-05-16T12:33:42Z</time>
      </trkpt>
      <trkpt lat="44.64143" lon="2.02513">
        <ele>252.96</ele>
        <time>2026-05-16T12:33:43Z</time>
      </trkpt>
      <trkpt lat="44.64125" lon="2.0253">
        <ele>251.52</ele>
        <time>2026-05-16T12:33:59Z</time>
      </trkpt>
      <trkpt lat="44.64117" lon="2.02543">
        <ele>251.04</ele>
        <time>2026-05-16T12:34:08Z</time>
      </trkpt>
      <trkpt lat="44.641" lon="2.0257">
        <ele>250.56</ele>
        <time>2026-05-16T12:34:26Z</time>
      </trkpt>
      <trkpt lat="44.64091" lon="2.02585">
        <ele>250.08</ele>
        <time>2026-05-16T12:34:37Z</time>
      </trkpt>
      <trkpt lat="44.6409" lon="2.02587">
        <ele>250.08</ele>
        <time>2026-05-16T12:34:38Z</time>
      </trkpt>
      <trkpt lat="44.64089" lon="2.02589">
        <ele>250.08</ele>
        <time>2026-05-16T12:34:39Z</time>
      </trkpt>
      <trkpt lat="44.64071" lon="2.02605">
        <ele>249.6</ele>
        <time>2026-05-16T12:34:53Z</time>
      </trkpt>
      <trkpt lat="44.6407" lon="2.02605">
        <ele>249.6</ele>
        <time>2026-05-16T12:34:54Z</time>
      </trkpt>
      <trkpt lat="44.6405" lon="2.02614">
        <ele>249.6</ele>
        <time>2026-05-16T12:35:08Z</time>
      </trkpt>
      <trkpt lat="44.64029" lon="2.02622">
        <ele>248.64</ele>
        <time>2026-05-16T12:35:22Z</time>
      </trkpt>
      <trkpt lat="44.64027" lon="2.02622">
        <ele>248.64</ele>
        <time>2026-05-16T12:35:26Z</time>
      </trkpt>
      <trkpt lat="44.64025" lon="2.02623">
        <ele>248.64</ele>
        <time>2026-05-16T12:35:27Z</time>
      </trkpt>
      <trkpt lat="44.64024" lon="2.02623">
        <ele>248.64</ele>
        <time>2026-05-16T12:35:28Z</time>
      </trkpt>
      <trkpt lat="44.64023" lon="2.02623">
        <ele>248.64</ele>
        <time>2026-05-16T12:35:29Z</time>
      </trkpt>
      <trkpt lat="44.64021" lon="2.02624">
        <ele>248.64</ele>
        <time>2026-05-16T12:35:30Z</time>
      </trkpt>
      <trkpt lat="44.6402" lon="2.02626">
        <ele>248.64</ele>
        <time>2026-05-16T12:35:31Z</time>
      </trkpt>
      <trkpt lat="44.64019" lon="2.02627">
        <ele>248.64</ele>
        <time>2026-05-16T12:35:32Z</time>
      </trkpt>
      <trkpt lat="44.64005" lon="2.02641">
        <ele>248.64</ele>
        <time>2026-05-16T12:35:46Z</time>
      </trkpt>
      <trkpt lat="44.63989" lon="2.02659">
        <ele>248.16</ele>
        <time>2026-05-16T12:35:59Z</time>
      </trkpt>
      <trkpt lat="44.63985" lon="2.02664">
        <ele>248.16</ele>
        <time>2026-05-16T12:36:02Z</time>
      </trkpt>
      <trkpt lat="44.63984" lon="2.02666">
        <ele>248.16</ele>
        <time>2026-05-16T12:36:03Z</time>
      </trkpt>
      <trkpt lat="44.63982" lon="2.02668">
        <ele>248.16</ele>
        <time>2026-05-16T12:36:04Z</time>
      </trkpt>
      <trkpt lat="44.63974" lon="2.02678">
        <ele>247.68</ele>
        <time>2026-05-16T12:36:12Z</time>
      </trkpt>
      <trkpt lat="44.63951" lon="2.02703">
        <ele>247.2</ele>
        <time>2026-05-16T12:36:30Z</time>
      </trkpt>
      <trkpt lat="44.6393" lon="2.02709">
        <ele>247.2</ele>
        <time>2026-05-16T12:36:45Z</time>
      </trkpt>
      <trkpt lat="44.63926" lon="2.02709">
        <ele>247.2</ele>
        <time>2026-05-16T12:36:48Z</time>
      </trkpt>
      <trkpt lat="44.63924" lon="2.02709">
        <ele>246.72</ele>
        <time>2026-05-16T12:36:49Z</time>
      </trkpt>
      <trkpt lat="44.63922" lon="2.0271">
        <ele>247.2</ele>
        <time>2026-05-16T12:36:50Z</time>
      </trkpt>
      <trkpt lat="44.6392" lon="2.0271">
        <ele>247.2</ele>
        <time>2026-05-16T12:36:51Z</time>
      </trkpt>
      <trkpt lat="44.63918" lon="2.02711">
        <ele>247.2</ele>
        <time>2026-05-16T12:36:52Z</time>
      </trkpt>
      <trkpt lat="44.63904" lon="2.02726">
        <ele>247.2</ele>
        <time>2026-05-16T12:37:04Z</time>
      </trkpt>
      <trkpt lat="44.63902" lon="2.02726">
        <ele>247.2</ele>
        <time>2026-05-16T12:37:05Z</time>
      </trkpt>
      <trkpt lat="44.639" lon="2.02727">
        <ele>247.2</ele>
        <time>2026-05-16T12:37:06Z</time>
      </trkpt>
      <trkpt lat="44.63888" lon="2.02739">
        <ele>246.72</ele>
        <time>2026-05-16T12:37:17Z</time>
      </trkpt>
      <trkpt lat="44.63885" lon="2.02741">
        <ele>246.72</ele>
        <time>2026-05-16T12:37:19Z</time>
      </trkpt>
      <trkpt lat="44.63869" lon="2.02749">
        <ele>246.72</ele>
        <time>2026-05-16T12:37:32Z</time>
      </trkpt>
      <trkpt lat="44.6386" lon="2.02757">
        <ele>246.72</ele>
        <time>2026-05-16T12:37:40Z</time>
      </trkpt>
      <trkpt lat="44.63859" lon="2.02758">
        <ele>246.72</ele>
        <time>2026-05-16T12:37:41Z</time>
      </trkpt>
      <trkpt lat="44.63844" lon="2.02769">
        <ele>246.72</ele>
        <time>2026-05-16T12:37:54Z</time>
      </trkpt>
      <trkpt lat="44.63825" lon="2.02782">
        <ele>246.72</ele>
        <time>2026-05-16T12:38:10Z</time>
      </trkpt>
      <trkpt lat="44.63823" lon="2.02783">
        <ele>246.72</ele>
        <time>2026-05-16T12:38:11Z</time>
      </trkpt>
      <trkpt lat="44.63822" lon="2.02785">
        <ele>246.72</ele>
        <time>2026-05-16T12:38:12Z</time>
      </trkpt>
      <trkpt lat="44.6382" lon="2.02785">
        <ele>246.72</ele>
        <time>2026-05-16T12:38:13Z</time>
      </trkpt>
      <trkpt lat="44.63819" lon="2.02786">
        <ele>246.72</ele>
        <time>2026-05-16T12:38:14Z</time>
      </trkpt>
      <trkpt lat="44.63817" lon="2.02787">
        <ele>246.72</ele>
        <time>2026-05-16T12:38:15Z</time>
      </trkpt>
      <trkpt lat="44.63797" lon="2.02794">
        <ele>247.2</ele>
        <time>2026-05-16T12:38:30Z</time>
      </trkpt>
      <trkpt lat="44.63774" lon="2.0281">
        <ele>246.23</ele>
        <time>2026-05-16T12:38:49Z</time>
      </trkpt>
      <trkpt lat="44.63755" lon="2.02805">
        <ele>246.72</ele>
        <time>2026-05-16T12:39:04Z</time>
      </trkpt>
      <trkpt lat="44.63749" lon="2.02799">
        <ele>246.72</ele>
        <time>2026-05-16T12:39:11Z</time>
      </trkpt>
      <trkpt lat="44.63735" lon="2.02791">
        <ele>246.72</ele>
        <time>2026-05-16T12:39:22Z</time>
      </trkpt>
      <trkpt lat="44.63733" lon="2.02791">
        <ele>246.72</ele>
        <time>2026-05-16T12:39:23Z</time>
      </trkpt>
      <trkpt lat="44.63731" lon="2.0279">
        <ele>246.72</ele>
        <time>2026-05-16T12:39:24Z</time>
      </trkpt>
      <trkpt lat="44.63729" lon="2.02789">
        <ele>246.72</ele>
        <time>2026-05-16T12:39:25Z</time>
      </trkpt>
      <trkpt lat="44.63709" lon="2.02779">
        <ele>246.23</ele>
        <time>2026-05-16T12:39:39Z</time>
      </trkpt>
      <trkpt lat="44.63703" lon="2.02779">
        <ele>245.75</ele>
        <time>2026-05-16T12:39:43Z</time>
      </trkpt>
      <trkpt lat="44.63702" lon="2.02779">
        <ele>245.75</ele>
        <time>2026-05-16T12:39:44Z</time>
      </trkpt>
      <trkpt lat="44.63689" lon="2.02776">
        <ele>245.75</ele>
        <time>2026-05-16T12:39:54Z</time>
      </trkpt>
      <trkpt lat="44.63683" lon="2.02777">
        <ele>245.75</ele>
        <time>2026-05-16T12:39:58Z</time>
      </trkpt>
      <trkpt lat="44.63663" lon="2.02777">
        <ele>245.27</ele>
        <time>2026-05-16T12:40:12Z</time>
      </trkpt>
      <trkpt lat="44.63645" lon="2.02775">
        <ele>245.27</ele>
        <time>2026-05-16T12:40:25Z</time>
      </trkpt>
      <trkpt lat="44.6364" lon="2.02774">
        <ele>245.27</ele>
        <time>2026-05-16T12:40:29Z</time>
      </trkpt>
      <trkpt lat="44.63638" lon="2.02773">
        <ele>245.27</ele>
        <time>2026-05-16T12:40:30Z</time>
      </trkpt>
      <trkpt lat="44.63626" lon="2.02768">
        <ele>244.31</ele>
        <time>2026-05-16T12:40:39Z</time>
      </trkpt>
      <trkpt lat="44.63625" lon="2.02769">
        <ele>244.31</ele>
        <time>2026-05-16T12:40:40Z</time>
      </trkpt>
      <trkpt lat="44.63604" lon="2.02771">
        <ele>244.31</ele>
        <time>2026-05-16T12:40:57Z</time>
      </trkpt>
      <trkpt lat="44.63581" lon="2.02769">
        <ele>243.83</ele>
        <time>2026-05-16T12:41:11Z</time>
      </trkpt>
      <trkpt lat="44.63576" lon="2.02771">
        <ele>243.83</ele>
        <time>2026-05-16T12:41:15Z</time>
      </trkpt>
      <trkpt lat="44.63574" lon="2.02771">
        <ele>243.83</ele>
        <time>2026-05-16T12:41:16Z</time>
      </trkpt>
      <trkpt lat="44.63573" lon="2.0277">
        <ele>243.83</ele>
        <time>2026-05-16T12:41:17Z</time>
      </trkpt>
      <trkpt lat="44.63571" lon="2.02771">
        <ele>243.83</ele>
        <time>2026-05-16T12:41:18Z</time>
      </trkpt>
      <trkpt lat="44.6357" lon="2.02771">
        <ele>243.83</ele>
        <time>2026-05-16T12:41:19Z</time>
      </trkpt>
      <trkpt lat="44.63565" lon="2.02775">
        <ele>243.35</ele>
        <time>2026-05-16T12:41:23Z</time>
      </trkpt>
      <trkpt lat="44.63556" lon="2.02778">
        <ele>243.35</ele>
        <time>2026-05-16T12:41:30Z</time>
      </trkpt>
      <trkpt lat="44.63554" lon="2.02779">
        <ele>243.35</ele>
        <time>2026-05-16T12:41:31Z</time>
      </trkpt>
      <trkpt lat="44.63553" lon="2.02779">
        <ele>243.35</ele>
        <time>2026-05-16T12:41:32Z</time>
      </trkpt>
      <trkpt lat="44.63551" lon="2.02779">
        <ele>243.35</ele>
        <time>2026-05-16T12:41:33Z</time>
      </trkpt>
      <trkpt lat="44.63549" lon="2.02779">
        <ele>243.35</ele>
        <time>2026-05-16T12:41:34Z</time>
      </trkpt>
      <trkpt lat="44.63547" lon="2.02779">
        <ele>243.35</ele>
        <time>2026-05-16T12:41:35Z</time>
      </trkpt>
      <trkpt lat="44.63545" lon="2.02779">
        <ele>242.87</ele>
        <time>2026-05-16T12:41:36Z</time>
      </trkpt>
      <trkpt lat="44.63536" lon="2.02784">
        <ele>242.87</ele>
        <time>2026-05-16T12:41:43Z</time>
      </trkpt>
      <trkpt lat="44.63534" lon="2.02785">
        <ele>242.87</ele>
        <time>2026-05-16T12:41:44Z</time>
      </trkpt>
      <trkpt lat="44.63515" lon="2.0279">
        <ele>242.39</ele>
        <time>2026-05-16T12:41:58Z</time>
      </trkpt>
      <trkpt lat="44.63511" lon="2.02793">
        <ele>241.91</ele>
        <time>2026-05-16T12:42:01Z</time>
      </trkpt>
      <trkpt lat="44.63508" lon="2.02795">
        <ele>241.91</ele>
        <time>2026-05-16T12:42:03Z</time>
      </trkpt>
      <trkpt lat="44.63506" lon="2.02795">
        <ele>241.91</ele>
        <time>2026-05-16T12:42:04Z</time>
      </trkpt>
      <trkpt lat="44.63505" lon="2.02796">
        <ele>241.91</ele>
        <time>2026-05-16T12:42:05Z</time>
      </trkpt>
      <trkpt lat="44.63504" lon="2.02797">
        <ele>241.43</ele>
        <time>2026-05-16T12:42:06Z</time>
      </trkpt>
      <trkpt lat="44.63502" lon="2.02798">
        <ele>241.43</ele>
        <time>2026-05-16T12:42:07Z</time>
      </trkpt>
      <trkpt lat="44.63486" lon="2.02807">
        <ele>240.95</ele>
        <time>2026-05-16T12:42:20Z</time>
      </trkpt>
      <trkpt lat="44.63467" lon="2.02818">
        <ele>240.95</ele>
        <time>2026-05-16T12:42:34Z</time>
      </trkpt>
      <trkpt lat="44.63459" lon="2.02826">
        <ele>240.47</ele>
        <time>2026-05-16T12:42:46Z</time>
      </trkpt>
      <trkpt lat="44.6344" lon="2.02838">
        <ele>239.99</ele>
        <time>2026-05-16T12:43:00Z</time>
      </trkpt>
      <trkpt lat="44.63422" lon="2.02851">
        <ele>239.51</ele>
        <time>2026-05-16T12:43:14Z</time>
      </trkpt>
      <trkpt lat="44.63408" lon="2.02872">
        <ele>239.02</ele>
        <time>2026-05-16T12:43:29Z</time>
      </trkpt>
      <trkpt lat="44.63398" lon="2.02883">
        <ele>238.54</ele>
        <time>2026-05-16T12:43:36Z</time>
      </trkpt>
      <trkpt lat="44.63397" lon="2.02885">
        <ele>238.54</ele>
        <time>2026-05-16T12:43:37Z</time>
      </trkpt>
      <trkpt lat="44.63396" lon="2.02887">
        <ele>238.54</ele>
        <time>2026-05-16T12:43:38Z</time>
      </trkpt>
      <trkpt lat="44.63377" lon="2.02901">
        <ele>238.06</ele>
        <time>2026-05-16T12:43:54Z</time>
      </trkpt>
      <trkpt lat="44.63362" lon="2.02908">
        <ele>238.06</ele>
        <time>2026-05-16T12:44:07Z</time>
      </trkpt>
      <trkpt lat="44.63339" lon="2.02906">
        <ele>238.06</ele>
        <time>2026-05-16T12:44:24Z</time>
      </trkpt>
      <trkpt lat="44.63333" lon="2.02904">
        <ele>238.06</ele>
        <time>2026-05-16T12:44:28Z</time>
      </trkpt>
      <trkpt lat="44.63331" lon="2.02904">
        <ele>238.06</ele>
        <time>2026-05-16T12:44:29Z</time>
      </trkpt>
      <trkpt lat="44.63317" lon="2.02894">
        <ele>237.1</ele>
        <time>2026-05-16T12:44:42Z</time>
      </trkpt>
      <trkpt lat="44.63305" lon="2.02881">
        <ele>236.62</ele>
        <time>2026-05-16T12:44:54Z</time>
      </trkpt>
      <trkpt lat="44.63291" lon="2.02872">
        <ele>235.66</ele>
        <time>2026-05-16T12:45:05Z</time>
      </trkpt>
      <trkpt lat="44.63276" lon="2.02865">
        <ele>235.18</ele>
        <time>2026-05-16T12:45:20Z</time>
      </trkpt>
      <trkpt lat="44.63258" lon="2.02859">
        <ele>235.18</ele>
        <time>2026-05-16T12:45:32Z</time>
      </trkpt>
      <trkpt lat="44.63235" lon="2.02855">
        <ele>235.18</ele>
        <time>2026-05-16T12:45:48Z</time>
      </trkpt>
      <trkpt lat="44.63217" lon="2.02855">
        <ele>236.14</ele>
        <time>2026-05-16T12:46:04Z</time>
      </trkpt>
      <trkpt lat="44.63212" lon="2.02855">
        <ele>236.62</ele>
        <time>2026-05-16T12:46:07Z</time>
      </trkpt>
      <trkpt lat="44.63203" lon="2.02855">
        <ele>236.62</ele>
        <time>2026-05-16T12:46:14Z</time>
      </trkpt>
      <trkpt lat="44.63202" lon="2.02856">
        <ele>236.62</ele>
        <time>2026-05-16T12:46:15Z</time>
      </trkpt>
      <trkpt lat="44.63193" lon="2.02861">
        <ele>236.62</ele>
        <time>2026-05-16T12:46:24Z</time>
      </trkpt>
      <trkpt lat="44.63191" lon="2.02862">
        <ele>236.62</ele>
        <time>2026-05-16T12:46:25Z</time>
      </trkpt>
      <trkpt lat="44.63169" lon="2.02879">
        <ele>234.7</ele>
        <time>2026-05-16T12:46:41Z</time>
      </trkpt>
      <trkpt lat="44.63167" lon="2.0288">
        <ele>234.7</ele>
        <time>2026-05-16T12:46:42Z</time>
      </trkpt>
      <trkpt lat="44.63166" lon="2.02882">
        <ele>234.7</ele>
        <time>2026-05-16T12:46:43Z</time>
      </trkpt>
      <trkpt lat="44.63164" lon="2.02884">
        <ele>234.7</ele>
        <time>2026-05-16T12:46:44Z</time>
      </trkpt>
      <trkpt lat="44.63163" lon="2.02885">
        <ele>234.7</ele>
        <time>2026-05-16T12:46:45Z</time>
      </trkpt>
      <trkpt lat="44.63143" lon="2.02895">
        <ele>233.74</ele>
        <time>2026-05-16T12:46:58Z</time>
      </trkpt>
      <trkpt lat="44.63125" lon="2.029">
        <ele>232.78</ele>
        <time>2026-05-16T12:47:11Z</time>
      </trkpt>
      <trkpt lat="44.63115" lon="2.02902">
        <ele>232.78</ele>
        <time>2026-05-16T12:47:19Z</time>
      </trkpt>
      <trkpt lat="44.63098" lon="2.02908">
        <ele>231.81</ele>
        <time>2026-05-16T12:47:32Z</time>
      </trkpt>
      <trkpt lat="44.63095" lon="2.02908">
        <ele>231.33</ele>
        <time>2026-05-16T12:47:33Z</time>
      </trkpt>
      <trkpt lat="44.63092" lon="2.02906">
        <ele>231.33</ele>
        <time>2026-05-16T12:47:35Z</time>
      </trkpt>
      <trkpt lat="44.6309" lon="2.02906">
        <ele>231.33</ele>
        <time>2026-05-16T12:47:36Z</time>
      </trkpt>
      <trkpt lat="44.63089" lon="2.02906">
        <ele>231.33</ele>
        <time>2026-05-16T12:47:37Z</time>
      </trkpt>
      <trkpt lat="44.63086" lon="2.02905">
        <ele>230.85</ele>
        <time>2026-05-16T12:47:39Z</time>
      </trkpt>
      <trkpt lat="44.63085" lon="2.02904">
        <ele>230.85</ele>
        <time>2026-05-16T12:47:40Z</time>
      </trkpt>
      <trkpt lat="44.63071" lon="2.02905">
        <ele>230.85</ele>
        <time>2026-05-16T12:47:52Z</time>
      </trkpt>
      <trkpt lat="44.63065" lon="2.02904">
        <ele>230.85</ele>
        <time>2026-05-16T12:47:56Z</time>
      </trkpt>
      <trkpt lat="44.63063" lon="2.02904">
        <ele>230.85</ele>
        <time>2026-05-16T12:47:57Z</time>
      </trkpt>
      <trkpt lat="44.63048" lon="2.02905">
        <ele>230.37</ele>
        <time>2026-05-16T12:48:09Z</time>
      </trkpt>
      <trkpt lat="44.63032" lon="2.02906">
        <ele>230.37</ele>
        <time>2026-05-16T12:48:19Z</time>
      </trkpt>
      <trkpt lat="44.63015" lon="2.02905">
        <ele>231.33</ele>
        <time>2026-05-16T12:48:31Z</time>
      </trkpt>
      <trkpt lat="44.63011" lon="2.02908">
        <ele>231.33</ele>
        <time>2026-05-16T12:48:34Z</time>
      </trkpt>
      <trkpt lat="44.62997" lon="2.02919">
        <ele>231.81</ele>
        <time>2026-05-16T12:48:46Z</time>
      </trkpt>
      <trkpt lat="44.62995" lon="2.02917">
        <ele>231.81</ele>
        <time>2026-05-16T12:48:47Z</time>
      </trkpt>
      <trkpt lat="44.62993" lon="2.0292">
        <ele>231.81</ele>
        <time>2026-05-16T12:48:49Z</time>
      </trkpt>
      <trkpt lat="44.6298" lon="2.02941">
        <ele>231.81</ele>
        <time>2026-05-16T12:49:04Z</time>
      </trkpt>
      <trkpt lat="44.62978" lon="2.02943">
        <ele>231.81</ele>
        <time>2026-05-16T12:49:07Z</time>
      </trkpt>
      <trkpt lat="44.62977" lon="2.02945">
        <ele>231.81</ele>
        <time>2026-05-16T12:49:08Z</time>
      </trkpt>
      <trkpt lat="44.6296" lon="2.02957">
        <ele>231.81</ele>
        <time>2026-05-16T12:49:21Z</time>
      </trkpt>
      <trkpt lat="44.62954" lon="2.02961">
        <ele>230.37</ele>
        <time>2026-05-16T12:49:27Z</time>
      </trkpt>
      <trkpt lat="44.62952" lon="2.02962">
        <ele>230.37</ele>
        <time>2026-05-16T12:49:28Z</time>
      </trkpt>
      <trkpt lat="44.62951" lon="2.02963">
        <ele>230.37</ele>
        <time>2026-05-16T12:49:29Z</time>
      </trkpt>
      <trkpt lat="44.62949" lon="2.02964">
        <ele>230.37</ele>
        <time>2026-05-16T12:49:30Z</time>
      </trkpt>
      <trkpt lat="44.62947" lon="2.02964">
        <ele>230.37</ele>
        <time>2026-05-16T12:49:31Z</time>
      </trkpt>
      <trkpt lat="44.62945" lon="2.02964">
        <ele>230.37</ele>
        <time>2026-05-16T12:49:32Z</time>
      </trkpt>
      <trkpt lat="44.62944" lon="2.02965">
        <ele>230.37</ele>
        <time>2026-05-16T12:49:33Z</time>
      </trkpt>
      <trkpt lat="44.62931" lon="2.02966">
        <ele>229.89</ele>
        <time>2026-05-16T12:49:44Z</time>
      </trkpt>
      <trkpt lat="44.62928" lon="2.02967">
        <ele>229.89</ele>
        <time>2026-05-16T12:49:47Z</time>
      </trkpt>
      <trkpt lat="44.62916" lon="2.02967">
        <ele>229.89</ele>
        <time>2026-05-16T12:49:55Z</time>
      </trkpt>
      <trkpt lat="44.62911" lon="2.02965">
        <ele>229.89</ele>
        <time>2026-05-16T12:49:58Z</time>
      </trkpt>
      <trkpt lat="44.62895" lon="2.02956">
        <ele>230.85</ele>
        <time>2026-05-16T12:50:10Z</time>
      </trkpt>
      <trkpt lat="44.6289" lon="2.02952">
        <ele>230.85</ele>
        <time>2026-05-16T12:50:14Z</time>
      </trkpt>
      <trkpt lat="44.62888" lon="2.02951">
        <ele>230.85</ele>
        <time>2026-05-16T12:50:15Z</time>
      </trkpt>
      <trkpt lat="44.62886" lon="2.0295">
        <ele>230.85</ele>
        <time>2026-05-16T12:50:16Z</time>
      </trkpt>
      <trkpt lat="44.62884" lon="2.02949">
        <ele>230.85</ele>
        <time>2026-05-16T12:50:17Z</time>
      </trkpt>
      <trkpt lat="44.62882" lon="2.02947">
        <ele>230.85</ele>
        <time>2026-05-16T12:50:18Z</time>
      </trkpt>
      <trkpt lat="44.62875" lon="2.02941">
        <ele>229.41</ele>
        <time>2026-05-16T12:50:26Z</time>
      </trkpt>
      <trkpt lat="44.62859" lon="2.02932">
        <ele>228.45</ele>
        <time>2026-05-16T12:50:40Z</time>
      </trkpt>
      <trkpt lat="44.62844" lon="2.02928">
        <ele>228.45</ele>
        <time>2026-05-16T12:50:51Z</time>
      </trkpt>
      <trkpt lat="44.62831" lon="2.02926">
        <ele>227.97</ele>
        <time>2026-05-16T12:51:02Z</time>
      </trkpt>
      <trkpt lat="44.62829" lon="2.02927">
        <ele>227.97</ele>
        <time>2026-05-16T12:51:03Z</time>
      </trkpt>
      <trkpt lat="44.62806" lon="2.02938">
        <ele>227.49</ele>
        <time>2026-05-16T12:51:15Z</time>
      </trkpt>
      <trkpt lat="44.62803" lon="2.02941">
        <ele>227.49</ele>
        <time>2026-05-16T12:51:17Z</time>
      </trkpt>
      <trkpt lat="44.62801" lon="2.02943">
        <ele>227.49</ele>
        <time>2026-05-16T12:51:18Z</time>
      </trkpt>
      <trkpt lat="44.62794" lon="2.02948">
        <ele>227.49</ele>
        <time>2026-05-16T12:51:23Z</time>
      </trkpt>
      <trkpt lat="44.62789" lon="2.02949">
        <ele>227.49</ele>
        <time>2026-05-16T12:51:27Z</time>
      </trkpt>
      <trkpt lat="44.6278" lon="2.02954">
        <ele>226.53</ele>
        <time>2026-05-16T12:51:36Z</time>
      </trkpt>
      <trkpt lat="44.62779" lon="2.02955">
        <ele>226.53</ele>
        <time>2026-05-16T12:51:37Z</time>
      </trkpt>
      <trkpt lat="44.62777" lon="2.02955">
        <ele>226.53</ele>
        <time>2026-05-16T12:51:38Z</time>
      </trkpt>
      <trkpt lat="44.62757" lon="2.02962">
        <ele>225.57</ele>
        <time>2026-05-16T12:51:51Z</time>
      </trkpt>
      <trkpt lat="44.62755" lon="2.02964">
        <ele>225.57</ele>
        <time>2026-05-16T12:51:53Z</time>
      </trkpt>
      <trkpt lat="44.62753" lon="2.02964">
        <ele>225.57</ele>
        <time>2026-05-16T12:51:54Z</time>
      </trkpt>
      <trkpt lat="44.62739" lon="2.0298">
        <ele>225.09</ele>
        <time>2026-05-16T12:52:07Z</time>
      </trkpt>
      <trkpt lat="44.62737" lon="2.02981">
        <ele>225.09</ele>
        <time>2026-05-16T12:52:08Z</time>
      </trkpt>
      <trkpt lat="44.62736" lon="2.02981">
        <ele>225.09</ele>
        <time>2026-05-16T12:52:09Z</time>
      </trkpt>
      <trkpt lat="44.62734" lon="2.02981">
        <ele>225.09</ele>
        <time>2026-05-16T12:52:10Z</time>
      </trkpt>
      <trkpt lat="44.62732" lon="2.02981">
        <ele>225.09</ele>
        <time>2026-05-16T12:52:11Z</time>
      </trkpt>
      <trkpt lat="44.62731" lon="2.02981">
        <ele>225.09</ele>
        <time>2026-05-16T12:52:12Z</time>
      </trkpt>
      <trkpt lat="44.6273" lon="2.02982">
        <ele>225.09</ele>
        <time>2026-05-16T12:52:13Z</time>
      </trkpt>
      <trkpt lat="44.62728" lon="2.02982">
        <ele>225.09</ele>
        <time>2026-05-16T12:52:14Z</time>
      </trkpt>
      <trkpt lat="44.62727" lon="2.02983">
        <ele>225.09</ele>
        <time>2026-05-16T12:52:15Z</time>
      </trkpt>
      <trkpt lat="44.62713" lon="2.02981">
        <ele>225.09</ele>
        <time>2026-05-16T12:52:28Z</time>
      </trkpt>
      <trkpt lat="44.62709" lon="2.02987">
        <ele>224.61</ele>
        <time>2026-05-16T12:52:45Z</time>
      </trkpt>
      <trkpt lat="44.62699" lon="2.02981">
        <ele>224.12</ele>
        <time>2026-05-16T12:53:11Z</time>
      </trkpt>
      <trkpt lat="44.62682" lon="2.02974">
        <ele>224.12</ele>
        <time>2026-05-16T12:53:24Z</time>
      </trkpt>
      <trkpt lat="44.62659" lon="2.02961">
        <ele>224.12</ele>
        <time>2026-05-16T12:53:39Z</time>
      </trkpt>
      <trkpt lat="44.62657" lon="2.02958">
        <ele>224.12</ele>
        <time>2026-05-16T12:53:42Z</time>
      </trkpt>
      <trkpt lat="44.62642" lon="2.02954">
        <ele>224.12</ele>
        <time>2026-05-16T12:53:55Z</time>
      </trkpt>
      <trkpt lat="44.62632" lon="2.02952">
        <ele>224.12</ele>
        <time>2026-05-16T12:54:02Z</time>
      </trkpt>
      <trkpt lat="44.62615" lon="2.02957">
        <ele>223.64</ele>
        <time>2026-05-16T12:54:15Z</time>
      </trkpt>
      <trkpt lat="44.62597" lon="2.02969">
        <ele>222.68</ele>
        <time>2026-05-16T12:54:29Z</time>
      </trkpt>
      <trkpt lat="44.62591" lon="2.02972">
        <ele>222.68</ele>
        <time>2026-05-16T12:54:33Z</time>
      </trkpt>
      <trkpt lat="44.6259" lon="2.02973">
        <ele>222.68</ele>
        <time>2026-05-16T12:54:34Z</time>
      </trkpt>
      <trkpt lat="44.62588" lon="2.02974">
        <ele>222.68</ele>
        <time>2026-05-16T12:54:35Z</time>
      </trkpt>
      <trkpt lat="44.62581" lon="2.02975">
        <ele>222.2</ele>
        <time>2026-05-16T12:54:49Z</time>
      </trkpt>
      <trkpt lat="44.62572" lon="2.02984">
        <ele>223.64</ele>
        <time>2026-05-16T12:55:02Z</time>
      </trkpt>
      <trkpt lat="44.62566" lon="2.02986">
        <ele>223.64</ele>
        <time>2026-05-16T12:55:09Z</time>
      </trkpt>
      <trkpt lat="44.62557" lon="2.02995">
        <ele>223.64</ele>
        <time>2026-05-16T12:55:15Z</time>
      </trkpt>
      <trkpt lat="44.62556" lon="2.02996">
        <ele>223.64</ele>
        <time>2026-05-16T12:55:16Z</time>
      </trkpt>
      <trkpt lat="44.62553" lon="2.02998">
        <ele>223.64</ele>
        <time>2026-05-16T12:55:18Z</time>
      </trkpt>
      <trkpt lat="44.62552" lon="2.02999">
        <ele>223.64</ele>
        <time>2026-05-16T12:55:19Z</time>
      </trkpt>
      <trkpt lat="44.6255" lon="2.03">
        <ele>223.64</ele>
        <time>2026-05-16T12:55:20Z</time>
      </trkpt>
      <trkpt lat="44.62549" lon="2.03">
        <ele>223.64</ele>
        <time>2026-05-16T12:55:21Z</time>
      </trkpt>
      <trkpt lat="44.62547" lon="2.03001">
        <ele>224.12</ele>
        <time>2026-05-16T12:55:22Z</time>
      </trkpt>
      <trkpt lat="44.62535" lon="2.03003">
        <ele>224.12</ele>
        <time>2026-05-16T12:55:31Z</time>
      </trkpt>
      <trkpt lat="44.62534" lon="2.03004">
        <ele>224.12</ele>
        <time>2026-05-16T12:55:32Z</time>
      </trkpt>
      <trkpt lat="44.62533" lon="2.03005">
        <ele>224.12</ele>
        <time>2026-05-16T12:55:33Z</time>
      </trkpt>
      <trkpt lat="44.6252" lon="2.03008">
        <ele>224.12</ele>
        <time>2026-05-16T12:55:41Z</time>
      </trkpt>
      <trkpt lat="44.62512" lon="2.03011">
        <ele>223.16</ele>
        <time>2026-05-16T12:55:47Z</time>
      </trkpt>
      <trkpt lat="44.62511" lon="2.03012">
        <ele>223.16</ele>
        <time>2026-05-16T12:55:48Z</time>
      </trkpt>
      <trkpt lat="44.62509" lon="2.03013">
        <ele>223.16</ele>
        <time>2026-05-16T12:55:49Z</time>
      </trkpt>
      <trkpt lat="44.62502" lon="2.03016">
        <ele>221.72</ele>
        <time>2026-05-16T12:55:54Z</time>
      </trkpt>
      <trkpt lat="44.625" lon="2.03017">
        <ele>221.72</ele>
        <time>2026-05-16T12:55:55Z</time>
      </trkpt>
      <trkpt lat="44.62482" lon="2.03021">
        <ele>219.8</ele>
        <time>2026-05-16T12:56:08Z</time>
      </trkpt>
      <trkpt lat="44.62466" lon="2.0302">
        <ele>218.84</ele>
        <time>2026-05-16T12:56:20Z</time>
      </trkpt>
      <trkpt lat="44.62447" lon="2.03021">
        <ele>217.88</ele>
        <time>2026-05-16T12:56:34Z</time>
      </trkpt>
      <trkpt lat="44.62441" lon="2.03022">
        <ele>217.4</ele>
        <time>2026-05-16T12:56:39Z</time>
      </trkpt>
      <trkpt lat="44.6244" lon="2.03024">
        <ele>217.4</ele>
        <time>2026-05-16T12:56:40Z</time>
      </trkpt>
      <trkpt lat="44.62438" lon="2.03024">
        <ele>217.4</ele>
        <time>2026-05-16T12:56:41Z</time>
      </trkpt>
      <trkpt lat="44.62436" lon="2.03025">
        <ele>217.4</ele>
        <time>2026-05-16T12:56:42Z</time>
      </trkpt>
      <trkpt lat="44.62434" lon="2.03025">
        <ele>217.4</ele>
        <time>2026-05-16T12:56:43Z</time>
      </trkpt>
      <trkpt lat="44.62433" lon="2.03025">
        <ele>217.4</ele>
        <time>2026-05-16T12:56:44Z</time>
      </trkpt>
      <trkpt lat="44.62417" lon="2.03026">
        <ele>216.43</ele>
        <time>2026-05-16T12:56:56Z</time>
      </trkpt>
      <trkpt lat="44.62415" lon="2.03026">
        <ele>216.43</ele>
        <time>2026-05-16T12:56:57Z</time>
      </trkpt>
      <trkpt lat="44.62414" lon="2.03027">
        <ele>216.43</ele>
        <time>2026-05-16T12:56:58Z</time>
      </trkpt>
      <trkpt lat="44.62412" lon="2.03029">
        <ele>216.43</ele>
        <time>2026-05-16T12:56:59Z</time>
      </trkpt>
      <trkpt lat="44.62411" lon="2.0303">
        <ele>216.43</ele>
        <time>2026-05-16T12:57:00Z</time>
      </trkpt>
      <trkpt lat="44.62409" lon="2.0303">
        <ele>216.43</ele>
        <time>2026-05-16T12:57:01Z</time>
      </trkpt>
      <trkpt lat="44.62407" lon="2.0303">
        <ele>216.43</ele>
        <time>2026-05-16T12:57:02Z</time>
      </trkpt>
      <trkpt lat="44.62405" lon="2.03031">
        <ele>216.43</ele>
        <time>2026-05-16T12:57:03Z</time>
      </trkpt>
      <trkpt lat="44.62395" lon="2.03033">
        <ele>217.88</ele>
        <time>2026-05-16T12:57:10Z</time>
      </trkpt>
      <trkpt lat="44.62374" lon="2.03037">
        <ele>219.32</ele>
        <time>2026-05-16T12:57:28Z</time>
      </trkpt>
      <trkpt lat="44.6236" lon="2.03037">
        <ele>220.76</ele>
        <time>2026-05-16T12:57:39Z</time>
      </trkpt>
      <trkpt lat="44.62346" lon="2.03036">
        <ele>221.24</ele>
        <time>2026-05-16T12:57:53Z</time>
      </trkpt>
      <trkpt lat="44.62339" lon="2.03037">
        <ele>221.24</ele>
        <time>2026-05-16T12:57:58Z</time>
      </trkpt>
      <trkpt lat="44.62338" lon="2.03037">
        <ele>221.24</ele>
        <time>2026-05-16T12:57:59Z</time>
      </trkpt>
      <trkpt lat="44.62336" lon="2.03037">
        <ele>221.24</ele>
        <time>2026-05-16T12:58:00Z</time>
      </trkpt>
      <trkpt lat="44.62325" lon="2.03036">
        <ele>221.24</ele>
        <time>2026-05-16T12:58:08Z</time>
      </trkpt>
      <trkpt lat="44.62305" lon="2.03035">
        <ele>221.72</ele>
        <time>2026-05-16T12:58:22Z</time>
      </trkpt>
      <trkpt lat="44.62287" lon="2.03036">
        <ele>222.2</ele>
        <time>2026-05-16T12:58:36Z</time>
      </trkpt>
      <trkpt lat="44.62286" lon="2.03035">
        <ele>222.2</ele>
        <time>2026-05-16T12:58:37Z</time>
      </trkpt>
      <trkpt lat="44.62273" lon="2.0303">
        <ele>221.24</ele>
        <time>2026-05-16T12:58:44Z</time>
      </trkpt>
      <trkpt lat="44.62256" lon="2.03024">
        <ele>220.28</ele>
        <time>2026-05-16T12:58:57Z</time>
      </trkpt>
      <trkpt lat="44.6224" lon="2.03019">
        <ele>217.88</ele>
        <time>2026-05-16T12:59:09Z</time>
      </trkpt>
      <trkpt lat="44.62221" lon="2.03013">
        <ele>217.88</ele>
        <time>2026-05-16T12:59:22Z</time>
      </trkpt>
      <trkpt lat="44.622" lon="2.03014">
        <ele>217.4</ele>
        <time>2026-05-16T12:59:35Z</time>
      </trkpt>
      <trkpt lat="44.62189" lon="2.03016">
        <ele>217.4</ele>
        <time>2026-05-16T12:59:43Z</time>
      </trkpt>
      <trkpt lat="44.62188" lon="2.03016">
        <ele>217.4</ele>
        <time>2026-05-16T12:59:44Z</time>
      </trkpt>
      <trkpt lat="44.62186" lon="2.03016">
        <ele>217.4</ele>
        <time>2026-05-16T12:59:45Z</time>
      </trkpt>
      <trkpt lat="44.62184" lon="2.03016">
        <ele>217.4</ele>
        <time>2026-05-16T12:59:46Z</time>
      </trkpt>
      <trkpt lat="44.62183" lon="2.03015">
        <ele>217.4</ele>
        <time>2026-05-16T12:59:47Z</time>
      </trkpt>
      <trkpt lat="44.62165" lon="2.03015">
        <ele>217.4</ele>
        <time>2026-05-16T13:00:01Z</time>
      </trkpt>
      <trkpt lat="44.62148" lon="2.03022">
        <ele>217.4</ele>
        <time>2026-05-16T13:00:14Z</time>
      </trkpt>
      <trkpt lat="44.62142" lon="2.03025">
        <ele>217.4</ele>
        <time>2026-05-16T13:00:18Z</time>
      </trkpt>
      <trkpt lat="44.62141" lon="2.03027">
        <ele>217.4</ele>
        <time>2026-05-16T13:00:19Z</time>
      </trkpt>
      <trkpt lat="44.62139" lon="2.03028">
        <ele>217.4</ele>
        <time>2026-05-16T13:00:20Z</time>
      </trkpt>
      <trkpt lat="44.62128" lon="2.0304">
        <ele>217.4</ele>
        <time>2026-05-16T13:00:32Z</time>
      </trkpt>
      <trkpt lat="44.62118" lon="2.0306">
        <ele>216.91</ele>
        <time>2026-05-16T13:00:44Z</time>
      </trkpt>
      <trkpt lat="44.6211" lon="2.03083">
        <ele>215.95</ele>
        <time>2026-05-16T13:00:56Z</time>
      </trkpt>
      <trkpt lat="44.62108" lon="2.03084">
        <ele>215.95</ele>
        <time>2026-05-16T13:00:57Z</time>
      </trkpt>
      <trkpt lat="44.62107" lon="2.03085">
        <ele>215.95</ele>
        <time>2026-05-16T13:00:58Z</time>
      </trkpt>
      <trkpt lat="44.62105" lon="2.03086">
        <ele>215.95</ele>
        <time>2026-05-16T13:01:00Z</time>
      </trkpt>
      <trkpt lat="44.62089" lon="2.03081">
        <ele>215.95</ele>
        <time>2026-05-16T13:01:13Z</time>
      </trkpt>
      <trkpt lat="44.62071" lon="2.03075">
        <ele>215.47</ele>
        <time>2026-05-16T13:01:25Z</time>
      </trkpt>
      <trkpt lat="44.62067" lon="2.03075">
        <ele>215.47</ele>
        <time>2026-05-16T13:01:29Z</time>
      </trkpt>
      <trkpt lat="44.62064" lon="2.03075">
        <ele>215.47</ele>
        <time>2026-05-16T13:01:31Z</time>
      </trkpt>
      <trkpt lat="44.62063" lon="2.03075">
        <ele>215.47</ele>
        <time>2026-05-16T13:01:32Z</time>
      </trkpt>
      <trkpt lat="44.62049" lon="2.03073">
        <ele>215.47</ele>
        <time>2026-05-16T13:01:43Z</time>
      </trkpt>
      <trkpt lat="44.62047" lon="2.03072">
        <ele>215.47</ele>
        <time>2026-05-16T13:01:45Z</time>
      </trkpt>
      <trkpt lat="44.62044" lon="2.03072">
        <ele>215.47</ele>
        <time>2026-05-16T13:01:47Z</time>
      </trkpt>
      <trkpt lat="44.62043" lon="2.03072">
        <ele>215.47</ele>
        <time>2026-05-16T13:01:48Z</time>
      </trkpt>
      <trkpt lat="44.62041" lon="2.03072">
        <ele>215.47</ele>
        <time>2026-05-16T13:01:49Z</time>
      </trkpt>
      <trkpt lat="44.6204" lon="2.03071">
        <ele>215.47</ele>
        <time>2026-05-16T13:01:50Z</time>
      </trkpt>
      <trkpt lat="44.62038" lon="2.03071">
        <ele>215.47</ele>
        <time>2026-05-16T13:01:51Z</time>
      </trkpt>
      <trkpt lat="44.62019" lon="2.03071">
        <ele>215.47</ele>
        <time>2026-05-16T13:02:05Z</time>
      </trkpt>
      <trkpt lat="44.62002" lon="2.0307">
        <ele>215.47</ele>
        <time>2026-05-16T13:02:17Z</time>
      </trkpt>
      <trkpt lat="44.61993" lon="2.0307">
        <ele>215.47</ele>
        <time>2026-05-16T13:02:24Z</time>
      </trkpt>
      <trkpt lat="44.61991" lon="2.03069">
        <ele>215.95</ele>
        <time>2026-05-16T13:02:25Z</time>
      </trkpt>
      <trkpt lat="44.61976" lon="2.03068">
        <ele>215.95</ele>
        <time>2026-05-16T13:02:37Z</time>
      </trkpt>
      <trkpt lat="44.61974" lon="2.03069">
        <ele>215.95</ele>
        <time>2026-05-16T13:02:38Z</time>
      </trkpt>
      <trkpt lat="44.61973" lon="2.03069">
        <ele>215.95</ele>
        <time>2026-05-16T13:02:39Z</time>
      </trkpt>
      <trkpt lat="44.61971" lon="2.0307">
        <ele>215.95</ele>
        <time>2026-05-16T13:02:40Z</time>
      </trkpt>
      <trkpt lat="44.6197" lon="2.03071">
        <ele>215.95</ele>
        <time>2026-05-16T13:02:41Z</time>
      </trkpt>
      <trkpt lat="44.61969" lon="2.03071">
        <ele>215.95</ele>
        <time>2026-05-16T13:02:42Z</time>
      </trkpt>
      <trkpt lat="44.61955" lon="2.03077">
        <ele>215.95</ele>
        <time>2026-05-16T13:02:53Z</time>
      </trkpt>
      <trkpt lat="44.61953" lon="2.03077">
        <ele>215.95</ele>
        <time>2026-05-16T13:02:54Z</time>
      </trkpt>
      <trkpt lat="44.61938" lon="2.03085">
        <ele>215.95</ele>
        <time>2026-05-16T13:03:04Z</time>
      </trkpt>
      <trkpt lat="44.61935" lon="2.03088">
        <ele>215.95</ele>
        <time>2026-05-16T13:03:07Z</time>
      </trkpt>
      <trkpt lat="44.61931" lon="2.03092">
        <ele>215.95</ele>
        <time>2026-05-16T13:03:10Z</time>
      </trkpt>
      <trkpt lat="44.61929" lon="2.03094">
        <ele>214.99</ele>
        <time>2026-05-16T13:03:11Z</time>
      </trkpt>
      <trkpt lat="44.61912" lon="2.03104">
        <ele>214.51</ele>
        <time>2026-05-16T13:03:23Z</time>
      </trkpt>
      <trkpt lat="44.61897" lon="2.03113">
        <ele>212.59</ele>
        <time>2026-05-16T13:03:34Z</time>
      </trkpt>
      <trkpt lat="44.61896" lon="2.03114">
        <ele>212.59</ele>
        <time>2026-05-16T13:03:35Z</time>
      </trkpt>
      <trkpt lat="44.61892" lon="2.03116">
        <ele>212.11</ele>
        <time>2026-05-16T13:03:38Z</time>
      </trkpt>
      <trkpt lat="44.6189" lon="2.03116">
        <ele>212.11</ele>
        <time>2026-05-16T13:03:39Z</time>
      </trkpt>
      <trkpt lat="44.61888" lon="2.03117">
        <ele>212.11</ele>
        <time>2026-05-16T13:03:40Z</time>
      </trkpt>
      <trkpt lat="44.61887" lon="2.03118">
        <ele>212.11</ele>
        <time>2026-05-16T13:03:41Z</time>
      </trkpt>
      <trkpt lat="44.6188" lon="2.03121">
        <ele>211.15</ele>
        <time>2026-05-16T13:03:48Z</time>
      </trkpt>
      <trkpt lat="44.61878" lon="2.03122">
        <ele>211.15</ele>
        <time>2026-05-16T13:03:49Z</time>
      </trkpt>
      <trkpt lat="44.61877" lon="2.03124">
        <ele>211.15</ele>
        <time>2026-05-16T13:03:50Z</time>
      </trkpt>
      <trkpt lat="44.61873" lon="2.03125">
        <ele>211.15</ele>
        <time>2026-05-16T13:03:53Z</time>
      </trkpt>
      <trkpt lat="44.61871" lon="2.03125">
        <ele>211.15</ele>
        <time>2026-05-16T13:03:54Z</time>
      </trkpt>
      <trkpt lat="44.61869" lon="2.03126">
        <ele>211.15</ele>
        <time>2026-05-16T13:03:55Z</time>
      </trkpt>
      <trkpt lat="44.61848" lon="2.03126">
        <ele>211.15</ele>
        <time>2026-05-16T13:04:09Z</time>
      </trkpt>
      <trkpt lat="44.61846" lon="2.03126">
        <ele>211.15</ele>
        <time>2026-05-16T13:04:10Z</time>
      </trkpt>
      <trkpt lat="44.61834" lon="2.03125">
        <ele>211.15</ele>
        <time>2026-05-16T13:04:20Z</time>
      </trkpt>
      <trkpt lat="44.61832" lon="2.03125">
        <ele>211.15</ele>
        <time>2026-05-16T13:04:21Z</time>
      </trkpt>
      <trkpt lat="44.61812" lon="2.03128">
        <ele>211.15</ele>
        <time>2026-05-16T13:04:36Z</time>
      </trkpt>
      <trkpt lat="44.61794" lon="2.03134">
        <ele>210.67</ele>
        <time>2026-05-16T13:04:49Z</time>
      </trkpt>
      <trkpt lat="44.61792" lon="2.03134">
        <ele>210.67</ele>
        <time>2026-05-16T13:04:50Z</time>
      </trkpt>
      <trkpt lat="44.61791" lon="2.03135">
        <ele>209.7</ele>
        <time>2026-05-16T13:04:51Z</time>
      </trkpt>
      <trkpt lat="44.61776" lon="2.03144">
        <ele>209.22</ele>
        <time>2026-05-16T13:05:02Z</time>
      </trkpt>
      <trkpt lat="44.6177" lon="2.03149">
        <ele>209.22</ele>
        <time>2026-05-16T13:05:08Z</time>
      </trkpt>
      <trkpt lat="44.61769" lon="2.03151">
        <ele>209.22</ele>
        <time>2026-05-16T13:05:09Z</time>
      </trkpt>
      <trkpt lat="44.61768" lon="2.03152">
        <ele>209.22</ele>
        <time>2026-05-16T13:05:10Z</time>
      </trkpt>
      <trkpt lat="44.61766" lon="2.03154">
        <ele>209.22</ele>
        <time>2026-05-16T13:05:11Z</time>
      </trkpt>
      <trkpt lat="44.61765" lon="2.03155">
        <ele>209.22</ele>
        <time>2026-05-16T13:05:12Z</time>
      </trkpt>
      <trkpt lat="44.61763" lon="2.03157">
        <ele>208.74</ele>
        <time>2026-05-16T13:05:13Z</time>
      </trkpt>
      <trkpt lat="44.61762" lon="2.03158">
        <ele>208.74</ele>
        <time>2026-05-16T13:05:14Z</time>
      </trkpt>
      <trkpt lat="44.61761" lon="2.03159">
        <ele>208.74</ele>
        <time>2026-05-16T13:05:15Z</time>
      </trkpt>
      <trkpt lat="44.6176" lon="2.03161">
        <ele>208.74</ele>
        <time>2026-05-16T13:05:16Z</time>
      </trkpt>
      <trkpt lat="44.61759" lon="2.03161">
        <ele>208.74</ele>
        <time>2026-05-16T13:05:17Z</time>
      </trkpt>
      <trkpt lat="44.61746" lon="2.03172">
        <ele>208.26</ele>
        <time>2026-05-16T13:05:28Z</time>
      </trkpt>
      <trkpt lat="44.61729" lon="2.0317">
        <ele>208.26</ele>
        <time>2026-05-16T13:05:41Z</time>
      </trkpt>
      <trkpt lat="44.61724" lon="2.03168">
        <ele>207.78</ele>
        <time>2026-05-16T13:05:45Z</time>
      </trkpt>
      <trkpt lat="44.61718" lon="2.03168">
        <ele>207.78</ele>
        <time>2026-05-16T13:05:50Z</time>
      </trkpt>
      <trkpt lat="44.61716" lon="2.03167">
        <ele>207.78</ele>
        <time>2026-05-16T13:05:51Z</time>
      </trkpt>
      <trkpt lat="44.61697" lon="2.03164">
        <ele>209.22</ele>
        <time>2026-05-16T13:06:05Z</time>
      </trkpt>
      <trkpt lat="44.61691" lon="2.03169">
        <ele>209.22</ele>
        <time>2026-05-16T13:06:10Z</time>
      </trkpt>
      <trkpt lat="44.6169" lon="2.03169">
        <ele>209.22</ele>
        <time>2026-05-16T13:06:12Z</time>
      </trkpt>
      <trkpt lat="44.61674" lon="2.03164">
        <ele>209.22</ele>
        <time>2026-05-16T13:06:28Z</time>
      </trkpt>
      <trkpt lat="44.61669" lon="2.03155">
        <ele>207.78</ele>
        <time>2026-05-16T13:06:35Z</time>
      </trkpt>
      <trkpt lat="44.61667" lon="2.03152">
        <ele>209.22</ele>
        <time>2026-05-16T13:06:37Z</time>
      </trkpt>
      <trkpt lat="44.61658" lon="2.03129">
        <ele>209.22</ele>
        <time>2026-05-16T13:06:56Z</time>
      </trkpt>
      <trkpt lat="44.61646" lon="2.03099">
        <ele>210.19</ele>
        <time>2026-05-16T13:07:11Z</time>
      </trkpt>
      <trkpt lat="44.61641" lon="2.03092">
        <ele>208.26</ele>
        <time>2026-05-16T13:07:18Z</time>
      </trkpt>
      <trkpt lat="44.61629" lon="2.03077">
        <ele>205.86</ele>
        <time>2026-05-16T13:07:32Z</time>
      </trkpt>
      <trkpt lat="44.61629" lon="2.03075">
        <ele>205.86</ele>
        <time>2026-05-16T13:07:33Z</time>
      </trkpt>
      <trkpt lat="44.61617" lon="2.03053">
        <ele>203.94</ele>
        <time>2026-05-16T13:07:47Z</time>
      </trkpt>
      <trkpt lat="44.61616" lon="2.03052">
        <ele>203.46</ele>
        <time>2026-05-16T13:07:48Z</time>
      </trkpt>
      <trkpt lat="44.61615" lon="2.03051">
        <ele>203.46</ele>
        <time>2026-05-16T13:07:49Z</time>
      </trkpt>
      <trkpt lat="44.61614" lon="2.0305">
        <ele>203.46</ele>
        <time>2026-05-16T13:07:50Z</time>
      </trkpt>
      <trkpt lat="44.61609" lon="2.03047">
        <ele>203.46</ele>
        <time>2026-05-16T13:07:54Z</time>
      </trkpt>
      <trkpt lat="44.61607" lon="2.03047">
        <ele>203.46</ele>
        <time>2026-05-16T13:07:55Z</time>
      </trkpt>
      <trkpt lat="44.61601" lon="2.03045">
        <ele>203.46</ele>
        <time>2026-05-16T13:07:58Z</time>
      </trkpt>
      <trkpt lat="44.616" lon="2.03044">
        <ele>203.46</ele>
        <time>2026-05-16T13:07:59Z</time>
      </trkpt>
      <trkpt lat="44.61598" lon="2.03042">
        <ele>203.46</ele>
        <time>2026-05-16T13:08:00Z</time>
      </trkpt>
      <trkpt lat="44.61597" lon="2.03041">
        <ele>203.46</ele>
        <time>2026-05-16T13:08:01Z</time>
      </trkpt>
      <trkpt lat="44.61592" lon="2.03039">
        <ele>202.98</ele>
        <time>2026-05-16T13:08:05Z</time>
      </trkpt>
      <trkpt lat="44.6159" lon="2.03039">
        <ele>202.98</ele>
        <time>2026-05-16T13:08:06Z</time>
      </trkpt>
      <trkpt lat="44.61588" lon="2.03039">
        <ele>202.98</ele>
        <time>2026-05-16T13:08:07Z</time>
      </trkpt>
      <trkpt lat="44.61586" lon="2.03037">
        <ele>202.98</ele>
        <time>2026-05-16T13:08:08Z</time>
      </trkpt>
      <trkpt lat="44.61584" lon="2.03037">
        <ele>202.98</ele>
        <time>2026-05-16T13:08:09Z</time>
      </trkpt>
      <trkpt lat="44.61583" lon="2.03037">
        <ele>202.98</ele>
        <time>2026-05-16T13:08:10Z</time>
      </trkpt>
      <trkpt lat="44.61581" lon="2.03037">
        <ele>202.98</ele>
        <time>2026-05-16T13:08:11Z</time>
      </trkpt>
      <trkpt lat="44.61576" lon="2.03034">
        <ele>202.98</ele>
        <time>2026-05-16T13:08:15Z</time>
      </trkpt>
      <trkpt lat="44.61575" lon="2.03034">
        <ele>202.98</ele>
        <time>2026-05-16T13:08:16Z</time>
      </trkpt>
      <trkpt lat="44.61573" lon="2.03034">
        <ele>202.49</ele>
        <time>2026-05-16T13:08:17Z</time>
      </trkpt>
      <trkpt lat="44.61572" lon="2.03034">
        <ele>202.49</ele>
        <time>2026-05-16T13:08:18Z</time>
      </trkpt>
      <trkpt lat="44.6157" lon="2.03033">
        <ele>202.49</ele>
        <time>2026-05-16T13:08:19Z</time>
      </trkpt>
      <trkpt lat="44.61555" lon="2.03035">
        <ele>202.49</ele>
        <time>2026-05-16T13:08:32Z</time>
      </trkpt>
      <trkpt lat="44.61553" lon="2.03035">
        <ele>202.49</ele>
        <time>2026-05-16T13:08:34Z</time>
      </trkpt>
      <trkpt lat="44.6155" lon="2.03033">
        <ele>202.49</ele>
        <time>2026-05-16T13:08:49Z</time>
      </trkpt>
      <trkpt lat="44.61532" lon="2.03033">
        <ele>202.49</ele>
        <time>2026-05-16T13:09:02Z</time>
      </trkpt>
      <trkpt lat="44.61516" lon="2.03037">
        <ele>202.01</ele>
        <time>2026-05-16T13:09:16Z</time>
      </trkpt>
      <trkpt lat="44.61502" lon="2.03041">
        <ele>201.05</ele>
        <time>2026-05-16T13:09:29Z</time>
      </trkpt>
      <trkpt lat="44.61501" lon="2.03043">
        <ele>202.49</ele>
        <time>2026-05-16T13:09:31Z</time>
      </trkpt>
      <trkpt lat="44.6149" lon="2.03047">
        <ele>200.57</ele>
        <time>2026-05-16T13:09:50Z</time>
      </trkpt>
      <trkpt lat="44.61473" lon="2.03045">
        <ele>200.57</ele>
        <time>2026-05-16T13:10:04Z</time>
      </trkpt>
      <trkpt lat="44.61454" lon="2.0304">
        <ele>200.57</ele>
        <time>2026-05-16T13:10:18Z</time>
      </trkpt>
      <trkpt lat="44.6144" lon="2.03034">
        <ele>201.53</ele>
        <time>2026-05-16T13:10:30Z</time>
      </trkpt>
      <trkpt lat="44.6142" lon="2.03034">
        <ele>201.53</ele>
        <time>2026-05-16T13:10:45Z</time>
      </trkpt>
      <trkpt lat="44.61402" lon="2.03035">
        <ele>201.53</ele>
        <time>2026-05-16T13:10:58Z</time>
      </trkpt>
      <trkpt lat="44.614" lon="2.03035">
        <ele>200.57</ele>
        <time>2026-05-16T13:11:00Z</time>
      </trkpt>
      <trkpt lat="44.61381" lon="2.03035">
        <ele>200.57</ele>
        <time>2026-05-16T13:11:14Z</time>
      </trkpt>
      <trkpt lat="44.61361" lon="2.03039">
        <ele>200.09</ele>
        <time>2026-05-16T13:11:28Z</time>
      </trkpt>
      <trkpt lat="44.61358" lon="2.03039">
        <ele>200.09</ele>
        <time>2026-05-16T13:11:30Z</time>
      </trkpt>
      <trkpt lat="44.61346" lon="2.03036">
        <ele>200.09</ele>
        <time>2026-05-16T13:11:39Z</time>
      </trkpt>
      <trkpt lat="44.61333" lon="2.03034">
        <ele>200.09</ele>
        <time>2026-05-16T13:11:47Z</time>
      </trkpt>
      <trkpt lat="44.61328" lon="2.03035">
        <ele>200.09</ele>
        <time>2026-05-16T13:11:53Z</time>
      </trkpt>
      <trkpt lat="44.61308" lon="2.03035">
        <ele>200.09</ele>
        <time>2026-05-16T13:12:07Z</time>
      </trkpt>
      <trkpt lat="44.61294" lon="2.03035">
        <ele>200.09</ele>
        <time>2026-05-16T13:12:19Z</time>
      </trkpt>
      <trkpt lat="44.6128" lon="2.03032">
        <ele>200.09</ele>
        <time>2026-05-16T13:12:30Z</time>
      </trkpt>
      <trkpt lat="44.6127" lon="2.03027">
        <ele>200.09</ele>
        <time>2026-05-16T13:12:39Z</time>
      </trkpt>
      <trkpt lat="44.61252" lon="2.03016">
        <ele>200.09</ele>
        <time>2026-05-16T13:12:54Z</time>
      </trkpt>
      <trkpt lat="44.61237" lon="2.03009">
        <ele>200.09</ele>
        <time>2026-05-16T13:13:06Z</time>
      </trkpt>
      <trkpt lat="44.61221" lon="2.03002">
        <ele>200.57</ele>
        <time>2026-05-16T13:13:19Z</time>
      </trkpt>
      <trkpt lat="44.61204" lon="2.02986">
        <ele>200.57</ele>
        <time>2026-05-16T13:13:32Z</time>
      </trkpt>
      <trkpt lat="44.61182" lon="2.02987">
        <ele>201.05</ele>
        <time>2026-05-16T13:13:46Z</time>
      </trkpt>
      <trkpt lat="44.61174" lon="2.02983">
        <ele>202.98</ele>
        <time>2026-05-16T13:13:54Z</time>
      </trkpt>
      <trkpt lat="44.61158" lon="2.02978">
        <ele>203.46</ele>
        <time>2026-05-16T13:14:08Z</time>
      </trkpt>
      <trkpt lat="44.61142" lon="2.02972">
        <ele>202.01</ele>
        <time>2026-05-16T13:14:21Z</time>
      </trkpt>
      <trkpt lat="44.61127" lon="2.02965">
        <ele>201.05</ele>
        <time>2026-05-16T13:14:33Z</time>
      </trkpt>
      <trkpt lat="44.61106" lon="2.02962">
        <ele>200.09</ele>
        <time>2026-05-16T13:14:47Z</time>
      </trkpt>
      <trkpt lat="44.61102" lon="2.02959">
        <ele>199.61</ele>
        <time>2026-05-16T13:14:50Z</time>
      </trkpt>
      <trkpt lat="44.61098" lon="2.02958">
        <ele>199.13</ele>
        <time>2026-05-16T13:14:54Z</time>
      </trkpt>
      <trkpt lat="44.61089" lon="2.02957">
        <ele>198.65</ele>
        <time>2026-05-16T13:14:59Z</time>
      </trkpt>
      <trkpt lat="44.61071" lon="2.02948">
        <ele>197.69</ele>
        <time>2026-05-16T13:15:12Z</time>
      </trkpt>
      <trkpt lat="44.61065" lon="2.02946">
        <ele>197.21</ele>
        <time>2026-05-16T13:15:20Z</time>
      </trkpt>
      <trkpt lat="44.61062" lon="2.02943">
        <ele>197.21</ele>
        <time>2026-05-16T13:15:22Z</time>
      </trkpt>
      <trkpt lat="44.61058" lon="2.02939">
        <ele>196.73</ele>
        <time>2026-05-16T13:15:27Z</time>
      </trkpt>
      <trkpt lat="44.61057" lon="2.02939">
        <ele>196.73</ele>
        <time>2026-05-16T13:15:28Z</time>
      </trkpt>
      <trkpt lat="44.61055" lon="2.0294">
        <ele>196.73</ele>
        <time>2026-05-16T13:15:29Z</time>
      </trkpt>
      <trkpt lat="44.61052" lon="2.02941">
        <ele>196.73</ele>
        <time>2026-05-16T13:15:30Z</time>
      </trkpt>
      <trkpt lat="44.61046" lon="2.02945">
        <ele>196.73</ele>
        <time>2026-05-16T13:15:42Z</time>
      </trkpt>
      <trkpt lat="44.61044" lon="2.02949">
        <ele>196.73</ele>
        <time>2026-05-16T13:15:51Z</time>
      </trkpt>
      <trkpt lat="44.61042" lon="2.02951">
        <ele>196.25</ele>
        <time>2026-05-16T13:15:55Z</time>
      </trkpt>
      <trkpt lat="44.6104" lon="2.02953">
        <ele>196.25</ele>
        <time>2026-05-16T13:15:57Z</time>
      </trkpt>
      <trkpt lat="44.61039" lon="2.02954">
        <ele>196.25</ele>
        <time>2026-05-16T13:15:58Z</time>
      </trkpt>
      <trkpt lat="44.61037" lon="2.02958">
        <ele>196.25</ele>
        <time>2026-05-16T13:16:02Z</time>
      </trkpt>
      <trkpt lat="44.61037" lon="2.02959">
        <ele>196.25</ele>
        <time>2026-05-16T13:16:03Z</time>
      </trkpt>
      <trkpt lat="44.61036" lon="2.02961">
        <ele>196.25</ele>
        <time>2026-05-16T13:16:04Z</time>
      </trkpt>
      <trkpt lat="44.61035" lon="2.02963">
        <ele>196.25</ele>
        <time>2026-05-16T13:16:05Z</time>
      </trkpt>
      <trkpt lat="44.61034" lon="2.02965">
        <ele>196.25</ele>
        <time>2026-05-16T13:16:06Z</time>
      </trkpt>
      <trkpt lat="44.61033" lon="2.02966">
        <ele>196.25</ele>
        <time>2026-05-16T13:16:07Z</time>
      </trkpt>
      <trkpt lat="44.61028" lon="2.02982">
        <ele>196.25</ele>
        <time>2026-05-16T13:16:18Z</time>
      </trkpt>
      <trkpt lat="44.61022" lon="2.03002">
        <ele>196.25</ele>
        <time>2026-05-16T13:16:31Z</time>
      </trkpt>
      <trkpt lat="44.61017" lon="2.03016">
        <ele>196.25</ele>
        <time>2026-05-16T13:16:43Z</time>
      </trkpt>
      <trkpt lat="44.61008" lon="2.03027">
        <ele>196.25</ele>
        <time>2026-05-16T13:16:51Z</time>
      </trkpt>
      <trkpt lat="44.61007" lon="2.03029">
        <ele>196.25</ele>
        <time>2026-05-16T13:16:52Z</time>
      </trkpt>
      <trkpt lat="44.61006" lon="2.03031">
        <ele>196.25</ele>
        <time>2026-05-16T13:16:53Z</time>
      </trkpt>
      <trkpt lat="44.61003" lon="2.03034">
        <ele>196.73</ele>
        <time>2026-05-16T13:17:10Z</time>
      </trkpt>
      <trkpt lat="44.61002" lon="2.03041">
        <ele>196.73</ele>
        <time>2026-05-16T13:17:19Z</time>
      </trkpt>
      <trkpt lat="44.61003" lon="2.03045">
        <ele>196.73</ele>
        <time>2026-05-16T13:17:23Z</time>
      </trkpt>
      <trkpt lat="44.61003" lon="2.03047">
        <ele>196.73</ele>
        <time>2026-05-16T13:17:24Z</time>
      </trkpt>
      <trkpt lat="44.61005" lon="2.03067">
        <ele>196.73</ele>
        <time>2026-05-16T13:17:35Z</time>
      </trkpt>
      <trkpt lat="44.61002" lon="2.03093">
        <ele>196.73</ele>
        <time>2026-05-16T13:17:49Z</time>
      </trkpt>
      <trkpt lat="44.61003" lon="2.03102">
        <ele>196.73</ele>
        <time>2026-05-16T13:17:56Z</time>
      </trkpt>
      <trkpt lat="44.61002" lon="2.03104">
        <ele>196.73</ele>
        <time>2026-05-16T13:17:57Z</time>
      </trkpt>
      <trkpt lat="44.61003" lon="2.03106">
        <ele>196.73</ele>
        <time>2026-05-16T13:17:58Z</time>
      </trkpt>
      <trkpt lat="44.61003" lon="2.03108">
        <ele>196.73</ele>
        <time>2026-05-16T13:17:59Z</time>
      </trkpt>
      <trkpt lat="44.61003" lon="2.03111">
        <ele>196.73</ele>
        <time>2026-05-16T13:18:00Z</time>
      </trkpt>
      <trkpt lat="44.61002" lon="2.0312">
        <ele>196.73</ele>
        <time>2026-05-16T13:18:06Z</time>
      </trkpt>
      <trkpt lat="44.61001" lon="2.03122">
        <ele>196.73</ele>
        <time>2026-05-16T13:18:07Z</time>
      </trkpt>
      <trkpt lat="44.60998" lon="2.0315">
        <ele>198.17</ele>
        <time>2026-05-16T13:18:23Z</time>
      </trkpt>
      <trkpt lat="44.60998" lon="2.03155">
        <ele>196.73</ele>
        <time>2026-05-16T13:18:26Z</time>
      </trkpt>
      <trkpt lat="44.60997" lon="2.03159">
        <ele>198.17</ele>
        <time>2026-05-16T13:18:27Z</time>
      </trkpt>
      <trkpt lat="44.60998" lon="2.03163">
        <ele>198.17</ele>
        <time>2026-05-16T13:18:28Z</time>
      </trkpt>
      <trkpt lat="44.60994" lon="2.03177">
        <ele>198.17</ele>
        <time>2026-05-16T13:18:36Z</time>
      </trkpt>
      <trkpt lat="44.60993" lon="2.03177">
        <ele>198.17</ele>
        <time>2026-05-16T13:18:37Z</time>
      </trkpt>
      <trkpt lat="44.60991" lon="2.03177">
        <ele>198.17</ele>
        <time>2026-05-16T13:18:38Z</time>
      </trkpt>
      <trkpt lat="44.6099" lon="2.03177">
        <ele>198.17</ele>
        <time>2026-05-16T13:18:39Z</time>
      </trkpt>
      <trkpt lat="44.60989" lon="2.03178">
        <ele>198.17</ele>
        <time>2026-05-16T13:18:40Z</time>
      </trkpt>
      <trkpt lat="44.60987" lon="2.03177">
        <ele>198.17</ele>
        <time>2026-05-16T13:18:42Z</time>
      </trkpt>
      <trkpt lat="44.60983" lon="2.03175">
        <ele>198.17</ele>
        <time>2026-05-16T13:18:46Z</time>
      </trkpt>
      <trkpt lat="44.60975" lon="2.03176">
        <ele>198.17</ele>
        <time>2026-05-16T13:18:50Z</time>
      </trkpt>
      <trkpt lat="44.60967" lon="2.03176">
        <ele>198.17</ele>
        <time>2026-05-16T13:18:54Z</time>
      </trkpt>
      <trkpt lat="44.60965" lon="2.03176">
        <ele>198.17</ele>
        <time>2026-05-16T13:18:55Z</time>
      </trkpt>
      <trkpt lat="44.60963" lon="2.03176">
        <ele>198.17</ele>
        <time>2026-05-16T13:18:56Z</time>
      </trkpt>
      <trkpt lat="44.60954" lon="2.03174">
        <ele>196.73</ele>
        <time>2026-05-16T13:19:02Z</time>
      </trkpt>
      <trkpt lat="44.60945" lon="2.03166">
        <ele>197.21</ele>
        <time>2026-05-16T13:19:11Z</time>
      </trkpt>
      <trkpt lat="44.60944" lon="2.03165">
        <ele>197.21</ele>
        <time>2026-05-16T13:19:12Z</time>
      </trkpt>
      <trkpt lat="44.60942" lon="2.03165">
        <ele>197.21</ele>
        <time>2026-05-16T13:19:13Z</time>
      </trkpt>
      <trkpt lat="44.60941" lon="2.03164">
        <ele>197.21</ele>
        <time>2026-05-16T13:19:14Z</time>
      </trkpt>
      <trkpt lat="44.60939" lon="2.03163">
        <ele>197.21</ele>
        <time>2026-05-16T13:19:15Z</time>
      </trkpt>
      <trkpt lat="44.60933" lon="2.03162">
        <ele>197.21</ele>
        <time>2026-05-16T13:19:23Z</time>
      </trkpt>
      <trkpt lat="44.60931" lon="2.03162">
        <ele>197.21</ele>
        <time>2026-05-16T13:19:24Z</time>
      </trkpt>
      <trkpt lat="44.60914" lon="2.03157">
        <ele>197.21</ele>
        <time>2026-05-16T13:19:37Z</time>
      </trkpt>
      <trkpt lat="44.60899" lon="2.03154">
        <ele>197.21</ele>
        <time>2026-05-16T13:19:47Z</time>
      </trkpt>
      <trkpt lat="44.60898" lon="2.03153">
        <ele>197.21</ele>
        <time>2026-05-16T13:19:48Z</time>
      </trkpt>
      <trkpt lat="44.60884" lon="2.03146">
        <ele>197.21</ele>
        <time>2026-05-16T13:20:00Z</time>
      </trkpt>
      <trkpt lat="44.60871" lon="2.03141">
        <ele>196.73</ele>
        <time>2026-05-16T13:20:13Z</time>
      </trkpt>
      <trkpt lat="44.60863" lon="2.03141">
        <ele>196.73</ele>
        <time>2026-05-16T13:20:17Z</time>
      </trkpt>
      <trkpt lat="44.60851" lon="2.03131">
        <ele>196.25</ele>
        <time>2026-05-16T13:20:29Z</time>
      </trkpt>
      <trkpt lat="44.60838" lon="2.03127">
        <ele>196.25</ele>
        <time>2026-05-16T13:20:41Z</time>
      </trkpt>
      <trkpt lat="44.60836" lon="2.03126">
        <ele>196.25</ele>
        <time>2026-05-16T13:20:42Z</time>
      </trkpt>
      <trkpt lat="44.60835" lon="2.03125">
        <ele>196.25</ele>
        <time>2026-05-16T13:20:43Z</time>
      </trkpt>
      <trkpt lat="44.60834" lon="2.03124">
        <ele>196.25</ele>
        <time>2026-05-16T13:20:44Z</time>
      </trkpt>
      <trkpt lat="44.60833" lon="2.03122">
        <ele>196.25</ele>
        <time>2026-05-16T13:20:45Z</time>
      </trkpt>
      <trkpt lat="44.60821" lon="2.03117">
        <ele>196.25</ele>
        <time>2026-05-16T13:20:54Z</time>
      </trkpt>
      <trkpt lat="44.60819" lon="2.03118">
        <ele>196.25</ele>
        <time>2026-05-16T13:20:55Z</time>
      </trkpt>
      <trkpt lat="44.60804" lon="2.03135">
        <ele>196.25</ele>
        <time>2026-05-16T13:21:02Z</time>
      </trkpt>
      <trkpt lat="44.60802" lon="2.03136">
        <ele>196.25</ele>
        <time>2026-05-16T13:21:03Z</time>
      </trkpt>
      <trkpt lat="44.60787" lon="2.03137">
        <ele>198.17</ele>
        <time>2026-05-16T13:21:11Z</time>
      </trkpt>
      <trkpt lat="44.60785" lon="2.03133">
        <ele>196.73</ele>
        <time>2026-05-16T13:21:13Z</time>
      </trkpt>
      <trkpt lat="44.60766" lon="2.03114">
        <ele>195.77</ele>
        <time>2026-05-16T13:21:31Z</time>
      </trkpt>
      <trkpt lat="44.60748" lon="2.03104">
        <ele>197.21</ele>
        <time>2026-05-16T13:21:46Z</time>
      </trkpt>
      <trkpt lat="44.60736" lon="2.03107">
        <ele>197.21</ele>
        <time>2026-05-16T13:22:02Z</time>
      </trkpt>
      <trkpt lat="44.60737" lon="2.03105">
        <ele>196.25</ele>
        <time>2026-05-16T13:22:16Z</time>
      </trkpt>
      <trkpt lat="44.60737" lon="2.03105">
        <ele>197.69</ele>
        <time>2026-05-16T13:22:18Z</time>
      </trkpt>
      <trkpt lat="44.60736" lon="2.03105">
        <ele>196.25</ele>
        <time>2026-05-16T13:22:22Z</time>
      </trkpt>
      <trkpt lat="44.60736" lon="2.03104">
        <ele>198.17</ele>
        <time>2026-05-16T13:22:54Z</time>
      </trkpt>
      <trkpt lat="44.60736" lon="2.03104">
        <ele>197.21</ele>
        <time>2026-05-16T13:22:58Z</time>
      </trkpt>
      <trkpt lat="44.60735" lon="2.03105">
        <ele>196.73</ele>
        <time>2026-05-16T13:23:19Z</time>
      </trkpt>
      <trkpt lat="44.60738" lon="2.03103">
        <ele>196.73</ele>
        <time>2026-05-16T13:23:33Z</time>
      </trkpt>
      <trkpt lat="44.60739" lon="2.03103">
        <ele>197.69</ele>
        <time>2026-05-16T13:23:56Z</time>
      </trkpt>
      <trkpt lat="44.60739" lon="2.03104">
        <ele>196.73</ele>
        <time>2026-05-16T13:24:03Z</time>
      </trkpt>
      <trkpt lat="44.60738" lon="2.03107">
        <ele>196.73</ele>
        <time>2026-05-16T13:24:07Z</time>
      </trkpt>
      <trkpt lat="44.60735" lon="2.03123">
        <ele>196.73</ele>
        <time>2026-05-16T13:24:19Z</time>
      </trkpt>
      <trkpt lat="44.60732" lon="2.03146">
        <ele>196.73</ele>
        <time>2026-05-16T13:24:32Z</time>
      </trkpt>
      <trkpt lat="44.60728" lon="2.03169">
        <ele>196.73</ele>
        <time>2026-05-16T13:24:45Z</time>
      </trkpt>
      <trkpt lat="44.60726" lon="2.03191">
        <ele>197.69</ele>
        <time>2026-05-16T13:24:58Z</time>
      </trkpt>
      <trkpt lat="44.60722" lon="2.03215">
        <ele>197.69</ele>
        <time>2026-05-16T13:25:12Z</time>
      </trkpt>
      <trkpt lat="44.60721" lon="2.03226">
        <ele>197.69</ele>
        <time>2026-05-16T13:25:19Z</time>
      </trkpt>
      <trkpt lat="44.6072" lon="2.03228">
        <ele>198.17</ele>
        <time>2026-05-16T13:25:20Z</time>
      </trkpt>
      <trkpt lat="44.6072" lon="2.03239">
        <ele>197.21</ele>
        <time>2026-05-16T13:25:36Z</time>
      </trkpt>
      <trkpt lat="44.6072" lon="2.0324">
        <ele>197.21</ele>
        <time>2026-05-16T13:25:37Z</time>
      </trkpt>
      <trkpt lat="44.60719" lon="2.03246">
        <ele>196.73</ele>
        <time>2026-05-16T13:25:42Z</time>
      </trkpt>
      <trkpt lat="44.60715" lon="2.03271">
        <ele>196.73</ele>
        <time>2026-05-16T13:25:57Z</time>
      </trkpt>
      <trkpt lat="44.60712" lon="2.03293">
        <ele>196.73</ele>
        <time>2026-05-16T13:26:11Z</time>
      </trkpt>
      <trkpt lat="44.60712" lon="2.03295">
        <ele>196.73</ele>
        <time>2026-05-16T13:26:12Z</time>
      </trkpt>
      <trkpt lat="44.60712" lon="2.03299">
        <ele>196.73</ele>
        <time>2026-05-16T13:26:14Z</time>
      </trkpt>
      <trkpt lat="44.60708" lon="2.03316">
        <ele>196.73</ele>
        <time>2026-05-16T13:26:26Z</time>
      </trkpt>
      <trkpt lat="44.60705" lon="2.03324">
        <ele>196.73</ele>
        <time>2026-05-16T13:26:41Z</time>
      </trkpt>
      <trkpt lat="44.60704" lon="2.03336">
        <ele>196.73</ele>
        <time>2026-05-16T13:26:57Z</time>
      </trkpt>
      <trkpt lat="44.60705" lon="2.0336">
        <ele>196.73</ele>
        <time>2026-05-16T13:27:10Z</time>
      </trkpt>
      <trkpt lat="44.60704" lon="2.0338">
        <ele>196.73</ele>
        <time>2026-05-16T13:27:24Z</time>
      </trkpt>
      <trkpt lat="44.60704" lon="2.03388">
        <ele>196.73</ele>
        <time>2026-05-16T13:27:28Z</time>
      </trkpt>
      <trkpt lat="44.60705" lon="2.0339">
        <ele>196.73</ele>
        <time>2026-05-16T13:27:30Z</time>
      </trkpt>
      <trkpt lat="44.60706" lon="2.03392">
        <ele>196.73</ele>
        <time>2026-05-16T13:27:32Z</time>
      </trkpt>
      <trkpt lat="44.60707" lon="2.03397">
        <ele>196.73</ele>
        <time>2026-05-16T13:27:36Z</time>
      </trkpt>
      <trkpt lat="44.60708" lon="2.03407">
        <ele>196.73</ele>
        <time>2026-05-16T13:27:42Z</time>
      </trkpt>
      <trkpt lat="44.60709" lon="2.03409">
        <ele>196.73</ele>
        <time>2026-05-16T13:27:43Z</time>
      </trkpt>
      <trkpt lat="44.60709" lon="2.03411">
        <ele>196.73</ele>
        <time>2026-05-16T13:27:44Z</time>
      </trkpt>
      <trkpt lat="44.6071" lon="2.03411">
        <ele>196.73</ele>
        <time>2026-05-16T13:27:49Z</time>
      </trkpt>
      <trkpt lat="44.60712" lon="2.03406">
        <ele>196.73</ele>
        <time>2026-05-16T13:27:53Z</time>
      </trkpt>
      <trkpt lat="44.60712" lon="2.03398">
        <ele>196.73</ele>
        <time>2026-05-16T13:27:57Z</time>
      </trkpt>
      <trkpt lat="44.60713" lon="2.03391">
        <ele>196.73</ele>
        <time>2026-05-16T13:28:08Z</time>
      </trkpt>
      <trkpt lat="44.60716" lon="2.03387">
        <ele>196.73</ele>
        <time>2026-05-16T13:28:13Z</time>
      </trkpt>
      <trkpt lat="44.60718" lon="2.03387">
        <ele>196.73</ele>
        <time>2026-05-16T13:28:14Z</time>
      </trkpt>
      <trkpt lat="44.60736" lon="2.03379">
        <ele>196.25</ele>
        <time>2026-05-16T13:28:29Z</time>
      </trkpt>
      <trkpt lat="44.60753" lon="2.03372">
        <ele>195.77</ele>
        <time>2026-05-16T13:28:44Z</time>
      </trkpt>
      <trkpt lat="44.60754" lon="2.03372">
        <ele>195.77</ele>
        <time>2026-05-16T13:28:46Z</time>
      </trkpt>
      <trkpt lat="44.60757" lon="2.03372">
        <ele>195.77</ele>
        <time>2026-05-16T13:28:48Z</time>
      </trkpt>
      <trkpt lat="44.60756" lon="2.03371">
        <ele>195.77</ele>
        <time>2026-05-16T13:29:00Z</time>
      </trkpt>
      <trkpt lat="44.60753" lon="2.03363">
        <ele>195.77</ele>
        <time>2026-05-16T13:29:26Z</time>
      </trkpt>
      <trkpt lat="44.60756" lon="2.0337">
        <ele>195.77</ele>
        <time>2026-05-16T13:29:50Z</time>
      </trkpt>
      <trkpt lat="44.60767" lon="2.03374">
        <ele>196.25</ele>
        <time>2026-05-16T13:43:15Z</time>
      </trkpt>
      <trkpt lat="44.60767" lon="2.03375">
        <ele>196.25</ele>
        <time>2026-05-16T13:43:16Z</time>
      </trkpt>
      <trkpt lat="44.60778" lon="2.03359">
        <ele>196.25</ele>
        <time>2026-05-16T13:43:29Z</time>
      </trkpt>
      <trkpt lat="44.60778" lon="2.03357">
        <ele>196.25</ele>
        <time>2026-05-16T13:43:30Z</time>
      </trkpt>
      <trkpt lat="44.60777" lon="2.03354">
        <ele>196.25</ele>
        <time>2026-05-16T13:43:31Z</time>
      </trkpt>
      <trkpt lat="44.60777" lon="2.0335">
        <ele>196.25</ele>
        <time>2026-05-16T13:43:33Z</time>
      </trkpt>
      <trkpt lat="44.60775" lon="2.03341">
        <ele>196.25</ele>
        <time>2026-05-16T13:43:38Z</time>
      </trkpt>
      <trkpt lat="44.60775" lon="2.0334">
        <ele>196.25</ele>
        <time>2026-05-16T13:43:39Z</time>
      </trkpt>
      <trkpt lat="44.60774" lon="2.03338">
        <ele>196.25</ele>
        <time>2026-05-16T13:43:40Z</time>
      </trkpt>
      <trkpt lat="44.60774" lon="2.03335">
        <ele>196.25</ele>
        <time>2026-05-16T13:43:41Z</time>
      </trkpt>
      <trkpt lat="44.60773" lon="2.03334">
        <ele>196.25</ele>
        <time>2026-05-16T13:43:42Z</time>
      </trkpt>
      <trkpt lat="44.60771" lon="2.03309">
        <ele>196.25</ele>
        <time>2026-05-16T13:43:54Z</time>
      </trkpt>
      <trkpt lat="44.6077" lon="2.03292">
        <ele>196.25</ele>
        <time>2026-05-16T13:44:03Z</time>
      </trkpt>
      <trkpt lat="44.6077" lon="2.03289">
        <ele>196.25</ele>
        <time>2026-05-16T13:44:04Z</time>
      </trkpt>
      <trkpt lat="44.60774" lon="2.0327">
        <ele>196.25</ele>
        <time>2026-05-16T13:44:14Z</time>
      </trkpt>
      <trkpt lat="44.60772" lon="2.03268">
        <ele>196.25</ele>
        <time>2026-05-16T13:44:15Z</time>
      </trkpt>
      <trkpt lat="44.60769" lon="2.03265">
        <ele>196.25</ele>
        <time>2026-05-16T13:44:16Z</time>
      </trkpt>
      <trkpt lat="44.60766" lon="2.03262">
        <ele>196.25</ele>
        <time>2026-05-16T13:44:17Z</time>
      </trkpt>
      <trkpt lat="44.60763" lon="2.03259">
        <ele>196.25</ele>
        <time>2026-05-16T13:44:18Z</time>
      </trkpt>
      <trkpt lat="44.60742" lon="2.03249">
        <ele>195.28</ele>
        <time>2026-05-16T13:44:26Z</time>
      </trkpt>
      <trkpt lat="44.60757" lon="2.03255">
        <ele>195.77</ele>
        <time>2026-05-16T13:44:49Z</time>
      </trkpt>
      <trkpt lat="44.60757" lon="2.03255">
        <ele>195.77</ele>
        <time>2026-05-16T13:44:50Z</time>
      </trkpt>
      <trkpt lat="44.60768" lon="2.0326">
        <ele>195.28</ele>
        <time>2026-05-16T13:45:14Z</time>
      </trkpt>
      <trkpt lat="44.60779" lon="2.03263">
        <ele>194.8</ele>
        <time>2026-05-16T13:45:41Z</time>
      </trkpt>
      <trkpt lat="44.60791" lon="2.03274">
        <ele>194.32</ele>
        <time>2026-05-16T13:46:09Z</time>
      </trkpt>
      <trkpt lat="44.60781" lon="2.03258">
        <ele>193.36</ele>
        <time>2026-05-16T13:46:35Z</time>
      </trkpt>
      <trkpt lat="44.60784" lon="2.03252">
        <ele>193.36</ele>
        <time>2026-05-16T13:46:59Z</time>
      </trkpt>
      <trkpt lat="44.6079" lon="2.03262">
        <ele>193.36</ele>
        <time>2026-05-16T13:47:41Z</time>
      </trkpt>
      <trkpt lat="44.60791" lon="2.03271">
        <ele>192.88</ele>
        <time>2026-05-16T13:48:05Z</time>
      </trkpt>
      <trkpt lat="44.60782" lon="2.03263">
        <ele>192.4</ele>
        <time>2026-05-16T13:48:29Z</time>
      </trkpt>
      <trkpt lat="44.60785" lon="2.03261">
        <ele>191.92</ele>
        <time>2026-05-16T13:48:55Z</time>
      </trkpt>
      <trkpt lat="44.60782" lon="2.03255">
        <ele>190.96</ele>
        <time>2026-05-16T13:49:18Z</time>
      </trkpt>
      <trkpt lat="44.60789" lon="2.03255">
        <ele>190.96</ele>
        <time>2026-05-16T13:49:44Z</time>
      </trkpt>
      <trkpt lat="44.60793" lon="2.03253">
        <ele>190.96</ele>
        <time>2026-05-16T13:50:14Z</time>
      </trkpt>
      <trkpt lat="44.60781" lon="2.03248">
        <ele>190.96</ele>
        <time>2026-05-16T13:50:40Z</time>
      </trkpt>
      <trkpt lat="44.60786" lon="2.03257">
        <ele>190.48</ele>
        <time>2026-05-16T13:51:07Z</time>
      </trkpt>
      <trkpt lat="44.6078" lon="2.03249">
        <ele>190.48</ele>
        <time>2026-05-16T13:51:33Z</time>
      </trkpt>
      <trkpt lat="44.6078" lon="2.03252">
        <ele>190.48</ele>
        <time>2026-05-16T13:51:34Z</time>
      </trkpt>
      <trkpt lat="44.6078" lon="2.03253">
        <ele>190.48</ele>
        <time>2026-05-16T13:51:35Z</time>
      </trkpt>
      <trkpt lat="44.60776" lon="2.03274">
        <ele>192.4</ele>
        <time>2026-05-16T13:51:50Z</time>
      </trkpt>
      <trkpt lat="44.60771" lon="2.03304">
        <ele>192.4</ele>
        <time>2026-05-16T13:52:05Z</time>
      </trkpt>
      <trkpt lat="44.60777" lon="2.03321">
        <ele>192.4</ele>
        <time>2026-05-16T13:52:13Z</time>
      </trkpt>
      <trkpt lat="44.60785" lon="2.03353">
        <ele>192.4</ele>
        <time>2026-05-16T13:52:28Z</time>
      </trkpt>
      <trkpt lat="44.60774" lon="2.0337">
        <ele>192.4</ele>
        <time>2026-05-16T13:52:42Z</time>
      </trkpt>
      <trkpt lat="44.60773" lon="2.0337">
        <ele>192.4</ele>
        <time>2026-05-16T13:52:43Z</time>
      </trkpt>
      <trkpt lat="44.60765" lon="2.0337">
        <ele>190.96</ele>
        <time>2026-05-16T13:52:48Z</time>
      </trkpt>
      <trkpt lat="44.60757" lon="2.03372">
        <ele>189.52</ele>
        <time>2026-05-16T13:52:59Z</time>
      </trkpt>
      <trkpt lat="44.60757" lon="2.03373">
        <ele>193.36</ele>
        <time>2026-05-16T13:53:00Z</time>
      </trkpt>
      <trkpt lat="44.60756" lon="2.03375">
        <ele>193.36</ele>
        <time>2026-05-16T13:53:01Z</time>
      </trkpt>
      <trkpt lat="44.60755" lon="2.03377">
        <ele>191.92</ele>
        <time>2026-05-16T13:53:02Z</time>
      </trkpt>
      <trkpt lat="44.60753" lon="2.03384">
        <ele>190</ele>
        <time>2026-05-16T13:53:06Z</time>
      </trkpt>
      <trkpt lat="44.60753" lon="2.03386">
        <ele>191.44</ele>
        <time>2026-05-16T13:53:07Z</time>
      </trkpt>
      <trkpt lat="44.60749" lon="2.034">
        <ele>188.08</ele>
        <time>2026-05-16T13:53:15Z</time>
      </trkpt>
      <trkpt lat="44.60748" lon="2.03402">
        <ele>192.4</ele>
        <time>2026-05-16T13:53:16Z</time>
      </trkpt>
      <trkpt lat="44.60747" lon="2.03407">
        <ele>190.96</ele>
        <time>2026-05-16T13:53:19Z</time>
      </trkpt>
      <trkpt lat="44.60742" lon="2.03371">
        <ele>189.52</ele>
        <time>2026-05-16T14:04:24Z</time>
      </trkpt>
      <trkpt lat="44.60712" lon="2.03362">
        <ele>190.96</ele>
        <time>2026-05-16T14:04:42Z</time>
      </trkpt>
      <trkpt lat="44.60706" lon="2.0337">
        <ele>191.44</ele>
        <time>2026-05-16T14:04:54Z</time>
      </trkpt>
      <trkpt lat="44.60701" lon="2.03379">
        <ele>191.44</ele>
        <time>2026-05-16T14:05:13Z</time>
      </trkpt>
      <trkpt lat="44.60702" lon="2.03371">
        <ele>191.44</ele>
        <time>2026-05-16T14:05:17Z</time>
      </trkpt>
      <trkpt lat="44.60708" lon="2.03343">
        <ele>191.44</ele>
        <time>2026-05-16T14:05:33Z</time>
      </trkpt>
      <trkpt lat="44.60713" lon="2.03331">
        <ele>191.44</ele>
        <time>2026-05-16T14:05:39Z</time>
      </trkpt>
      <trkpt lat="44.60716" lon="2.03306">
        <ele>191.92</ele>
        <time>2026-05-16T14:05:56Z</time>
      </trkpt>
      <trkpt lat="44.60715" lon="2.03307">
        <ele>191.92</ele>
        <time>2026-05-16T14:06:21Z</time>
      </trkpt>
      <trkpt lat="44.60721" lon="2.03288">
        <ele>191.92</ele>
        <time>2026-05-16T14:06:44Z</time>
      </trkpt>
      <trkpt lat="44.60721" lon="2.03275">
        <ele>192.4</ele>
        <time>2026-05-16T14:07:09Z</time>
      </trkpt>
      <trkpt lat="44.60721" lon="2.03274">
        <ele>192.4</ele>
        <time>2026-05-16T14:07:10Z</time>
      </trkpt>
      <trkpt lat="44.60712" lon="2.03266">
        <ele>192.4</ele>
        <time>2026-05-16T14:07:16Z</time>
      </trkpt>
      <trkpt lat="44.60719" lon="2.03266">
        <ele>191.44</ele>
        <time>2026-05-16T14:07:28Z</time>
      </trkpt>
      <trkpt lat="44.60719" lon="2.03253">
        <ele>191.44</ele>
        <time>2026-05-16T14:07:49Z</time>
      </trkpt>
      <trkpt lat="44.60723" lon="2.0321">
        <ele>191.92</ele>
        <time>2026-05-16T14:08:03Z</time>
      </trkpt>
      <trkpt lat="44.60723" lon="2.03205">
        <ele>191.92</ele>
        <time>2026-05-16T14:08:05Z</time>
      </trkpt>
      <trkpt lat="44.60723" lon="2.03196">
        <ele>192.88</ele>
        <time>2026-05-16T14:08:09Z</time>
      </trkpt>
      <trkpt lat="44.60727" lon="2.03182">
        <ele>193.36</ele>
        <time>2026-05-16T14:08:21Z</time>
      </trkpt>
      <trkpt lat="44.60729" lon="2.0318">
        <ele>193.36</ele>
        <time>2026-05-16T14:08:22Z</time>
      </trkpt>
      <trkpt lat="44.60739" lon="2.0316">
        <ele>193.36</ele>
        <time>2026-05-16T14:08:36Z</time>
      </trkpt>
      <trkpt lat="44.60742" lon="2.0313">
        <ele>193.84</ele>
        <time>2026-05-16T14:08:50Z</time>
      </trkpt>
      <trkpt lat="44.60743" lon="2.03109">
        <ele>193.84</ele>
        <time>2026-05-16T14:09:03Z</time>
      </trkpt>
      <trkpt lat="44.60741" lon="2.03109">
        <ele>193.84</ele>
        <time>2026-05-16T14:09:04Z</time>
      </trkpt>
      <trkpt lat="44.60737" lon="2.03107">
        <ele>191.92</ele>
        <time>2026-05-16T14:09:06Z</time>
      </trkpt>
      <trkpt lat="44.60733" lon="2.03104">
        <ele>191.44</ele>
        <time>2026-05-16T14:09:07Z</time>
      </trkpt>
      <trkpt lat="44.60731" lon="2.03103">
        <ele>196.25</ele>
        <time>2026-05-16T14:09:08Z</time>
      </trkpt>
      <trkpt lat="44.60729" lon="2.03102">
        <ele>194.8</ele>
        <time>2026-05-16T14:09:09Z</time>
      </trkpt>
      <trkpt lat="44.60707" lon="2.03094">
        <ele>194.32</ele>
        <time>2026-05-16T14:09:28Z</time>
      </trkpt>
      <trkpt lat="44.607" lon="2.03094">
        <ele>193.36</ele>
        <time>2026-05-16T14:09:34Z</time>
      </trkpt>
      <trkpt lat="44.60698" lon="2.03095">
        <ele>193.36</ele>
        <time>2026-05-16T14:09:35Z</time>
      </trkpt>
      <trkpt lat="44.60697" lon="2.03096">
        <ele>193.36</ele>
        <time>2026-05-16T14:09:36Z</time>
      </trkpt>
      <trkpt lat="44.60695" lon="2.03097">
        <ele>193.36</ele>
        <time>2026-05-16T14:09:37Z</time>
      </trkpt>
      <trkpt lat="44.60694" lon="2.03098">
        <ele>193.36</ele>
        <time>2026-05-16T14:09:38Z</time>
      </trkpt>
      <trkpt lat="44.60693" lon="2.03101">
        <ele>193.36</ele>
        <time>2026-05-16T14:09:39Z</time>
      </trkpt>
      <trkpt lat="44.60692" lon="2.03103">
        <ele>193.36</ele>
        <time>2026-05-16T14:09:40Z</time>
      </trkpt>
      <trkpt lat="44.60691" lon="2.03105">
        <ele>193.36</ele>
        <time>2026-05-16T14:09:41Z</time>
      </trkpt>
      <trkpt lat="44.60691" lon="2.03115">
        <ele>192.88</ele>
        <time>2026-05-16T14:09:53Z</time>
      </trkpt>
      <trkpt lat="44.60691" lon="2.03112">
        <ele>194.32</ele>
        <time>2026-05-16T14:10:01Z</time>
      </trkpt>
      <trkpt lat="44.60691" lon="2.0311">
        <ele>194.32</ele>
        <time>2026-05-16T14:10:02Z</time>
      </trkpt>
      <trkpt lat="44.60691" lon="2.03108">
        <ele>194.32</ele>
        <time>2026-05-16T14:10:03Z</time>
      </trkpt>
      <trkpt lat="44.60691" lon="2.03106">
        <ele>194.32</ele>
        <time>2026-05-16T14:10:04Z</time>
      </trkpt>
      <trkpt lat="44.60691" lon="2.03104">
        <ele>194.32</ele>
        <time>2026-05-16T14:10:05Z</time>
      </trkpt>
      <trkpt lat="44.60684" lon="2.03094">
        <ele>194.32</ele>
        <time>2026-05-16T14:10:16Z</time>
      </trkpt>
      <trkpt lat="44.60684" lon="2.03095">
        <ele>194.32</ele>
        <time>2026-05-16T14:10:17Z</time>
      </trkpt>
      <trkpt lat="44.60684" lon="2.03097">
        <ele>194.32</ele>
        <time>2026-05-16T14:10:18Z</time>
      </trkpt>
      <trkpt lat="44.60684" lon="2.03099">
        <ele>194.32</ele>
        <time>2026-05-16T14:10:19Z</time>
      </trkpt>
      <trkpt lat="44.60684" lon="2.03101">
        <ele>194.32</ele>
        <time>2026-05-16T14:10:20Z</time>
      </trkpt>
      <trkpt lat="44.60684" lon="2.03106">
        <ele>194.32</ele>
        <time>2026-05-16T14:10:23Z</time>
      </trkpt>
      <trkpt lat="44.60675" lon="2.03119">
        <ele>194.32</ele>
        <time>2026-05-16T14:10:35Z</time>
      </trkpt>
      <trkpt lat="44.60651" lon="2.03116">
        <ele>194.8</ele>
        <time>2026-05-16T14:10:51Z</time>
      </trkpt>
      <trkpt lat="44.60635" lon="2.0311">
        <ele>196.25</ele>
        <time>2026-05-16T14:11:05Z</time>
      </trkpt>
      <trkpt lat="44.60624" lon="2.03102">
        <ele>197.21</ele>
        <time>2026-05-16T14:11:15Z</time>
      </trkpt>
      <trkpt lat="44.60622" lon="2.031">
        <ele>197.21</ele>
        <time>2026-05-16T14:11:17Z</time>
      </trkpt>
      <trkpt lat="44.60608" lon="2.03084">
        <ele>198.65</ele>
        <time>2026-05-16T14:11:33Z</time>
      </trkpt>
      <trkpt lat="44.60607" lon="2.03082">
        <ele>199.13</ele>
        <time>2026-05-16T14:11:35Z</time>
      </trkpt>
      <trkpt lat="44.60606" lon="2.0308">
        <ele>199.13</ele>
        <time>2026-05-16T14:11:36Z</time>
      </trkpt>
      <trkpt lat="44.60605" lon="2.03079">
        <ele>199.13</ele>
        <time>2026-05-16T14:11:37Z</time>
      </trkpt>
      <trkpt lat="44.606" lon="2.03054">
        <ele>200.09</ele>
        <time>2026-05-16T14:11:53Z</time>
      </trkpt>
      <trkpt lat="44.60601" lon="2.03018">
        <ele>200.57</ele>
        <time>2026-05-16T14:12:10Z</time>
      </trkpt>
      <trkpt lat="44.60599" lon="2.02994">
        <ele>201.05</ele>
        <time>2026-05-16T14:12:26Z</time>
      </trkpt>
      <trkpt lat="44.60598" lon="2.02992">
        <ele>201.05</ele>
        <time>2026-05-16T14:12:27Z</time>
      </trkpt>
      <trkpt lat="44.60597" lon="2.02991">
        <ele>201.05</ele>
        <time>2026-05-16T14:12:28Z</time>
      </trkpt>
      <trkpt lat="44.60596" lon="2.0299">
        <ele>201.05</ele>
        <time>2026-05-16T14:12:29Z</time>
      </trkpt>
      <trkpt lat="44.60595" lon="2.0299">
        <ele>201.05</ele>
        <time>2026-05-16T14:12:30Z</time>
      </trkpt>
      <trkpt lat="44.60593" lon="2.02989">
        <ele>201.53</ele>
        <time>2026-05-16T14:12:31Z</time>
      </trkpt>
      <trkpt lat="44.60591" lon="2.02989">
        <ele>201.53</ele>
        <time>2026-05-16T14:12:32Z</time>
      </trkpt>
      <trkpt lat="44.60589" lon="2.02988">
        <ele>201.53</ele>
        <time>2026-05-16T14:12:33Z</time>
      </trkpt>
      <trkpt lat="44.60588" lon="2.02988">
        <ele>201.53</ele>
        <time>2026-05-16T14:12:34Z</time>
      </trkpt>
      <trkpt lat="44.60575" lon="2.02977">
        <ele>202.01</ele>
        <time>2026-05-16T14:12:44Z</time>
      </trkpt>
      <trkpt lat="44.60574" lon="2.02975">
        <ele>202.01</ele>
        <time>2026-05-16T14:12:45Z</time>
      </trkpt>
      <trkpt lat="44.60574" lon="2.02973">
        <ele>202.01</ele>
        <time>2026-05-16T14:12:46Z</time>
      </trkpt>
      <trkpt lat="44.60575" lon="2.02938">
        <ele>202.98</ele>
        <time>2026-05-16T14:13:03Z</time>
      </trkpt>
      <trkpt lat="44.60576" lon="2.02916">
        <ele>203.94</ele>
        <time>2026-05-16T14:13:19Z</time>
      </trkpt>
      <trkpt lat="44.60576" lon="2.02914">
        <ele>203.94</ele>
        <time>2026-05-16T14:13:20Z</time>
      </trkpt>
      <trkpt lat="44.60576" lon="2.02912">
        <ele>203.94</ele>
        <time>2026-05-16T14:13:21Z</time>
      </trkpt>
      <trkpt lat="44.60576" lon="2.02877">
        <ele>203.46</ele>
        <time>2026-05-16T14:13:37Z</time>
      </trkpt>
      <trkpt lat="44.60576" lon="2.02854">
        <ele>203.94</ele>
        <time>2026-05-16T14:13:52Z</time>
      </trkpt>
      <trkpt lat="44.60576" lon="2.02826">
        <ele>204.9</ele>
        <time>2026-05-16T14:14:05Z</time>
      </trkpt>
      <trkpt lat="44.60577" lon="2.02823">
        <ele>204.9</ele>
        <time>2026-05-16T14:14:06Z</time>
      </trkpt>
      <trkpt lat="44.60577" lon="2.02821">
        <ele>204.9</ele>
        <time>2026-05-16T14:14:07Z</time>
      </trkpt>
      <trkpt lat="44.60577" lon="2.0279">
        <ele>204.9</ele>
        <time>2026-05-16T14:14:24Z</time>
      </trkpt>
      <trkpt lat="44.60574" lon="2.02762">
        <ele>205.38</ele>
        <time>2026-05-16T14:14:39Z</time>
      </trkpt>
      <trkpt lat="44.60572" lon="2.02727">
        <ele>204.42</ele>
        <time>2026-05-16T14:14:55Z</time>
      </trkpt>
      <trkpt lat="44.60571" lon="2.02724">
        <ele>204.42</ele>
        <time>2026-05-16T14:14:59Z</time>
      </trkpt>
      <trkpt lat="44.60572" lon="2.02726">
        <ele>204.42</ele>
        <time>2026-05-16T14:15:00Z</time>
      </trkpt>
      <trkpt lat="44.60571" lon="2.02728">
        <ele>204.42</ele>
        <time>2026-05-16T14:15:01Z</time>
      </trkpt>
      <trkpt lat="44.60571" lon="2.02732">
        <ele>204.42</ele>
        <time>2026-05-16T14:15:03Z</time>
      </trkpt>
      <trkpt lat="44.60572" lon="2.02733">
        <ele>204.42</ele>
        <time>2026-05-16T14:15:04Z</time>
      </trkpt>
      <trkpt lat="44.60572" lon="2.02735">
        <ele>204.42</ele>
        <time>2026-05-16T14:15:05Z</time>
      </trkpt>
      <trkpt lat="44.60572" lon="2.02736">
        <ele>204.42</ele>
        <time>2026-05-16T14:15:06Z</time>
      </trkpt>
      <trkpt lat="44.60574" lon="2.02771">
        <ele>204.9</ele>
        <time>2026-05-16T14:15:25Z</time>
      </trkpt>
      <trkpt lat="44.60573" lon="2.028">
        <ele>203.46</ele>
        <time>2026-05-16T14:15:41Z</time>
      </trkpt>
      <trkpt lat="44.60573" lon="2.02803">
        <ele>204.9</ele>
        <time>2026-05-16T14:15:43Z</time>
      </trkpt>
      <trkpt lat="44.60574" lon="2.02834">
        <ele>204.9</ele>
        <time>2026-05-16T14:15:59Z</time>
      </trkpt>
      <trkpt lat="44.60572" lon="2.02833">
        <ele>203.46</ele>
        <time>2026-05-16T14:16:03Z</time>
      </trkpt>
      <trkpt lat="44.60571" lon="2.02824">
        <ele>206.34</ele>
        <time>2026-05-16T14:16:10Z</time>
      </trkpt>
      <trkpt lat="44.6057" lon="2.0282">
        <ele>206.34</ele>
        <time>2026-05-16T14:16:12Z</time>
      </trkpt>
      <trkpt lat="44.60568" lon="2.02804">
        <ele>207.3</ele>
        <time>2026-05-16T14:16:22Z</time>
      </trkpt>
      <trkpt lat="44.60568" lon="2.02802">
        <ele>207.3</ele>
        <time>2026-05-16T14:16:23Z</time>
      </trkpt>
      <trkpt lat="44.60568" lon="2.028">
        <ele>207.3</ele>
        <time>2026-05-16T14:16:24Z</time>
      </trkpt>
      <trkpt lat="44.60568" lon="2.02798">
        <ele>207.3</ele>
        <time>2026-05-16T14:16:25Z</time>
      </trkpt>
      <trkpt lat="44.60568" lon="2.02796">
        <ele>207.3</ele>
        <time>2026-05-16T14:16:26Z</time>
      </trkpt>
      <trkpt lat="44.60567" lon="2.02794">
        <ele>207.3</ele>
        <time>2026-05-16T14:16:27Z</time>
      </trkpt>
      <trkpt lat="44.60566" lon="2.02793">
        <ele>207.3</ele>
        <time>2026-05-16T14:16:28Z</time>
      </trkpt>
      <trkpt lat="44.60562" lon="2.02792">
        <ele>207.78</ele>
        <time>2026-05-16T14:16:32Z</time>
      </trkpt>
      <trkpt lat="44.60549" lon="2.02787">
        <ele>209.7</ele>
        <time>2026-05-16T14:16:41Z</time>
      </trkpt>
      <trkpt lat="44.60547" lon="2.02787">
        <ele>209.7</ele>
        <time>2026-05-16T14:16:42Z</time>
      </trkpt>
      <trkpt lat="44.60542" lon="2.02791">
        <ele>211.15</ele>
        <time>2026-05-16T14:16:51Z</time>
      </trkpt>
      <trkpt lat="44.60541" lon="2.02791">
        <ele>211.63</ele>
        <time>2026-05-16T14:16:52Z</time>
      </trkpt>
      <trkpt lat="44.6054" lon="2.0279">
        <ele>211.63</ele>
        <time>2026-05-16T14:16:53Z</time>
      </trkpt>
      <trkpt lat="44.60535" lon="2.02784">
        <ele>213.07</ele>
        <time>2026-05-16T14:17:02Z</time>
      </trkpt>
      <trkpt lat="44.60535" lon="2.02782">
        <ele>213.07</ele>
        <time>2026-05-16T14:17:03Z</time>
      </trkpt>
      <trkpt lat="44.60533" lon="2.0277">
        <ele>214.99</ele>
        <time>2026-05-16T14:17:15Z</time>
      </trkpt>
      <trkpt lat="44.60532" lon="2.02766">
        <ele>214.99</ele>
        <time>2026-05-16T14:17:17Z</time>
      </trkpt>
      <trkpt lat="44.60528" lon="2.02743">
        <ele>217.4</ele>
        <time>2026-05-16T14:17:31Z</time>
      </trkpt>
      <trkpt lat="44.60527" lon="2.0274">
        <ele>218.36</ele>
        <time>2026-05-16T14:17:35Z</time>
      </trkpt>
      <trkpt lat="44.60526" lon="2.02739">
        <ele>218.84</ele>
        <time>2026-05-16T14:17:36Z</time>
      </trkpt>
      <trkpt lat="44.60526" lon="2.02737">
        <ele>218.84</ele>
        <time>2026-05-16T14:17:37Z</time>
      </trkpt>
      <trkpt lat="44.60522" lon="2.02728">
        <ele>220.76</ele>
        <time>2026-05-16T14:17:47Z</time>
      </trkpt>
      <trkpt lat="44.6052" lon="2.02719">
        <ele>223.16</ele>
        <time>2026-05-16T14:17:58Z</time>
      </trkpt>
      <trkpt lat="44.60517" lon="2.02707">
        <ele>225.57</ele>
        <time>2026-05-16T14:18:11Z</time>
      </trkpt>
      <trkpt lat="44.60513" lon="2.02693">
        <ele>228.45</ele>
        <time>2026-05-16T14:18:24Z</time>
      </trkpt>
      <trkpt lat="44.60511" lon="2.02676">
        <ele>231.33</ele>
        <time>2026-05-16T14:18:38Z</time>
      </trkpt>
      <trkpt lat="44.60511" lon="2.02663">
        <ele>231.81</ele>
        <time>2026-05-16T14:18:51Z</time>
      </trkpt>
      <trkpt lat="44.60503" lon="2.02649">
        <ele>232.3</ele>
        <time>2026-05-16T14:19:26Z</time>
      </trkpt>
      <trkpt lat="44.60499" lon="2.0263">
        <ele>234.22</ele>
        <time>2026-05-16T14:19:41Z</time>
      </trkpt>
      <trkpt lat="44.60498" lon="2.0261">
        <ele>236.14</ele>
        <time>2026-05-16T14:19:56Z</time>
      </trkpt>
      <trkpt lat="44.60496" lon="2.02584">
        <ele>239.02</ele>
        <time>2026-05-16T14:20:12Z</time>
      </trkpt>
      <trkpt lat="44.60492" lon="2.02567">
        <ele>240.47</ele>
        <time>2026-05-16T14:20:25Z</time>
      </trkpt>
      <trkpt lat="44.60487" lon="2.0255">
        <ele>242.87</ele>
        <time>2026-05-16T14:20:39Z</time>
      </trkpt>
      <trkpt lat="44.60482" lon="2.02532">
        <ele>245.27</ele>
        <time>2026-05-16T14:20:54Z</time>
      </trkpt>
      <trkpt lat="44.60476" lon="2.02518">
        <ele>248.16</ele>
        <time>2026-05-16T14:21:08Z</time>
      </trkpt>
      <trkpt lat="44.60472" lon="2.02512">
        <ele>249.6</ele>
        <time>2026-05-16T14:21:15Z</time>
      </trkpt>
      <trkpt lat="44.60465" lon="2.02507">
        <ele>251.04</ele>
        <time>2026-05-16T14:21:22Z</time>
      </trkpt>
      <trkpt lat="44.60464" lon="2.02506">
        <ele>251.04</ele>
        <time>2026-05-16T14:21:23Z</time>
      </trkpt>
      <trkpt lat="44.60455" lon="2.02505">
        <ele>252.96</ele>
        <time>2026-05-16T14:21:35Z</time>
      </trkpt>
      <trkpt lat="44.60443" lon="2.02504">
        <ele>256.33</ele>
        <time>2026-05-16T14:21:47Z</time>
      </trkpt>
      <trkpt lat="44.60434" lon="2.02503">
        <ele>259.21</ele>
        <time>2026-05-16T14:21:59Z</time>
      </trkpt>
      <trkpt lat="44.60428" lon="2.02493">
        <ele>260.17</ele>
        <time>2026-05-16T14:22:13Z</time>
      </trkpt>
      <trkpt lat="44.60419" lon="2.02477">
        <ele>262.58</ele>
        <time>2026-05-16T14:22:27Z</time>
      </trkpt>
      <trkpt lat="44.60418" lon="2.02475">
        <ele>262.58</ele>
        <time>2026-05-16T14:22:28Z</time>
      </trkpt>
      <trkpt lat="44.60406" lon="2.02457">
        <ele>262.58</ele>
        <time>2026-05-16T14:22:38Z</time>
      </trkpt>
      <trkpt lat="44.60406" lon="2.02454">
        <ele>262.58</ele>
        <time>2026-05-16T14:22:40Z</time>
      </trkpt>
      <trkpt lat="44.60403" lon="2.02435">
        <ele>264.02</ele>
        <time>2026-05-16T14:22:55Z</time>
      </trkpt>
      <trkpt lat="44.604" lon="2.0241">
        <ele>264.5</ele>
        <time>2026-05-16T14:23:09Z</time>
      </trkpt>
      <trkpt lat="44.60397" lon="2.0238">
        <ele>264.98</ele>
        <time>2026-05-16T14:23:26Z</time>
      </trkpt>
      <trkpt lat="44.60391" lon="2.02359">
        <ele>266.9</ele>
        <time>2026-05-16T14:23:41Z</time>
      </trkpt>
      <trkpt lat="44.60377" lon="2.02331">
        <ele>269.31</ele>
        <time>2026-05-16T14:23:59Z</time>
      </trkpt>
      <trkpt lat="44.60366" lon="2.02313">
        <ele>271.71</ele>
        <time>2026-05-16T14:24:12Z</time>
      </trkpt>
      <trkpt lat="44.60362" lon="2.02307">
        <ele>272.19</ele>
        <time>2026-05-16T14:24:16Z</time>
      </trkpt>
      <trkpt lat="44.60357" lon="2.02295">
        <ele>275.56</ele>
        <time>2026-05-16T14:24:29Z</time>
      </trkpt>
      <trkpt lat="44.60356" lon="2.02294">
        <ele>275.56</ele>
        <time>2026-05-16T14:24:30Z</time>
      </trkpt>
      <trkpt lat="44.60355" lon="2.02291">
        <ele>275.56</ele>
        <time>2026-05-16T14:24:32Z</time>
      </trkpt>
      <trkpt lat="44.60347" lon="2.02277">
        <ele>278.44</ele>
        <time>2026-05-16T14:24:45Z</time>
      </trkpt>
      <trkpt lat="44.60346" lon="2.02276">
        <ele>278.92</ele>
        <time>2026-05-16T14:24:47Z</time>
      </trkpt>
      <trkpt lat="44.60345" lon="2.02274">
        <ele>279.4</ele>
        <time>2026-05-16T14:24:48Z</time>
      </trkpt>
      <trkpt lat="44.60344" lon="2.02273">
        <ele>279.4</ele>
        <time>2026-05-16T14:24:49Z</time>
      </trkpt>
      <trkpt lat="44.60333" lon="2.02262">
        <ele>282.28</ele>
        <time>2026-05-16T14:25:02Z</time>
      </trkpt>
      <trkpt lat="44.60327" lon="2.02265">
        <ele>283.73</ele>
        <time>2026-05-16T14:25:07Z</time>
      </trkpt>
      <trkpt lat="44.60328" lon="2.02276">
        <ele>285.65</ele>
        <time>2026-05-16T14:25:20Z</time>
      </trkpt>
      <trkpt lat="44.6033" lon="2.02289">
        <ele>288.05</ele>
        <time>2026-05-16T14:25:33Z</time>
      </trkpt>
      <trkpt lat="44.60332" lon="2.02303">
        <ele>291.42</ele>
        <time>2026-05-16T14:25:47Z</time>
      </trkpt>
      <trkpt lat="44.60335" lon="2.02323">
        <ele>293.34</ele>
        <time>2026-05-16T14:26:01Z</time>
      </trkpt>
      <trkpt lat="44.60337" lon="2.02343">
        <ele>296.7</ele>
        <time>2026-05-16T14:26:15Z</time>
      </trkpt>
      <trkpt lat="44.60338" lon="2.02357">
        <ele>297.67</ele>
        <time>2026-05-16T14:26:25Z</time>
      </trkpt>
      <trkpt lat="44.60338" lon="2.0236">
        <ele>298.63</ele>
        <time>2026-05-16T14:26:26Z</time>
      </trkpt>
      <trkpt lat="44.60338" lon="2.02362">
        <ele>298.63</ele>
        <time>2026-05-16T14:26:27Z</time>
      </trkpt>
      <trkpt lat="44.60336" lon="2.02376">
        <ele>300.07</ele>
        <time>2026-05-16T14:26:38Z</time>
      </trkpt>
      <trkpt lat="44.60334" lon="2.02392">
        <ele>302.47</ele>
        <time>2026-05-16T14:26:50Z</time>
      </trkpt>
      <trkpt lat="44.60334" lon="2.02394">
        <ele>302.47</ele>
        <time>2026-05-16T14:26:51Z</time>
      </trkpt>
      <trkpt lat="44.60334" lon="2.02395">
        <ele>302.95</ele>
        <time>2026-05-16T14:26:52Z</time>
      </trkpt>
      <trkpt lat="44.60333" lon="2.02397">
        <ele>302.95</ele>
        <time>2026-05-16T14:26:53Z</time>
      </trkpt>
      <trkpt lat="44.6033" lon="2.02403">
        <ele>304.39</ele>
        <time>2026-05-16T14:27:00Z</time>
      </trkpt>
      <trkpt lat="44.60329" lon="2.0241">
        <ele>305.36</ele>
        <time>2026-05-16T14:27:07Z</time>
      </trkpt>
      <trkpt lat="44.60326" lon="2.02435">
        <ele>307.76</ele>
        <time>2026-05-16T14:27:21Z</time>
      </trkpt>
      <trkpt lat="44.60326" lon="2.02438">
        <ele>307.28</ele>
        <time>2026-05-16T14:27:23Z</time>
      </trkpt>
      <trkpt lat="44.60326" lon="2.02442">
        <ele>307.76</ele>
        <time>2026-05-16T14:27:25Z</time>
      </trkpt>
      <trkpt lat="44.60325" lon="2.02453">
        <ele>308.72</ele>
        <time>2026-05-16T14:27:35Z</time>
      </trkpt>
      <trkpt lat="44.60324" lon="2.02454">
        <ele>308.72</ele>
        <time>2026-05-16T14:27:36Z</time>
      </trkpt>
      <trkpt lat="44.60321" lon="2.02459">
        <ele>308.72</ele>
        <time>2026-05-16T14:27:40Z</time>
      </trkpt>
      <trkpt lat="44.6032" lon="2.0246">
        <ele>308.72</ele>
        <time>2026-05-16T14:27:41Z</time>
      </trkpt>
      <trkpt lat="44.60313" lon="2.02464">
        <ele>308.72</ele>
        <time>2026-05-16T14:27:48Z</time>
      </trkpt>
      <trkpt lat="44.60312" lon="2.02465">
        <ele>308.72</ele>
        <time>2026-05-16T14:27:49Z</time>
      </trkpt>
      <trkpt lat="44.60311" lon="2.02467">
        <ele>308.72</ele>
        <time>2026-05-16T14:27:50Z</time>
      </trkpt>
      <trkpt lat="44.60309" lon="2.02469">
        <ele>308.72</ele>
        <time>2026-05-16T14:27:51Z</time>
      </trkpt>
      <trkpt lat="44.60308" lon="2.02471">
        <ele>308.72</ele>
        <time>2026-05-16T14:27:52Z</time>
      </trkpt>
      <trkpt lat="44.60307" lon="2.02472">
        <ele>308.72</ele>
        <time>2026-05-16T14:27:53Z</time>
      </trkpt>
      <trkpt lat="44.60301" lon="2.02483">
        <ele>308.72</ele>
        <time>2026-05-16T14:28:02Z</time>
      </trkpt>
      <trkpt lat="44.60302" lon="2.02485">
        <ele>308.72</ele>
        <time>2026-05-16T14:28:03Z</time>
      </trkpt>
      <trkpt lat="44.60303" lon="2.02487">
        <ele>308.72</ele>
        <time>2026-05-16T14:28:04Z</time>
      </trkpt>
      <trkpt lat="44.60315" lon="2.02516">
        <ele>311.12</ele>
        <time>2026-05-16T14:28:22Z</time>
      </trkpt>
      <trkpt lat="44.60324" lon="2.02535">
        <ele>313.05</ele>
        <time>2026-05-16T14:28:35Z</time>
      </trkpt>
      <trkpt lat="44.60335" lon="2.02558">
        <ele>314.97</ele>
        <time>2026-05-16T14:28:51Z</time>
      </trkpt>
      <trkpt lat="44.60342" lon="2.02578">
        <ele>315.45</ele>
        <time>2026-05-16T14:29:05Z</time>
      </trkpt>
      <trkpt lat="44.60339" lon="2.02599">
        <ele>316.89</ele>
        <time>2026-05-16T14:29:20Z</time>
      </trkpt>
      <trkpt lat="44.60329" lon="2.02618">
        <ele>317.85</ele>
        <time>2026-05-16T14:29:34Z</time>
      </trkpt>
      <trkpt lat="44.60323" lon="2.02636">
        <ele>317.85</ele>
        <time>2026-05-16T14:29:45Z</time>
      </trkpt>
      <trkpt lat="44.60322" lon="2.02638">
        <ele>317.85</ele>
        <time>2026-05-16T14:29:46Z</time>
      </trkpt>
      <trkpt lat="44.60323" lon="2.02648">
        <ele>318.33</ele>
        <time>2026-05-16T14:29:58Z</time>
      </trkpt>
      <trkpt lat="44.60321" lon="2.02646">
        <ele>318.33</ele>
        <time>2026-05-16T14:30:10Z</time>
      </trkpt>
      <trkpt lat="44.60318" lon="2.02648">
        <ele>318.33</ele>
        <time>2026-05-16T14:30:18Z</time>
      </trkpt>
      <trkpt lat="44.60305" lon="2.02649">
        <ele>319.3</ele>
        <time>2026-05-16T14:30:30Z</time>
      </trkpt>
      <trkpt lat="44.60304" lon="2.02649">
        <ele>319.3</ele>
        <time>2026-05-16T14:30:31Z</time>
      </trkpt>
      <trkpt lat="44.60299" lon="2.02647">
        <ele>319.3</ele>
        <time>2026-05-16T14:30:43Z</time>
      </trkpt>
    </trkseg>
  </trk>
</gpx>